<?xml version='1.0' encoding='UTF-8'?><gpx version="1.1" creator="JPX - https://github.com/jenetics/jpx" xmlns="http://www.topografix.com/GPX/1/1"><trk><trkseg><trkpt lat="44.799355223787806" lon="12.269450852325411"><ele>0.9999999999999999</ele><time>2026-04-26T16:33:53.001Z</time></trkpt><trkpt lat="44.799418407817925" lon="12.269329414233026"><ele>1.0</ele><time>2026-04-26T16:33:54.001Z</time></trkpt><trkpt lat="44.799470388670244" lon="12.269233033843342"><ele>1.0</ele><time>2026-04-26T16:33:55.001Z</time></trkpt><trkpt lat="44.799526184821545" lon="12.269120709708204"><ele>1.0</ele><time>2026-04-26T16:33:57Z</time></trkpt><trkpt lat="44.79958247981521" lon="12.269056496945872"><ele>0.9999999999999999</ele><time>2026-04-26T16:33:59Z</time></trkpt><trkpt lat="44.79964723613331" lon="12.269040883990545"><ele>1.0</ele><time>2026-04-26T16:34:02Z</time></trkpt><trkpt lat="44.799754021338444" lon="12.269046482804935"><ele>1.0</ele><time>2026-04-26T16:34:04Z</time></trkpt><trkpt lat="44.799835644569086" lon="12.269029764113734"><ele>1.0</ele><time>2026-04-26T16:34:05Z</time></trkpt><trkpt lat="44.79993380665289" lon="12.268978141559245"><ele>1.0</ele><time>2026-04-26T16:34:06Z</time></trkpt><trkpt lat="44.800030006072994" lon="12.26890054859748"><ele>1.0</ele><time>2026-04-26T16:34:07Z</time></trkpt><trkpt lat="44.800128934516565" lon="12.268810635512295"><ele>1.0</ele><time>2026-04-26T16:34:08Z</time></trkpt><trkpt lat="44.80021593228015" lon="12.268739499697089"><ele>1.5</ele><time>2026-04-26T16:34:09Z</time></trkpt><trkpt lat="44.80029563392577" lon="12.268684749448166"><ele>2.0</ele><time>2026-04-26T16:34:10Z</time></trkpt><trkpt lat="44.800368019291476" lon="12.268630977454274"><ele>2.5</ele><time>2026-04-26T16:34:11Z</time></trkpt><trkpt lat="44.80043702218414" lon="12.268577990876567"><ele>3.0</ele><time>2026-04-26T16:34:12Z</time></trkpt><trkpt lat="44.800497536934316" lon="12.268526058846081"><ele>3.4999999999999996</ele><time>2026-04-26T16:34:13Z</time></trkpt><trkpt lat="44.80055200515089" lon="12.268478949756993"><ele>4.0</ele><time>2026-04-26T16:34:14Z</time></trkpt><trkpt lat="44.80065048651327" lon="12.268399821513754"><ele>4.0</ele><time>2026-04-26T16:34:16Z</time></trkpt><trkpt lat="44.80070860021407" lon="12.268355671745482"><ele>3.9999999999999996</ele><time>2026-04-26T16:34:17Z</time></trkpt><trkpt lat="44.8007648878904" lon="12.268305954299073"><ele>4.0</ele><time>2026-04-26T16:34:18Z</time></trkpt><trkpt lat="44.80083044503331" lon="12.268262154962619"><ele>4.0</ele><time>2026-04-26T16:34:19Z</time></trkpt><trkpt lat="44.800894702399674" lon="12.268211366562609"><ele>3.9999999999999996</ele><time>2026-04-26T16:34:20Z</time></trkpt><trkpt lat="44.80096220526871" lon="12.268153859415696"><ele>4.0</ele><time>2026-04-26T16:34:21Z</time></trkpt><trkpt lat="44.801034831565964" lon="12.268095878645534"><ele>4.0</ele><time>2026-04-26T16:34:22Z</time></trkpt><trkpt lat="44.80110924511602" lon="12.268041278315176"><ele>3.8000000000000003</ele><time>2026-04-26T16:34:23Z</time></trkpt><trkpt lat="44.80118734434503" lon="12.267986097565847"><ele>3.6000000000000005</ele><time>2026-04-26T16:34:24Z</time></trkpt><trkpt lat="44.8012716472472" lon="12.267923247223312"><ele>3.4</ele><time>2026-04-26T16:34:25Z</time></trkpt><trkpt lat="44.80135007935421" lon="12.267856588259267"><ele>3.2</ele><time>2026-04-26T16:34:26Z</time></trkpt><trkpt lat="44.801437042508155" lon="12.26779074014634"><ele>3.0</ele><time>2026-04-26T16:34:27Z</time></trkpt><trkpt lat="44.801535007753486" lon="12.267727376652093"><ele>3.0</ele><time>2026-04-26T16:34:28Z</time></trkpt><trkpt lat="44.80163629596216" lon="12.267651040002836"><ele>3.0</ele><time>2026-04-26T16:34:29Z</time></trkpt><trkpt lat="44.80174736770666" lon="12.267574570138008"><ele>3.0</ele><time>2026-04-26T16:34:30Z</time></trkpt><trkpt lat="44.801861385331605" lon="12.267487295676261"><ele>3.0</ele><time>2026-04-26T16:34:31Z</time></trkpt><trkpt lat="44.80196229399191" lon="12.267405901643953"><ele>3.25</ele><time>2026-04-26T16:34:32Z</time></trkpt><trkpt lat="44.80206735479317" lon="12.267319635870654"><ele>3.5</ele><time>2026-04-26T16:34:33Z</time></trkpt><trkpt lat="44.80218250948404" lon="12.267236316763498"><ele>3.75</ele><time>2026-04-26T16:34:34Z</time></trkpt><trkpt lat="44.80230661161376" lon="12.267144826952066"><ele>4.0</ele><time>2026-04-26T16:34:35Z</time></trkpt><trkpt lat="44.80242610427539" lon="12.26705405272108"><ele>3.6</ele><time>2026-04-26T16:34:36Z</time></trkpt><trkpt lat="44.802523818781964" lon="12.266981263353284"><ele>3.2</ele><time>2026-04-26T16:34:37Z</time></trkpt><trkpt lat="44.80259759634407" lon="12.266913704006331"><ele>2.8000000000000003</ele><time>2026-04-26T16:34:38Z</time></trkpt><trkpt lat="44.80267032568394" lon="12.266843889535695"><ele>2.4000000000000004</ele><time>2026-04-26T16:34:39Z</time></trkpt><trkpt lat="44.80274835611026" lon="12.266800519085317"><ele>2.0</ele><time>2026-04-26T16:34:40Z</time></trkpt><trkpt lat="44.80282498213111" lon="12.266755808990702"><ele>1.8</ele><time>2026-04-26T16:34:41Z</time></trkpt><trkpt lat="44.802895873225474" lon="12.266685271240437"><ele>1.6</ele><time>2026-04-26T16:34:42Z</time></trkpt><trkpt lat="44.80297011342604" lon="12.26663034022048"><ele>1.4000000000000001</ele><time>2026-04-26T16:34:43Z</time></trkpt><trkpt lat="44.80305006474563" lon="12.266574226307107"><ele>1.2000000000000002</ele><time>2026-04-26T16:34:44Z</time></trkpt><trkpt lat="44.80312907747193" lon="12.266501818026665"><ele>1.0</ele><time>2026-04-26T16:34:45Z</time></trkpt><trkpt lat="44.80319347954438" lon="12.266393885289132"><ele>0.75</ele><time>2026-04-26T16:34:46Z</time></trkpt><trkpt lat="44.8032414190014" lon="12.266259962017251"><ele>0.5</ele><time>2026-04-26T16:34:47Z</time></trkpt><trkpt lat="44.8032713453639" lon="12.26609886733777"><ele>0.25</ele><time>2026-04-26T16:34:48Z</time></trkpt><trkpt lat="44.80329594863" lon="12.26592449787696"><ele>0.0</ele><time>2026-04-26T16:34:49Z</time></trkpt><trkpt lat="44.803320596219045" lon="12.265740453791793"><ele>0.0</ele><time>2026-04-26T16:34:50Z</time></trkpt><trkpt lat="44.80335134946823" lon="12.265550416022565"><ele>0.0</ele><time>2026-04-26T16:34:51Z</time></trkpt><trkpt lat="44.803385011444114" lon="12.265359633063069"><ele>0.0</ele><time>2026-04-26T16:34:52Z</time></trkpt><trkpt lat="44.803418145159064" lon="12.265177519128992"><ele>0.0</ele><time>2026-04-26T16:34:53Z</time></trkpt><trkpt lat="44.80344741426457" lon="12.265015767948757"><ele>0.0</ele><time>2026-04-26T16:34:54Z</time></trkpt><trkpt lat="44.803467662857464" lon="12.264864300067341"><ele>0.0</ele><time>2026-04-26T16:34:55Z</time></trkpt><trkpt lat="44.803480725755065" lon="12.264708002333562"><ele>0.0</ele><time>2026-04-26T16:34:56Z</time></trkpt><trkpt lat="44.803488761537565" lon="12.264541261086586"><ele>0.0</ele><time>2026-04-26T16:34:57Z</time></trkpt><trkpt lat="44.803477803270596" lon="12.264354911524695"><ele>0.0</ele><time>2026-04-26T16:34:58Z</time></trkpt><trkpt lat="44.80344728892502" lon="12.264144772066064"><ele>0.0</ele><time>2026-04-26T16:34:59Z</time></trkpt><trkpt lat="44.803402561439505" lon="12.263922714955925"><ele>0.0</ele><time>2026-04-26T16:35:00Z</time></trkpt><trkpt lat="44.80335547809284" lon="12.263692517882768"><ele>0.0</ele><time>2026-04-26T16:35:01Z</time></trkpt><trkpt lat="44.803308391003526" lon="12.263478511156942"><ele>0.0</ele><time>2026-04-26T16:35:02Z</time></trkpt><trkpt lat="44.803260676507975" lon="12.263266470416312"><ele>0.0</ele><time>2026-04-26T16:35:03Z</time></trkpt><trkpt lat="44.803215647214785" lon="12.263055975865438"><ele>0.0</ele><time>2026-04-26T16:35:04Z</time></trkpt><trkpt lat="44.803175630772124" lon="12.262843507981545"><ele>0.0</ele><time>2026-04-26T16:35:05Z</time></trkpt><trkpt lat="44.80313666271993" lon="12.262646853623398"><ele>0.0</ele><time>2026-04-26T16:35:06Z</time></trkpt><trkpt lat="44.803099183553385" lon="12.26247086854877"><ele>0.0</ele><time>2026-04-26T16:35:07Z</time></trkpt><trkpt lat="44.80306410004857" lon="12.26230901985208"><ele>0.0</ele><time>2026-04-26T16:35:08Z</time></trkpt><trkpt lat="44.803035398934206" lon="12.262155590411691"><ele>0.0</ele><time>2026-04-26T16:35:09Z</time></trkpt><trkpt lat="44.80301332421272" lon="12.262016124063035"><ele>0.0</ele><time>2026-04-26T16:35:10Z</time></trkpt><trkpt lat="44.802992694872756" lon="12.261877272185496"><ele>0.0</ele><time>2026-04-26T16:35:11Z</time></trkpt><trkpt lat="44.80297196003369" lon="12.26174085329295"><ele>0.0</ele><time>2026-04-26T16:35:12Z</time></trkpt><trkpt lat="44.802953931520975" lon="12.26160520413395"><ele>0.0</ele><time>2026-04-26T16:35:13Z</time></trkpt><trkpt lat="44.80292984474904" lon="12.261471728459053"><ele>0.0</ele><time>2026-04-26T16:35:13.999Z</time></trkpt><trkpt lat="44.80290160952899" lon="12.261352712723822"><ele>0.0</ele><time>2026-04-26T16:35:14.999Z</time></trkpt><trkpt lat="44.80286995688177" lon="12.261233666999921"><ele>0.0</ele><time>2026-04-26T16:35:15.999Z</time></trkpt><trkpt lat="44.80283056824156" lon="12.261096890964398"><ele>0.0</ele><time>2026-04-26T16:35:16.999Z</time></trkpt><trkpt lat="44.80278491203926" lon="12.260935694051865"><ele>0.0</ele><time>2026-04-26T16:35:17.999Z</time></trkpt><trkpt lat="44.80274828696307" lon="12.260754814023286"><ele>0.0</ele><time>2026-04-26T16:35:18.999Z</time></trkpt><trkpt lat="44.80271936519144" lon="12.260581304521972"><ele>0.0</ele><time>2026-04-26T16:35:19.999Z</time></trkpt><trkpt lat="44.80269718827975" lon="12.260426685811222"><ele>0.0</ele><time>2026-04-26T16:35:20.999Z</time></trkpt><trkpt lat="44.80268510628933" lon="12.260274384156427"><ele>0.0</ele><time>2026-04-26T16:35:21.999Z</time></trkpt><trkpt lat="44.80268454768867" lon="12.26011061307825"><ele>0.0</ele><time>2026-04-26T16:35:22.999Z</time></trkpt><trkpt lat="44.80268281454196" lon="12.259968780768448"><ele>0.0</ele><time>2026-04-26T16:35:23.999Z</time></trkpt><trkpt lat="44.802667924935044" lon="12.25985489977328"><ele>0.0</ele><time>2026-04-26T16:35:24.999Z</time></trkpt><trkpt lat="44.802647136875976" lon="12.259742491173768"><ele>0.0</ele><time>2026-04-26T16:35:25.999Z</time></trkpt><trkpt lat="44.80260774559713" lon="12.259634111190826"><ele>0.0</ele><time>2026-04-26T16:35:26.998Z</time></trkpt><trkpt lat="44.80255002983914" lon="12.259520501828538"><ele>0.0</ele><time>2026-04-26T16:35:27.998Z</time></trkpt><trkpt lat="44.8024615264945" lon="12.25942108386081"><ele>0.0</ele><time>2026-04-26T16:35:28.998Z</time></trkpt><trkpt lat="44.802355003696576" lon="12.259351930460818"><ele>0.0</ele><time>2026-04-26T16:35:29.998Z</time></trkpt><trkpt lat="44.80222517706672" lon="12.259305491085085"><ele>0.0</ele><time>2026-04-26T16:35:30.998Z</time></trkpt><trkpt lat="44.8020712810443" lon="12.259287674601618"><ele>0.0</ele><time>2026-04-26T16:35:31.999Z</time></trkpt><trkpt lat="44.80188692227571" lon="12.259294431821932"><ele>0.0</ele><time>2026-04-26T16:35:32.999Z</time></trkpt><trkpt lat="44.80170930247731" lon="12.259302687230806"><ele>0.0</ele><time>2026-04-26T16:35:33.999Z</time></trkpt><trkpt lat="44.801519570470816" lon="12.259301535905927"><ele>0.0</ele><time>2026-04-26T16:35:34.999Z</time></trkpt><trkpt lat="44.8013256511425" lon="12.259300874374834"><ele>0.0</ele><time>2026-04-26T16:35:35.999Z</time></trkpt><trkpt lat="44.80112865935216" lon="12.25929326728441"><ele>-0.3333333333333333</ele><time>2026-04-26T16:35:36.999Z</time></trkpt><trkpt lat="44.80093483363898" lon="12.25928995407636"><ele>-0.6666666666666666</ele><time>2026-04-26T16:35:37.999Z</time></trkpt><trkpt lat="44.80073084904647" lon="12.259285159938475"><ele>-1.0</ele><time>2026-04-26T16:35:38.999Z</time></trkpt><trkpt lat="44.800535131419394" lon="12.259282197640399"><ele>-1.0</ele><time>2026-04-26T16:35:39.999Z</time></trkpt><trkpt lat="44.80033852675253" lon="12.259272703562427"><ele>-1.0</ele><time>2026-04-26T16:35:40.999Z</time></trkpt><trkpt lat="44.800140452422454" lon="12.259266313529748"><ele>-1.0</ele><time>2026-04-26T16:35:41.999Z</time></trkpt><trkpt lat="44.79995149435428" lon="12.259259406161457"><ele>-0.6666666666666666</ele><time>2026-04-26T16:35:42.999Z</time></trkpt><trkpt lat="44.799779513816404" lon="12.259260777725801"><ele>-0.3333333333333333</ele><time>2026-04-26T16:35:43.999Z</time></trkpt><trkpt lat="44.79961931038651" lon="12.259261317991484"><ele>0.0</ele><time>2026-04-26T16:35:44.999Z</time></trkpt><trkpt lat="44.79945994316736" lon="12.259264839145875"><ele>0.3333333333333333</ele><time>2026-04-26T16:35:45.999Z</time></trkpt><trkpt lat="44.799301571550735" lon="12.25925759131849"><ele>0.6666666666666666</ele><time>2026-04-26T16:35:46.999Z</time></trkpt><trkpt lat="44.799140938433546" lon="12.25925352131777"><ele>1.0</ele><time>2026-04-26T16:35:47.999Z</time></trkpt><trkpt lat="44.798978961842494" lon="12.259249774359331"><ele>1.0</ele><time>2026-04-26T16:35:48.999Z</time></trkpt><trkpt lat="44.798821725505036" lon="12.259242643769605"><ele>1.0</ele><time>2026-04-26T16:35:49.999Z</time></trkpt><trkpt lat="44.79867122409472" lon="12.259243518687992"><ele>1.0</ele><time>2026-04-26T16:35:50.999Z</time></trkpt><trkpt lat="44.798520121371766" lon="12.259243881635085"><ele>0.5</ele><time>2026-04-26T16:35:51.999Z</time></trkpt><trkpt lat="44.79836799293023" lon="12.259235003237842"><ele>0.0</ele><time>2026-04-26T16:35:52.999Z</time></trkpt><trkpt lat="44.798216770495685" lon="12.259226772506306"><ele>-0.5</ele><time>2026-04-26T16:35:53.999Z</time></trkpt><trkpt lat="44.79807212520395" lon="12.25922896438505"><ele>-1.0</ele><time>2026-04-26T16:35:54.999Z</time></trkpt><trkpt lat="44.79793459248678" lon="12.25924444127708"><ele>-1.0</ele><time>2026-04-26T16:35:55.999Z</time></trkpt><trkpt lat="44.797803072320036" lon="12.259233952563584"><ele>-1.0</ele><time>2026-04-26T16:35:56.999Z</time></trkpt><trkpt lat="44.797670299260886" lon="12.2592323997169"><ele>-1.0</ele><time>2026-04-26T16:35:57.999Z</time></trkpt><trkpt lat="44.79755206530716" lon="12.259216243173803"><ele>-1.0</ele><time>2026-04-26T16:35:58.999Z</time></trkpt><trkpt lat="44.797407180269694" lon="12.259227874326953"><ele>-1.0</ele><time>2026-04-26T16:35:59.999Z</time></trkpt><trkpt lat="44.797269851104566" lon="12.25922104200359"><ele>-1.0</ele><time>2026-04-26T16:36:01Z</time></trkpt><trkpt lat="44.797133251401874" lon="12.259215360658501"><ele>-1.0</ele><time>2026-04-26T16:36:02Z</time></trkpt><trkpt lat="44.797000018587234" lon="12.259215301453876"><ele>-1.0</ele><time>2026-04-26T16:36:03Z</time></trkpt><trkpt lat="44.79687050380115" lon="12.259199530362565"><ele>-1.0</ele><time>2026-04-26T16:36:04Z</time></trkpt><trkpt lat="44.79673574297997" lon="12.259167954837055"><ele>-1.0</ele><time>2026-04-26T16:36:05Z</time></trkpt><trkpt lat="44.79660260320268" lon="12.25910451869823"><ele>-1.0</ele><time>2026-04-26T16:36:06Z</time></trkpt><trkpt lat="44.7964654437298" lon="12.259022312991544"><ele>-1.0</ele><time>2026-04-26T16:36:07Z</time></trkpt><trkpt lat="44.79633568036409" lon="12.25892052058191"><ele>-1.25</ele><time>2026-04-26T16:36:08Z</time></trkpt><trkpt lat="44.79621758240948" lon="12.258802284566826"><ele>-1.5</ele><time>2026-04-26T16:36:09Z</time></trkpt><trkpt lat="44.796102114744734" lon="12.258668919109368"><ele>-1.75</ele><time>2026-04-26T16:36:10Z</time></trkpt><trkpt lat="44.79600313156864" lon="12.258533227890723"><ele>-2.0</ele><time>2026-04-26T16:36:11Z</time></trkpt><trkpt lat="44.795891339519585" lon="12.258374817316076"><ele>-2.0</ele><time>2026-04-26T16:36:12Z</time></trkpt><trkpt lat="44.79575874542372" lon="12.258245375505252"><ele>-2.0</ele><time>2026-04-26T16:36:13Z</time></trkpt><trkpt lat="44.79563520742194" lon="12.2581112461994"><ele>-2.0</ele><time>2026-04-26T16:36:14Z</time></trkpt><trkpt lat="44.79551101106427" lon="12.257979448430008"><ele>-2.6666666666666665</ele><time>2026-04-26T16:36:15Z</time></trkpt><trkpt lat="44.79538918494385" lon="12.257842297862938"><ele>-3.333333333333333</ele><time>2026-04-26T16:36:16Z</time></trkpt><trkpt lat="44.79527330577784" lon="12.257696584397403"><ele>-4.0</ele><time>2026-04-26T16:36:17Z</time></trkpt><trkpt lat="44.79514444537367" lon="12.257562960731681"><ele>-4.0</ele><time>2026-04-26T16:36:18Z</time></trkpt><trkpt lat="44.795014672092194" lon="12.257439506787634"><ele>-4.0</ele><time>2026-04-26T16:36:19Z</time></trkpt><trkpt lat="44.79489156750138" lon="12.257318166532947"><ele>-4.0</ele><time>2026-04-26T16:36:20Z</time></trkpt><trkpt lat="44.79475268166867" lon="12.257223743422983"><ele>-4.0</ele><time>2026-04-26T16:36:21Z</time></trkpt><trkpt lat="44.79460241460812" lon="12.257154244931373"><ele>-4.0</ele><time>2026-04-26T16:36:22Z</time></trkpt><trkpt lat="44.79445004300444" lon="12.257112224080315"><ele>-4.0</ele><time>2026-04-26T16:36:23Z</time></trkpt><trkpt lat="44.79429457279213" lon="12.257099581225171"><ele>-3.6666666666666665</ele><time>2026-04-26T16:36:24Z</time></trkpt><trkpt lat="44.79413619481264" lon="12.257104880356454"><ele>-3.333333333333333</ele><time>2026-04-26T16:36:25Z</time></trkpt><trkpt lat="44.79397883519635" lon="12.257127582043399"><ele>-3.0</ele><time>2026-04-26T16:36:26Z</time></trkpt><trkpt lat="44.7938258683731" lon="12.257165062461377"><ele>-3.0</ele><time>2026-04-26T16:36:27Z</time></trkpt><trkpt lat="44.7936779399911" lon="12.257217539768165"><ele>-3.0</ele><time>2026-04-26T16:36:28Z</time></trkpt><trkpt lat="44.79352923176064" lon="12.257265497985987"><ele>-3.0</ele><time>2026-04-26T16:36:29Z</time></trkpt><trkpt lat="44.793386878997396" lon="12.257299031560681"><ele>-3.0</ele><time>2026-04-26T16:36:30Z</time></trkpt><trkpt lat="44.793236859768996" lon="12.2573362429934"><ele>-2.0</ele><time>2026-04-26T16:36:31Z</time></trkpt><trkpt lat="44.79308905272967" lon="12.257376872010003"><ele>-1.0</ele><time>2026-04-26T16:36:32Z</time></trkpt><trkpt lat="44.79293367434805" lon="12.25741734854287"><ele>0.0</ele><time>2026-04-26T16:36:33Z</time></trkpt><trkpt lat="44.792779191806794" lon="12.257456704157608"><ele>0.0</ele><time>2026-04-26T16:36:34Z</time></trkpt><trkpt lat="44.79263163679276" lon="12.257488402185107"><ele>0.0</ele><time>2026-04-26T16:36:35Z</time></trkpt><trkpt lat="44.792486320911195" lon="12.25753446285552"><ele>0.0</ele><time>2026-04-26T16:36:36Z</time></trkpt><trkpt lat="44.79233919470632" lon="12.25757006254612"><ele>0.0</ele><time>2026-04-26T16:36:37Z</time></trkpt><trkpt lat="44.79218993235877" lon="12.257576746432056"><ele>0.0</ele><time>2026-04-26T16:36:38Z</time></trkpt><trkpt lat="44.792054232676456" lon="12.257608502545558"><ele>0.0</ele><time>2026-04-26T16:36:39Z</time></trkpt><trkpt lat="44.79190884397896" lon="12.257672732507363"><ele>0.0</ele><time>2026-04-26T16:36:40Z</time></trkpt><trkpt lat="44.79177084643296" lon="12.257711240242028"><ele>0.0</ele><time>2026-04-26T16:36:41Z</time></trkpt><trkpt lat="44.79163285213252" lon="12.257722422310907"><ele>-0.5</ele><time>2026-04-26T16:36:42Z</time></trkpt><trkpt lat="44.79148088708283" lon="12.25771337344032"><ele>-1.0</ele><time>2026-04-26T16:36:43Z</time></trkpt><trkpt lat="44.79134208213997" lon="12.257678152440738"><ele>-1.5</ele><time>2026-04-26T16:36:44Z</time></trkpt><trkpt lat="44.7911976724836" lon="12.257656171552028"><ele>-2.0</ele><time>2026-04-26T16:36:45Z</time></trkpt><trkpt lat="44.79106624682166" lon="12.257586372667154"><ele>-2.333333333333333</ele><time>2026-04-26T16:36:46Z</time></trkpt><trkpt lat="44.79093309286173" lon="12.257463876143506"><ele>-2.6666666666666665</ele><time>2026-04-26T16:36:47Z</time></trkpt><trkpt lat="44.79077241424704" lon="12.257354002168064"><ele>-3.0</ele><time>2026-04-26T16:36:48Z</time></trkpt><trkpt lat="44.790612778749875" lon="12.257207518681378"><ele>-3.0</ele><time>2026-04-26T16:36:49Z</time></trkpt><trkpt lat="44.79045204330691" lon="12.257069275793608"><ele>-3.0</ele><time>2026-04-26T16:36:50Z</time></trkpt><trkpt lat="44.79028568515036" lon="12.256937029059532"><ele>-3.0</ele><time>2026-04-26T16:36:51Z</time></trkpt><trkpt lat="44.790125667838836" lon="12.256806963607044"><ele>-2.6666666666666665</ele><time>2026-04-26T16:36:52Z</time></trkpt><trkpt lat="44.789970243219344" lon="12.25667618052357"><ele>-2.333333333333333</ele><time>2026-04-26T16:36:53Z</time></trkpt><trkpt lat="44.789816997799385" lon="12.256556665476719"><ele>-2.0</ele><time>2026-04-26T16:36:54Z</time></trkpt><trkpt lat="44.78965257244031" lon="12.256394399561817"><ele>-2.0</ele><time>2026-04-26T16:36:55Z</time></trkpt><trkpt lat="44.78948341367528" lon="12.256269306342007"><ele>-2.0</ele><time>2026-04-26T16:36:56Z</time></trkpt><trkpt lat="44.78931829318527" lon="12.25614444159119"><ele>-2.0</ele><time>2026-04-26T16:36:57Z</time></trkpt><trkpt lat="44.789191467796954" lon="12.255992447811085"><ele>-1.6666666666666665</ele><time>2026-04-26T16:36:58Z</time></trkpt><trkpt lat="44.78902263657343" lon="12.255870192253834"><ele>-1.3333333333333333</ele><time>2026-04-26T16:36:59Z</time></trkpt><trkpt lat="44.78887220786683" lon="12.255732248053002"><ele>-1.0</ele><time>2026-04-26T16:37:00Z</time></trkpt><trkpt lat="44.78872020716332" lon="12.255603682981468"><ele>-1.0</ele><time>2026-04-26T16:37:01Z</time></trkpt><trkpt lat="44.78856447706565" lon="12.255468123021577"><ele>-1.0</ele><time>2026-04-26T16:37:02Z</time></trkpt><trkpt lat="44.78841421786245" lon="12.25533814772339"><ele>-1.0</ele><time>2026-04-26T16:37:03Z</time></trkpt><trkpt lat="44.78826091230248" lon="12.255213873034242"><ele>-1.0</ele><time>2026-04-26T16:37:04Z</time></trkpt><trkpt lat="44.788113196099566" lon="12.255080023467412"><ele>-1.0</ele><time>2026-04-26T16:37:05Z</time></trkpt><trkpt lat="44.78797292335981" lon="12.254935433955186"><ele>-1.0</ele><time>2026-04-26T16:37:06Z</time></trkpt><trkpt lat="44.78782862273066" lon="12.254787923622594"><ele>-1.0</ele><time>2026-04-26T16:37:07Z</time></trkpt><trkpt lat="44.78769152240424" lon="12.254663763674152"><ele>-1.0</ele><time>2026-04-26T16:37:08Z</time></trkpt><trkpt lat="44.78754505193482" lon="12.254514594249608"><ele>-1.0</ele><time>2026-04-26T16:37:09Z</time></trkpt><trkpt lat="44.78741060759981" lon="12.254368006085976"><ele>-1.3333333333333333</ele><time>2026-04-26T16:37:10Z</time></trkpt><trkpt lat="44.787285328080266" lon="12.25422387746112"><ele>-1.6666666666666665</ele><time>2026-04-26T16:37:11Z</time></trkpt><trkpt lat="44.787144530948254" lon="12.254077108761145"><ele>-2.0</ele><time>2026-04-26T16:37:12Z</time></trkpt><trkpt lat="44.78699637478747" lon="12.253921872969354"><ele>-2.0</ele><time>2026-04-26T16:37:13Z</time></trkpt><trkpt lat="44.78685963777894" lon="12.253748536439698"><ele>-2.0</ele><time>2026-04-26T16:37:14Z</time></trkpt><trkpt lat="44.786717952686544" lon="12.253595992943138"><ele>-2.0</ele><time>2026-04-26T16:37:15Z</time></trkpt><trkpt lat="44.78657621575613" lon="12.253431235574714"><ele>-2.0</ele><time>2026-04-26T16:37:16Z</time></trkpt><trkpt lat="44.78643229691648" lon="12.253264307233659"><ele>-2.0</ele><time>2026-04-26T16:37:17Z</time></trkpt><trkpt lat="44.78626925860944" lon="12.253095682500126"><ele>-2.0</ele><time>2026-04-26T16:37:18Z</time></trkpt><trkpt lat="44.78613627072809" lon="12.252929732255387"><ele>-1.6666666666666665</ele><time>2026-04-26T16:37:19Z</time></trkpt><trkpt lat="44.78599329839305" lon="12.252759993996724"><ele>-1.3333333333333333</ele><time>2026-04-26T16:37:20Z</time></trkpt><trkpt lat="44.78585852185129" lon="12.2526091575294"><ele>-1.0</ele><time>2026-04-26T16:37:21Z</time></trkpt><trkpt lat="44.78575894189561" lon="12.252464385837992"><ele>-1.0</ele><time>2026-04-26T16:37:22Z</time></trkpt><trkpt lat="44.78563447790578" lon="12.252325217277003"><ele>-1.0</ele><time>2026-04-26T16:37:23Z</time></trkpt><trkpt lat="44.78552849593646" lon="12.252194598135635"><ele>-1.0</ele><time>2026-04-26T16:37:24Z</time></trkpt><trkpt lat="44.78540216113636" lon="12.252036437376656"><ele>-1.3333333333333333</ele><time>2026-04-26T16:37:25Z</time></trkpt><trkpt lat="44.78527712567726" lon="12.251877218948165"><ele>-1.6666666666666665</ele><time>2026-04-26T16:37:26Z</time></trkpt><trkpt lat="44.78516272168052" lon="12.25174951569665"><ele>-2.0</ele><time>2026-04-26T16:37:27Z</time></trkpt><trkpt lat="44.78504121016453" lon="12.251612888307655"><ele>-2.0</ele><time>2026-04-26T16:37:28Z</time></trkpt><trkpt lat="44.78494401742009" lon="12.251482048471459"><ele>-2.0</ele><time>2026-04-26T16:37:29Z</time></trkpt><trkpt lat="44.784844094098254" lon="12.251361684716846"><ele>-2.0</ele><time>2026-04-26T16:37:30Z</time></trkpt><trkpt lat="44.784740154359824" lon="12.25124184600159"><ele>-2.0</ele><time>2026-04-26T16:37:31Z</time></trkpt><trkpt lat="44.784623528990544" lon="12.25110123182405"><ele>-2.333333333333333</ele><time>2026-04-26T16:37:32Z</time></trkpt><trkpt lat="44.78450696526622" lon="12.25095395634822"><ele>-2.6666666666666665</ele><time>2026-04-26T16:37:32.999Z</time></trkpt><trkpt lat="44.784382517978976" lon="12.250786970785917"><ele>-3.0</ele><time>2026-04-26T16:37:33.999Z</time></trkpt><trkpt lat="44.78424913286189" lon="12.250647257353148"><ele>-2.3333333333333335</ele><time>2026-04-26T16:37:34.999Z</time></trkpt><trkpt lat="44.78412346902784" lon="12.250491267450272"><ele>-1.6666666666666665</ele><time>2026-04-26T16:37:35.999Z</time></trkpt><trkpt lat="44.78399711826577" lon="12.25033532330364"><ele>-1.0</ele><time>2026-04-26T16:37:36.999Z</time></trkpt><trkpt lat="44.783879023949076" lon="12.250190248550592"><ele>-1.0</ele><time>2026-04-26T16:37:37.999Z</time></trkpt><trkpt lat="44.78376969820057" lon="12.25005004811485"><ele>-1.0</ele><time>2026-04-26T16:37:38.999Z</time></trkpt><trkpt lat="44.78365483715403" lon="12.249903998262708"><ele>-1.0</ele><time>2026-04-26T16:37:39.999Z</time></trkpt><trkpt lat="44.783507802344104" lon="12.249748932998605"><ele>-1.3333333333333333</ele><time>2026-04-26T16:37:40.999Z</time></trkpt><trkpt lat="44.783376279452604" lon="12.249585349313046"><ele>-1.6666666666666665</ele><time>2026-04-26T16:37:41.999Z</time></trkpt><trkpt lat="44.78323708063967" lon="12.24941684875673"><ele>-2.0</ele><time>2026-04-26T16:37:42.999Z</time></trkpt><trkpt lat="44.78308611677025" lon="12.249246372842274"><ele>-2.0</ele><time>2026-04-26T16:37:43.999Z</time></trkpt><trkpt lat="44.78292676256791" lon="12.249070423154043"><ele>-2.0</ele><time>2026-04-26T16:37:44.999Z</time></trkpt><trkpt lat="44.78273469844363" lon="12.248856646527187"><ele>-2.0</ele><time>2026-04-26T16:37:45.999Z</time></trkpt><trkpt lat="44.78254551378841" lon="12.248642124502434"><ele>-1.0</ele><time>2026-04-26T16:37:46.999Z</time></trkpt><trkpt lat="44.78237458169978" lon="12.248438180666295"><ele>0.0</ele><time>2026-04-26T16:37:47.999Z</time></trkpt><trkpt lat="44.78218902430602" lon="12.248224408440594"><ele>-1.0</ele><time>2026-04-26T16:37:48.999Z</time></trkpt><trkpt lat="44.78200617691546" lon="12.248030891015139"><ele>-2.0</ele><time>2026-04-26T16:37:49.999Z</time></trkpt><trkpt lat="44.781829440581454" lon="12.247832386447286"><ele>-2.0</ele><time>2026-04-26T16:37:50.999Z</time></trkpt><trkpt lat="44.7816385085516" lon="12.247664558657354"><ele>-2.0</ele><time>2026-04-26T16:37:52Z</time></trkpt><trkpt lat="44.781459769233145" lon="12.247486210670647"><ele>-2.0</ele><time>2026-04-26T16:37:53Z</time></trkpt><trkpt lat="44.78128854247276" lon="12.247309629395577"><ele>-2.0</ele><time>2026-04-26T16:37:54Z</time></trkpt><trkpt lat="44.78111664231357" lon="12.247135889497015"><ele>-2.0</ele><time>2026-04-26T16:37:55Z</time></trkpt><trkpt lat="44.78096053596514" lon="12.246936153042958"><ele>-2.0</ele><time>2026-04-26T16:37:56Z</time></trkpt><trkpt lat="44.78079007229135" lon="12.246781424919613"><ele>-1.6666666666666665</ele><time>2026-04-26T16:37:57Z</time></trkpt><trkpt lat="44.780608633696524" lon="12.246615081250294"><ele>-1.3333333333333333</ele><time>2026-04-26T16:37:58Z</time></trkpt><trkpt lat="44.78044227220973" lon="12.246456211130019"><ele>-1.0</ele><time>2026-04-26T16:37:59Z</time></trkpt><trkpt lat="44.78026989069197" lon="12.24626961811395"><ele>-1.0</ele><time>2026-04-26T16:38:00Z</time></trkpt><trkpt lat="44.78010019371943" lon="12.24608343871448"><ele>-1.0</ele><time>2026-04-26T16:38:01Z</time></trkpt><trkpt lat="44.77993759337268" lon="12.245920883158691"><ele>-1.0</ele><time>2026-04-26T16:38:02Z</time></trkpt><trkpt lat="44.779756630233145" lon="12.245763981972583"><ele>-1.3333333333333333</ele><time>2026-04-26T16:38:03Z</time></trkpt><trkpt lat="44.77959198374596" lon="12.245601323700708"><ele>-1.6666666666666665</ele><time>2026-04-26T16:38:04Z</time></trkpt><trkpt lat="44.77944080411438" lon="12.24542976963712"><ele>-2.0</ele><time>2026-04-26T16:38:05Z</time></trkpt><trkpt lat="44.77927866395303" lon="12.24526948804145"><ele>-2.0</ele><time>2026-04-26T16:38:06Z</time></trkpt><trkpt lat="44.77912674353721" lon="12.245097679968682"><ele>-2.0</ele><time>2026-04-26T16:38:07Z</time></trkpt><trkpt lat="44.77897671756692" lon="12.244943304495717"><ele>-2.0</ele><time>2026-04-26T16:38:08Z</time></trkpt><trkpt lat="44.778829742103106" lon="12.24479473359849"><ele>-2.0</ele><time>2026-04-26T16:38:09Z</time></trkpt><trkpt lat="44.77867518509368" lon="12.244646234386826"><ele>-2.0</ele><time>2026-04-26T16:38:10Z</time></trkpt><trkpt lat="44.77850850458395" lon="12.244461105558857"><ele>-2.0</ele><time>2026-04-26T16:38:11Z</time></trkpt><trkpt lat="44.778351842537965" lon="12.244310349096235"><ele>-2.0</ele><time>2026-04-26T16:38:12Z</time></trkpt><trkpt lat="44.77821248772289" lon="12.244159693654801"><ele>-2.0</ele><time>2026-04-26T16:38:13Z</time></trkpt><trkpt lat="44.77806231900134" lon="12.244016719670352"><ele>-2.0</ele><time>2026-04-26T16:38:14Z</time></trkpt><trkpt lat="44.7779183176792" lon="12.243871756829538"><ele>-2.0</ele><time>2026-04-26T16:38:15Z</time></trkpt><trkpt lat="44.77776397566097" lon="12.243736628130376"><ele>-2.0</ele><time>2026-04-26T16:38:16Z</time></trkpt><trkpt lat="44.77761875108293" lon="12.243571602371903"><ele>-2.0</ele><time>2026-04-26T16:38:17Z</time></trkpt><trkpt lat="44.77745101954185" lon="12.243394421556001"><ele>-1.6666666666666665</ele><time>2026-04-26T16:38:18Z</time></trkpt><trkpt lat="44.77729448453366" lon="12.243211960032419"><ele>-1.3333333333333333</ele><time>2026-04-26T16:38:19Z</time></trkpt><trkpt lat="44.77712244352461" lon="12.243050821687175"><ele>-1.0</ele><time>2026-04-26T16:38:20Z</time></trkpt><trkpt lat="44.77691990813389" lon="12.24287781235933"><ele>-1.0</ele><time>2026-04-26T16:38:21Z</time></trkpt><trkpt lat="44.776712495090564" lon="12.242686090365378"><ele>-1.0</ele><time>2026-04-26T16:38:22Z</time></trkpt><trkpt lat="44.7765218637413" lon="12.242514059414466"><ele>-1.0</ele><time>2026-04-26T16:38:23Z</time></trkpt><trkpt lat="44.77634992263063" lon="12.242308344223925"><ele>-1.0</ele><time>2026-04-26T16:38:24Z</time></trkpt><trkpt lat="44.77620183497139" lon="12.242168238404192"><ele>-1.0</ele><time>2026-04-26T16:38:25Z</time></trkpt><trkpt lat="44.77602629024034" lon="12.241979168993867"><ele>-0.6666666666666666</ele><time>2026-04-26T16:38:26Z</time></trkpt><trkpt lat="44.775858717945354" lon="12.241815124469662"><ele>-0.3333333333333333</ele><time>2026-04-26T16:38:27Z</time></trkpt><trkpt lat="44.775682156358094" lon="12.241643680740024"><ele>0.0</ele><time>2026-04-26T16:38:28Z</time></trkpt><trkpt lat="44.7755008239778" lon="12.241458813466169"><ele>-1.0</ele><time>2026-04-26T16:38:29Z</time></trkpt><trkpt lat="44.7753143878675" lon="12.241261069228516"><ele>-2.0</ele><time>2026-04-26T16:38:30Z</time></trkpt><trkpt lat="44.77512698573998" lon="12.24107243649274"><ele>-2.0</ele><time>2026-04-26T16:38:31Z</time></trkpt><trkpt lat="44.77492280755871" lon="12.240888221912506"><ele>-2.0</ele><time>2026-04-26T16:38:32Z</time></trkpt><trkpt lat="44.77473245487803" lon="12.240710097243712"><ele>-2.0</ele><time>2026-04-26T16:38:33Z</time></trkpt><trkpt lat="44.77454556428066" lon="12.240538622817793"><ele>-2.0</ele><time>2026-04-26T16:38:34Z</time></trkpt><trkpt lat="44.77436764006763" lon="12.240386545410773"><ele>-2.0</ele><time>2026-04-26T16:38:35Z</time></trkpt><trkpt lat="44.77419457040066" lon="12.24021006532433"><ele>-1.6666666666666665</ele><time>2026-04-26T16:38:36Z</time></trkpt><trkpt lat="44.7740049448809" lon="12.240040354560055"><ele>-1.3333333333333333</ele><time>2026-04-26T16:38:37Z</time></trkpt><trkpt lat="44.77382189583902" lon="12.239873154246665"><ele>-1.0</ele><time>2026-04-26T16:38:38Z</time></trkpt><trkpt lat="44.773646316715634" lon="12.239701906406383"><ele>-1.0</ele><time>2026-04-26T16:38:39Z</time></trkpt><trkpt lat="44.773476687381226" lon="12.239523256247002"><ele>-1.0</ele><time>2026-04-26T16:38:40Z</time></trkpt><trkpt lat="44.77329974538816" lon="12.239377502322714"><ele>-1.0</ele><time>2026-04-26T16:38:41Z</time></trkpt><trkpt lat="44.77313392052543" lon="12.239228372321694"><ele>-1.0</ele><time>2026-04-26T16:38:42Z</time></trkpt><trkpt lat="44.77298979783058" lon="12.23904399561048"><ele>-1.0</ele><time>2026-04-26T16:38:43Z</time></trkpt><trkpt lat="44.77287103838772" lon="12.238777682496359"><ele>-1.0</ele><time>2026-04-26T16:38:44Z</time></trkpt><trkpt lat="44.77278365328519" lon="12.238488497494146"><ele>-1.5</ele><time>2026-04-26T16:38:45Z</time></trkpt><trkpt lat="44.77269013340773" lon="12.238185702730105"><ele>-2.0</ele><time>2026-04-26T16:38:46Z</time></trkpt><trkpt lat="44.77261941327364" lon="12.237882584566377"><ele>-2.0</ele><time>2026-04-26T16:38:47Z</time></trkpt><trkpt lat="44.77253200105662" lon="12.237559621115322"><ele>-2.0</ele><time>2026-04-26T16:38:48Z</time></trkpt><trkpt lat="44.772439448536765" lon="12.237236965566723"><ele>-2.0</ele><time>2026-04-26T16:38:49Z</time></trkpt><trkpt lat="44.77236723996732" lon="12.236931858507418"><ele>-2.0</ele><time>2026-04-26T16:38:50Z</time></trkpt><trkpt lat="44.77227324969832" lon="12.236616856611718"><ele>-2.0</ele><time>2026-04-26T16:38:51Z</time></trkpt><trkpt lat="44.772189668536505" lon="12.23635740028255"><ele>-2.0</ele><time>2026-04-26T16:38:52Z</time></trkpt><trkpt lat="44.77205577311922" lon="12.236088579421208"><ele>-2.0</ele><time>2026-04-26T16:38:53Z</time></trkpt><trkpt lat="44.77193625142477" lon="12.23584683530447"><ele>-2.0</ele><time>2026-04-26T16:38:54Z</time></trkpt><trkpt lat="44.771816537306236" lon="12.235641293919036"><ele>-2.0</ele><time>2026-04-26T16:38:55Z</time></trkpt><trkpt lat="44.771692736411474" lon="12.235465097046603"><ele>-2.0</ele><time>2026-04-26T16:38:56Z</time></trkpt><trkpt lat="44.77151953971967" lon="12.235281515187333"><ele>-2.0</ele><time>2026-04-26T16:38:57Z</time></trkpt><trkpt lat="44.771356197833114" lon="12.23508153119694"><ele>-2.0</ele><time>2026-04-26T16:38:58Z</time></trkpt><trkpt lat="44.77118573997827" lon="12.234887719614607"><ele>-2.0</ele><time>2026-04-26T16:38:59Z</time></trkpt><trkpt lat="44.77102670277067" lon="12.23468751222034"><ele>-2.0</ele><time>2026-04-26T16:39:00Z</time></trkpt><trkpt lat="44.77085316533426" lon="12.234515854497209"><ele>-2.0</ele><time>2026-04-26T16:39:01Z</time></trkpt><trkpt lat="44.770663913210186" lon="12.23435710740087"><ele>-2.0</ele><time>2026-04-26T16:39:02Z</time></trkpt><trkpt lat="44.77048078183131" lon="12.234182468795357"><ele>-2.0</ele><time>2026-04-26T16:39:03Z</time></trkpt><trkpt lat="44.77031922984742" lon="12.233995015360755"><ele>-2.0</ele><time>2026-04-26T16:39:04Z</time></trkpt><trkpt lat="44.7701437172684" lon="12.233813751027704"><ele>-2.0</ele><time>2026-04-26T16:39:05Z</time></trkpt><trkpt lat="44.769960593414325" lon="12.233608379951084"><ele>-2.0</ele><time>2026-04-26T16:39:06Z</time></trkpt><trkpt lat="44.76978087763768" lon="12.233422302380195"><ele>-2.0</ele><time>2026-04-26T16:39:07Z</time></trkpt><trkpt lat="44.76960667862376" lon="12.233274340708498"><ele>-2.0</ele><time>2026-04-26T16:39:08Z</time></trkpt><trkpt lat="44.769421326526185" lon="12.233070896586113"><ele>-2.333333333333333</ele><time>2026-04-26T16:39:09Z</time></trkpt><trkpt lat="44.769266191966366" lon="12.23287148021694"><ele>-2.6666666666666665</ele><time>2026-04-26T16:39:10Z</time></trkpt><trkpt lat="44.769088760876336" lon="12.232687097181348"><ele>-3.0</ele><time>2026-04-26T16:39:11Z</time></trkpt><trkpt lat="44.768908414025326" lon="12.232499684141402"><ele>-3.0</ele><time>2026-04-26T16:39:12Z</time></trkpt><trkpt lat="44.76874712290497" lon="12.232333629267789"><ele>-3.0</ele><time>2026-04-26T16:39:13Z</time></trkpt><trkpt lat="44.76857023913195" lon="12.232126264777364"><ele>-3.0</ele><time>2026-04-26T16:39:14Z</time></trkpt><trkpt lat="44.76839641319415" lon="12.231937408006154"><ele>-2.5</ele><time>2026-04-26T16:39:15Z</time></trkpt><trkpt lat="44.76819550947007" lon="12.231762957759411"><ele>-2.0</ele><time>2026-04-26T16:39:16Z</time></trkpt><trkpt lat="44.76801430541177" lon="12.231598498764377"><ele>-1.6666666666666665</ele><time>2026-04-26T16:39:17Z</time></trkpt><trkpt lat="44.76784415978436" lon="12.231431406473313"><ele>-1.3333333333333333</ele><time>2026-04-26T16:39:18Z</time></trkpt><trkpt lat="44.76766747067272" lon="12.23125842324014"><ele>-1.0</ele><time>2026-04-26T16:39:19Z</time></trkpt><trkpt lat="44.76748056521051" lon="12.231101703966608"><ele>-1.0</ele><time>2026-04-26T16:39:20Z</time></trkpt><trkpt lat="44.767305267451256" lon="12.23095723135385"><ele>-1.0</ele><time>2026-04-26T16:39:21Z</time></trkpt><trkpt lat="44.7671379525641" lon="12.230806474665517"><ele>-1.0</ele><time>2026-04-26T16:39:22Z</time></trkpt><trkpt lat="44.76695970696178" lon="12.230659640494645"><ele>-1.3333333333333333</ele><time>2026-04-26T16:39:23Z</time></trkpt><trkpt lat="44.766774472092486" lon="12.230525460049611"><ele>-1.6666666666666665</ele><time>2026-04-26T16:39:24Z</time></trkpt><trkpt lat="44.766597212019995" lon="12.230401815096238"><ele>-2.0</ele><time>2026-04-26T16:39:25Z</time></trkpt><trkpt lat="44.76641621410717" lon="12.230270609500062"><ele>-2.0</ele><time>2026-04-26T16:39:26Z</time></trkpt><trkpt lat="44.76623925400337" lon="12.230142658817725"><ele>-2.0</ele><time>2026-04-26T16:39:27Z</time></trkpt><trkpt lat="44.766057143570755" lon="12.230011627950942"><ele>-2.0</ele><time>2026-04-26T16:39:28Z</time></trkpt><trkpt lat="44.765874088693984" lon="12.22988748697736"><ele>-2.0</ele><time>2026-04-26T16:39:29Z</time></trkpt><trkpt lat="44.765690126572935" lon="12.22976063626905"><ele>-2.0</ele><time>2026-04-26T16:39:30Z</time></trkpt><trkpt lat="44.765506855427645" lon="12.229629809605902"><ele>-2.0</ele><time>2026-04-26T16:39:31.001Z</time></trkpt><trkpt lat="44.76529582936137" lon="12.229471284203344"><ele>-1.6666666666666665</ele><time>2026-04-26T16:39:32.001Z</time></trkpt><trkpt lat="44.7651103498816" lon="12.229329912126206"><ele>-1.3333333333333333</ele><time>2026-04-26T16:39:33.001Z</time></trkpt><trkpt lat="44.76491454951775" lon="12.229197099682597"><ele>-1.0</ele><time>2026-04-26T16:39:34.001Z</time></trkpt><trkpt lat="44.76472239810107" lon="12.229064909104869"><ele>-1.3333333333333333</ele><time>2026-04-26T16:39:35.001Z</time></trkpt><trkpt lat="44.764553686379784" lon="12.228940339645334"><ele>-1.6666666666666665</ele><time>2026-04-26T16:39:36.001Z</time></trkpt><trkpt lat="44.76438275100631" lon="12.228798088064485"><ele>-2.0</ele><time>2026-04-26T16:39:37.001Z</time></trkpt><trkpt lat="44.76419763233788" lon="12.228715085475546"><ele>-2.0</ele><time>2026-04-26T16:39:38.001Z</time></trkpt><trkpt lat="44.76400668290607" lon="12.228649697495912"><ele>-2.0</ele><time>2026-04-26T16:39:39Z</time></trkpt><trkpt lat="44.76381423523915" lon="12.22859317514467"><ele>-2.0</ele><time>2026-04-26T16:39:40Z</time></trkpt><trkpt lat="44.763600699817985" lon="12.228604097302433"><ele>-1.3333333333333333</ele><time>2026-04-26T16:39:41Z</time></trkpt><trkpt lat="44.76342643044379" lon="12.22862188907621"><ele>-0.6666666666666666</ele><time>2026-04-26T16:39:42Z</time></trkpt><trkpt lat="44.76322273770175" lon="12.228682864719747"><ele>0.0</ele><time>2026-04-26T16:39:43Z</time></trkpt><trkpt lat="44.76302448777828" lon="12.228765158561812"><ele>0.0</ele><time>2026-04-26T16:39:44Z</time></trkpt><trkpt lat="44.762819046139704" lon="12.228884125826047"><ele>0.0</ele><time>2026-04-26T16:39:45Z</time></trkpt><trkpt lat="44.76263473144065" lon="12.22901355195608"><ele>0.0</ele><time>2026-04-26T16:39:46Z</time></trkpt><trkpt lat="44.762426382959205" lon="12.229217994614515"><ele>-0.6666666666666666</ele><time>2026-04-26T16:39:47Z</time></trkpt><trkpt lat="44.76226933295585" lon="12.229380132310393"><ele>-1.3333333333333333</ele><time>2026-04-26T16:39:48Z</time></trkpt><trkpt lat="44.762088115296464" lon="12.229612684171949"><ele>-2.0</ele><time>2026-04-26T16:39:49Z</time></trkpt><trkpt lat="44.7619184411755" lon="12.229819904604405"><ele>-1.6666666666666665</ele><time>2026-04-26T16:39:50Z</time></trkpt><trkpt lat="44.76175293459534" lon="12.229990045962756"><ele>-1.3333333333333333</ele><time>2026-04-26T16:39:51Z</time></trkpt><trkpt lat="44.76160401314181" lon="12.230153765721344"><ele>-1.0</ele><time>2026-04-26T16:39:52Z</time></trkpt><trkpt lat="44.761463538608965" lon="12.23031159332976"><ele>-1.0</ele><time>2026-04-26T16:39:53Z</time></trkpt><trkpt lat="44.76131725809953" lon="12.230466145407632"><ele>-1.0</ele><time>2026-04-26T16:39:54Z</time></trkpt><trkpt lat="44.761174091901545" lon="12.230599558707219"><ele>-1.0</ele><time>2026-04-26T16:39:55Z</time></trkpt><trkpt lat="44.76100154864667" lon="12.230732666675856"><ele>-0.6666666666666666</ele><time>2026-04-26T16:39:56Z</time></trkpt><trkpt lat="44.76085130894136" lon="12.230826020938053"><ele>-0.3333333333333333</ele><time>2026-04-26T16:39:57Z</time></trkpt><trkpt lat="44.76068353120664" lon="12.23090265843213"><ele>0.0</ele><time>2026-04-26T16:39:58Z</time></trkpt><trkpt lat="44.76051225904783" lon="12.230915405375633"><ele>0.0</ele><time>2026-04-26T16:39:59Z</time></trkpt><trkpt lat="44.760336306910126" lon="12.2309180763204"><ele>0.0</ele><time>2026-04-26T16:40:00Z</time></trkpt><trkpt lat="44.760156463016884" lon="12.230884858872164"><ele>0.0</ele><time>2026-04-26T16:40:01Z</time></trkpt><trkpt lat="44.759980110718644" lon="12.23082095895632"><ele>-0.3333333333333333</ele><time>2026-04-26T16:40:02Z</time></trkpt><trkpt lat="44.75981557386157" lon="12.230754683850483"><ele>-0.6666666666666666</ele><time>2026-04-26T16:40:03Z</time></trkpt><trkpt lat="44.75966530123336" lon="12.230691912774198"><ele>-1.0</ele><time>2026-04-26T16:40:04Z</time></trkpt><trkpt lat="44.75950794229047" lon="12.230646744809915"><ele>-0.5</ele><time>2026-04-26T16:40:05Z</time></trkpt><trkpt lat="44.75936668742557" lon="12.230582994181752"><ele>0.0</ele><time>2026-04-26T16:40:06Z</time></trkpt><trkpt lat="44.759231171555264" lon="12.230524955843375"><ele>0.5</ele><time>2026-04-26T16:40:07Z</time></trkpt><trkpt lat="44.75910857713469" lon="12.23045885313735"><ele>1.0</ele><time>2026-04-26T16:40:08Z</time></trkpt><trkpt lat="44.75899472456762" lon="12.230413726243992"><ele>1.0</ele><time>2026-04-26T16:40:09Z</time></trkpt><trkpt lat="44.75889170425074" lon="12.230374248891499"><ele>1.0</ele><time>2026-04-26T16:40:10Z</time></trkpt><trkpt lat="44.75880614215289" lon="12.230328382143444"><ele>1.0</ele><time>2026-04-26T16:40:11Z</time></trkpt><trkpt lat="44.75873983589869" lon="12.230281281176856"><ele>1.0</ele><time>2026-04-26T16:40:12Z</time></trkpt><trkpt lat="44.75865512580481" lon="12.230199648960811"><ele>1.0</ele><time>2026-04-26T16:40:14Z</time></trkpt><trkpt lat="44.75865741193166" lon="12.230066007687531"><ele>1.0</ele><time>2026-04-26T16:40:15Z</time></trkpt><trkpt lat="44.75863719907583" lon="12.22993436830683"><ele>1.0</ele><time>2026-04-26T16:40:17Z</time></trkpt><trkpt lat="44.758691976448645" lon="12.229834545775757"><ele>1.0</ele><time>2026-04-26T16:40:18Z</time></trkpt><trkpt lat="44.75873113743816" lon="12.229722421812232"><ele>1.0</ele><time>2026-04-26T16:40:19Z</time></trkpt><trkpt lat="44.75874724745351" lon="12.229576300636642"><ele>1.0</ele><time>2026-04-26T16:40:20Z</time></trkpt><trkpt lat="44.75882191917765" lon="12.229411842909476"><ele>1.0</ele><time>2026-04-26T16:40:21Z</time></trkpt><trkpt lat="44.75887244130839" lon="12.229231407278643"><ele>1.0</ele><time>2026-04-26T16:40:22Z</time></trkpt><trkpt lat="44.75893326120698" lon="12.229037757604688"><ele>1.0</ele><time>2026-04-26T16:40:23Z</time></trkpt><trkpt lat="44.75899902585161" lon="12.228842575446045"><ele>1.0</ele><time>2026-04-26T16:40:24Z</time></trkpt><trkpt lat="44.75906408649008" lon="12.228642556896606"><ele>1.0</ele><time>2026-04-26T16:40:25Z</time></trkpt><trkpt lat="44.75912264642014" lon="12.228431251892241"><ele>1.0</ele><time>2026-04-26T16:40:26Z</time></trkpt><trkpt lat="44.75918836523534" lon="12.228222555072882"><ele>1.0</ele><time>2026-04-26T16:40:27Z</time></trkpt><trkpt lat="44.75925300642059" lon="12.228017867240103"><ele>-0.33333333333333337</ele><time>2026-04-26T16:40:28Z</time></trkpt><trkpt lat="44.75932373859299" lon="12.227807252248189"><ele>-1.6666666666666667</ele><time>2026-04-26T16:40:29Z</time></trkpt><trkpt lat="44.75939242205061" lon="12.22758140250527"><ele>-3.0</ele><time>2026-04-26T16:40:30Z</time></trkpt><trkpt lat="44.75946068046574" lon="12.227381433993223"><ele>-3.666666666666667</ele><time>2026-04-26T16:40:31Z</time></trkpt><trkpt lat="44.759517739467924" lon="12.22716500860904"><ele>-4.333333333333334</ele><time>2026-04-26T16:40:32Z</time></trkpt><trkpt lat="44.759576066524296" lon="12.22696072773095"><ele>-5.0</ele><time>2026-04-26T16:40:33Z</time></trkpt><trkpt lat="44.759633433598054" lon="12.2267627333177"><ele>-5.0</ele><time>2026-04-26T16:40:34Z</time></trkpt><trkpt lat="44.75969281387837" lon="12.226583335397827"><ele>-5.0</ele><time>2026-04-26T16:40:35Z</time></trkpt><trkpt lat="44.759758959534274" lon="12.226423476188456"><ele>-5.0</ele><time>2026-04-26T16:40:36Z</time></trkpt><trkpt lat="44.75979068290804" lon="12.226217102273301"><ele>-5.0</ele><time>2026-04-26T16:40:37Z</time></trkpt><trkpt lat="44.759825191710064" lon="12.225977488757612"><ele>-5.0</ele><time>2026-04-26T16:40:38Z</time></trkpt><trkpt lat="44.75983630400062" lon="12.225697727409884"><ele>-5.0</ele><time>2026-04-26T16:40:39Z</time></trkpt><trkpt lat="44.759867622938984" lon="12.225397109140747"><ele>-5.0</ele><time>2026-04-26T16:40:40Z</time></trkpt><trkpt lat="44.75988749726892" lon="12.225090062321046"><ele>-4.333333333333334</ele><time>2026-04-26T16:40:41Z</time></trkpt><trkpt lat="44.759906454379475" lon="12.22479548264727"><ele>-3.666666666666667</ele><time>2026-04-26T16:40:42Z</time></trkpt><trkpt lat="44.759910225338906" lon="12.2244972566765"><ele>-3.0</ele><time>2026-04-26T16:40:43Z</time></trkpt><trkpt lat="44.759928698120355" lon="12.224200931386388"><ele>-2.6666666666666665</ele><time>2026-04-26T16:40:44Z</time></trkpt><trkpt lat="44.75994659744519" lon="12.2239135273195"><ele>-2.333333333333333</ele><time>2026-04-26T16:40:45Z</time></trkpt><trkpt lat="44.75996637796377" lon="12.223622156261492"><ele>-2.0</ele><time>2026-04-26T16:40:46Z</time></trkpt><trkpt lat="44.75998303695886" lon="12.223332239789018"><ele>-2.333333333333333</ele><time>2026-04-26T16:40:47Z</time></trkpt><trkpt lat="44.75999998201092" lon="12.223048026509888"><ele>-2.6666666666666665</ele><time>2026-04-26T16:40:48Z</time></trkpt><trkpt lat="44.760019796582306" lon="12.222758900152607"><ele>-3.0</ele><time>2026-04-26T16:40:49Z</time></trkpt><trkpt lat="44.76003981698431" lon="12.22246335626199"><ele>-2.5</ele><time>2026-04-26T16:40:50Z</time></trkpt><trkpt lat="44.760066494938854" lon="12.222140194401554"><ele>-2.0</ele><time>2026-04-26T16:40:51Z</time></trkpt><trkpt lat="44.76008341002121" lon="12.221818771010986"><ele>-2.0</ele><time>2026-04-26T16:40:52Z</time></trkpt><trkpt lat="44.7601222849912" lon="12.221518230282989"><ele>-2.0</ele><time>2026-04-26T16:40:53Z</time></trkpt><trkpt lat="44.76013027513471" lon="12.221212638872952"><ele>-2.0</ele><time>2026-04-26T16:40:54Z</time></trkpt><trkpt lat="44.76014318871461" lon="12.220893013047895"><ele>-2.0</ele><time>2026-04-26T16:40:55Z</time></trkpt><trkpt lat="44.76016445691663" lon="12.220588681673355"><ele>-2.0</ele><time>2026-04-26T16:40:56Z</time></trkpt><trkpt lat="44.76018730567086" lon="12.220273771780786"><ele>-2.0</ele><time>2026-04-26T16:40:57Z</time></trkpt><trkpt lat="44.760208587275585" lon="12.21996326304213"><ele>-2.6666666666666665</ele><time>2026-04-26T16:40:58Z</time></trkpt><trkpt lat="44.760225208051516" lon="12.219654577255936"><ele>-3.333333333333333</ele><time>2026-04-26T16:40:59Z</time></trkpt><trkpt lat="44.76024225154903" lon="12.219339300733699"><ele>-4.0</ele><time>2026-04-26T16:41:00Z</time></trkpt><trkpt lat="44.76025954023578" lon="12.219021120172291"><ele>-4.0</ele><time>2026-04-26T16:41:01Z</time></trkpt><trkpt lat="44.76028099508946" lon="12.218701232245989"><ele>-4.0</ele><time>2026-04-26T16:41:02.001Z</time></trkpt><trkpt lat="44.760301864557924" lon="12.218382822510993"><ele>-4.0</ele><time>2026-04-26T16:41:03.001Z</time></trkpt><trkpt lat="44.76032102932486" lon="12.218060726713201"><ele>-4.0</ele><time>2026-04-26T16:41:04.001Z</time></trkpt><trkpt lat="44.7603364211132" lon="12.217748595261062"><ele>-4.0</ele><time>2026-04-26T16:41:05.001Z</time></trkpt><trkpt lat="44.760359227553366" lon="12.217432841918729"><ele>-4.0</ele><time>2026-04-26T16:41:06.001Z</time></trkpt><trkpt lat="44.76038132216606" lon="12.217117506089414"><ele>-3.5</ele><time>2026-04-26T16:41:07.001Z</time></trkpt><trkpt lat="44.760399764047165" lon="12.216800663884106"><ele>-3.0</ele><time>2026-04-26T16:41:08.001Z</time></trkpt><trkpt lat="44.76042025906926" lon="12.216476025451541"><ele>-3.0</ele><time>2026-04-26T16:41:09.001Z</time></trkpt><trkpt lat="44.76043521373449" lon="12.216152192102388"><ele>-3.0</ele><time>2026-04-26T16:41:10.001Z</time></trkpt><trkpt lat="44.760457629722296" lon="12.21582891249056"><ele>-3.5</ele><time>2026-04-26T16:41:11.001Z</time></trkpt><trkpt lat="44.76047784314387" lon="12.215500953635424"><ele>-4.0</ele><time>2026-04-26T16:41:12.001Z</time></trkpt><trkpt lat="44.76049785731739" lon="12.215173558695225"><ele>-4.0</ele><time>2026-04-26T16:41:13.001Z</time></trkpt><trkpt lat="44.76052289914276" lon="12.214852882318437"><ele>-4.0</ele><time>2026-04-26T16:41:14.001Z</time></trkpt><trkpt lat="44.760543045919476" lon="12.214534201141847"><ele>-4.0</ele><time>2026-04-26T16:41:15.001Z</time></trkpt><trkpt lat="44.760561960806434" lon="12.214209213270493"><ele>-4.0</ele><time>2026-04-26T16:41:16.001Z</time></trkpt><trkpt lat="44.76058114195214" lon="12.21390419003893"><ele>-4.0</ele><time>2026-04-26T16:41:17.001Z</time></trkpt><trkpt lat="44.76059914473872" lon="12.213602579655072"><ele>-3.5</ele><time>2026-04-26T16:41:18.001Z</time></trkpt><trkpt lat="44.760621727254545" lon="12.21326293405091"><ele>-3.0</ele><time>2026-04-26T16:41:19.001Z</time></trkpt><trkpt lat="44.76065280477275" lon="12.21297093776012"><ele>-2.5</ele><time>2026-04-26T16:41:20.001Z</time></trkpt><trkpt lat="44.760687869882254" lon="12.212666131736526"><ele>-2.0</ele><time>2026-04-26T16:41:21.001Z</time></trkpt><trkpt lat="44.76077279947989" lon="12.21227614619223"><ele>-2.0</ele><time>2026-04-26T16:41:22.001Z</time></trkpt><trkpt lat="44.76083626490194" lon="12.211984086944698"><ele>-2.0</ele><time>2026-04-26T16:41:23.001Z</time></trkpt><trkpt lat="44.76093206166492" lon="12.211647187757636"><ele>-1.5</ele><time>2026-04-26T16:41:24.001Z</time></trkpt><trkpt lat="44.76072815801609" lon="12.211461776950074"><ele>-1.0</ele><time>2026-04-26T16:41:25.001Z</time></trkpt><trkpt lat="44.76075150315617" lon="12.211130508261325"><ele>-1.0</ele><time>2026-04-26T16:41:26.001Z</time></trkpt><trkpt lat="44.76077047716876" lon="12.21080598530073"><ele>-1.0</ele><time>2026-04-26T16:41:27.001Z</time></trkpt><trkpt lat="44.760793288076115" lon="12.210481515664199"><ele>-1.0</ele><time>2026-04-26T16:41:28.001Z</time></trkpt><trkpt lat="44.76081491311284" lon="12.210153096766216"><ele>-1.0</ele><time>2026-04-26T16:41:29.001Z</time></trkpt><trkpt lat="44.760833434506125" lon="12.20982841094098"><ele>-1.5</ele><time>2026-04-26T16:41:30.001Z</time></trkpt><trkpt lat="44.760854004055965" lon="12.209504172890115"><ele>-2.0</ele><time>2026-04-26T16:41:31.001Z</time></trkpt><trkpt lat="44.760875550166446" lon="12.20918004057831"><ele>-2.5</ele><time>2026-04-26T16:41:32.001Z</time></trkpt><trkpt lat="44.76089323627863" lon="12.20886040695243"><ele>-3.0</ele><time>2026-04-26T16:41:33.001Z</time></trkpt><trkpt lat="44.76091342888564" lon="12.2085431026622"><ele>-3.0</ele><time>2026-04-26T16:41:34.001Z</time></trkpt><trkpt lat="44.76093408307165" lon="12.208227010409479"><ele>-3.0</ele><time>2026-04-26T16:41:35.001Z</time></trkpt><trkpt lat="44.760953379581245" lon="12.207925309057861"><ele>-3.0</ele><time>2026-04-26T16:41:36.001Z</time></trkpt><trkpt lat="44.76097326538907" lon="12.207611988862466"><ele>-3.0</ele><time>2026-04-26T16:41:37.001Z</time></trkpt><trkpt lat="44.76098966002188" lon="12.207306435623156"><ele>-3.0</ele><time>2026-04-26T16:41:38.001Z</time></trkpt><trkpt lat="44.76101265100322" lon="12.20698775955839"><ele>-3.0</ele><time>2026-04-26T16:41:39.001Z</time></trkpt><trkpt lat="44.761028449263534" lon="12.206679783152463"><ele>-3.0</ele><time>2026-04-26T16:41:40.001Z</time></trkpt><trkpt lat="44.76104797435137" lon="12.206365284095753"><ele>-3.0</ele><time>2026-04-26T16:41:41.001Z</time></trkpt><trkpt lat="44.76106749387422" lon="12.206056160223268"><ele>-3.0</ele><time>2026-04-26T16:41:42.001Z</time></trkpt><trkpt lat="44.76109173887373" lon="12.205750753163521"><ele>-3.0</ele><time>2026-04-26T16:41:43.001Z</time></trkpt><trkpt lat="44.76111510443717" lon="12.205441715641706"><ele>-3.0</ele><time>2026-04-26T16:41:44.001Z</time></trkpt><trkpt lat="44.76113222130595" lon="12.205131179527752"><ele>-3.0</ele><time>2026-04-26T16:41:45Z</time></trkpt><trkpt lat="44.76114909243348" lon="12.20482380768337"><ele>-3.0</ele><time>2026-04-26T16:41:46Z</time></trkpt><trkpt lat="44.7611673593435" lon="12.20451430357105"><ele>-3.0</ele><time>2026-04-26T16:41:47Z</time></trkpt><trkpt lat="44.76118795360332" lon="12.204211740177355"><ele>-3.0</ele><time>2026-04-26T16:41:48Z</time></trkpt><trkpt lat="44.7612075310841" lon="12.203907345324435"><ele>-3.0</ele><time>2026-04-26T16:41:49Z</time></trkpt><trkpt lat="44.76122473895747" lon="12.20359982997787"><ele>-3.0</ele><time>2026-04-26T16:41:50Z</time></trkpt><trkpt lat="44.761242215905725" lon="12.203292817897225"><ele>-3.0</ele><time>2026-04-26T16:41:51Z</time></trkpt><trkpt lat="44.7612666782419" lon="12.202990164480724"><ele>-3.0</ele><time>2026-04-26T16:41:52Z</time></trkpt><trkpt lat="44.76128998018865" lon="12.202683785286522"><ele>-3.0</ele><time>2026-04-26T16:41:53Z</time></trkpt><trkpt lat="44.76130106707707" lon="12.202371507105426"><ele>-3.0</ele><time>2026-04-26T16:41:54Z</time></trkpt><trkpt lat="44.76131917810961" lon="12.202052065582775"><ele>-3.0</ele><time>2026-04-26T16:41:55Z</time></trkpt><trkpt lat="44.761337768361166" lon="12.201736102243613"><ele>-3.0</ele><time>2026-04-26T16:41:56Z</time></trkpt><trkpt lat="44.76135789160256" lon="12.201423248868348"><ele>-3.0</ele><time>2026-04-26T16:41:57Z</time></trkpt><trkpt lat="44.76137520672203" lon="12.201114480034752"><ele>-3.0</ele><time>2026-04-26T16:41:58Z</time></trkpt><trkpt lat="44.761395924185045" lon="12.200807137274257"><ele>-3.0</ele><time>2026-04-26T16:41:59Z</time></trkpt><trkpt lat="44.76141593962964" lon="12.200495684531852"><ele>-3.0</ele><time>2026-04-26T16:42:00Z</time></trkpt><trkpt lat="44.76143126881838" lon="12.20018719548873"><ele>-2.6666666666666665</ele><time>2026-04-26T16:42:01Z</time></trkpt><trkpt lat="44.761451945739644" lon="12.199878982236157"><ele>-2.333333333333333</ele><time>2026-04-26T16:42:02Z</time></trkpt><trkpt lat="44.76147185574888" lon="12.199568038316754"><ele>-2.0</ele><time>2026-04-26T16:42:03Z</time></trkpt><trkpt lat="44.76150174884736" lon="12.199257343696956"><ele>-2.0</ele><time>2026-04-26T16:42:04Z</time></trkpt><trkpt lat="44.761517898529426" lon="12.198966974791636"><ele>-2.0</ele><time>2026-04-26T16:42:05Z</time></trkpt><trkpt lat="44.761531425929945" lon="12.198688991277313"><ele>-2.0</ele><time>2026-04-26T16:42:06Z</time></trkpt><trkpt lat="44.76154362133338" lon="12.198431288741299"><ele>-2.0</ele><time>2026-04-26T16:42:07Z</time></trkpt><trkpt lat="44.76155599904973" lon="12.198189681849023"><ele>-2.0</ele><time>2026-04-26T16:42:08Z</time></trkpt><trkpt lat="44.76157580320648" lon="12.197949477923844"><ele>-2.0</ele><time>2026-04-26T16:42:09Z</time></trkpt><trkpt lat="44.761587920266706" lon="12.19771050319766"><ele>-2.0</ele><time>2026-04-26T16:42:10Z</time></trkpt><trkpt lat="44.761604953125364" lon="12.197477014015758"><ele>-2.0</ele><time>2026-04-26T16:42:11Z</time></trkpt><trkpt lat="44.761622670471226" lon="12.197244359526524"><ele>-2.0</ele><time>2026-04-26T16:42:12Z</time></trkpt><trkpt lat="44.761636429874144" lon="12.197026381610101"><ele>-2.0</ele><time>2026-04-26T16:42:13Z</time></trkpt><trkpt lat="44.761646323758775" lon="12.196818737179786"><ele>-2.0</ele><time>2026-04-26T16:42:14Z</time></trkpt><trkpt lat="44.76165729577151" lon="12.196624145344442"><ele>-2.0</ele><time>2026-04-26T16:42:15Z</time></trkpt><trkpt lat="44.76167009204598" lon="12.19643199694665"><ele>-2.0</ele><time>2026-04-26T16:42:16Z</time></trkpt><trkpt lat="44.761681565092346" lon="12.196231449429966"><ele>-2.0</ele><time>2026-04-26T16:42:17Z</time></trkpt><trkpt lat="44.76169626941527" lon="12.196019817543661"><ele>-2.0</ele><time>2026-04-26T16:42:18Z</time></trkpt><trkpt lat="44.76170836256257" lon="12.1958116886243"><ele>-2.0</ele><time>2026-04-26T16:42:19Z</time></trkpt><trkpt lat="44.76172108364997" lon="12.19561550213136"><ele>-2.0</ele><time>2026-04-26T16:42:20Z</time></trkpt><trkpt lat="44.76173776340299" lon="12.19542903846997"><ele>-2.0</ele><time>2026-04-26T16:42:21Z</time></trkpt><trkpt lat="44.76174348714232" lon="12.195255763472161"><ele>-2.0</ele><time>2026-04-26T16:42:22Z</time></trkpt><trkpt lat="44.761757313469346" lon="12.195074109614136"><ele>-2.0</ele><time>2026-04-26T16:42:23Z</time></trkpt><trkpt lat="44.76177045006001" lon="12.194895302878122"><ele>-2.0</ele><time>2026-04-26T16:42:24Z</time></trkpt><trkpt lat="44.76177954949062" lon="12.194728764939269"><ele>-2.0</ele><time>2026-04-26T16:42:25Z</time></trkpt><trkpt lat="44.761788246499385" lon="12.19456689741081"><ele>-2.0</ele><time>2026-04-26T16:42:26Z</time></trkpt><trkpt lat="44.761800100384924" lon="12.194406750870838"><ele>-2.0</ele><time>2026-04-26T16:42:27Z</time></trkpt><trkpt lat="44.76180780985185" lon="12.19424611861628"><ele>-2.0</ele><time>2026-04-26T16:42:28Z</time></trkpt><trkpt lat="44.7618144029" lon="12.19408470830974"><ele>-2.0</ele><time>2026-04-26T16:42:29Z</time></trkpt><trkpt lat="44.76182375108974" lon="12.193939653026707"><ele>-2.0</ele><time>2026-04-26T16:42:30Z</time></trkpt><trkpt lat="44.76183159153922" lon="12.193807889589769"><ele>-2.0</ele><time>2026-04-26T16:42:31Z</time></trkpt><trkpt lat="44.761839653791526" lon="12.193691775573416"><ele>-2.0</ele><time>2026-04-26T16:42:32Z</time></trkpt><trkpt lat="44.76184576425209" lon="12.193577277509705"><ele>-2.0</ele><time>2026-04-26T16:42:33Z</time></trkpt><trkpt lat="44.76185141021011" lon="12.193385714145842"><ele>-1.9999999999999998</ele><time>2026-04-26T16:42:35Z</time></trkpt><trkpt lat="44.76186239832939" lon="12.193297454721039"><ele>-2.0</ele><time>2026-04-26T16:42:36Z</time></trkpt><trkpt lat="44.761868925911415" lon="12.19320913814186"><ele>-2.0</ele><time>2026-04-26T16:42:37Z</time></trkpt><trkpt lat="44.761874113620834" lon="12.193119162269614"><ele>-2.0</ele><time>2026-04-26T16:42:38Z</time></trkpt><trkpt lat="44.76188538420478" lon="12.192953150368815"><ele>-1.9999999999999998</ele><time>2026-04-26T16:42:40Z</time></trkpt><trkpt lat="44.76190027134912" lon="12.192806789086765"><ele>-2.0</ele><time>2026-04-26T16:42:42Z</time></trkpt><trkpt lat="44.76190736157149" lon="12.192699965951027"><ele>-1.857142857142857</ele><time>2026-04-26T16:42:44Z</time></trkpt><trkpt lat="44.76192475947453" lon="12.192614212708083"><ele>-1.714285714285714</ele><time>2026-04-26T16:43:14.001Z</time></trkpt><trkpt lat="44.76192703041011" lon="12.192517264669025"><ele>-1.5714285714285714</ele><time>2026-04-26T16:43:18.001Z</time></trkpt><trkpt lat="44.76192670236571" lon="12.19242356027327"><ele>-1.4285714285714284</ele><time>2026-04-26T16:43:42.001Z</time></trkpt><trkpt lat="44.76193647426849" lon="12.192323933363756"><ele>-1.2857142857142856</ele><time>2026-04-26T16:43:46.001Z</time></trkpt><trkpt lat="44.76197104851042" lon="12.192230860892376"><ele>-1.1428571428571428</ele><time>2026-04-26T16:43:55Z</time></trkpt><trkpt lat="44.76202923651505" lon="12.192196213173682"><ele>-1.0</ele><time>2026-04-26T16:43:56Z</time></trkpt><trkpt lat="44.76211792524897" lon="12.19216425124306"><ele>-0.5</ele><time>2026-04-26T16:43:57Z</time></trkpt><trkpt lat="44.76222432044051" lon="12.192101944381394"><ele>0.0</ele><time>2026-04-26T16:43:58Z</time></trkpt><trkpt lat="44.762328961728215" lon="12.19204271747746"><ele>0.5</ele><time>2026-04-26T16:43:59Z</time></trkpt><trkpt lat="44.76244454164202" lon="12.191981081438376"><ele>1.0</ele><time>2026-04-26T16:44:00Z</time></trkpt><trkpt lat="44.76257132562454" lon="12.191911667519642"><ele>0.5</ele><time>2026-04-26T16:44:01Z</time></trkpt><trkpt lat="44.76270503800498" lon="12.19184713324165"><ele>0.0</ele><time>2026-04-26T16:44:02Z</time></trkpt><trkpt lat="44.76283946022924" lon="12.191786141740998"><ele>-0.5</ele><time>2026-04-26T16:44:03Z</time></trkpt><trkpt lat="44.76297533509599" lon="12.191722946766074"><ele>-1.0</ele><time>2026-04-26T16:44:04Z</time></trkpt><trkpt lat="44.76311849287521" lon="12.191653484353752"><ele>-1.0</ele><time>2026-04-26T16:44:05Z</time></trkpt><trkpt lat="44.763269288201066" lon="12.191593302145806"><ele>-1.0</ele><time>2026-04-26T16:44:06Z</time></trkpt><trkpt lat="44.763408535476984" lon="12.191511521620741"><ele>-1.0</ele><time>2026-04-26T16:44:07Z</time></trkpt><trkpt lat="44.76355247225643" lon="12.191455352634451"><ele>-1.0</ele><time>2026-04-26T16:44:08Z</time></trkpt><trkpt lat="44.763712317748904" lon="12.191350433271865"><ele>-1.0</ele><time>2026-04-26T16:44:09Z</time></trkpt><trkpt lat="44.76386900191548" lon="12.191272523749056"><ele>-1.0</ele><time>2026-04-26T16:44:10Z</time></trkpt><trkpt lat="44.76401951298322" lon="12.191205227872562"><ele>-1.0</ele><time>2026-04-26T16:44:11Z</time></trkpt><trkpt lat="44.764182596570656" lon="12.19113195997345"><ele>-1.0</ele><time>2026-04-26T16:44:12Z</time></trkpt><trkpt lat="44.76434739757449" lon="12.191044979596452"><ele>-1.0</ele><time>2026-04-26T16:44:13Z</time></trkpt><trkpt lat="44.764517619452256" lon="12.190962149412291"><ele>-1.3333333333333333</ele><time>2026-04-26T16:44:14Z</time></trkpt><trkpt lat="44.764685957930915" lon="12.190883763312327"><ele>-1.6666666666666665</ele><time>2026-04-26T16:44:15Z</time></trkpt><trkpt lat="44.764856886376165" lon="12.190804026632765"><ele>-2.0</ele><time>2026-04-26T16:44:16Z</time></trkpt><trkpt lat="44.76503210094595" lon="12.19072216491722"><ele>-2.0</ele><time>2026-04-26T16:44:17Z</time></trkpt><trkpt lat="44.76521008504507" lon="12.1906417103345"><ele>-2.0</ele><time>2026-04-26T16:44:18Z</time></trkpt><trkpt lat="44.76538251026798" lon="12.19055570517967"><ele>-2.0</ele><time>2026-04-26T16:44:19Z</time></trkpt><trkpt lat="44.76556088610221" lon="12.190465306113602"><ele>-2.0</ele><time>2026-04-26T16:44:20Z</time></trkpt><trkpt lat="44.76574781954628" lon="12.190382432619366"><ele>-2.0</ele><time>2026-04-26T16:44:21Z</time></trkpt><trkpt lat="44.76592364083746" lon="12.190298606054293"><ele>-2.0</ele><time>2026-04-26T16:44:22Z</time></trkpt><trkpt lat="44.76609516094028" lon="12.190211509920191"><ele>-1.6666666666666665</ele><time>2026-04-26T16:44:23Z</time></trkpt><trkpt lat="44.766268447685746" lon="12.190121311285582"><ele>-1.3333333333333333</ele><time>2026-04-26T16:44:24Z</time></trkpt><trkpt lat="44.766450115701296" lon="12.190035345751385"><ele>-1.0</ele><time>2026-04-26T16:44:25Z</time></trkpt><trkpt lat="44.766618240833544" lon="12.189949535572246"><ele>-1.0</ele><time>2026-04-26T16:44:26Z</time></trkpt><trkpt lat="44.7667978176662" lon="12.189868222703025"><ele>-1.0</ele><time>2026-04-26T16:44:27Z</time></trkpt><trkpt lat="44.76697678298879" lon="12.189779145532437"><ele>-1.0</ele><time>2026-04-26T16:44:28Z</time></trkpt><trkpt lat="44.7671611062794" lon="12.189705845566174"><ele>-1.0</ele><time>2026-04-26T16:44:29Z</time></trkpt><trkpt lat="44.7673355036536" lon="12.189610499915295"><ele>-1.0</ele><time>2026-04-26T16:44:30Z</time></trkpt><trkpt lat="44.76751963161455" lon="12.189521491261704"><ele>-1.0</ele><time>2026-04-26T16:44:31Z</time></trkpt><trkpt lat="44.76769294070171" lon="12.18944110281718"><ele>-0.6666666666666666</ele><time>2026-04-26T16:44:32Z</time></trkpt><trkpt lat="44.76787097536185" lon="12.189354045766928"><ele>-0.3333333333333333</ele><time>2026-04-26T16:44:33Z</time></trkpt><trkpt lat="44.76804880878954" lon="12.189267372144496"><ele>0.0</ele><time>2026-04-26T16:44:34Z</time></trkpt><trkpt lat="44.76822673426019" lon="12.189187612513606"><ele>0.0</ele><time>2026-04-26T16:44:35Z</time></trkpt><trkpt lat="44.76838567521911" lon="12.189099339868706"><ele>0.0</ele><time>2026-04-26T16:44:36Z</time></trkpt><trkpt lat="44.768549196390026" lon="12.189025993214468"><ele>0.0</ele><time>2026-04-26T16:44:37Z</time></trkpt><trkpt lat="44.76872567882639" lon="12.18896068326293"><ele>0.6666666666666666</ele><time>2026-04-26T16:44:38Z</time></trkpt><trkpt lat="44.768864080296005" lon="12.188876647459386"><ele>1.3333333333333333</ele><time>2026-04-26T16:44:39Z</time></trkpt><trkpt lat="44.769044788354044" lon="12.188773102548874"><ele>2.0</ele><time>2026-04-26T16:44:40Z</time></trkpt><trkpt lat="44.769214828301266" lon="12.188675783281024"><ele>1.3333333333333333</ele><time>2026-04-26T16:44:41Z</time></trkpt><trkpt lat="44.769384350613905" lon="12.18860872144506"><ele>0.6666666666666666</ele><time>2026-04-26T16:44:42Z</time></trkpt><trkpt lat="44.76954896891124" lon="12.188515045405117"><ele>0.0</ele><time>2026-04-26T16:44:43Z</time></trkpt><trkpt lat="44.769719403618566" lon="12.188427872218853"><ele>0.0</ele><time>2026-04-26T16:44:44Z</time></trkpt><trkpt lat="44.76987551781086" lon="12.188357446786005"><ele>0.0</ele><time>2026-04-26T16:44:45Z</time></trkpt><trkpt lat="44.77004707381009" lon="12.18828084544913"><ele>0.0</ele><time>2026-04-26T16:44:46Z</time></trkpt><trkpt lat="44.77021155531283" lon="12.188211125506148"><ele>0.6666666666666666</ele><time>2026-04-26T16:44:47Z</time></trkpt><trkpt lat="44.770372025172016" lon="12.188139391879576"><ele>1.3333333333333333</ele><time>2026-04-26T16:44:48Z</time></trkpt><trkpt lat="44.77054690908152" lon="12.188063181012286"><ele>2.0</ele><time>2026-04-26T16:44:49Z</time></trkpt><trkpt lat="44.770721476019666" lon="12.187990161777861"><ele>2.0</ele><time>2026-04-26T16:44:50Z</time></trkpt><trkpt lat="44.77090016858683" lon="12.187916044441248"><ele>2.0</ele><time>2026-04-26T16:44:51Z</time></trkpt><trkpt lat="44.771082186814546" lon="12.187840713020075"><ele>2.0</ele><time>2026-04-26T16:44:52Z</time></trkpt><trkpt lat="44.771262970080095" lon="12.187761126339156"><ele>1.0</ele><time>2026-04-26T16:44:53Z</time></trkpt><trkpt lat="44.77144425969864" lon="12.187687750764095"><ele>0.0</ele><time>2026-04-26T16:44:54Z</time></trkpt><trkpt lat="44.771622705969875" lon="12.187619720316105"><ele>-1.0</ele><time>2026-04-26T16:44:55Z</time></trkpt><trkpt lat="44.77179897315456" lon="12.18754040917953"><ele>-1.3333333333333333</ele><time>2026-04-26T16:44:56Z</time></trkpt><trkpt lat="44.77197915235109" lon="12.187465359844255"><ele>-1.6666666666666665</ele><time>2026-04-26T16:44:57Z</time></trkpt><trkpt lat="44.77216671033112" lon="12.187385541664685"><ele>-2.0</ele><time>2026-04-26T16:44:58Z</time></trkpt><trkpt lat="44.77234997867886" lon="12.187311293614224"><ele>-2.0</ele><time>2026-04-26T16:44:59Z</time></trkpt><trkpt lat="44.77253393958164" lon="12.18723997687789"><ele>-2.0</ele><time>2026-04-26T16:45:00Z</time></trkpt><trkpt lat="44.77272155797509" lon="12.18716501809618"><ele>-2.0</ele><time>2026-04-26T16:45:01Z</time></trkpt><trkpt lat="44.772918530941496" lon="12.187088070021728"><ele>-1.6666666666666665</ele><time>2026-04-26T16:45:02Z</time></trkpt><trkpt lat="44.773116389136064" lon="12.18703831595331"><ele>-1.3333333333333333</ele><time>2026-04-26T16:45:03Z</time></trkpt><trkpt lat="44.773314190003994" lon="12.18697468212274"><ele>-1.0</ele><time>2026-04-26T16:45:04Z</time></trkpt><trkpt lat="44.77349805970486" lon="12.186884050156719"><ele>-0.3333333333333333</ele><time>2026-04-26T16:45:05Z</time></trkpt><trkpt lat="44.7736917534353" lon="12.186830810809296"><ele>0.3333333333333333</ele><time>2026-04-26T16:45:06Z</time></trkpt><trkpt lat="44.7738747847106" lon="12.186767253532677"><ele>1.0</ele><time>2026-04-26T16:45:07Z</time></trkpt><trkpt lat="44.774074134759886" lon="12.186704638841602"><ele>1.0</ele><time>2026-04-26T16:45:08Z</time></trkpt><trkpt lat="44.77426360890509" lon="12.186643988048315"><ele>1.0</ele><time>2026-04-26T16:45:09Z</time></trkpt><trkpt lat="44.77444469141961" lon="12.186569735764666"><ele>1.0</ele><time>2026-04-26T16:45:10Z</time></trkpt><trkpt lat="44.77461756665526" lon="12.186505864720813"><ele>0.3333333333333333</ele><time>2026-04-26T16:45:11Z</time></trkpt><trkpt lat="44.77479301701859" lon="12.186439760502024"><ele>-0.3333333333333333</ele><time>2026-04-26T16:45:12.001Z</time></trkpt><trkpt lat="44.77496381268232" lon="12.18638179411289"><ele>-1.0</ele><time>2026-04-26T16:45:13.001Z</time></trkpt><trkpt lat="44.77514093238158" lon="12.18631726727162"><ele>-0.6666666666666666</ele><time>2026-04-26T16:45:14.001Z</time></trkpt><trkpt lat="44.775318552771694" lon="12.186242241145699"><ele>-0.3333333333333333</ele><time>2026-04-26T16:45:15.001Z</time></trkpt><trkpt lat="44.77548777717415" lon="12.186178596546865"><ele>0.0</ele><time>2026-04-26T16:45:16.001Z</time></trkpt><trkpt lat="44.77567167172346" lon="12.18610935149971"><ele>0.0</ele><time>2026-04-26T16:45:17.001Z</time></trkpt><trkpt lat="44.775848397763" lon="12.18605368382683"><ele>0.0</ele><time>2026-04-26T16:45:18.001Z</time></trkpt><trkpt lat="44.77603150942128" lon="12.185991307222828"><ele>0.0</ele><time>2026-04-26T16:45:19.001Z</time></trkpt><trkpt lat="44.776209905214955" lon="12.185929835445567"><ele>0.0</ele><time>2026-04-26T16:45:20.001Z</time></trkpt><trkpt lat="44.77639293120059" lon="12.18586463886042"><ele>0.0</ele><time>2026-04-26T16:45:21.001Z</time></trkpt><trkpt lat="44.77657780154818" lon="12.185800472799436"><ele>0.0</ele><time>2026-04-26T16:45:22.001Z</time></trkpt><trkpt lat="44.77676285543065" lon="12.185735983430988"><ele>-0.3333333333333333</ele><time>2026-04-26T16:45:23.001Z</time></trkpt><trkpt lat="44.77694939370854" lon="12.185667486532486"><ele>-0.6666666666666666</ele><time>2026-04-26T16:45:24.001Z</time></trkpt><trkpt lat="44.77714827218115" lon="12.185602902002913"><ele>-1.0</ele><time>2026-04-26T16:45:25.001Z</time></trkpt><trkpt lat="44.77734314582991" lon="12.185538181068623"><ele>-1.0</ele><time>2026-04-26T16:45:26.001Z</time></trkpt><trkpt lat="44.777536497005684" lon="12.18546754361185"><ele>-1.0</ele><time>2026-04-26T16:45:27.001Z</time></trkpt><trkpt lat="44.77772875230957" lon="12.185392279431065"><ele>-1.0</ele><time>2026-04-26T16:45:28.001Z</time></trkpt><trkpt lat="44.77791426040459" lon="12.185306296632051"><ele>-0.3333333333333333</ele><time>2026-04-26T16:45:29.001Z</time></trkpt><trkpt lat="44.77811217669152" lon="12.185241668498284"><ele>0.3333333333333333</ele><time>2026-04-26T16:45:30.001Z</time></trkpt><trkpt lat="44.77828580250714" lon="12.185182543138444"><ele>1.0</ele><time>2026-04-26T16:45:31.001Z</time></trkpt><trkpt lat="44.77844962032739" lon="12.185147558591238"><ele>0.3333333333333333</ele><time>2026-04-26T16:45:32.001Z</time></trkpt><trkpt lat="44.77863667342043" lon="12.185072333283157"><ele>-0.3333333333333333</ele><time>2026-04-26T16:45:33.001Z</time></trkpt><trkpt lat="44.778808540166935" lon="12.185006326485498"><ele>-1.0</ele><time>2026-04-26T16:45:34.001Z</time></trkpt><trkpt lat="44.778998914142036" lon="12.184947559856045"><ele>-1.0</ele><time>2026-04-26T16:45:35.001Z</time></trkpt><trkpt lat="44.77916738116461" lon="12.18489524603379"><ele>-1.0</ele><time>2026-04-26T16:45:36.001Z</time></trkpt><trkpt lat="44.779344709175454" lon="12.184836578675103"><ele>-1.0</ele><time>2026-04-26T16:45:37.001Z</time></trkpt><trkpt lat="44.77953907284938" lon="12.184772145211937"><ele>-1.6666666666666665</ele><time>2026-04-26T16:45:38.001Z</time></trkpt><trkpt lat="44.779705135828436" lon="12.184713125621675"><ele>-2.3333333333333335</ele><time>2026-04-26T16:45:39.001Z</time></trkpt><trkpt lat="44.77988766912943" lon="12.184645445519363"><ele>-3.0</ele><time>2026-04-26T16:45:40.001Z</time></trkpt><trkpt lat="44.78007363330662" lon="12.184579635056046"><ele>-2.6666666666666665</ele><time>2026-04-26T16:45:41.001Z</time></trkpt><trkpt lat="44.78025760571002" lon="12.184517343153217"><ele>-2.333333333333333</ele><time>2026-04-26T16:45:42.001Z</time></trkpt><trkpt lat="44.780443822336494" lon="12.184450434165267"><ele>-2.0</ele><time>2026-04-26T16:45:43.001Z</time></trkpt><trkpt lat="44.780628678501394" lon="12.184383959797659"><ele>-2.0</ele><time>2026-04-26T16:45:44.001Z</time></trkpt><trkpt lat="44.780808621041665" lon="12.184293071555386"><ele>-2.0</ele><time>2026-04-26T16:45:45.001Z</time></trkpt><trkpt lat="44.78100931009012" lon="12.18423240801473"><ele>-2.0</ele><time>2026-04-26T16:45:46.001Z</time></trkpt><trkpt lat="44.78120998174921" lon="12.184160385046058"><ele>-1.6666666666666665</ele><time>2026-04-26T16:45:47.001Z</time></trkpt><trkpt lat="44.78137658487759" lon="12.184095041172334"><ele>-1.3333333333333333</ele><time>2026-04-26T16:45:48.001Z</time></trkpt><trkpt lat="44.781546600356386" lon="12.184017896439617"><ele>-1.0</ele><time>2026-04-26T16:45:49.001Z</time></trkpt><trkpt lat="44.78173169545307" lon="12.183919346517921"><ele>-1.0</ele><time>2026-04-26T16:45:50.001Z</time></trkpt><trkpt lat="44.78191826371635" lon="12.183820180715523"><ele>-1.0</ele><time>2026-04-26T16:45:51.001Z</time></trkpt><trkpt lat="44.782098083450876" lon="12.183749196058535"><ele>-1.0</ele><time>2026-04-26T16:45:52.001Z</time></trkpt><trkpt lat="44.78228231385733" lon="12.183660648111656"><ele>-1.0</ele><time>2026-04-26T16:45:53.001Z</time></trkpt><trkpt lat="44.78246500016615" lon="12.183563106045838"><ele>-1.0</ele><time>2026-04-26T16:45:54.001Z</time></trkpt><trkpt lat="44.782649122867106" lon="12.183463786632956"><ele>-1.0</ele><time>2026-04-26T16:45:55.001Z</time></trkpt><trkpt lat="44.78283189069686" lon="12.18335682238777"><ele>-1.3333333333333333</ele><time>2026-04-26T16:45:56.001Z</time></trkpt><trkpt lat="44.78303016486244" lon="12.183235858279065"><ele>-1.6666666666666665</ele><time>2026-04-26T16:45:57Z</time></trkpt><trkpt lat="44.783210420953466" lon="12.183134013600643"><ele>-2.0</ele><time>2026-04-26T16:45:58Z</time></trkpt><trkpt lat="44.783395962192635" lon="12.183049332440689"><ele>-1.6666666666666665</ele><time>2026-04-26T16:45:59Z</time></trkpt><trkpt lat="44.7835762819634" lon="12.182981225570817"><ele>-1.3333333333333333</ele><time>2026-04-26T16:46:00Z</time></trkpt><trkpt lat="44.78375620162686" lon="12.182866177039388"><ele>-1.0</ele><time>2026-04-26T16:46:01Z</time></trkpt><trkpt lat="44.78394433837804" lon="12.182782093503134"><ele>-1.0</ele><time>2026-04-26T16:46:02Z</time></trkpt><trkpt lat="44.78413784043413" lon="12.182696004595202"><ele>-1.0</ele><time>2026-04-26T16:46:03Z</time></trkpt><trkpt lat="44.78433785016397" lon="12.182664053655"><ele>-1.0</ele><time>2026-04-26T16:46:04Z</time></trkpt><trkpt lat="44.78453271130585" lon="12.182590363302328"><ele>-0.6666666666666666</ele><time>2026-04-26T16:46:05Z</time></trkpt><trkpt lat="44.7847213876996" lon="12.18249451442918"><ele>-0.3333333333333333</ele><time>2026-04-26T16:46:06Z</time></trkpt><trkpt lat="44.78492344182842" lon="12.182472353098186"><ele>0.0</ele><time>2026-04-26T16:46:07Z</time></trkpt><trkpt lat="44.78509320589229" lon="12.182432960166185"><ele>0.0</ele><time>2026-04-26T16:46:08Z</time></trkpt><trkpt lat="44.78527089653257" lon="12.182356639228077"><ele>0.0</ele><time>2026-04-26T16:46:09Z</time></trkpt><trkpt lat="44.7854529704198" lon="12.182318590068132"><ele>0.0</ele><time>2026-04-26T16:46:10Z</time></trkpt><trkpt lat="44.78563426400483" lon="12.182275444575609"><ele>0.3333333333333333</ele><time>2026-04-26T16:46:11Z</time></trkpt><trkpt lat="44.78581423299042" lon="12.182225975761403"><ele>0.6666666666666666</ele><time>2026-04-26T16:46:12Z</time></trkpt><trkpt lat="44.78599992482249" lon="12.182174137743344"><ele>1.0</ele><time>2026-04-26T16:46:13Z</time></trkpt><trkpt lat="44.78618237364998" lon="12.182123730975421"><ele>1.0</ele><time>2026-04-26T16:46:14Z</time></trkpt><trkpt lat="44.78636304484142" lon="12.182075871743676"><ele>1.0</ele><time>2026-04-26T16:46:15Z</time></trkpt><trkpt lat="44.78654208106271" lon="12.182021689480163"><ele>1.0</ele><time>2026-04-26T16:46:16Z</time></trkpt><trkpt lat="44.78672439986618" lon="12.18195944814747"><ele>1.0</ele><time>2026-04-26T16:46:17Z</time></trkpt><trkpt lat="44.78689909667015" lon="12.181925120099093"><ele>1.0</ele><time>2026-04-26T16:46:18Z</time></trkpt><trkpt lat="44.78708003503183" lon="12.181865567090806"><ele>1.0</ele><time>2026-04-26T16:46:19Z</time></trkpt><trkpt lat="44.78725687516949" lon="12.181823884658357"><ele>1.0</ele><time>2026-04-26T16:46:20Z</time></trkpt><trkpt lat="44.78742862592043" lon="12.181780541713584"><ele>1.0</ele><time>2026-04-26T16:46:21Z</time></trkpt><trkpt lat="44.78761651867039" lon="12.181729041960596"><ele>1.0</ele><time>2026-04-26T16:46:22Z</time></trkpt><trkpt lat="44.7878095375149" lon="12.181673038443995"><ele>0.0</ele><time>2026-04-26T16:46:23Z</time></trkpt><trkpt lat="44.78799067719825" lon="12.181634867633024"><ele>-1.0</ele><time>2026-04-26T16:46:24Z</time></trkpt><trkpt lat="44.78817477968785" lon="12.181578312088622"><ele>-2.0</ele><time>2026-04-26T16:46:25Z</time></trkpt><trkpt lat="44.788367419053486" lon="12.181536647023059"><ele>-1.3333333333333333</ele><time>2026-04-26T16:46:26Z</time></trkpt><trkpt lat="44.788546809731905" lon="12.181482177667254"><ele>-0.6666666666666666</ele><time>2026-04-26T16:46:27Z</time></trkpt><trkpt lat="44.78873563034356" lon="12.18144466023007"><ele>0.0</ele><time>2026-04-26T16:46:28Z</time></trkpt><trkpt lat="44.78892205211467" lon="12.181381863283242"><ele>0.0</ele><time>2026-04-26T16:46:29Z</time></trkpt><trkpt lat="44.789109591741116" lon="12.18132534709841"><ele>0.0</ele><time>2026-04-26T16:46:30Z</time></trkpt><trkpt lat="44.78928294588031" lon="12.181268375326178"><ele>0.0</ele><time>2026-04-26T16:46:31Z</time></trkpt><trkpt lat="44.789470390627095" lon="12.181208067387281"><ele>-0.3333333333333333</ele><time>2026-04-26T16:46:32Z</time></trkpt><trkpt lat="44.78965422928645" lon="12.181135777654468"><ele>-0.6666666666666666</ele><time>2026-04-26T16:46:33Z</time></trkpt><trkpt lat="44.789832609736166" lon="12.181061718062004"><ele>-1.0</ele><time>2026-04-26T16:46:34Z</time></trkpt><trkpt lat="44.79000905327484" lon="12.180994676385039"><ele>-0.6666666666666666</ele><time>2026-04-26T16:46:35Z</time></trkpt><trkpt lat="44.790186027046424" lon="12.180930511842263"><ele>-0.3333333333333333</ele><time>2026-04-26T16:46:36Z</time></trkpt><trkpt lat="44.790364637684775" lon="12.180859942899662"><ele>0.0</ele><time>2026-04-26T16:46:37Z</time></trkpt><trkpt lat="44.790549672524115" lon="12.180793349691049"><ele>0.0</ele><time>2026-04-26T16:46:38Z</time></trkpt><trkpt lat="44.790726439299824" lon="12.180721158766685"><ele>0.0</ele><time>2026-04-26T16:46:39Z</time></trkpt><trkpt lat="44.79090429248987" lon="12.180654803351585"><ele>0.0</ele><time>2026-04-26T16:46:40Z</time></trkpt><trkpt lat="44.79108364295475" lon="12.18059170368969"><ele>0.0</ele><time>2026-04-26T16:46:41Z</time></trkpt><trkpt lat="44.79126350387954" lon="12.180534888662091"><ele>0.0</ele><time>2026-04-26T16:46:42Z</time></trkpt><trkpt lat="44.79146467915247" lon="12.18048988254632"><ele>0.0</ele><time>2026-04-26T16:46:43Z</time></trkpt><trkpt lat="44.79164708890001" lon="12.18038869337052"><ele>0.0</ele><time>2026-04-26T16:46:44Z</time></trkpt><trkpt lat="44.79180821038858" lon="12.180320325673874"><ele>0.0</ele><time>2026-04-26T16:46:45Z</time></trkpt><trkpt lat="44.79198803207054" lon="12.180280239454016"><ele>0.0</ele><time>2026-04-26T16:46:46Z</time></trkpt><trkpt lat="44.79217525450195" lon="12.180265245332857"><ele>0.3333333333333333</ele><time>2026-04-26T16:46:47Z</time></trkpt><trkpt lat="44.79235189593968" lon="12.180236021830424"><ele>0.6666666666666666</ele><time>2026-04-26T16:46:48Z</time></trkpt><trkpt lat="44.792529167421904" lon="12.180192394005335"><ele>1.0</ele><time>2026-04-26T16:46:49Z</time></trkpt><trkpt lat="44.792712681317504" lon="12.180154412854902"><ele>0.3333333333333333</ele><time>2026-04-26T16:46:50Z</time></trkpt><trkpt lat="44.792918923552875" lon="12.18009798991057"><ele>-0.3333333333333333</ele><time>2026-04-26T16:46:51Z</time></trkpt><trkpt lat="44.79310655422425" lon="12.180053460529239"><ele>-1.0</ele><time>2026-04-26T16:46:52Z</time></trkpt><trkpt lat="44.793303176492735" lon="12.180000563160407"><ele>-1.0</ele><time>2026-04-26T16:46:53Z</time></trkpt><trkpt lat="44.793496975359695" lon="12.17992907281671"><ele>-1.0</ele><time>2026-04-26T16:46:54Z</time></trkpt><trkpt lat="44.793712082395174" lon="12.179834161510717"><ele>-1.0</ele><time>2026-04-26T16:46:55Z</time></trkpt><trkpt lat="44.793816120212355" lon="12.179940907357624"><ele>-1.3333333333333333</ele><time>2026-04-26T16:46:56Z</time></trkpt><trkpt lat="44.79399767389098" lon="12.179907680442405"><ele>-1.6666666666666665</ele><time>2026-04-26T16:46:57Z</time></trkpt><trkpt lat="44.79418138116399" lon="12.179861050158772"><ele>-2.0</ele><time>2026-04-26T16:46:58Z</time></trkpt><trkpt lat="44.794361803002666" lon="12.179822455783887"><ele>-2.0</ele><time>2026-04-26T16:46:59Z</time></trkpt><trkpt lat="44.79454462942598" lon="12.179784250265392"><ele>-2.0</ele><time>2026-04-26T16:47:00Z</time></trkpt><trkpt lat="44.79472570193953" lon="12.17974854021007"><ele>-2.0</ele><time>2026-04-26T16:47:01Z</time></trkpt><trkpt lat="44.794911934397234" lon="12.179708156382631"><ele>-2.0</ele><time>2026-04-26T16:47:02Z</time></trkpt><trkpt lat="44.79509531545518" lon="12.179670450934019"><ele>-2.0</ele><time>2026-04-26T16:47:03Z</time></trkpt><trkpt lat="44.79527873674203" lon="12.179635891073822"><ele>-2.0</ele><time>2026-04-26T16:47:04Z</time></trkpt><trkpt lat="44.79547751199737" lon="12.1795980033307"><ele>-2.333333333333333</ele><time>2026-04-26T16:47:05Z</time></trkpt><trkpt lat="44.795671315096634" lon="12.179576877345344"><ele>-2.6666666666666665</ele><time>2026-04-26T16:47:06Z</time></trkpt><trkpt lat="44.79585838466755" lon="12.17953715531962"><ele>-3.0</ele><time>2026-04-26T16:47:07Z</time></trkpt><trkpt lat="44.79604064837714" lon="12.179505951293473"><ele>-3.0</ele><time>2026-04-26T16:47:08Z</time></trkpt><trkpt lat="44.79623160730446" lon="12.179475406711301"><ele>-3.0</ele><time>2026-04-26T16:47:09Z</time></trkpt><trkpt lat="44.796407860105184" lon="12.17943682768649"><ele>-3.0</ele><time>2026-04-26T16:47:10Z</time></trkpt><trkpt lat="44.796592320030214" lon="12.179390419032417"><ele>-3.0</ele><time>2026-04-26T16:47:11Z</time></trkpt><trkpt lat="44.79677899438604" lon="12.179355493671231"><ele>-3.0</ele><time>2026-04-26T16:47:12Z</time></trkpt><trkpt lat="44.79696114335916" lon="12.179316082252"><ele>-3.0</ele><time>2026-04-26T16:47:13Z</time></trkpt><trkpt lat="44.797140479954166" lon="12.1792734796111"><ele>-2.6666666666666665</ele><time>2026-04-26T16:47:14Z</time></trkpt><trkpt lat="44.79732326651244" lon="12.179230077954182"><ele>-2.333333333333333</ele><time>2026-04-26T16:47:15Z</time></trkpt><trkpt lat="44.7974962439129" lon="12.17920044259563"><ele>-2.0</ele><time>2026-04-26T16:47:16Z</time></trkpt><trkpt lat="44.79768578137292" lon="12.179171078237548"><ele>-1.3333333333333333</ele><time>2026-04-26T16:47:17Z</time></trkpt><trkpt lat="44.79785921447569" lon="12.179132267938838"><ele>-0.6666666666666666</ele><time>2026-04-26T16:47:18Z</time></trkpt><trkpt lat="44.79802327299454" lon="12.17910407791415"><ele>0.0</ele><time>2026-04-26T16:47:19Z</time></trkpt><trkpt lat="44.79817902533461" lon="12.179069139817935"><ele>0.0</ele><time>2026-04-26T16:47:20Z</time></trkpt><trkpt lat="44.798337920031535" lon="12.179037794868872"><ele>0.0</ele><time>2026-04-26T16:47:21Z</time></trkpt><trkpt lat="44.79849593908747" lon="12.179010020863497"><ele>0.0</ele><time>2026-04-26T16:47:22Z</time></trkpt><trkpt lat="44.79865520462462" lon="12.178981667186957"><ele>0.3333333333333333</ele><time>2026-04-26T16:47:23.001Z</time></trkpt><trkpt lat="44.798816560812995" lon="12.178956421292565"><ele>0.6666666666666666</ele><time>2026-04-26T16:47:24.001Z</time></trkpt><trkpt lat="44.79897924543763" lon="12.178934639547425"><ele>1.0</ele><time>2026-04-26T16:47:25.001Z</time></trkpt><trkpt lat="44.79914672538842" lon="12.178916301045412"><ele>1.0</ele><time>2026-04-26T16:47:26.001Z</time></trkpt><trkpt lat="44.79931483658417" lon="12.178897150823532"><ele>1.0</ele><time>2026-04-26T16:47:27.001Z</time></trkpt><trkpt lat="44.79948398246189" lon="12.17887774792075"><ele>1.0</ele><time>2026-04-26T16:47:28.001Z</time></trkpt><trkpt lat="44.79965065436002" lon="12.17886031044236"><ele>0.6666666666666666</ele><time>2026-04-26T16:47:29.001Z</time></trkpt><trkpt lat="44.7998180683171" lon="12.178849964569762"><ele>0.3333333333333333</ele><time>2026-04-26T16:47:30.001Z</time></trkpt><trkpt lat="44.79998886051385" lon="12.178839121723435"><ele>0.0</ele><time>2026-04-26T16:47:31.001Z</time></trkpt><trkpt lat="44.80015804912948" lon="12.17883240790486"><ele>0.0</ele><time>2026-04-26T16:47:32.001Z</time></trkpt><trkpt lat="44.80033178602674" lon="12.178821323519696"><ele>0.0</ele><time>2026-04-26T16:47:33.001Z</time></trkpt><trkpt lat="44.800504105389415" lon="12.17881618151538"><ele>0.0</ele><time>2026-04-26T16:47:34.001Z</time></trkpt><trkpt lat="44.800674421513236" lon="12.178798989554924"><ele>0.0</ele><time>2026-04-26T16:47:35.001Z</time></trkpt><trkpt lat="44.80082206308464" lon="12.178772094092869"><ele>0.0</ele><time>2026-04-26T16:47:36.001Z</time></trkpt><trkpt lat="44.800989699480624" lon="12.17874167535757"><ele>0.0</ele><time>2026-04-26T16:47:37.001Z</time></trkpt><trkpt lat="44.80114739554315" lon="12.178741886367163"><ele>-0.3333333333333333</ele><time>2026-04-26T16:47:38.001Z</time></trkpt><trkpt lat="44.801309726614484" lon="12.17868275717353"><ele>-0.6666666666666666</ele><time>2026-04-26T16:47:39.001Z</time></trkpt><trkpt lat="44.801468828204605" lon="12.178649112159635"><ele>-1.0</ele><time>2026-04-26T16:47:40.001Z</time></trkpt><trkpt lat="44.801621001355095" lon="12.178619337907502"><ele>-1.0</ele><time>2026-04-26T16:47:41.001Z</time></trkpt><trkpt lat="44.8017690593632" lon="12.17859309975302"><ele>-1.0</ele><time>2026-04-26T16:47:42.001Z</time></trkpt><trkpt lat="44.8019134426831" lon="12.178563012146318"><ele>-1.0</ele><time>2026-04-26T16:47:43.001Z</time></trkpt><trkpt lat="44.80205776473783" lon="12.178533377105813"><ele>-1.0</ele><time>2026-04-26T16:47:44.001Z</time></trkpt><trkpt lat="44.802206968171454" lon="12.178504001755408"><ele>-1.0</ele><time>2026-04-26T16:47:45.001Z</time></trkpt><trkpt lat="44.802360886416345" lon="12.178474682969366"><ele>-1.0</ele><time>2026-04-26T16:47:46.001Z</time></trkpt><trkpt lat="44.802517858844645" lon="12.178446186591676"><ele>-1.0</ele><time>2026-04-26T16:47:47.001Z</time></trkpt><trkpt lat="44.8026784170864" lon="12.178410828765095"><ele>-0.3333333333333333</ele><time>2026-04-26T16:47:48.001Z</time></trkpt><trkpt lat="44.80284204767895" lon="12.178386832301262"><ele>0.3333333333333333</ele><time>2026-04-26T16:47:49.001Z</time></trkpt><trkpt lat="44.80299658489355" lon="12.178353771677406"><ele>1.0</ele><time>2026-04-26T16:47:50.001Z</time></trkpt><trkpt lat="44.80315549878637" lon="12.178336198968395"><ele>1.0</ele><time>2026-04-26T16:47:51.001Z</time></trkpt><trkpt lat="44.803306639702676" lon="12.17832095497646"><ele>1.0</ele><time>2026-04-26T16:47:52.001Z</time></trkpt><trkpt lat="44.80345372400105" lon="12.178306619845682"><ele>1.0</ele><time>2026-04-26T16:47:53.001Z</time></trkpt><trkpt lat="44.80359758394445" lon="12.178296307627225"><ele>1.0</ele><time>2026-04-26T16:47:54.001Z</time></trkpt><trkpt lat="44.803744960062616" lon="12.178287246047761"><ele>0.3333333333333333</ele><time>2026-04-26T16:47:55.001Z</time></trkpt><trkpt lat="44.80389569467503" lon="12.17827830769082"><ele>-0.3333333333333333</ele><time>2026-04-26T16:47:56.001Z</time></trkpt><trkpt lat="44.80405199930473" lon="12.178273930767462"><ele>-1.0</ele><time>2026-04-26T16:47:57.001Z</time></trkpt><trkpt lat="44.80420758885457" lon="12.178274487462543"><ele>-0.6666666666666666</ele><time>2026-04-26T16:47:58.001Z</time></trkpt><trkpt lat="44.80436832980569" lon="12.178269479906753"><ele>-0.3333333333333333</ele><time>2026-04-26T16:47:59.001Z</time></trkpt><trkpt lat="44.80452820382755" lon="12.178261904524932"><ele>0.0</ele><time>2026-04-26T16:48:00.001Z</time></trkpt><trkpt lat="44.804693931648906" lon="12.1782559277243"><ele>0.0</ele><time>2026-04-26T16:48:01.001Z</time></trkpt><trkpt lat="44.80485830998981" lon="12.178249689486865"><ele>0.0</ele><time>2026-04-26T16:48:02.001Z</time></trkpt><trkpt lat="44.805023529938495" lon="12.178244648704146"><ele>0.0</ele><time>2026-04-26T16:48:03Z</time></trkpt><trkpt lat="44.80518324419026" lon="12.178237171989561"><ele>0.3333333333333333</ele><time>2026-04-26T16:48:04Z</time></trkpt><trkpt lat="44.80534163227093" lon="12.178226361922682"><ele>0.6666666666666666</ele><time>2026-04-26T16:48:05Z</time></trkpt><trkpt lat="44.80549968109409" lon="12.178222774504256"><ele>1.0</ele><time>2026-04-26T16:48:06Z</time></trkpt><trkpt lat="44.80565836453743" lon="12.178198342965066"><ele>0.6666666666666666</ele><time>2026-04-26T16:48:07Z</time></trkpt><trkpt lat="44.805818125357" lon="12.178178948297388"><ele>0.3333333333333333</ele><time>2026-04-26T16:48:08Z</time></trkpt><trkpt lat="44.805979190006276" lon="12.178158573433429"><ele>0.0</ele><time>2026-04-26T16:48:09Z</time></trkpt><trkpt lat="44.8061417149754" lon="12.178133590064672"><ele>-0.6666666666666666</ele><time>2026-04-26T16:48:10Z</time></trkpt><trkpt lat="44.8063061305671" lon="12.178111411620257"><ele>-1.3333333333333333</ele><time>2026-04-26T16:48:11Z</time></trkpt><trkpt lat="44.80647003407782" lon="12.178090514721402"><ele>-2.0</ele><time>2026-04-26T16:48:12Z</time></trkpt><trkpt lat="44.80663752286191" lon="12.178073320033832"><ele>-2.0</ele><time>2026-04-26T16:48:13Z</time></trkpt><trkpt lat="44.806801083942446" lon="12.178055327474599"><ele>-2.0</ele><time>2026-04-26T16:48:14Z</time></trkpt><trkpt lat="44.80697169861058" lon="12.178029853126356"><ele>-2.0</ele><time>2026-04-26T16:48:15Z</time></trkpt><trkpt lat="44.80714124939754" lon="12.17800679878451"><ele>-1.6666666666666665</ele><time>2026-04-26T16:48:16Z</time></trkpt><trkpt lat="44.80730817211673" lon="12.177987226515848"><ele>-1.3333333333333333</ele><time>2026-04-26T16:48:17Z</time></trkpt><trkpt lat="44.807474181097675" lon="12.177964876591163"><ele>-1.0</ele><time>2026-04-26T16:48:18Z</time></trkpt><trkpt lat="44.80764312681389" lon="12.177939896160252"><ele>-0.6666666666666666</ele><time>2026-04-26T16:48:19Z</time></trkpt><trkpt lat="44.80781170794261" lon="12.17791139455152"><ele>-0.3333333333333333</ele><time>2026-04-26T16:48:20Z</time></trkpt><trkpt lat="44.807972498043185" lon="12.177885034845115"><ele>0.0</ele><time>2026-04-26T16:48:21Z</time></trkpt><trkpt lat="44.80814357458549" lon="12.177850394048704"><ele>0.0</ele><time>2026-04-26T16:48:22Z</time></trkpt><trkpt lat="44.808308211649475" lon="12.177813803571853"><ele>0.0</ele><time>2026-04-26T16:48:23Z</time></trkpt><trkpt lat="44.80847194446735" lon="12.17778265151384"><ele>0.0</ele><time>2026-04-26T16:48:24Z</time></trkpt><trkpt lat="44.80863764756883" lon="12.177756030045444"><ele>0.3333333333333333</ele><time>2026-04-26T16:48:25Z</time></trkpt><trkpt lat="44.80879645558364" lon="12.17773622247658"><ele>0.6666666666666666</ele><time>2026-04-26T16:48:26Z</time></trkpt><trkpt lat="44.80896093708439" lon="12.177714782104934"><ele>1.0</ele><time>2026-04-26T16:48:27Z</time></trkpt><trkpt lat="44.80912326260533" lon="12.177701667925538"><ele>1.0</ele><time>2026-04-26T16:48:28Z</time></trkpt><trkpt lat="44.8092876009997" lon="12.177684022227329"><ele>1.0</ele><time>2026-04-26T16:48:29Z</time></trkpt><trkpt lat="44.80945340287242" lon="12.177673885342099"><ele>1.0</ele><time>2026-04-26T16:48:30Z</time></trkpt><trkpt lat="44.80961715239211" lon="12.17766721737942"><ele>1.0</ele><time>2026-04-26T16:48:31Z</time></trkpt><trkpt lat="44.80978309499565" lon="12.177656823300463"><ele>1.0</ele><time>2026-04-26T16:48:32Z</time></trkpt><trkpt lat="44.80993933835008" lon="12.177650330757102"><ele>1.0</ele><time>2026-04-26T16:48:33Z</time></trkpt><trkpt lat="44.81009621388829" lon="12.177653082980294"><ele>0.0</ele><time>2026-04-26T16:48:34Z</time></trkpt><trkpt lat="44.81025895382985" lon="12.17765072017216"><ele>-1.0</ele><time>2026-04-26T16:48:35Z</time></trkpt><trkpt lat="44.81041706887008" lon="12.177655231148458"><ele>-2.0</ele><time>2026-04-26T16:48:36Z</time></trkpt><trkpt lat="44.81057656605509" lon="12.177651669956756"><ele>-2.0</ele><time>2026-04-26T16:48:37Z</time></trkpt><trkpt lat="44.810742562043686" lon="12.17764557008399"><ele>-2.0</ele><time>2026-04-26T16:48:38Z</time></trkpt><trkpt lat="44.810901493036866" lon="12.177643509018113"><ele>-2.0</ele><time>2026-04-26T16:48:39Z</time></trkpt><trkpt lat="44.8110597589138" lon="12.177646128083854"><ele>-2.0</ele><time>2026-04-26T16:48:40Z</time></trkpt><trkpt lat="44.811210841918175" lon="12.177643115724285"><ele>-2.0</ele><time>2026-04-26T16:48:41Z</time></trkpt><trkpt lat="44.81135506101125" lon="12.177641929990232"><ele>-2.0</ele><time>2026-04-26T16:48:42Z</time></trkpt><trkpt lat="44.81149297112747" lon="12.177650182315805"><ele>-2.0</ele><time>2026-04-26T16:48:43Z</time></trkpt><trkpt lat="44.81163342204284" lon="12.177649511067715"><ele>-2.0</ele><time>2026-04-26T16:48:44Z</time></trkpt><trkpt lat="44.81177575819489" lon="12.177649495548673"><ele>-2.0</ele><time>2026-04-26T16:48:45Z</time></trkpt><trkpt lat="44.811926135376005" lon="12.177649998067231"><ele>-2.0</ele><time>2026-04-26T16:48:46Z</time></trkpt><trkpt lat="44.81208421444923" lon="12.177649857443233"><ele>-2.0</ele><time>2026-04-26T16:48:47Z</time></trkpt><trkpt lat="44.81225265839816" lon="12.177646761638645"><ele>-2.0</ele><time>2026-04-26T16:48:48Z</time></trkpt><trkpt lat="44.81242709222217" lon="12.177650000533422"><ele>-2.0</ele><time>2026-04-26T16:48:49Z</time></trkpt><trkpt lat="44.81259683679801" lon="12.17764878995862"><ele>-2.333333333333333</ele><time>2026-04-26T16:48:50Z</time></trkpt><trkpt lat="44.812768890767096" lon="12.177647981214578"><ele>-2.6666666666666665</ele><time>2026-04-26T16:48:51Z</time></trkpt><trkpt lat="44.81294068269806" lon="12.177646823679668"><ele>-3.0</ele><time>2026-04-26T16:48:52Z</time></trkpt><trkpt lat="44.81311434833518" lon="12.177647486482275"><ele>-3.0</ele><time>2026-04-26T16:48:53Z</time></trkpt><trkpt lat="44.81328894437388" lon="12.177644550480899"><ele>-3.0</ele><time>2026-04-26T16:48:54Z</time></trkpt><trkpt lat="44.81346192428214" lon="12.177645276933317"><ele>-3.0</ele><time>2026-04-26T16:48:55Z</time></trkpt><trkpt lat="44.81363798736759" lon="12.177644704487557"><ele>-3.666666666666667</ele><time>2026-04-26T16:48:56Z</time></trkpt><trkpt lat="44.81380805904115" lon="12.177643335948938"><ele>-4.333333333333334</ele><time>2026-04-26T16:48:57Z</time></trkpt><trkpt lat="44.81398516467247" lon="12.177639311279453"><ele>-5.0</ele><time>2026-04-26T16:48:58Z</time></trkpt><trkpt lat="44.814159466860055" lon="12.177635680167311"><ele>-4.666666666666667</ele><time>2026-04-26T16:48:59Z</time></trkpt><trkpt lat="44.814333451604725" lon="12.177638797155643"><ele>-4.333333333333333</ele><time>2026-04-26T16:49:00Z</time></trkpt><trkpt lat="44.81450677821312" lon="12.177639876061352"><ele>-4.0</ele><time>2026-04-26T16:49:01Z</time></trkpt><trkpt lat="44.814679083225215" lon="12.177640942704334"><ele>-4.0</ele><time>2026-04-26T16:49:02Z</time></trkpt><trkpt lat="44.814849209354065" lon="12.177648895869519"><ele>-4.0</ele><time>2026-04-26T16:49:03Z</time></trkpt><trkpt lat="44.81501398892791" lon="12.177668360979943"><ele>-4.0</ele><time>2026-04-26T16:49:04Z</time></trkpt><trkpt lat="44.815186350483266" lon="12.177682951698904"><ele>-3.333333333333333</ele><time>2026-04-26T16:49:05Z</time></trkpt><trkpt lat="44.815355543474176" lon="12.177716404773788"><ele>-2.6666666666666665</ele><time>2026-04-26T16:49:06Z</time></trkpt><trkpt lat="44.81552003200323" lon="12.17776856773828"><ele>-2.0</ele><time>2026-04-26T16:49:07Z</time></trkpt><trkpt lat="44.81568634764563" lon="12.17782523177256"><ele>-2.0</ele><time>2026-04-26T16:49:08Z</time></trkpt><trkpt lat="44.815856632312325" lon="12.177901144369343"><ele>-2.0</ele><time>2026-04-26T16:49:09Z</time></trkpt><trkpt lat="44.816022272688116" lon="12.17798454841267"><ele>-2.0</ele><time>2026-04-26T16:49:10Z</time></trkpt><trkpt lat="44.81618161907605" lon="12.178081201938593"><ele>-1.6666666666666665</ele><time>2026-04-26T16:49:11Z</time></trkpt><trkpt lat="44.81634470618122" lon="12.178181648239848"><ele>-1.3333333333333333</ele><time>2026-04-26T16:49:12Z</time></trkpt><trkpt lat="44.81650841330951" lon="12.178277369361599"><ele>-1.0</ele><time>2026-04-26T16:49:13Z</time></trkpt><trkpt lat="44.816665484035454" lon="12.178374142336184"><ele>-1.3333333333333333</ele><time>2026-04-26T16:49:14.001Z</time></trkpt><trkpt lat="44.816833797996395" lon="12.178457876051958"><ele>-1.6666666666666665</ele><time>2026-04-26T16:49:15.001Z</time></trkpt><trkpt lat="44.81699114364534" lon="12.178547050864685"><ele>-2.0</ele><time>2026-04-26T16:49:16.001Z</time></trkpt><trkpt lat="44.817151047918436" lon="12.178636692306569"><ele>-2.0</ele><time>2026-04-26T16:49:17.001Z</time></trkpt><trkpt lat="44.817309585510635" lon="12.178729712764603"><ele>-2.0</ele><time>2026-04-26T16:49:18.001Z</time></trkpt><trkpt lat="44.81747311194932" lon="12.178819028053347"><ele>-2.0</ele><time>2026-04-26T16:49:19.001Z</time></trkpt><trkpt lat="44.817636083847134" lon="12.1789113381161"><ele>-2.0</ele><time>2026-04-26T16:49:20.001Z</time></trkpt><trkpt lat="44.81779913102692" lon="12.17900501254528"><ele>-2.0</ele><time>2026-04-26T16:49:21.001Z</time></trkpt><trkpt lat="44.81797347351853" lon="12.179085172714213"><ele>-2.0</ele><time>2026-04-26T16:49:22.001Z</time></trkpt><trkpt lat="44.81814073585166" lon="12.17916198435541"><ele>-2.0</ele><time>2026-04-26T16:49:23.001Z</time></trkpt><trkpt lat="44.818294312946016" lon="12.179269350290017"><ele>-2.0</ele><time>2026-04-26T16:49:24.001Z</time></trkpt><trkpt lat="44.818457667374034" lon="12.179360125980187"><ele>-2.0</ele><time>2026-04-26T16:49:25.001Z</time></trkpt><trkpt lat="44.81861942049073" lon="12.179443390783346"><ele>-2.0</ele><time>2026-04-26T16:49:26.001Z</time></trkpt><trkpt lat="44.81878806817026" lon="12.179499815799517"><ele>-2.0</ele><time>2026-04-26T16:49:27.001Z</time></trkpt><trkpt lat="44.818961740884696" lon="12.179537753227482"><ele>-2.0</ele><time>2026-04-26T16:49:28.001Z</time></trkpt><trkpt lat="44.819134125048585" lon="12.179553175494966"><ele>-2.0</ele><time>2026-04-26T16:49:29.001Z</time></trkpt><trkpt lat="44.819301403507225" lon="12.179552041865922"><ele>-2.0</ele><time>2026-04-26T16:49:30.001Z</time></trkpt><trkpt lat="44.81946410452457" lon="12.179525884179636"><ele>-2.0</ele><time>2026-04-26T16:49:31.001Z</time></trkpt><trkpt lat="44.81962145711088" lon="12.179479236386612"><ele>-1.6666666666666665</ele><time>2026-04-26T16:49:32.001Z</time></trkpt><trkpt lat="44.8197775258013" lon="12.17941861289577"><ele>-1.3333333333333333</ele><time>2026-04-26T16:49:33.001Z</time></trkpt><trkpt lat="44.81993269603253" lon="12.179346421037595"><ele>-1.0</ele><time>2026-04-26T16:49:34.001Z</time></trkpt><trkpt lat="44.82008793807113" lon="12.179270515711918"><ele>-1.0</ele><time>2026-04-26T16:49:35.001Z</time></trkpt><trkpt lat="44.82024350709322" lon="12.179195218200366"><ele>-1.0</ele><time>2026-04-26T16:49:36.001Z</time></trkpt><trkpt lat="44.82040282114357" lon="12.179124310656652"><ele>-1.0</ele><time>2026-04-26T16:49:37.001Z</time></trkpt><trkpt lat="44.82056025877528" lon="12.179053859610192"><ele>-0.6666666666666666</ele><time>2026-04-26T16:49:38.001Z</time></trkpt><trkpt lat="44.820718318929444" lon="12.178982335570947"><ele>-0.3333333333333333</ele><time>2026-04-26T16:49:39.001Z</time></trkpt><trkpt lat="44.82087844245194" lon="12.178908430449514"><ele>0.0</ele><time>2026-04-26T16:49:40.001Z</time></trkpt><trkpt lat="44.82103820286191" lon="12.178837529502138"><ele>-0.6666666666666666</ele><time>2026-04-26T16:49:41.001Z</time></trkpt><trkpt lat="44.821198114464025" lon="12.178766503992795"><ele>-1.3333333333333333</ele><time>2026-04-26T16:49:42.001Z</time></trkpt><trkpt lat="44.821356492275825" lon="12.178693447677663"><ele>-2.0</ele><time>2026-04-26T16:49:43.001Z</time></trkpt><trkpt lat="44.82151637391009" lon="12.178622510431394"><ele>-2.0</ele><time>2026-04-26T16:49:44.001Z</time></trkpt><trkpt lat="44.82167376765546" lon="12.178547621782567"><ele>-2.0</ele><time>2026-04-26T16:49:45.001Z</time></trkpt><trkpt lat="44.82183414347763" lon="12.178478517310747"><ele>-2.0</ele><time>2026-04-26T16:49:46.001Z</time></trkpt><trkpt lat="44.821992314634876" lon="12.178416683672323"><ele>-2.333333333333333</ele><time>2026-04-26T16:49:47.001Z</time></trkpt><trkpt lat="44.822147732392466" lon="12.178337512347126"><ele>-2.6666666666666665</ele><time>2026-04-26T16:49:48.001Z</time></trkpt><trkpt lat="44.8222967018499" lon="12.178273324891695"><ele>-3.0</ele><time>2026-04-26T16:49:49.001Z</time></trkpt><trkpt lat="44.82244324901186" lon="12.178201150402925"><ele>-3.0</ele><time>2026-04-26T16:49:50.001Z</time></trkpt><trkpt lat="44.82260011397758" lon="12.178136190168583"><ele>-3.0</ele><time>2026-04-26T16:49:51.001Z</time></trkpt><trkpt lat="44.822769229851204" lon="12.178047034766397"><ele>-3.0</ele><time>2026-04-26T16:49:52.001Z</time></trkpt><trkpt lat="44.82291560682083" lon="12.177979926467659"><ele>-2.6666666666666665</ele><time>2026-04-26T16:49:53.001Z</time></trkpt><trkpt lat="44.82307291690087" lon="12.17791735047387"><ele>-2.333333333333333</ele><time>2026-04-26T16:49:54.001Z</time></trkpt><trkpt lat="44.82322193986547" lon="12.177847758189833"><ele>-2.0</ele><time>2026-04-26T16:49:55.001Z</time></trkpt><trkpt lat="44.82338165987776" lon="12.177778673414972"><ele>-2.333333333333333</ele><time>2026-04-26T16:49:56.001Z</time></trkpt><trkpt lat="44.82353971098558" lon="12.177699316672356"><ele>-2.6666666666666665</ele><time>2026-04-26T16:49:57.001Z</time></trkpt><trkpt lat="44.823698189866214" lon="12.177631457166532"><ele>-3.0</ele><time>2026-04-26T16:49:58.001Z</time></trkpt><trkpt lat="44.82385761909898" lon="12.177556955469141"><ele>-3.0</ele><time>2026-04-26T16:49:59.001Z</time></trkpt><trkpt lat="44.824022826573895" lon="12.177486178334089"><ele>-3.0</ele><time>2026-04-26T16:50:00.001Z</time></trkpt><trkpt lat="44.8241990035994" lon="12.177393883543022"><ele>-3.0</ele><time>2026-04-26T16:50:01.001Z</time></trkpt><trkpt lat="44.8243698445802" lon="12.177315523191659"><ele>-2.6666666666666665</ele><time>2026-04-26T16:50:02.001Z</time></trkpt><trkpt lat="44.82453663679412" lon="12.177224231389664"><ele>-2.333333333333333</ele><time>2026-04-26T16:50:03.001Z</time></trkpt><trkpt lat="44.82470938133786" lon="12.177121738792202"><ele>-2.0</ele><time>2026-04-26T16:50:04.001Z</time></trkpt><trkpt lat="44.824872660871996" lon="12.17711863915625"><ele>-2.0</ele><time>2026-04-26T16:50:05.001Z</time></trkpt><trkpt lat="44.825038294892" lon="12.177036815391832"><ele>-2.0</ele><time>2026-04-26T16:50:06.001Z</time></trkpt><trkpt lat="44.8252105181366" lon="12.176964109166233"><ele>-2.0</ele><time>2026-04-26T16:50:07.001Z</time></trkpt><trkpt lat="44.825383112559656" lon="12.176880726942496"><ele>-2.0</ele><time>2026-04-26T16:50:08.001Z</time></trkpt><trkpt lat="44.82556099904347" lon="12.1768047396481"><ele>-2.0</ele><time>2026-04-26T16:50:09Z</time></trkpt><trkpt lat="44.8257431077613" lon="12.176727536808436"><ele>-2.0</ele><time>2026-04-26T16:50:10Z</time></trkpt><trkpt lat="44.82592164806366" lon="12.176646233015774"><ele>-2.0</ele><time>2026-04-26T16:50:11Z</time></trkpt><trkpt lat="44.82609776682945" lon="12.176567876392678"><ele>-2.0</ele><time>2026-04-26T16:50:12Z</time></trkpt><trkpt lat="44.82627441887144" lon="12.176490456968322"><ele>-2.0</ele><time>2026-04-26T16:50:13Z</time></trkpt><trkpt lat="44.82643789994286" lon="12.176412020761294"><ele>-2.333333333333333</ele><time>2026-04-26T16:50:14Z</time></trkpt><trkpt lat="44.826603603138786" lon="12.17633914774278"><ele>-2.6666666666666665</ele><time>2026-04-26T16:50:15Z</time></trkpt><trkpt lat="44.82676873807921" lon="12.176268688189078"><ele>-3.0</ele><time>2026-04-26T16:50:16Z</time></trkpt><trkpt lat="44.82693591961431" lon="12.176192392800179"><ele>-3.0</ele><time>2026-04-26T16:50:17Z</time></trkpt><trkpt lat="44.827100862639725" lon="12.17611770249655"><ele>-3.0</ele><time>2026-04-26T16:50:18Z</time></trkpt><trkpt lat="44.82726374407927" lon="12.176045065018753"><ele>-3.0</ele><time>2026-04-26T16:50:19Z</time></trkpt><trkpt lat="44.82743138923555" lon="12.175975859292498"><ele>-3.0</ele><time>2026-04-26T16:50:20Z</time></trkpt><trkpt lat="44.82759944072226" lon="12.17590452677847"><ele>-3.0</ele><time>2026-04-26T16:50:21Z</time></trkpt><trkpt lat="44.82776719418491" lon="12.175835561625652"><ele>-3.0</ele><time>2026-04-26T16:50:22Z</time></trkpt><trkpt lat="44.82793659803814" lon="12.175764028711079"><ele>-3.333333333333333</ele><time>2026-04-26T16:50:23Z</time></trkpt><trkpt lat="44.82810557908473" lon="12.175688310679615"><ele>-3.6666666666666665</ele><time>2026-04-26T16:50:24Z</time></trkpt><trkpt lat="44.8282765759258" lon="12.175611717864445"><ele>-4.0</ele><time>2026-04-26T16:50:25Z</time></trkpt><trkpt lat="44.82844937937821" lon="12.175533109301707"><ele>-3.0</ele><time>2026-04-26T16:50:26Z</time></trkpt><trkpt lat="44.82862558962278" lon="12.175455007285644"><ele>-2.0</ele><time>2026-04-26T16:50:27Z</time></trkpt><trkpt lat="44.82880099399282" lon="12.175367721208591"><ele>-1.0</ele><time>2026-04-26T16:50:28Z</time></trkpt><trkpt lat="44.82897507849427" lon="12.175286467686563"><ele>-1.0</ele><time>2026-04-26T16:50:29Z</time></trkpt><trkpt lat="44.82914869352972" lon="12.17520444873199"><ele>-1.0</ele><time>2026-04-26T16:50:30Z</time></trkpt><trkpt lat="44.82932265561893" lon="12.175121356479485"><ele>-1.0</ele><time>2026-04-26T16:50:31Z</time></trkpt><trkpt lat="44.82949630972011" lon="12.175041791013047"><ele>-1.0</ele><time>2026-04-26T16:50:32Z</time></trkpt><trkpt lat="44.829673523999475" lon="12.174969895352264"><ele>-1.0</ele><time>2026-04-26T16:50:33Z</time></trkpt><trkpt lat="44.829849862846025" lon="12.174889686434335"><ele>-1.0</ele><time>2026-04-26T16:50:34Z</time></trkpt><trkpt lat="44.830025919855444" lon="12.174798103005003"><ele>-2.0</ele><time>2026-04-26T16:50:35Z</time></trkpt><trkpt lat="44.83020096048695" lon="12.174714628752506"><ele>-3.0</ele><time>2026-04-26T16:50:36Z</time></trkpt><trkpt lat="44.83037991290271" lon="12.174641320861388"><ele>-4.0</ele><time>2026-04-26T16:50:37Z</time></trkpt><trkpt lat="44.830554297341564" lon="12.174558124392327"><ele>-4.0</ele><time>2026-04-26T16:50:38Z</time></trkpt><trkpt lat="44.83072539710232" lon="12.174482429350077"><ele>-4.0</ele><time>2026-04-26T16:50:39Z</time></trkpt><trkpt lat="44.83089312010531" lon="12.174410887303177"><ele>-4.0</ele><time>2026-04-26T16:50:40Z</time></trkpt><trkpt lat="44.83105744412422" lon="12.174336589386481"><ele>-3.333333333333333</ele><time>2026-04-26T16:50:41Z</time></trkpt><trkpt lat="44.83121935153971" lon="12.174260675602103"><ele>-2.6666666666666665</ele><time>2026-04-26T16:50:42Z</time></trkpt><trkpt lat="44.831381335631306" lon="12.174193072929526"><ele>-2.0</ele><time>2026-04-26T16:50:43Z</time></trkpt><trkpt lat="44.831541459781064" lon="12.174119333041403"><ele>-2.0</ele><time>2026-04-26T16:50:44Z</time></trkpt><trkpt lat="44.83169912980708" lon="12.174048226965066"><ele>-2.0</ele><time>2026-04-26T16:50:45Z</time></trkpt><trkpt lat="44.83185350375989" lon="12.173968226071704"><ele>-2.0</ele><time>2026-04-26T16:50:46Z</time></trkpt><trkpt lat="44.83200681233493" lon="12.173900940957612"><ele>-2.333333333333333</ele><time>2026-04-26T16:50:47Z</time></trkpt><trkpt lat="44.83216375061922" lon="12.173848110818225"><ele>-2.6666666666666665</ele><time>2026-04-26T16:50:48Z</time></trkpt><trkpt lat="44.8323236781833" lon="12.173779220613705"><ele>-3.0</ele><time>2026-04-26T16:50:49Z</time></trkpt><trkpt lat="44.83249210568646" lon="12.173726379164416"><ele>-2.6666666666666665</ele><time>2026-04-26T16:50:50Z</time></trkpt><trkpt lat="44.83266408959909" lon="12.173705659525424"><ele>-2.333333333333333</ele><time>2026-04-26T16:50:51Z</time></trkpt><trkpt lat="44.832839783736645" lon="12.173727186035629"><ele>-2.0</ele><time>2026-04-26T16:50:52Z</time></trkpt><trkpt lat="44.83301721663478" lon="12.173764376431857"><ele>-2.0</ele><time>2026-04-26T16:50:53Z</time></trkpt><trkpt lat="44.833183403072724" lon="12.173827408806076"><ele>-2.0</ele><time>2026-04-26T16:50:54Z</time></trkpt><trkpt lat="44.833337724532065" lon="12.173904083737735"><ele>-2.0</ele><time>2026-04-26T16:50:55Z</time></trkpt><trkpt lat="44.83348439848504" lon="12.174001720375445"><ele>-2.0</ele><time>2026-04-26T16:50:56Z</time></trkpt><trkpt lat="44.83362170801069" lon="12.174113349743628"><ele>-2.0</ele><time>2026-04-26T16:50:57Z</time></trkpt><trkpt lat="44.8337737966476" lon="12.17421394468637"><ele>-2.0</ele><time>2026-04-26T16:50:58Z</time></trkpt><trkpt lat="44.83393384809808" lon="12.174309299345895"><ele>-2.0</ele><time>2026-04-26T16:50:59Z</time></trkpt><trkpt lat="44.83409150577382" lon="12.174418528391488"><ele>-2.0</ele><time>2026-04-26T16:51:00Z</time></trkpt><trkpt lat="44.83424988201843" lon="12.174531033989563"><ele>-2.0</ele><time>2026-04-26T16:51:01Z</time></trkpt><trkpt lat="44.83440904670885" lon="12.174621462608332"><ele>-2.333333333333333</ele><time>2026-04-26T16:51:02Z</time></trkpt><trkpt lat="44.83455926448548" lon="12.174715314898354"><ele>-2.6666666666666665</ele><time>2026-04-26T16:51:03Z</time></trkpt><trkpt lat="44.83470854326868" lon="12.174810629592603"><ele>-3.0</ele><time>2026-04-26T16:51:04Z</time></trkpt><trkpt lat="44.834861238525946" lon="12.174897661128872"><ele>-2.6666666666666665</ele><time>2026-04-26T16:51:05Z</time></trkpt><trkpt lat="44.83502473632736" lon="12.174968926027095"><ele>-2.333333333333333</ele><time>2026-04-26T16:51:06Z</time></trkpt><trkpt lat="44.83519270430519" lon="12.175030879828173"><ele>-2.0</ele><time>2026-04-26T16:51:07Z</time></trkpt><trkpt lat="44.835363484932294" lon="12.17508792594044"><ele>-2.0</ele><time>2026-04-26T16:51:08Z</time></trkpt><trkpt lat="44.835525121423345" lon="12.175146211432189"><ele>-2.0</ele><time>2026-04-26T16:51:09Z</time></trkpt><trkpt lat="44.835694546185586" lon="12.175198886355783"><ele>-2.0</ele><time>2026-04-26T16:51:10Z</time></trkpt><trkpt lat="44.835850132135484" lon="12.175234980241692"><ele>-2.333333333333333</ele><time>2026-04-26T16:51:11Z</time></trkpt><trkpt lat="44.83600119547086" lon="12.175257838653035"><ele>-2.6666666666666665</ele><time>2026-04-26T16:51:12Z</time></trkpt><trkpt lat="44.836156416630416" lon="12.175268813112943"><ele>-3.0</ele><time>2026-04-26T16:51:13Z</time></trkpt><trkpt lat="44.83630878325115" lon="12.175276754751884"><ele>-3.0</ele><time>2026-04-26T16:51:14Z</time></trkpt><trkpt lat="44.83646629272411" lon="12.175279129136873"><ele>-3.0</ele><time>2026-04-26T16:51:15Z</time></trkpt><trkpt lat="44.83662554916151" lon="12.17528918794061"><ele>-3.0</ele><time>2026-04-26T16:51:16Z</time></trkpt><trkpt lat="44.836773056253314" lon="12.175289324893978"><ele>-3.0</ele><time>2026-04-26T16:51:17Z</time></trkpt><trkpt lat="44.83690739897889" lon="12.175285002072275"><ele>-3.0</ele><time>2026-04-26T16:51:18Z</time></trkpt><trkpt lat="44.837022600784806" lon="12.175288708341537"><ele>-3.0</ele><time>2026-04-26T16:51:19Z</time></trkpt><trkpt lat="44.83712245965425" lon="12.175311007499884"><ele>-3.0</ele><time>2026-04-26T16:51:20Z</time></trkpt><trkpt lat="44.83720958483851" lon="12.175353545204993"><ele>-3.0</ele><time>2026-04-26T16:51:21Z</time></trkpt><trkpt lat="44.837281376955914" lon="12.175437915347107"><ele>-3.0</ele><time>2026-04-26T16:51:22Z</time></trkpt><trkpt lat="44.83734455034858" lon="12.175548974623494"><ele>-3.0</ele><time>2026-04-26T16:51:23Z</time></trkpt><trkpt lat="44.83738152461902" lon="12.175680113486907"><ele>-3.0</ele><time>2026-04-26T16:51:24Z</time></trkpt><trkpt lat="44.83739435078084" lon="12.175819547256616"><ele>-3.0</ele><time>2026-04-26T16:51:25Z</time></trkpt><trkpt lat="44.837387372074204" lon="12.175989897690513"><ele>-3.0</ele><time>2026-04-26T16:51:26Z</time></trkpt><trkpt lat="44.83737510422722" lon="12.176172512361576"><ele>-2.75</ele><time>2026-04-26T16:51:27Z</time></trkpt><trkpt lat="44.83736258005229" lon="12.176350978230277"><ele>-2.5</ele><time>2026-04-26T16:51:28Z</time></trkpt><trkpt lat="44.83732820461859" lon="12.17651414210272"><ele>-2.25</ele><time>2026-04-26T16:51:29Z</time></trkpt><trkpt lat="44.83724914851342" lon="12.176644127178411"><ele>-2.0</ele><time>2026-04-26T16:51:30Z</time></trkpt><trkpt lat="44.83714929037187" lon="12.17672905974355"><ele>-2.0</ele><time>2026-04-26T16:51:31Z</time></trkpt><trkpt lat="44.8370526665834" lon="12.176752176015745"><ele>-2.0</ele><time>2026-04-26T16:51:32Z</time></trkpt><trkpt lat="44.83696929507153" lon="12.176731952287385"><ele>-2.0</ele><time>2026-04-26T16:51:33Z</time></trkpt><trkpt lat="44.83688165363508" lon="12.17667286198161"><ele>-2.0</ele><time>2026-04-26T16:51:35Z</time></trkpt><trkpt lat="44.83683690766839" lon="12.176589251970034"><ele>-2.0</ele><time>2026-04-26T16:51:41.001Z</time></trkpt><trkpt lat="44.836817245616125" lon="12.176379461413482"><ele>-2.0</ele><time>2026-04-26T16:51:43.001Z</time></trkpt><trkpt lat="44.83681911842473" lon="12.176242840034934"><ele>-2.0</ele><time>2026-04-26T16:51:44.001Z</time></trkpt><trkpt lat="44.83682152164771" lon="12.176122385739077"><ele>-2.0</ele><time>2026-04-26T16:51:45.001Z</time></trkpt><trkpt lat="44.836823875636306" lon="12.175983853118769"><ele>-2.0</ele><time>2026-04-26T16:51:46.001Z</time></trkpt><trkpt lat="44.83682931032121" lon="12.175812726039256"><ele>-2.0</ele><time>2026-04-26T16:51:47.001Z</time></trkpt><trkpt lat="44.836829211217236" lon="12.175605758075255"><ele>-2.333333333333333</ele><time>2026-04-26T16:51:48.001Z</time></trkpt><trkpt lat="44.83683290516386" lon="12.175381697943616"><ele>-2.6666666666666665</ele><time>2026-04-26T16:51:49.001Z</time></trkpt><trkpt lat="44.83683692568113" lon="12.175165374542306"><ele>-3.0</ele><time>2026-04-26T16:51:50.001Z</time></trkpt><trkpt lat="44.83684475583706" lon="12.17496786161952"><ele>-3.0</ele><time>2026-04-26T16:51:51.001Z</time></trkpt><trkpt lat="44.83684275219157" lon="12.174748688981245"><ele>-3.0</ele><time>2026-04-26T16:51:52.001Z</time></trkpt><trkpt lat="44.83684217309899" lon="12.174547509228221"><ele>-3.0</ele><time>2026-04-26T16:51:53.001Z</time></trkpt><trkpt lat="44.83685021453036" lon="12.174339083864584"><ele>-3.0</ele><time>2026-04-26T16:51:54.001Z</time></trkpt><trkpt lat="44.836855621835156" lon="12.174139280411378"><ele>-2.6666666666666665</ele><time>2026-04-26T16:51:55.001Z</time></trkpt><trkpt lat="44.836857412721244" lon="12.173916657430896"><ele>-2.333333333333333</ele><time>2026-04-26T16:51:56.001Z</time></trkpt><trkpt lat="44.836855992471094" lon="12.173676187403993"><ele>-2.0</ele><time>2026-04-26T16:51:57.001Z</time></trkpt><trkpt lat="44.836854056045055" lon="12.173461687458861"><ele>-2.0</ele><time>2026-04-26T16:51:58.001Z</time></trkpt><trkpt lat="44.83684648693765" lon="12.173247038078387"><ele>-2.0</ele><time>2026-04-26T16:51:59.001Z</time></trkpt><trkpt lat="44.83683189068783" lon="12.17302714904484"><ele>-2.0</ele><time>2026-04-26T16:52:00.001Z</time></trkpt><trkpt lat="44.836809700742194" lon="12.172809984830263"><ele>-2.0</ele><time>2026-04-26T16:52:01.001Z</time></trkpt><trkpt lat="44.83677934818473" lon="12.172589796579611"><ele>-2.0</ele><time>2026-04-26T16:52:02.001Z</time></trkpt><trkpt lat="44.836738375168665" lon="12.172361066677121"><ele>-2.0</ele><time>2026-04-26T16:52:03.001Z</time></trkpt><trkpt lat="44.83668072712571" lon="12.172122186831022"><ele>-2.0</ele><time>2026-04-26T16:52:04.001Z</time></trkpt><trkpt lat="44.836603461311746" lon="12.17188038312255"><ele>-2.0</ele><time>2026-04-26T16:52:05.001Z</time></trkpt><trkpt lat="44.836517952481756" lon="12.171664107005967"><ele>-2.0</ele><time>2026-04-26T16:52:06.001Z</time></trkpt><trkpt lat="44.836428446224325" lon="12.17145277394437"><ele>-2.333333333333333</ele><time>2026-04-26T16:52:07.001Z</time></trkpt><trkpt lat="44.83632521335622" lon="12.171247012636774"><ele>-2.6666666666666665</ele><time>2026-04-26T16:52:08.001Z</time></trkpt><trkpt lat="44.83620924458657" lon="12.171043662062702"><ele>-3.0</ele><time>2026-04-26T16:52:09.001Z</time></trkpt><trkpt lat="44.83608276404252" lon="12.17085590644972"><ele>-2.6666666666666665</ele><time>2026-04-26T16:52:10.001Z</time></trkpt><trkpt lat="44.83595492571998" lon="12.170677009548566"><ele>-2.333333333333333</ele><time>2026-04-26T16:52:11.001Z</time></trkpt><trkpt lat="44.83583053333086" lon="12.170493879499622"><ele>-2.0</ele><time>2026-04-26T16:52:12.001Z</time></trkpt><trkpt lat="44.8357056325749" lon="12.170309932428635"><ele>-2.0</ele><time>2026-04-26T16:52:13.001Z</time></trkpt><trkpt lat="44.83558653009721" lon="12.170134694527741"><ele>-2.0</ele><time>2026-04-26T16:52:14.001Z</time></trkpt><trkpt lat="44.835475772873224" lon="12.16997362725957"><ele>-2.0</ele><time>2026-04-26T16:52:15Z</time></trkpt><trkpt lat="44.83536433172325" lon="12.169813686426806"><ele>-1.0</ele><time>2026-04-26T16:52:16Z</time></trkpt><trkpt lat="44.83524897535578" lon="12.169639912747014"><ele>0.0</ele><time>2026-04-26T16:52:17Z</time></trkpt><trkpt lat="44.83512657882283" lon="12.169449241166934"><ele>1.0</ele><time>2026-04-26T16:52:18Z</time></trkpt><trkpt lat="44.835006091243535" lon="12.169255611289511"><ele>1.0</ele><time>2026-04-26T16:52:19Z</time></trkpt><trkpt lat="44.83489284269773" lon="12.169058176477037"><ele>1.0</ele><time>2026-04-26T16:52:20Z</time></trkpt><trkpt lat="44.83479474855449" lon="12.168852923150572"><ele>1.0</ele><time>2026-04-26T16:52:21Z</time></trkpt><trkpt lat="44.83470045675369" lon="12.168636767547856"><ele>1.0</ele><time>2026-04-26T16:52:22Z</time></trkpt><trkpt lat="44.834624444325954" lon="12.168399196708911"><ele>1.0</ele><time>2026-04-26T16:52:23Z</time></trkpt><trkpt lat="44.83455243132935" lon="12.16816586953833"><ele>1.0</ele><time>2026-04-26T16:52:24Z</time></trkpt><trkpt lat="44.834499675748155" lon="12.167950092019368"><ele>0.6666666666666666</ele><time>2026-04-26T16:52:25Z</time></trkpt><trkpt lat="44.834452963211724" lon="12.167723044671577"><ele>0.3333333333333333</ele><time>2026-04-26T16:52:26Z</time></trkpt><trkpt lat="44.83441740382012" lon="12.167491803051393"><ele>0.0</ele><time>2026-04-26T16:52:27Z</time></trkpt><trkpt lat="44.83438525516452" lon="12.167250586098833"><ele>-0.3333333333333333</ele><time>2026-04-26T16:52:28Z</time></trkpt><trkpt lat="44.834368292604005" lon="12.167006893771918"><ele>-0.6666666666666666</ele><time>2026-04-26T16:52:29Z</time></trkpt><trkpt lat="44.83436335852412" lon="12.166752233304678"><ele>-1.0</ele><time>2026-04-26T16:52:30Z</time></trkpt><trkpt lat="44.834370296464144" lon="12.166490020553248"><ele>-1.3333333333333333</ele><time>2026-04-26T16:52:31Z</time></trkpt><trkpt lat="44.8343854624302" lon="12.166211404074566"><ele>-1.6666666666666665</ele><time>2026-04-26T16:52:32Z</time></trkpt><trkpt lat="44.83439998906651" lon="12.165921065408835"><ele>-2.0</ele><time>2026-04-26T16:52:33Z</time></trkpt><trkpt lat="44.83441396702553" lon="12.165638340016663"><ele>-2.333333333333333</ele><time>2026-04-26T16:52:34Z</time></trkpt><trkpt lat="44.834427470454436" lon="12.165359227094246"><ele>-2.6666666666666665</ele><time>2026-04-26T16:52:35Z</time></trkpt><trkpt lat="44.834441443719754" lon="12.165067663001176"><ele>-3.0</ele><time>2026-04-26T16:52:36Z</time></trkpt><trkpt lat="44.83445537074147" lon="12.1647647445278"><ele>-3.0</ele><time>2026-04-26T16:52:37Z</time></trkpt><trkpt lat="44.834470948417085" lon="12.164451920760445"><ele>-3.0</ele><time>2026-04-26T16:52:38Z</time></trkpt><trkpt lat="44.83448868711535" lon="12.16414474146287"><ele>-3.0</ele><time>2026-04-26T16:52:39Z</time></trkpt><trkpt lat="44.83450535485803" lon="12.16383428356901"><ele>-2.6666666666666665</ele><time>2026-04-26T16:52:40Z</time></trkpt><trkpt lat="44.83451984597695" lon="12.163530928576288"><ele>-2.333333333333333</ele><time>2026-04-26T16:52:41Z</time></trkpt><trkpt lat="44.834537502012495" lon="12.163248135542228"><ele>-2.0</ele><time>2026-04-26T16:52:42Z</time></trkpt><trkpt lat="44.83455169010325" lon="12.162962739568178"><ele>-2.6666666666666665</ele><time>2026-04-26T16:52:43Z</time></trkpt><trkpt lat="44.83456348960835" lon="12.162674244864924"><ele>-3.333333333333333</ele><time>2026-04-26T16:52:44Z</time></trkpt><trkpt lat="44.83457899221216" lon="12.162381486011943"><ele>-4.0</ele><time>2026-04-26T16:52:45Z</time></trkpt><trkpt lat="44.83459490070928" lon="12.162084262875634"><ele>-4.0</ele><time>2026-04-26T16:52:46Z</time></trkpt><trkpt lat="44.83460698930134" lon="12.161783728710569"><ele>-4.0</ele><time>2026-04-26T16:52:47Z</time></trkpt><trkpt lat="44.83461746201093" lon="12.161489548761711"><ele>-4.0</ele><time>2026-04-26T16:52:48Z</time></trkpt><trkpt lat="44.83463425677863" lon="12.161188893095169"><ele>-3.6666666666666665</ele><time>2026-04-26T16:52:49Z</time></trkpt><trkpt lat="44.834650097519436" lon="12.160891370153374"><ele>-3.333333333333333</ele><time>2026-04-26T16:52:50Z</time></trkpt><trkpt lat="44.8346620114576" lon="12.160590411728826"><ele>-3.0</ele><time>2026-04-26T16:52:51Z</time></trkpt><trkpt lat="44.83466392920154" lon="12.16029026561992"><ele>-3.0</ele><time>2026-04-26T16:52:52Z</time></trkpt><trkpt lat="44.834648933092936" lon="12.159998184040857"><ele>-3.0</ele><time>2026-04-26T16:52:53Z</time></trkpt><trkpt lat="44.83460098243051" lon="12.159724241842813"><ele>-3.0</ele><time>2026-04-26T16:52:54Z</time></trkpt><trkpt lat="44.834709862523766" lon="12.159377186346935"><ele>-3.333333333333333</ele><time>2026-04-26T16:52:55Z</time></trkpt><trkpt lat="44.83472227323076" lon="12.159081599083201"><ele>-3.6666666666666665</ele><time>2026-04-26T16:52:56Z</time></trkpt><trkpt lat="44.834737773061164" lon="12.158783050884708"><ele>-4.0</ele><time>2026-04-26T16:52:57Z</time></trkpt><trkpt lat="44.83474959806909" lon="12.158481180252094"><ele>-3.6666666666666665</ele><time>2026-04-26T16:52:58Z</time></trkpt><trkpt lat="44.83475967879274" lon="12.158183483536334"><ele>-3.333333333333333</ele><time>2026-04-26T16:52:59Z</time></trkpt><trkpt lat="44.83477539102292" lon="12.157874689835111"><ele>-3.0</ele><time>2026-04-26T16:53:00Z</time></trkpt><trkpt lat="44.834794536049955" lon="12.157570266911817"><ele>-3.0</ele><time>2026-04-26T16:53:01Z</time></trkpt><trkpt lat="44.83481024164938" lon="12.157258483328924"><ele>-3.0</ele><time>2026-04-26T16:53:02Z</time></trkpt><trkpt lat="44.83482096563771" lon="12.156959545443586"><ele>-3.0</ele><time>2026-04-26T16:53:03Z</time></trkpt><trkpt lat="44.834833847048344" lon="12.15665618012717"><ele>-3.0</ele><time>2026-04-26T16:53:04Z</time></trkpt><trkpt lat="44.83484885785916" lon="12.156355227841999"><ele>-3.0</ele><time>2026-04-26T16:53:05Z</time></trkpt><trkpt lat="44.83486471066038" lon="12.156063211309062"><ele>-3.0</ele><time>2026-04-26T16:53:06Z</time></trkpt><trkpt lat="44.83487685351169" lon="12.155774282176651"><ele>-2.3333333333333335</ele><time>2026-04-26T16:53:07Z</time></trkpt><trkpt lat="44.834888513698196" lon="12.155487430940637"><ele>-1.6666666666666665</ele><time>2026-04-26T16:53:08Z</time></trkpt><trkpt lat="44.83490217747499" lon="12.155198688111456"><ele>-1.0</ele><time>2026-04-26T16:53:09Z</time></trkpt><trkpt lat="44.834916191571054" lon="12.154910044695821"><ele>-1.6666666666666665</ele><time>2026-04-26T16:53:10Z</time></trkpt><trkpt lat="44.83492908131239" lon="12.154617701015871"><ele>-2.3333333333333335</ele><time>2026-04-26T16:53:11Z</time></trkpt><trkpt lat="44.8349379297635" lon="12.15433544851691"><ele>-3.0</ele><time>2026-04-26T16:53:12Z</time></trkpt><trkpt lat="44.83494733003305" lon="12.154046468754665"><ele>-2.6666666666666665</ele><time>2026-04-26T16:53:13Z</time></trkpt><trkpt lat="44.834960970228906" lon="12.153764799878637"><ele>-2.333333333333333</ele><time>2026-04-26T16:53:14Z</time></trkpt><trkpt lat="44.834971279061826" lon="12.153472088793288"><ele>-2.0</ele><time>2026-04-26T16:53:15Z</time></trkpt><trkpt lat="44.834977639560094" lon="12.153176358342341"><ele>-2.0</ele><time>2026-04-26T16:53:16Z</time></trkpt><trkpt lat="44.83497988373044" lon="12.152889671176366"><ele>-2.0</ele><time>2026-04-26T16:53:17Z</time></trkpt><trkpt lat="44.83497773628713" lon="12.15259338157517"><ele>-2.0</ele><time>2026-04-26T16:53:18Z</time></trkpt><trkpt lat="44.83496521753064" lon="12.152328337508818"><ele>-2.0</ele><time>2026-04-26T16:53:19Z</time></trkpt><trkpt lat="44.83497358968432" lon="12.152026011756394"><ele>-2.0</ele><time>2026-04-26T16:53:20Z</time></trkpt><trkpt lat="44.834968530506764" lon="12.151740236578904"><ele>-2.0</ele><time>2026-04-26T16:53:21Z</time></trkpt><trkpt lat="44.83497589470764" lon="12.15145485995443"><ele>-2.0</ele><time>2026-04-26T16:53:22Z</time></trkpt><trkpt lat="44.83499612296053" lon="12.15115401756283"><ele>-2.0</ele><time>2026-04-26T16:53:23Z</time></trkpt><trkpt lat="44.834992651457654" lon="12.150873856210474"><ele>-2.0</ele><time>2026-04-26T16:53:24Z</time></trkpt><trkpt lat="44.83500171178685" lon="12.150593958399684"><ele>-2.0</ele><time>2026-04-26T16:53:25Z</time></trkpt><trkpt lat="44.835013703352296" lon="12.15030282768944"><ele>-2.0</ele><time>2026-04-26T16:53:26Z</time></trkpt><trkpt lat="44.8350313398473" lon="12.150024849830086"><ele>-2.0</ele><time>2026-04-26T16:53:27Z</time></trkpt><trkpt lat="44.83504380474016" lon="12.149734349757354"><ele>-2.0</ele><time>2026-04-26T16:53:28Z</time></trkpt><trkpt lat="44.83506211126773" lon="12.149440687836787"><ele>-2.0</ele><time>2026-04-26T16:53:29Z</time></trkpt><trkpt lat="44.83508675940379" lon="12.149153917666347"><ele>-2.0</ele><time>2026-04-26T16:53:30Z</time></trkpt><trkpt lat="44.83510933536726" lon="12.148869784066303"><ele>-2.0</ele><time>2026-04-26T16:53:31Z</time></trkpt><trkpt lat="44.83513761518106" lon="12.14858615741023"><ele>-2.0</ele><time>2026-04-26T16:53:32Z</time></trkpt><trkpt lat="44.835160768013466" lon="12.148328184801086"><ele>-2.0</ele><time>2026-04-26T16:53:33Z</time></trkpt><trkpt lat="44.83517731519397" lon="12.148080111125143"><ele>-1.6666666666666665</ele><time>2026-04-26T16:53:34Z</time></trkpt><trkpt lat="44.83519305622663" lon="12.147839732096799"><ele>-1.3333333333333333</ele><time>2026-04-26T16:53:35Z</time></trkpt><trkpt lat="44.83520640569993" lon="12.147582609184731"><ele>-1.0</ele><time>2026-04-26T16:53:36Z</time></trkpt><trkpt lat="44.83522204475818" lon="12.147324487679509"><ele>-1.6666666666666665</ele><time>2026-04-26T16:53:37Z</time></trkpt><trkpt lat="44.83525714769488" lon="12.147076702350548"><ele>-2.3333333333333335</ele><time>2026-04-26T16:53:38Z</time></trkpt><trkpt lat="44.83527562910053" lon="12.146811525013506"><ele>-3.0</ele><time>2026-04-26T16:53:39Z</time></trkpt><trkpt lat="44.835292429285694" lon="12.14653809223735"><ele>-3.0</ele><time>2026-04-26T16:53:40Z</time></trkpt><trkpt lat="44.835306695931415" lon="12.146268004619463"><ele>-3.0</ele><time>2026-04-26T16:53:41Z</time></trkpt><trkpt lat="44.83532238356574" lon="12.146007994322089"><ele>-3.0</ele><time>2026-04-26T16:53:42Z</time></trkpt><trkpt lat="44.83533589417602" lon="12.145765985649009"><ele>-3.0</ele><time>2026-04-26T16:53:43Z</time></trkpt><trkpt lat="44.83534881154963" lon="12.145534938540962"><ele>-3.0</ele><time>2026-04-26T16:53:44Z</time></trkpt><trkpt lat="44.83535565976211" lon="12.14531500494381"><ele>-3.0</ele><time>2026-04-26T16:53:45Z</time></trkpt><trkpt lat="44.83535823329654" lon="12.145100308125862"><ele>-3.0</ele><time>2026-04-26T16:53:46Z</time></trkpt><trkpt lat="44.83536882674878" lon="12.144896241793147"><ele>-3.0</ele><time>2026-04-26T16:53:47Z</time></trkpt><trkpt lat="44.83537931607639" lon="12.14469398247146"><ele>-3.0</ele><time>2026-04-26T16:53:48.001Z</time></trkpt><trkpt lat="44.8353886948978" lon="12.14449196181422"><ele>-3.0</ele><time>2026-04-26T16:53:49.001Z</time></trkpt><trkpt lat="44.83539450410364" lon="12.14428637546109"><ele>-2.75</ele><time>2026-04-26T16:53:50.001Z</time></trkpt><trkpt lat="44.83539759594212" lon="12.144082678277563"><ele>-2.5</ele><time>2026-04-26T16:53:51.001Z</time></trkpt><trkpt lat="44.83539373643548" lon="12.143892744343049"><ele>-2.25</ele><time>2026-04-26T16:53:52.001Z</time></trkpt><trkpt lat="44.83542825096201" lon="12.143679890755875"><ele>-2.0</ele><time>2026-04-26T16:53:53.001Z</time></trkpt><trkpt lat="44.83544913164029" lon="12.143437661979187"><ele>-2.0</ele><time>2026-04-26T16:53:54.001Z</time></trkpt><trkpt lat="44.83544944538879" lon="12.143265373481807"><ele>-2.0</ele><time>2026-04-26T16:53:55.001Z</time></trkpt><trkpt lat="44.83544674202693" lon="12.14307237721715"><ele>-2.0</ele><time>2026-04-26T16:53:56.001Z</time></trkpt><trkpt lat="44.83545370683371" lon="12.142890650911902"><ele>-2.0</ele><time>2026-04-26T16:53:57.001Z</time></trkpt><trkpt lat="44.83546468122077" lon="12.142722375379956"><ele>-1.75</ele><time>2026-04-26T16:53:58.001Z</time></trkpt><trkpt lat="44.83546118841163" lon="12.142551429988236"><ele>-1.5</ele><time>2026-04-26T16:53:59.001Z</time></trkpt><trkpt lat="44.835486097026255" lon="12.142356566554495"><ele>-1.25</ele><time>2026-04-26T16:54:00.001Z</time></trkpt><trkpt lat="44.835483415246784" lon="12.142161377612938"><ele>-1.0</ele><time>2026-04-26T16:54:01.001Z</time></trkpt><trkpt lat="44.83548480602681" lon="12.141931427760241"><ele>-1.0</ele><time>2026-04-26T16:54:02.001Z</time></trkpt><trkpt lat="44.835502719827375" lon="12.141693540150776"><ele>-1.0</ele><time>2026-04-26T16:54:03.001Z</time></trkpt><trkpt lat="44.835518643655284" lon="12.141469753935"><ele>-1.0</ele><time>2026-04-26T16:54:04.001Z</time></trkpt><trkpt lat="44.83553233273577" lon="12.141244126611086"><ele>-1.3333333333333333</ele><time>2026-04-26T16:54:05.001Z</time></trkpt><trkpt lat="44.83554867216193" lon="12.141010467430446"><ele>-1.6666666666666665</ele><time>2026-04-26T16:54:06.001Z</time></trkpt><trkpt lat="44.83556292157704" lon="12.140789822483558"><ele>-2.0</ele><time>2026-04-26T16:54:07.001Z</time></trkpt><trkpt lat="44.83557570746896" lon="12.140561434675085"><ele>-2.0</ele><time>2026-04-26T16:54:08.001Z</time></trkpt><trkpt lat="44.83559411296059" lon="12.140344329831374"><ele>-2.0</ele><time>2026-04-26T16:54:09.001Z</time></trkpt><trkpt lat="44.835608536012536" lon="12.140124538921983"><ele>-2.0</ele><time>2026-04-26T16:54:10.001Z</time></trkpt><trkpt lat="44.83562187102903" lon="12.139889470340808"><ele>-2.333333333333333</ele><time>2026-04-26T16:54:11.001Z</time></trkpt><trkpt lat="44.83563045431292" lon="12.139638240172706"><ele>-2.6666666666666665</ele><time>2026-04-26T16:54:12.001Z</time></trkpt><trkpt lat="44.83565489758316" lon="12.139398436906665"><ele>-3.0</ele><time>2026-04-26T16:54:13.001Z</time></trkpt><trkpt lat="44.835665830344645" lon="12.139145996446727"><ele>-3.666666666666667</ele><time>2026-04-26T16:54:14.001Z</time></trkpt><trkpt lat="44.83568676136421" lon="12.13887941627212"><ele>-4.333333333333334</ele><time>2026-04-26T16:54:15.001Z</time></trkpt><trkpt lat="44.83569894061397" lon="12.138625890145072"><ele>-5.0</ele><time>2026-04-26T16:54:16.001Z</time></trkpt><trkpt lat="44.835714989582605" lon="12.138353200921262"><ele>-4.666666666666667</ele><time>2026-04-26T16:54:17.001Z</time></trkpt><trkpt lat="44.83572917387001" lon="12.13806482391107"><ele>-4.333333333333333</ele><time>2026-04-26T16:54:18.001Z</time></trkpt><trkpt lat="44.83573324711109" lon="12.13773734214726"><ele>-4.0</ele><time>2026-04-26T16:54:19.001Z</time></trkpt><trkpt lat="44.83575941834098" lon="12.137451088548689"><ele>-4.333333333333333</ele><time>2026-04-26T16:54:20.001Z</time></trkpt><trkpt lat="44.835786365888644" lon="12.137178556462112"><ele>-4.666666666666667</ele><time>2026-04-26T16:54:21Z</time></trkpt><trkpt lat="44.835807764799" lon="12.136942271695423"><ele>-5.0</ele><time>2026-04-26T16:54:22Z</time></trkpt><trkpt lat="44.83580811812014" lon="12.136673045374962"><ele>-5.666666666666667</ele><time>2026-04-26T16:54:23Z</time></trkpt><trkpt lat="44.83582418098718" lon="12.136404148252717"><ele>-6.333333333333334</ele><time>2026-04-26T16:54:24Z</time></trkpt><trkpt lat="44.83583280593359" lon="12.136139255792266"><ele>-7.0</ele><time>2026-04-26T16:54:25Z</time></trkpt><trkpt lat="44.835844626161375" lon="12.135874077139892"><ele>-6.333333333333334</ele><time>2026-04-26T16:54:26Z</time></trkpt><trkpt lat="44.83585999500547" lon="12.13560689622463"><ele>-5.666666666666667</ele><time>2026-04-26T16:54:27Z</time></trkpt><trkpt lat="44.83587699507804" lon="12.135329818813974"><ele>-5.0</ele><time>2026-04-26T16:54:28Z</time></trkpt><trkpt lat="44.83589141247532" lon="12.135049984046287"><ele>-4.666666666666667</ele><time>2026-04-26T16:54:29Z</time></trkpt><trkpt lat="44.83590990583206" lon="12.134758175413989"><ele>-4.333333333333333</ele><time>2026-04-26T16:54:30Z</time></trkpt><trkpt lat="44.835923440370024" lon="12.134467338436068"><ele>-4.0</ele><time>2026-04-26T16:54:31Z</time></trkpt><trkpt lat="44.83593654964854" lon="12.134175554362361"><ele>-4.666666666666666</ele><time>2026-04-26T16:54:32Z</time></trkpt><trkpt lat="44.835948895311205" lon="12.133882430920039"><ele>-5.333333333333333</ele><time>2026-04-26T16:54:33Z</time></trkpt><trkpt lat="44.8359628943931" lon="12.133580537100428"><ele>-6.0</ele><time>2026-04-26T16:54:34Z</time></trkpt><trkpt lat="44.83597980065229" lon="12.133276849685041"><ele>-6.0</ele><time>2026-04-26T16:54:35Z</time></trkpt><trkpt lat="44.83600310833241" lon="12.132968142518092"><ele>-6.0</ele><time>2026-04-26T16:54:36Z</time></trkpt><trkpt lat="44.83600901557098" lon="12.132660866246065"><ele>-6.0</ele><time>2026-04-26T16:54:37Z</time></trkpt><trkpt lat="44.83601322887425" lon="12.132377080014333"><ele>-6.0</ele><time>2026-04-26T16:54:38Z</time></trkpt><trkpt lat="44.83602976559818" lon="12.13206863509762"><ele>-6.0</ele><time>2026-04-26T16:54:39Z</time></trkpt><trkpt lat="44.83604903869284" lon="12.131766931528677"><ele>-6.0</ele><time>2026-04-26T16:54:40Z</time></trkpt><trkpt lat="44.8360652202642" lon="12.131467951404352"><ele>-6.333333333333334</ele><time>2026-04-26T16:54:41Z</time></trkpt><trkpt lat="44.83608332942229" lon="12.131165357862969"><ele>-6.666666666666667</ele><time>2026-04-26T16:54:42Z</time></trkpt><trkpt lat="44.83610772235401" lon="12.130885045759673"><ele>-7.0</ele><time>2026-04-26T16:54:43Z</time></trkpt><trkpt lat="44.83612530795192" lon="12.130604305285496"><ele>-6.0</ele><time>2026-04-26T16:54:44Z</time></trkpt><trkpt lat="44.836127829701546" lon="12.130307705273971"><ele>-5.0</ele><time>2026-04-26T16:54:45Z</time></trkpt><trkpt lat="44.83613687375825" lon="12.13002046294376"><ele>-4.0</ele><time>2026-04-26T16:54:46Z</time></trkpt><trkpt lat="44.83616523123568" lon="12.129692747836785"><ele>-4.0</ele><time>2026-04-26T16:54:47Z</time></trkpt><trkpt lat="44.836186367011706" lon="12.129388026058365"><ele>-4.0</ele><time>2026-04-26T16:54:48Z</time></trkpt><trkpt lat="44.83619667207037" lon="12.129091380796124"><ele>-4.0</ele><time>2026-04-26T16:54:49Z</time></trkpt><trkpt lat="44.83621316477506" lon="12.128795688515105"><ele>-4.0</ele><time>2026-04-26T16:54:50Z</time></trkpt><trkpt lat="44.83623220110261" lon="12.12850307602845"><ele>-4.0</ele><time>2026-04-26T16:54:51Z</time></trkpt><trkpt lat="44.83624695353972" lon="12.128239244697463"><ele>-4.0</ele><time>2026-04-26T16:54:52Z</time></trkpt><trkpt lat="44.8362554384645" lon="12.127980790935332"><ele>-4.0</ele><time>2026-04-26T16:54:53Z</time></trkpt><trkpt lat="44.83626910759135" lon="12.12771750565388"><ele>-4.0</ele><time>2026-04-26T16:54:54Z</time></trkpt><trkpt lat="44.83628222647231" lon="12.127463563310974"><ele>-4.0</ele><time>2026-04-26T16:54:55Z</time></trkpt><trkpt lat="44.8362758397171" lon="12.127231406899972"><ele>-4.0</ele><time>2026-04-26T16:54:56Z</time></trkpt><trkpt lat="44.83627995261924" lon="12.126965165980176"><ele>-4.0</ele><time>2026-04-26T16:54:57Z</time></trkpt><trkpt lat="44.83627961785779" lon="12.126696179283112"><ele>-4.0</ele><time>2026-04-26T16:54:58Z</time></trkpt><trkpt lat="44.83624102131478" lon="12.126424843378928"><ele>-3.333333333333333</ele><time>2026-04-26T16:54:59Z</time></trkpt><trkpt lat="44.83619076876871" lon="12.126186361342805"><ele>-2.6666666666666665</ele><time>2026-04-26T16:55:00Z</time></trkpt><trkpt lat="44.83613847989894" lon="12.125961349818956"><ele>-2.0</ele><time>2026-04-26T16:55:01Z</time></trkpt><trkpt lat="44.836073785710305" lon="12.125746285994024"><ele>-2.0</ele><time>2026-04-26T16:55:02Z</time></trkpt><trkpt lat="44.836001951637115" lon="12.125518172374486"><ele>-2.0</ele><time>2026-04-26T16:55:03Z</time></trkpt><trkpt lat="44.8359117704879" lon="12.1253074219763"><ele>-2.0</ele><time>2026-04-26T16:55:04Z</time></trkpt><trkpt lat="44.83581560887582" lon="12.125098239416026"><ele>-2.0</ele><time>2026-04-26T16:55:05Z</time></trkpt><trkpt lat="44.83570977088666" lon="12.124895993896816"><ele>-2.0</ele><time>2026-04-26T16:55:06Z</time></trkpt><trkpt lat="44.835598121633105" lon="12.124703225352363"><ele>-2.0</ele><time>2026-04-26T16:55:07Z</time></trkpt><trkpt lat="44.835474761482715" lon="12.124530024798197"><ele>-2.0</ele><time>2026-04-26T16:55:08Z</time></trkpt><trkpt lat="44.83534494604012" lon="12.12436519427607"><ele>-2.0</ele><time>2026-04-26T16:55:09Z</time></trkpt><trkpt lat="44.83521222182171" lon="12.124203910657695"><ele>-2.0</ele><time>2026-04-26T16:55:10Z</time></trkpt><trkpt lat="44.83508860391253" lon="12.124027742578848"><ele>-2.333333333333333</ele><time>2026-04-26T16:55:11Z</time></trkpt><trkpt lat="44.83495244361223" lon="12.123887852980504"><ele>-2.6666666666666665</ele><time>2026-04-26T16:55:12Z</time></trkpt><trkpt lat="44.83482162856148" lon="12.123731547332314"><ele>-3.0</ele><time>2026-04-26T16:55:13Z</time></trkpt><trkpt lat="44.83467475899064" lon="12.123615810646772"><ele>-3.0</ele><time>2026-04-26T16:55:14Z</time></trkpt><trkpt lat="44.83453535859598" lon="12.123491545575735"><ele>-3.0</ele><time>2026-04-26T16:55:15Z</time></trkpt><trkpt lat="44.83443980140756" lon="12.123335607123888"><ele>-3.0</ele><time>2026-04-26T16:55:16Z</time></trkpt><trkpt lat="44.8343286971012" lon="12.123203652968787"><ele>-2.6666666666666665</ele><time>2026-04-26T16:55:17Z</time></trkpt><trkpt lat="44.83418305867134" lon="12.123049423352844"><ele>-2.333333333333333</ele><time>2026-04-26T16:55:18Z</time></trkpt><trkpt lat="44.83405190125903" lon="12.122902595328654"><ele>-2.0</ele><time>2026-04-26T16:55:19Z</time></trkpt><trkpt lat="44.83394021028456" lon="12.12275166235241"><ele>-2.0</ele><time>2026-04-26T16:55:20Z</time></trkpt><trkpt lat="44.83383696380803" lon="12.122611661131803"><ele>-2.0</ele><time>2026-04-26T16:55:21Z</time></trkpt><trkpt lat="44.83374657982928" lon="12.122466296689733"><ele>-2.0</ele><time>2026-04-26T16:55:22Z</time></trkpt><trkpt lat="44.83367110310577" lon="12.12229577852956"><ele>-2.0</ele><time>2026-04-26T16:55:23Z</time></trkpt><trkpt lat="44.83361498725923" lon="12.1221230283816"><ele>-2.25</ele><time>2026-04-26T16:55:24Z</time></trkpt><trkpt lat="44.83358063964273" lon="12.12194894484564"><ele>-2.5</ele><time>2026-04-26T16:55:25Z</time></trkpt><trkpt lat="44.833549518302746" lon="12.121779090136046"><ele>-2.75</ele><time>2026-04-26T16:55:26Z</time></trkpt><trkpt lat="44.83350192429049" lon="12.121585757085624"><ele>-3.0</ele><time>2026-04-26T16:55:27Z</time></trkpt><trkpt lat="44.83346977874889" lon="12.121390893209666"><ele>-2.5</ele><time>2026-04-26T16:55:28Z</time></trkpt><trkpt lat="44.83344268322439" lon="12.121213178624282"><ele>-2.0</ele><time>2026-04-26T16:55:29Z</time></trkpt><trkpt lat="44.833423489951734" lon="12.121044018876288"><ele>-1.5</ele><time>2026-04-26T16:55:30Z</time></trkpt><trkpt lat="44.83339745645679" lon="12.120854940709862"><ele>-1.0</ele><time>2026-04-26T16:55:31Z</time></trkpt><trkpt lat="44.833383128485764" lon="12.120673893821056"><ele>-1.0</ele><time>2026-04-26T16:55:32Z</time></trkpt><trkpt lat="44.83334543259325" lon="12.120458064241449"><ele>-1.0</ele><time>2026-04-26T16:55:33Z</time></trkpt><trkpt lat="44.83332020603987" lon="12.12025406059142"><ele>-1.0</ele><time>2026-04-26T16:55:34Z</time></trkpt><trkpt lat="44.833282096642975" lon="12.120044389465841"><ele>-1.3333333333333333</ele><time>2026-04-26T16:55:35Z</time></trkpt><trkpt lat="44.833243552404674" lon="12.11983072058451"><ele>-1.6666666666666665</ele><time>2026-04-26T16:55:36Z</time></trkpt><trkpt lat="44.833196887357445" lon="12.119623353679764"><ele>-2.0</ele><time>2026-04-26T16:55:37Z</time></trkpt><trkpt lat="44.833165425513634" lon="12.11943004729201"><ele>-2.0</ele><time>2026-04-26T16:55:38Z</time></trkpt><trkpt lat="44.833152412640246" lon="12.119237023780062"><ele>-2.0</ele><time>2026-04-26T16:55:39Z</time></trkpt><trkpt lat="44.83312567372008" lon="12.119048046361462"><ele>-2.0</ele><time>2026-04-26T16:55:40.001Z</time></trkpt><trkpt lat="44.833105452491445" lon="12.118859497175368"><ele>-2.0</ele><time>2026-04-26T16:55:41.001Z</time></trkpt><trkpt lat="44.833080954217564" lon="12.118672661435724"><ele>-2.0</ele><time>2026-04-26T16:55:42.001Z</time></trkpt><trkpt lat="44.83305639784805" lon="12.11849177214207"><ele>-2.0</ele><time>2026-04-26T16:55:43.001Z</time></trkpt><trkpt lat="44.833023033530374" lon="12.118301189462235"><ele>-2.0</ele><time>2026-04-26T16:55:44.001Z</time></trkpt><trkpt lat="44.832998724352606" lon="12.11811686670513"><ele>-2.0</ele><time>2026-04-26T16:55:45.001Z</time></trkpt><trkpt lat="44.832968051319966" lon="12.117935343590096"><ele>-2.0</ele><time>2026-04-26T16:55:46.001Z</time></trkpt><trkpt lat="44.83294037436456" lon="12.11776025358799"><ele>-2.0</ele><time>2026-04-26T16:55:47.001Z</time></trkpt><trkpt lat="44.832915587020004" lon="12.11757690822686"><ele>-2.0</ele><time>2026-04-26T16:55:48.001Z</time></trkpt><trkpt lat="44.832890780837175" lon="12.117409512860585"><ele>-2.0</ele><time>2026-04-26T16:55:49.001Z</time></trkpt><trkpt lat="44.8328658065575" lon="12.117242955688342"><ele>-2.0</ele><time>2026-04-26T16:55:50.001Z</time></trkpt><trkpt lat="44.832841356948826" lon="12.117067289695385"><ele>-2.0</ele><time>2026-04-26T16:55:51.001Z</time></trkpt><trkpt lat="44.83282302278289" lon="12.116896670432904"><ele>-2.0</ele><time>2026-04-26T16:55:52.001Z</time></trkpt><trkpt lat="44.832793914359385" lon="12.116733676353283"><ele>-2.0</ele><time>2026-04-26T16:55:53.001Z</time></trkpt><trkpt lat="44.83276756116726" lon="12.116558225066763"><ele>-2.0</ele><time>2026-04-26T16:55:54.001Z</time></trkpt><trkpt lat="44.832743502117445" lon="12.11635652089517"><ele>-2.0</ele><time>2026-04-26T16:55:55.001Z</time></trkpt><trkpt lat="44.832728063126886" lon="12.116168335213963"><ele>-2.0</ele><time>2026-04-26T16:55:56.001Z</time></trkpt><trkpt lat="44.83270087410944" lon="12.115979723848843"><ele>-2.0</ele><time>2026-04-26T16:55:57.001Z</time></trkpt><trkpt lat="44.83268525816702" lon="12.115780728294908"><ele>-2.0</ele><time>2026-04-26T16:55:58.001Z</time></trkpt><trkpt lat="44.83266768715534" lon="12.115589383487155"><ele>-2.0</ele><time>2026-04-26T16:55:59.001Z</time></trkpt><trkpt lat="44.8326742560149" lon="12.115406341775374"><ele>-2.0</ele><time>2026-04-26T16:56:00.001Z</time></trkpt><trkpt lat="44.8326965249805" lon="12.11520541655629"><ele>-2.0</ele><time>2026-04-26T16:56:01.001Z</time></trkpt><trkpt lat="44.83274224333548" lon="12.115023490189046"><ele>-2.0</ele><time>2026-04-26T16:56:02.001Z</time></trkpt><trkpt lat="44.832783158443696" lon="12.114831506096907"><ele>-2.0</ele><time>2026-04-26T16:56:03.001Z</time></trkpt><trkpt lat="44.832829577800524" lon="12.114629746504605"><ele>-2.0</ele><time>2026-04-26T16:56:04.001Z</time></trkpt><trkpt lat="44.83288164455173" lon="12.114439315053547"><ele>-2.0</ele><time>2026-04-26T16:56:05.001Z</time></trkpt><trkpt lat="44.832914695954095" lon="12.114251466539988"><ele>-2.0</ele><time>2026-04-26T16:56:06.001Z</time></trkpt><trkpt lat="44.83293462864336" lon="12.114119042540787"><ele>-2.0</ele><time>2026-04-26T16:56:07.001Z</time></trkpt><trkpt lat="44.83293213676464" lon="12.11400542760516"><ele>-2.0</ele><time>2026-04-26T16:56:08.001Z</time></trkpt><trkpt lat="44.83293207447884" lon="12.113859025699348"><ele>-2.0</ele><time>2026-04-26T16:56:09.001Z</time></trkpt><trkpt lat="44.83292728589961" lon="12.113695040244231"><ele>-2.0</ele><time>2026-04-26T16:56:10.001Z</time></trkpt><trkpt lat="44.83292146123455" lon="12.113520842156264"><ele>-2.0</ele><time>2026-04-26T16:56:11.001Z</time></trkpt><trkpt lat="44.832916114273914" lon="12.113334097810002"><ele>-2.0</ele><time>2026-04-26T16:56:12.001Z</time></trkpt><trkpt lat="44.83290366995223" lon="12.11315520495844"><ele>-2.0</ele><time>2026-04-26T16:56:13.001Z</time></trkpt><trkpt lat="44.83288930546691" lon="12.112994225814731"><ele>-2.0</ele><time>2026-04-26T16:56:14.001Z</time></trkpt><trkpt lat="44.83288653616069" lon="12.112852270685268"><ele>-1.8</ele><time>2026-04-26T16:56:15.001Z</time></trkpt><trkpt lat="44.8328798533835" lon="12.112705052657235"><ele>-1.6</ele><time>2026-04-26T16:56:16.001Z</time></trkpt><trkpt lat="44.83286894160056" lon="12.112551695557041"><ele>-1.4000000000000001</ele><time>2026-04-26T16:56:17.001Z</time></trkpt><trkpt lat="44.83286161304931" lon="12.112407805970495"><ele>-1.2000000000000002</ele><time>2026-04-26T16:56:18.001Z</time></trkpt><trkpt lat="44.832849033604475" lon="12.112269881970027"><ele>-1.0</ele><time>2026-04-26T16:56:19.001Z</time></trkpt><trkpt lat="44.832821027253814" lon="12.112135056461877"><ele>-1.0</ele><time>2026-04-26T16:56:20.001Z</time></trkpt><trkpt lat="44.83282240891399" lon="12.111990615708454"><ele>-1.0</ele><time>2026-04-26T16:56:21.001Z</time></trkpt><trkpt lat="44.832803990233124" lon="12.111869634356735"><ele>-1.0</ele><time>2026-04-26T16:56:22.001Z</time></trkpt><trkpt lat="44.832786288843636" lon="12.111749907041558"><ele>-1.0</ele><time>2026-04-26T16:56:23.001Z</time></trkpt><trkpt lat="44.83278363146706" lon="12.111612076714968"><ele>-1.0</ele><time>2026-04-26T16:56:24.001Z</time></trkpt><trkpt lat="44.83279556148413" lon="12.111467851247149"><ele>-1.2000000000000002</ele><time>2026-04-26T16:56:25.001Z</time></trkpt><trkpt lat="44.83282255068294" lon="12.111316422011889"><ele>-1.4000000000000001</ele><time>2026-04-26T16:56:26.001Z</time></trkpt><trkpt lat="44.832861520162936" lon="12.111163324725272"><ele>-1.6</ele><time>2026-04-26T16:56:27Z</time></trkpt><trkpt lat="44.83289887765654" lon="12.111032451200012"><ele>-1.8</ele><time>2026-04-26T16:56:28Z</time></trkpt><trkpt lat="44.8329392420783" lon="12.110911719119434"><ele>-2.0</ele><time>2026-04-26T16:56:29Z</time></trkpt><trkpt lat="44.83295942398788" lon="12.110827122010186"><ele>-1.9999999999999998</ele><time>2026-04-26T16:56:30Z</time></trkpt><trkpt lat="44.83300287072217" lon="12.110758092723366"><ele>-2.0</ele><time>2026-04-26T16:56:31Z</time></trkpt><trkpt lat="44.83306406118082" lon="12.110724099738825"><ele>-2.0</ele><time>2026-04-26T16:56:32Z</time></trkpt><trkpt lat="44.83315045612978" lon="12.110680757907765"><ele>-2.0</ele><time>2026-04-26T16:56:33Z</time></trkpt><trkpt lat="44.83322190396351" lon="12.110712630389305"><ele>-1.9999999999999998</ele><time>2026-04-26T16:56:34Z</time></trkpt><trkpt lat="44.83331428825966" lon="12.110693864935907"><ele>-2.0</ele><time>2026-04-26T16:56:35Z</time></trkpt><trkpt lat="44.833403773396036" lon="12.110718776345498"><ele>-2.0</ele><time>2026-04-26T16:56:36Z</time></trkpt><trkpt lat="44.83353027942816" lon="12.11075320021026"><ele>-2.0</ele><time>2026-04-26T16:56:37Z</time></trkpt><trkpt lat="44.833655284551696" lon="12.11076279045014"><ele>-2.0</ele><time>2026-04-26T16:56:38Z</time></trkpt><trkpt lat="44.83376981627526" lon="12.110787090314613"><ele>-2.0</ele><time>2026-04-26T16:56:39Z</time></trkpt><trkpt lat="44.83388200624229" lon="12.110795132035781"><ele>-2.0</ele><time>2026-04-26T16:56:40Z</time></trkpt><trkpt lat="44.833984523982224" lon="12.110835159761507"><ele>-2.0</ele><time>2026-04-26T16:56:41Z</time></trkpt><trkpt lat="44.83408324584863" lon="12.11088543098792"><ele>-2.0</ele><time>2026-04-26T16:56:42Z</time></trkpt><trkpt lat="44.834184408353515" lon="12.110951852612486"><ele>-2.0</ele><time>2026-04-26T16:56:43Z</time></trkpt><trkpt lat="44.834272308241296" lon="12.11101140065929"><ele>-2.0</ele><time>2026-04-26T16:56:44Z</time></trkpt><trkpt lat="44.83437408244787" lon="12.111037167007497"><ele>-1.75</ele><time>2026-04-26T16:56:45Z</time></trkpt><trkpt lat="44.834477637052025" lon="12.111060187321696"><ele>-1.5</ele><time>2026-04-26T16:56:46Z</time></trkpt><trkpt lat="44.83458178212441" lon="12.1110699758611"><ele>-1.25</ele><time>2026-04-26T16:56:47Z</time></trkpt><trkpt lat="44.83469946655418" lon="12.111086326501724"><ele>-1.0</ele><time>2026-04-26T16:56:48Z</time></trkpt><trkpt lat="44.834834528768184" lon="12.1110754283636"><ele>-1.0</ele><time>2026-04-26T16:56:49Z</time></trkpt><trkpt lat="44.834975752072076" lon="12.111021857936716"><ele>-1.0</ele><time>2026-04-26T16:56:50Z</time></trkpt><trkpt lat="44.835119649383515" lon="12.11100707288942"><ele>-1.0</ele><time>2026-04-26T16:56:51Z</time></trkpt><trkpt lat="44.83524462380853" lon="12.110973577567687"><ele>-1.0</ele><time>2026-04-26T16:56:52Z</time></trkpt><trkpt lat="44.83536820753315" lon="12.110931633498348"><ele>-1.0</ele><time>2026-04-26T16:56:53Z</time></trkpt><trkpt lat="44.83549298730287" lon="12.11090204426503"><ele>-1.0</ele><time>2026-04-26T16:56:54Z</time></trkpt><trkpt lat="44.83561160225348" lon="12.110872329949116"><ele>-1.0</ele><time>2026-04-26T16:56:55Z</time></trkpt><trkpt lat="44.83573106799314" lon="12.110815401081487"><ele>-1.0</ele><time>2026-04-26T16:56:56Z</time></trkpt><trkpt lat="44.83584385176197" lon="12.11076587855072"><ele>-1.0</ele><time>2026-04-26T16:56:57Z</time></trkpt><trkpt lat="44.83596114564466" lon="12.110698398964574"><ele>-1.0</ele><time>2026-04-26T16:56:58Z</time></trkpt><trkpt lat="44.836069391444404" lon="12.110645900456534"><ele>-1.0</ele><time>2026-04-26T16:56:59Z</time></trkpt><trkpt lat="44.83617020970769" lon="12.110596613421482"><ele>-1.0</ele><time>2026-04-26T16:57:00Z</time></trkpt><trkpt lat="44.83626594577513" lon="12.110556280818594"><ele>-1.0</ele><time>2026-04-26T16:57:01Z</time></trkpt><trkpt lat="44.836365057056" lon="12.11051663330904"><ele>-1.0</ele><time>2026-04-26T16:57:02Z</time></trkpt><trkpt lat="44.83646569822255" lon="12.110483550156143"><ele>-1.0</ele><time>2026-04-26T16:57:03Z</time></trkpt><trkpt lat="44.83656756589701" lon="12.110459480105314"><ele>-1.0</ele><time>2026-04-26T16:57:04Z</time></trkpt><trkpt lat="44.83666842373971" lon="12.110444938913332"><ele>-1.0</ele><time>2026-04-26T16:57:05Z</time></trkpt><trkpt lat="44.83677599822362" lon="12.110438369198087"><ele>-1.0</ele><time>2026-04-26T16:57:06Z</time></trkpt><trkpt lat="44.83688419097288" lon="12.11043706552964"><ele>-0.8</ele><time>2026-04-26T16:57:07Z</time></trkpt><trkpt lat="44.83698898832628" lon="12.110444521142606"><ele>-0.6000000000000001</ele><time>2026-04-26T16:57:08Z</time></trkpt><trkpt lat="44.83708915775353" lon="12.110440732285278"><ele>-0.4</ele><time>2026-04-26T16:57:09Z</time></trkpt><trkpt lat="44.837188919913494" lon="12.110432051006196"><ele>-0.2</ele><time>2026-04-26T16:57:10Z</time></trkpt><trkpt lat="44.83728940468774" lon="12.110413914363468"><ele>0.0</ele><time>2026-04-26T16:57:11Z</time></trkpt><trkpt lat="44.83739225193801" lon="12.110407670607001"><ele>0.0</ele><time>2026-04-26T16:57:12Z</time></trkpt><trkpt lat="44.83750514390481" lon="12.110422332422258"><ele>0.0</ele><time>2026-04-26T16:57:13Z</time></trkpt><trkpt lat="44.837620265709084" lon="12.110448800543056"><ele>0.0</ele><time>2026-04-26T16:57:14Z</time></trkpt><trkpt lat="44.83774367335371" lon="12.110469383161496"><ele>0.0</ele><time>2026-04-26T16:57:15Z</time></trkpt><trkpt lat="44.837860135985736" lon="12.110479674308019"><ele>-0.2</ele><time>2026-04-26T16:57:16Z</time></trkpt><trkpt lat="44.837966109697305" lon="12.110499077036108"><ele>-0.4</ele><time>2026-04-26T16:57:17Z</time></trkpt><trkpt lat="44.83807078301223" lon="12.110519706340707"><ele>-0.6000000000000001</ele><time>2026-04-26T16:57:18Z</time></trkpt><trkpt lat="44.838180433416646" lon="12.110540185266577"><ele>-0.8</ele><time>2026-04-26T16:57:19Z</time></trkpt><trkpt lat="44.838294000405355" lon="12.110556739491525"><ele>-1.0</ele><time>2026-04-26T16:57:20Z</time></trkpt><trkpt lat="44.838414711707806" lon="12.110576211770738"><ele>-1.5</ele><time>2026-04-26T16:57:21Z</time></trkpt><trkpt lat="44.83853119992603" lon="12.110573306915793"><ele>-2.0</ele><time>2026-04-26T16:57:22Z</time></trkpt><trkpt lat="44.83865146424618" lon="12.110552756959303"><ele>-2.5</ele><time>2026-04-26T16:57:23Z</time></trkpt><trkpt lat="44.83878084829868" lon="12.110519154658837"><ele>-3.0</ele><time>2026-04-26T16:57:24Z</time></trkpt><trkpt lat="44.8389128373728" lon="12.110475114484354"><ele>-3.0</ele><time>2026-04-26T16:57:25Z</time></trkpt><trkpt lat="44.839041477915785" lon="12.110439572876508"><ele>-3.0</ele><time>2026-04-26T16:57:26Z</time></trkpt><trkpt lat="44.839154531239295" lon="12.110407945058801"><ele>-3.0</ele><time>2026-04-26T16:57:27Z</time></trkpt><trkpt lat="44.8392693002875" lon="12.110375058301578"><ele>-3.0</ele><time>2026-04-26T16:57:28Z</time></trkpt><trkpt lat="44.83938719096131" lon="12.11034346086699"><ele>-3.0</ele><time>2026-04-26T16:57:29Z</time></trkpt><trkpt lat="44.83949649163603" lon="12.11031503852831"><ele>-3.0</ele><time>2026-04-26T16:57:30Z</time></trkpt><trkpt lat="44.8395984714725" lon="12.110284002020313"><ele>-3.0</ele><time>2026-04-26T16:57:31Z</time></trkpt><trkpt lat="44.83970067398344" lon="12.110252466754549"><ele>-3.0</ele><time>2026-04-26T16:57:32Z</time></trkpt><trkpt lat="44.83979888885029" lon="12.11022354608338"><ele>-3.0</ele><time>2026-04-26T16:57:33Z</time></trkpt><trkpt lat="44.83989305076748" lon="12.110178016808872"><ele>-3.0</ele><time>2026-04-26T16:57:34Z</time></trkpt><trkpt lat="44.83998163976732" lon="12.11010589573799"><ele>-3.0</ele><time>2026-04-26T16:57:35Z</time></trkpt><trkpt lat="44.840051397686395" lon="12.110011745834647"><ele>-3.0</ele><time>2026-04-26T16:57:36Z</time></trkpt><trkpt lat="44.84010836308451" lon="12.109902754219954"><ele>-3.0</ele><time>2026-04-26T16:57:37Z</time></trkpt><trkpt lat="44.8401439735643" lon="12.109771610951269"><ele>-3.0</ele><time>2026-04-26T16:57:38Z</time></trkpt><trkpt lat="44.84016283547527" lon="12.109633307706652"><ele>-2.8</ele><time>2026-04-26T16:57:39Z</time></trkpt><trkpt lat="44.84016556107292" lon="12.109489769762092"><ele>-2.5999999999999996</ele><time>2026-04-26T16:57:40Z</time></trkpt><trkpt lat="44.84016723632889" lon="12.109342118155238"><ele>-2.4000000000000004</ele><time>2026-04-26T16:57:41Z</time></trkpt><trkpt lat="44.84017737749548" lon="12.109185719831377"><ele>-2.2</ele><time>2026-04-26T16:57:42Z</time></trkpt><trkpt lat="44.84019240463762" lon="12.109025449526523"><ele>-2.0</ele><time>2026-04-26T16:57:43Z</time></trkpt><trkpt lat="44.840202996687275" lon="12.108855886151797"><ele>-1.6</ele><time>2026-04-26T16:57:44Z</time></trkpt><trkpt lat="44.84021246133798" lon="12.108679304314276"><ele>-1.2000000000000002</ele><time>2026-04-26T16:57:45Z</time></trkpt><trkpt lat="44.84021927160031" lon="12.108521006403944"><ele>-0.8</ele><time>2026-04-26T16:57:46Z</time></trkpt><trkpt lat="44.840221758625695" lon="12.108377765240322"><ele>-0.4</ele><time>2026-04-26T16:57:47Z</time></trkpt><trkpt lat="44.84023789975867" lon="12.108242043007644"><ele>0.0</ele><time>2026-04-26T16:57:48Z</time></trkpt><trkpt lat="44.84026659054142" lon="12.108125623598774"><ele>0.0</ele><time>2026-04-26T16:57:49Z</time></trkpt><trkpt lat="44.84030928711374" lon="12.108027265855482"><ele>0.0</ele><time>2026-04-26T16:57:50Z</time></trkpt><trkpt lat="44.84035099007095" lon="12.107942464368039"><ele>0.0</ele><time>2026-04-26T16:57:51Z</time></trkpt><trkpt lat="44.8404020785457" lon="12.107803364395217"><ele>0.0</ele><time>2026-04-26T16:57:53Z</time></trkpt><trkpt lat="44.840438153772" lon="12.107728699959"><ele>0.0</ele><time>2026-04-26T16:57:55Z</time></trkpt><trkpt lat="44.84047053632736" lon="12.107647973031437"><ele>0.0</ele><time>2026-04-26T16:57:57Z</time></trkpt><trkpt lat="44.840585569677025" lon="12.107601519719323"><ele>0.0</ele><time>2026-04-26T16:57:59Z</time></trkpt><trkpt lat="44.84068088826153" lon="12.107612749860365"><ele>0.0</ele><time>2026-04-26T16:58:00Z</time></trkpt><trkpt lat="44.84076904283351" lon="12.107626894225877"><ele>0.0</ele><time>2026-04-26T16:58:01.001Z</time></trkpt><trkpt lat="44.84086442951113" lon="12.10763488933099"><ele>0.0</ele><time>2026-04-26T16:58:02.001Z</time></trkpt><trkpt lat="44.840971328898014" lon="12.107639892506452"><ele>0.0</ele><time>2026-04-26T16:58:03.001Z</time></trkpt><trkpt lat="44.841091496585" lon="12.107634818245888"><ele>0.0</ele><time>2026-04-26T16:58:04.001Z</time></trkpt><trkpt lat="44.84120348631967" lon="12.107630601228735"><ele>0.0</ele><time>2026-04-26T16:58:05.001Z</time></trkpt><trkpt lat="44.841301890268646" lon="12.1076363620382"><ele>0.0</ele><time>2026-04-26T16:58:06.001Z</time></trkpt><trkpt lat="44.84140466224774" lon="12.107645506824692"><ele>0.0</ele><time>2026-04-26T16:58:07.001Z</time></trkpt><trkpt lat="44.84152124697727" lon="12.107661994230149"><ele>0.0</ele><time>2026-04-26T16:58:08.001Z</time></trkpt><trkpt lat="44.841646017098206" lon="12.107678066061094"><ele>0.0</ele><time>2026-04-26T16:58:09.001Z</time></trkpt><trkpt lat="44.84177496095314" lon="12.107693192059978"><ele>0.0</ele><time>2026-04-26T16:58:10.001Z</time></trkpt><trkpt lat="44.84190523815955" lon="12.10771523771059"><ele>0.0</ele><time>2026-04-26T16:58:11.001Z</time></trkpt><trkpt lat="44.84203393761888" lon="12.107734850094305"><ele>0.0</ele><time>2026-04-26T16:58:12.001Z</time></trkpt><trkpt lat="44.842161895285194" lon="12.10775928804633"><ele>0.0</ele><time>2026-04-26T16:58:13.001Z</time></trkpt><trkpt lat="44.842277918980436" lon="12.107792940847718"><ele>0.0</ele><time>2026-04-26T16:58:14.001Z</time></trkpt><trkpt lat="44.8424145267715" lon="12.10782060935769"><ele>0.0</ele><time>2026-04-26T16:58:15.001Z</time></trkpt><trkpt lat="44.842539182957594" lon="12.107851205225602"><ele>0.0</ele><time>2026-04-26T16:58:16.001Z</time></trkpt><trkpt lat="44.84266590549788" lon="12.107882486925593"><ele>0.0</ele><time>2026-04-26T16:58:17.001Z</time></trkpt><trkpt lat="44.84279079918793" lon="12.107914821203828"><ele>0.0</ele><time>2026-04-26T16:58:18.001Z</time></trkpt><trkpt lat="44.84290700530773" lon="12.1079482167078"><ele>0.0</ele><time>2026-04-26T16:58:19.001Z</time></trkpt><trkpt lat="44.84302125437189" lon="12.1079830038808"><ele>0.0</ele><time>2026-04-26T16:58:20.001Z</time></trkpt><trkpt lat="44.843125481898504" lon="12.108022128333344"><ele>0.0</ele><time>2026-04-26T16:58:21.001Z</time></trkpt><trkpt lat="44.84321618411401" lon="12.10805135698274"><ele>0.0</ele><time>2026-04-26T16:58:22.001Z</time></trkpt><trkpt lat="44.84328459845358" lon="12.108085623295784"><ele>0.0</ele><time>2026-04-26T16:58:23.001Z</time></trkpt><trkpt lat="44.843352807195686" lon="12.108114259443823"><ele>0.0</ele><time>2026-04-26T16:58:24.001Z</time></trkpt><trkpt lat="44.84345935468805" lon="12.108167988762917"><ele>0.0</ele><time>2026-04-26T16:58:26.001Z</time></trkpt><trkpt lat="44.84352694522964" lon="12.108195024773694"><ele>0.0</ele><time>2026-04-26T16:58:27.001Z</time></trkpt><trkpt lat="44.843625173234834" lon="12.108242458632457"><ele>-0.6666666666666666</ele><time>2026-04-26T16:58:28.001Z</time></trkpt><trkpt lat="44.8437531618807" lon="12.108310703290128"><ele>-1.3333333333333333</ele><time>2026-04-26T16:58:29.001Z</time></trkpt><trkpt lat="44.84390471739693" lon="12.108376767832947"><ele>-2.0</ele><time>2026-04-26T16:58:30.001Z</time></trkpt><trkpt lat="44.8440625624873" lon="12.108448901786387"><ele>-2.0</ele><time>2026-04-26T16:58:31.001Z</time></trkpt><trkpt lat="44.84422420050841" lon="12.10852036616909"><ele>-2.0</ele><time>2026-04-26T16:58:32.001Z</time></trkpt><trkpt lat="44.84440225060214" lon="12.10859759426569"><ele>-2.0</ele><time>2026-04-26T16:58:33Z</time></trkpt><trkpt lat="44.84458766404426" lon="12.108666616911254"><ele>-1.6666666666666665</ele><time>2026-04-26T16:58:34Z</time></trkpt><trkpt lat="44.84476766151649" lon="12.108739608146882"><ele>-1.3333333333333333</ele><time>2026-04-26T16:58:35Z</time></trkpt><trkpt lat="44.844950088541474" lon="12.108813739617425"><ele>-1.0</ele><time>2026-04-26T16:58:36Z</time></trkpt><trkpt lat="44.845145614443815" lon="12.108877601381211"><ele>-1.0</ele><time>2026-04-26T16:58:37Z</time></trkpt><trkpt lat="44.845320387755926" lon="12.108937427052927"><ele>-1.0</ele><time>2026-04-26T16:58:38Z</time></trkpt><trkpt lat="44.84550097184165" lon="12.108975876616862"><ele>-1.0</ele><time>2026-04-26T16:58:39Z</time></trkpt><trkpt lat="44.84568179302985" lon="12.10900278743902"><ele>-1.0</ele><time>2026-04-26T16:58:40Z</time></trkpt><trkpt lat="44.84586028281554" lon="12.109017016460824"><ele>-1.0</ele><time>2026-04-26T16:58:41Z</time></trkpt><trkpt lat="44.84603002590637" lon="12.109026655008769"><ele>-1.0</ele><time>2026-04-26T16:58:42Z</time></trkpt><trkpt lat="44.84617754842625" lon="12.109013537801406"><ele>-0.5</ele><time>2026-04-26T16:58:43Z</time></trkpt><trkpt lat="44.846319448209385" lon="12.10899048192078"><ele>0.0</ele><time>2026-04-26T16:58:44Z</time></trkpt><trkpt lat="44.84644268976403" lon="12.108966434355615"><ele>0.5</ele><time>2026-04-26T16:58:45Z</time></trkpt><trkpt lat="44.84656777420232" lon="12.108934236648038"><ele>1.0</ele><time>2026-04-26T16:58:46Z</time></trkpt><trkpt lat="44.84669789306259" lon="12.108878169742976"><ele>0.6666666666666666</ele><time>2026-04-26T16:58:47Z</time></trkpt><trkpt lat="44.8468359731848" lon="12.108830616488198"><ele>0.3333333333333333</ele><time>2026-04-26T16:58:48Z</time></trkpt><trkpt lat="44.84698913863617" lon="12.108748808150137"><ele>0.0</ele><time>2026-04-26T16:58:49Z</time></trkpt><trkpt lat="44.847142576330725" lon="12.108650741699856"><ele>0.0</ele><time>2026-04-26T16:58:50Z</time></trkpt><trkpt lat="44.84730987273157" lon="12.108537555719833"><ele>0.0</ele><time>2026-04-26T16:58:51Z</time></trkpt><trkpt lat="44.847472670746036" lon="12.108408079120503"><ele>0.0</ele><time>2026-04-26T16:58:52Z</time></trkpt><trkpt lat="44.847626279780044" lon="12.108271030153762"><ele>0.0</ele><time>2026-04-26T16:58:53Z</time></trkpt><trkpt lat="44.847777089500234" lon="12.108122244444857"><ele>0.0</ele><time>2026-04-26T16:58:54Z</time></trkpt><trkpt lat="44.84791958443922" lon="12.107962572146501"><ele>0.0</ele><time>2026-04-26T16:58:55Z</time></trkpt><trkpt lat="44.848044137525704" lon="12.107799909717865"><ele>0.0</ele><time>2026-04-26T16:58:56Z</time></trkpt><trkpt lat="44.84815323243089" lon="12.107644524412178"><ele>0.0</ele><time>2026-04-26T16:58:57Z</time></trkpt><trkpt lat="44.84825598505178" lon="12.107494405497738"><ele>0.0</ele><time>2026-04-26T16:58:58Z</time></trkpt><trkpt lat="44.84835814453554" lon="12.107335129270485"><ele>-0.3333333333333333</ele><time>2026-04-26T16:58:59Z</time></trkpt><trkpt lat="44.848447768538456" lon="12.107148616542077"><ele>-0.6666666666666666</ele><time>2026-04-26T16:59:00Z</time></trkpt><trkpt lat="44.848496965766216" lon="12.10690913085196"><ele>-1.0</ele><time>2026-04-26T16:59:01Z</time></trkpt><trkpt lat="44.848508183924395" lon="12.10662428338479"><ele>-1.6666666666666665</ele><time>2026-04-26T16:59:02Z</time></trkpt><trkpt lat="44.848498870313186" lon="12.106328860519875"><ele>-2.3333333333333335</ele><time>2026-04-26T16:59:03Z</time></trkpt><trkpt lat="44.8484943564907" lon="12.106076450506118"><ele>-3.0</ele><time>2026-04-26T16:59:04Z</time></trkpt><trkpt lat="44.84848599220628" lon="12.105835473509144"><ele>-2.6666666666666665</ele><time>2026-04-26T16:59:05Z</time></trkpt><trkpt lat="44.84847297649391" lon="12.105587080726862"><ele>-2.333333333333333</ele><time>2026-04-26T16:59:06Z</time></trkpt><trkpt lat="44.84844209700875" lon="12.10533058651624"><ele>-2.0</ele><time>2026-04-26T16:59:07Z</time></trkpt><trkpt lat="44.84839673308419" lon="12.105063281537806"><ele>-2.333333333333333</ele><time>2026-04-26T16:59:08Z</time></trkpt><trkpt lat="44.84833123094951" lon="12.104796996515857"><ele>-2.6666666666666665</ele><time>2026-04-26T16:59:09Z</time></trkpt><trkpt lat="44.84825195827521" lon="12.104535036046093"><ele>-3.0</ele><time>2026-04-26T16:59:10Z</time></trkpt><trkpt lat="44.84817346606688" lon="12.104264822825497"><ele>-2.3333333333333335</ele><time>2026-04-26T16:59:11Z</time></trkpt><trkpt lat="44.8480907968489" lon="12.104002546707493"><ele>-1.6666666666666665</ele><time>2026-04-26T16:59:12Z</time></trkpt><trkpt lat="44.8479961903728" lon="12.103747269138326"><ele>-1.0</ele><time>2026-04-26T16:59:13Z</time></trkpt><trkpt lat="44.847897521828365" lon="12.10349709966652"><ele>-1.0</ele><time>2026-04-26T16:59:14Z</time></trkpt><trkpt lat="44.847795352061034" lon="12.103250056507404"><ele>-1.0</ele><time>2026-04-26T16:59:15Z</time></trkpt><trkpt lat="44.84769920472345" lon="12.102991192927199"><ele>-1.0</ele><time>2026-04-26T16:59:16Z</time></trkpt><trkpt lat="44.847607954612194" lon="12.10272811394541"><ele>-1.3333333333333333</ele><time>2026-04-26T16:59:17Z</time></trkpt><trkpt lat="44.847523594818" lon="12.102461192165272"><ele>-1.6666666666666665</ele><time>2026-04-26T16:59:18Z</time></trkpt><trkpt lat="44.84744348003529" lon="12.10219206252353"><ele>-2.0</ele><time>2026-04-26T16:59:19Z</time></trkpt><trkpt lat="44.84737361330045" lon="12.101938712295386"><ele>-2.0</ele><time>2026-04-26T16:59:20Z</time></trkpt><trkpt lat="44.847322130554936" lon="12.101694777075313"><ele>-2.0</ele><time>2026-04-26T16:59:21Z</time></trkpt><trkpt lat="44.847271697786745" lon="12.101437631759438"><ele>-2.0</ele><time>2026-04-26T16:59:22Z</time></trkpt><trkpt lat="44.84724632870745" lon="12.101192190357866"><ele>-2.0</ele><time>2026-04-26T16:59:23Z</time></trkpt><trkpt lat="44.84725209110445" lon="12.100917331988432"><ele>-2.0</ele><time>2026-04-26T16:59:24Z</time></trkpt><trkpt lat="44.84727524527436" lon="12.100650006233778"><ele>-2.0</ele><time>2026-04-26T16:59:25Z</time></trkpt><trkpt lat="44.84732366267173" lon="12.100384905826534"><ele>-2.0</ele><time>2026-04-26T16:59:26Z</time></trkpt><trkpt lat="44.84741986255128" lon="12.100115479387343"><ele>-2.0</ele><time>2026-04-26T16:59:27Z</time></trkpt><trkpt lat="44.847543897512196" lon="12.099846975504754"><ele>-2.0</ele><time>2026-04-26T16:59:28Z</time></trkpt><trkpt lat="44.84769473623363" lon="12.099606588770442"><ele>-1.5</ele><time>2026-04-26T16:59:29Z</time></trkpt><trkpt lat="44.8478273522154" lon="12.099330243689348"><ele>-1.0</ele><time>2026-04-26T16:59:30Z</time></trkpt><trkpt lat="44.84800590318798" lon="12.099062222534887"><ele>-1.0</ele><time>2026-04-26T16:59:31Z</time></trkpt><trkpt lat="44.84816395090613" lon="12.09879958443963"><ele>-1.0</ele><time>2026-04-26T16:59:32Z</time></trkpt><trkpt lat="44.8483028516774" lon="12.09857441997405"><ele>-1.0</ele><time>2026-04-26T16:59:33Z</time></trkpt><trkpt lat="44.84847521732803" lon="12.09834777036794"><ele>-1.0</ele><time>2026-04-26T16:59:34Z</time></trkpt><trkpt lat="44.84863633304799" lon="12.098155283868863"><ele>-1.0</ele><time>2026-04-26T16:59:35Z</time></trkpt><trkpt lat="44.8488109821299" lon="12.097971382608947"><ele>-1.0</ele><time>2026-04-26T16:59:36Z</time></trkpt><trkpt lat="44.848974724708405" lon="12.097834647311148"><ele>-1.0</ele><time>2026-04-26T16:59:37Z</time></trkpt><trkpt lat="44.849165258622804" lon="12.097673217474265"><ele>-1.0</ele><time>2026-04-26T16:59:38Z</time></trkpt><trkpt lat="44.84932441630797" lon="12.097560782109507"><ele>-0.6666666666666666</ele><time>2026-04-26T16:59:39Z</time></trkpt><trkpt lat="44.849476732436756" lon="12.097461366982726"><ele>-0.3333333333333333</ele><time>2026-04-26T16:59:40Z</time></trkpt><trkpt lat="44.84963734924114" lon="12.097332280927242"><ele>0.0</ele><time>2026-04-26T16:59:41Z</time></trkpt><trkpt lat="44.84980029488974" lon="12.097227250261806"><ele>0.0</ele><time>2026-04-26T16:59:42Z</time></trkpt><trkpt lat="44.84997560394047" lon="12.09708266438077"><ele>0.0</ele><time>2026-04-26T16:59:43Z</time></trkpt><trkpt lat="44.850143052392646" lon="12.096966704982275"><ele>0.0</ele><time>2026-04-26T16:59:44Z</time></trkpt><trkpt lat="44.85031624445885" lon="12.096831111139057"><ele>0.0</ele><time>2026-04-26T16:59:45Z</time></trkpt><trkpt lat="44.85048271644228" lon="12.096685398407946"><ele>0.0</ele><time>2026-04-26T16:59:46Z</time></trkpt><trkpt lat="44.85066919333007" lon="12.096545242269114"><ele>0.0</ele><time>2026-04-26T16:59:47Z</time></trkpt><trkpt lat="44.85083215034141" lon="12.096424876359384"><ele>-0.3333333333333333</ele><time>2026-04-26T16:59:48Z</time></trkpt><trkpt lat="44.85098134781849" lon="12.0963141733131"><ele>-0.6666666666666666</ele><time>2026-04-26T16:59:49Z</time></trkpt><trkpt lat="44.851133494174846" lon="12.096151303834867"><ele>-1.0</ele><time>2026-04-26T16:59:50Z</time></trkpt><trkpt lat="44.85126768552411" lon="12.095977091710104"><ele>-1.0</ele><time>2026-04-26T16:59:51Z</time></trkpt><trkpt lat="44.851408195561795" lon="12.09578843085067"><ele>-1.0</ele><time>2026-04-26T16:59:52Z</time></trkpt><trkpt lat="44.85154897833349" lon="12.095588652386743"><ele>-1.0</ele><time>2026-04-26T16:59:53Z</time></trkpt><trkpt lat="44.85168551085215" lon="12.095396963702418"><ele>-1.0</ele><time>2026-04-26T16:59:54Z</time></trkpt><trkpt lat="44.85182507856381" lon="12.095184748920323"><ele>-1.0</ele><time>2026-04-26T16:59:55Z</time></trkpt><trkpt lat="44.85196001509514" lon="12.094959231765065"><ele>-1.0</ele><time>2026-04-26T16:59:56Z</time></trkpt><trkpt lat="44.8520999472748" lon="12.094754509376818"><ele>-1.0</ele><time>2026-04-26T16:59:57Z</time></trkpt><trkpt lat="44.85223813313288" lon="12.094552184274237"><ele>-1.0</ele><time>2026-04-26T16:59:58Z</time></trkpt><trkpt lat="44.85237380511106" lon="12.094352243888231"><ele>-1.0</ele><time>2026-04-26T16:59:59Z</time></trkpt><trkpt lat="44.85250667683193" lon="12.094154813961598"><ele>-1.3333333333333333</ele><time>2026-04-26T17:00:00Z</time></trkpt><trkpt lat="44.8526393824172" lon="12.093953139569152"><ele>-1.6666666666666665</ele><time>2026-04-26T17:00:01Z</time></trkpt><trkpt lat="44.852777171449404" lon="12.09375965101348"><ele>-2.0</ele><time>2026-04-26T17:00:02.001Z</time></trkpt><trkpt lat="44.85291434572947" lon="12.09356601915608"><ele>-2.0</ele><time>2026-04-26T17:00:03.001Z</time></trkpt><trkpt lat="44.85305288862056" lon="12.093358058622668"><ele>-2.0</ele><time>2026-04-26T17:00:04.001Z</time></trkpt><trkpt lat="44.85320019715222" lon="12.09313343823282"><ele>-2.0</ele><time>2026-04-26T17:00:05.001Z</time></trkpt><trkpt lat="44.85334850247265" lon="12.092903818293536"><ele>-2.333333333333333</ele><time>2026-04-26T17:00:06.001Z</time></trkpt><trkpt lat="44.853485014197865" lon="12.092669165298162"><ele>-2.6666666666666665</ele><time>2026-04-26T17:00:07.001Z</time></trkpt><trkpt lat="44.85361005323721" lon="12.092417610321085"><ele>-3.0</ele><time>2026-04-26T17:00:08.001Z</time></trkpt><trkpt lat="44.85372668810572" lon="12.09215779782123"><ele>-3.0</ele><time>2026-04-26T17:00:09.001Z</time></trkpt><trkpt lat="44.85383638417784" lon="12.091887377424142"><ele>-3.0</ele><time>2026-04-26T17:00:10.001Z</time></trkpt><trkpt lat="44.85393983091722" lon="12.091622021762339"><ele>-3.0</ele><time>2026-04-26T17:00:11.001Z</time></trkpt><trkpt lat="44.85404092102968" lon="12.091354799397717"><ele>-2.3333333333333335</ele><time>2026-04-26T17:00:12.001Z</time></trkpt><trkpt lat="44.85414296695359" lon="12.091080492745245"><ele>-1.6666666666666665</ele><time>2026-04-26T17:00:13.001Z</time></trkpt><trkpt lat="44.85424449338982" lon="12.09080621795321"><ele>-1.0</ele><time>2026-04-26T17:00:14.001Z</time></trkpt><trkpt lat="44.854341346407594" lon="12.090525814972498"><ele>-0.6666666666666666</ele><time>2026-04-26T17:00:15.001Z</time></trkpt><trkpt lat="44.85443107401955" lon="12.090240653713082"><ele>-0.3333333333333333</ele><time>2026-04-26T17:00:16.001Z</time></trkpt><trkpt lat="44.854518724866594" lon="12.089950525348693"><ele>0.0</ele><time>2026-04-26T17:00:17.001Z</time></trkpt><trkpt lat="44.85460523521201" lon="12.089660821412108"><ele>-0.3333333333333333</ele><time>2026-04-26T17:00:18.001Z</time></trkpt><trkpt lat="44.85469279805546" lon="12.089370685628014"><ele>-0.6666666666666666</ele><time>2026-04-26T17:00:19.001Z</time></trkpt><trkpt lat="44.8547841262948" lon="12.089082506506072"><ele>-1.0</ele><time>2026-04-26T17:00:20.001Z</time></trkpt><trkpt lat="44.85488257619217" lon="12.088797121915562"><ele>-1.0</ele><time>2026-04-26T17:00:21.001Z</time></trkpt><trkpt lat="44.85499434327151" lon="12.088524526644374"><ele>-1.0</ele><time>2026-04-26T17:00:22.001Z</time></trkpt><trkpt lat="44.85511975382489" lon="12.088261722486894"><ele>-1.0</ele><time>2026-04-26T17:00:23.001Z</time></trkpt><trkpt lat="44.8552638657876" lon="12.088019338288222"><ele>-1.0</ele><time>2026-04-26T17:00:24.001Z</time></trkpt><trkpt lat="44.855423451583256" lon="12.087782722126914"><ele>-1.0</ele><time>2026-04-26T17:00:25.001Z</time></trkpt><trkpt lat="44.85559300104649" lon="12.08754924060451"><ele>-1.5</ele><time>2026-04-26T17:00:26.001Z</time></trkpt><trkpt lat="44.855771128593695" lon="12.087327326420393"><ele>-2.0</ele><time>2026-04-26T17:00:27.001Z</time></trkpt><trkpt lat="44.85594503414214" lon="12.087113061798517"><ele>-2.0</ele><time>2026-04-26T17:00:28.001Z</time></trkpt><trkpt lat="44.856107032713986" lon="12.086914170725969"><ele>-2.0</ele><time>2026-04-26T17:00:29.001Z</time></trkpt><trkpt lat="44.85626423131156" lon="12.086723172841799"><ele>-2.0</ele><time>2026-04-26T17:00:30.001Z</time></trkpt><trkpt lat="44.85643051399831" lon="12.086539447888805"><ele>-2.0</ele><time>2026-04-26T17:00:31.001Z</time></trkpt><trkpt lat="44.85661203350179" lon="12.086374729728913"><ele>-2.0</ele><time>2026-04-26T17:00:32.001Z</time></trkpt><trkpt lat="44.856807527623495" lon="12.086226163911684"><ele>-2.0</ele><time>2026-04-26T17:00:33.001Z</time></trkpt><trkpt lat="44.85701012190936" lon="12.086108959546367"><ele>-1.6666666666666665</ele><time>2026-04-26T17:00:34.001Z</time></trkpt><trkpt lat="44.857215377288064" lon="12.086011875800356"><ele>-1.3333333333333333</ele><time>2026-04-26T17:00:35.001Z</time></trkpt><trkpt lat="44.85740245686772" lon="12.085925509023099"><ele>-1.0</ele><time>2026-04-26T17:00:36.001Z</time></trkpt><trkpt lat="44.857579559015385" lon="12.085837535935699"><ele>-1.6666666666666665</ele><time>2026-04-26T17:00:37.001Z</time></trkpt><trkpt lat="44.85776104119881" lon="12.085751182318488"><ele>-2.3333333333333335</ele><time>2026-04-26T17:00:38.001Z</time></trkpt><trkpt lat="44.857940792928694" lon="12.0856696694033"><ele>-3.0</ele><time>2026-04-26T17:00:39Z</time></trkpt><trkpt lat="44.858108289923216" lon="12.08559935567994"><ele>-3.0</ele><time>2026-04-26T17:00:40Z</time></trkpt><trkpt lat="44.85827015484003" lon="12.085545062532342"><ele>-3.0</ele><time>2026-04-26T17:00:41Z</time></trkpt><trkpt lat="44.85843534510362" lon="12.085500264433163"><ele>-3.0</ele><time>2026-04-26T17:00:42Z</time></trkpt><trkpt lat="44.85861646122454" lon="12.085449390859097"><ele>-2.6666666666666665</ele><time>2026-04-26T17:00:43Z</time></trkpt><trkpt lat="44.85880739704268" lon="12.085396418174252"><ele>-2.333333333333333</ele><time>2026-04-26T17:00:44Z</time></trkpt><trkpt lat="44.85900194949117" lon="12.085342898746976"><ele>-2.0</ele><time>2026-04-26T17:00:45Z</time></trkpt><trkpt lat="44.859202540491324" lon="12.085286407100982"><ele>-1.6666666666666665</ele><time>2026-04-26T17:00:46Z</time></trkpt><trkpt lat="44.8594118136445" lon="12.085227015175569"><ele>-1.3333333333333333</ele><time>2026-04-26T17:00:47Z</time></trkpt><trkpt lat="44.859627658948426" lon="12.08516922927843"><ele>-1.0</ele><time>2026-04-26T17:00:48Z</time></trkpt><trkpt lat="44.859847907983124" lon="12.085110751230982"><ele>-1.0</ele><time>2026-04-26T17:00:49Z</time></trkpt><trkpt lat="44.86006728308624" lon="12.085048553779108"><ele>-1.0</ele><time>2026-04-26T17:00:50Z</time></trkpt><trkpt lat="44.86028804261543" lon="12.084979603835086"><ele>-1.5</ele><time>2026-04-26T17:00:51Z</time></trkpt><trkpt lat="44.86051310048079" lon="12.084905798159843"><ele>-2.0</ele><time>2026-04-26T17:00:52Z</time></trkpt><trkpt lat="44.86073866361879" lon="12.084825052257749"><ele>-1.0</ele><time>2026-04-26T17:00:53Z</time></trkpt><trkpt lat="44.86095863571588" lon="12.084727753730995"><ele>0.0</ele><time>2026-04-26T17:00:54Z</time></trkpt><trkpt lat="44.861170958193256" lon="12.084616439359216"><ele>0.0</ele><time>2026-04-26T17:00:55Z</time></trkpt><trkpt lat="44.86137806334717" lon="12.084499583637268"><ele>0.0</ele><time>2026-04-26T17:00:56Z</time></trkpt><trkpt lat="44.86158171177119" lon="12.084381371892679"><ele>0.0</ele><time>2026-04-26T17:00:57Z</time></trkpt><trkpt lat="44.86178464364885" lon="12.084268487289052"><ele>0.0</ele><time>2026-04-26T17:00:58Z</time></trkpt><trkpt lat="44.86199457264964" lon="12.084153990032618"><ele>0.0</ele><time>2026-04-26T17:00:59Z</time></trkpt><trkpt lat="44.862205033278585" lon="12.084042985548672"><ele>0.0</ele><time>2026-04-26T17:01:00Z</time></trkpt><trkpt lat="44.86241345529229" lon="12.083933512747628"><ele>0.0</ele><time>2026-04-26T17:01:01Z</time></trkpt><trkpt lat="44.862617345161716" lon="12.083823774804237"><ele>0.0</ele><time>2026-04-26T17:01:02Z</time></trkpt><trkpt lat="44.86281937797167" lon="12.083714981596787"><ele>-0.3333333333333333</ele><time>2026-04-26T17:01:03Z</time></trkpt><trkpt lat="44.86301638907483" lon="12.083612205659032"><ele>-0.6666666666666666</ele><time>2026-04-26T17:01:04Z</time></trkpt><trkpt lat="44.86319928214047" lon="12.083514394043458"><ele>-1.0</ele><time>2026-04-26T17:01:05Z</time></trkpt><trkpt lat="44.86338301720177" lon="12.083414393684857"><ele>-0.6666666666666666</ele><time>2026-04-26T17:01:06Z</time></trkpt><trkpt lat="44.86356057872505" lon="12.083314199259412"><ele>-0.3333333333333333</ele><time>2026-04-26T17:01:07Z</time></trkpt><trkpt lat="44.863735804864525" lon="12.08322251262108"><ele>0.0</ele><time>2026-04-26T17:01:08Z</time></trkpt><trkpt lat="44.863926453438374" lon="12.083130844332622"><ele>0.0</ele><time>2026-04-26T17:01:09Z</time></trkpt><trkpt lat="44.86411385013622" lon="12.083064091766781"><ele>0.0</ele><time>2026-04-26T17:01:10Z</time></trkpt><trkpt lat="44.86431509385191" lon="12.083017015381095"><ele>0.0</ele><time>2026-04-26T17:01:11Z</time></trkpt><trkpt lat="44.86453250341266" lon="12.08300796504097"><ele>0.0</ele><time>2026-04-26T17:01:12Z</time></trkpt><trkpt lat="44.864770710495584" lon="12.0830344692975"><ele>0.0</ele><time>2026-04-26T17:01:13Z</time></trkpt><trkpt lat="44.86502739599679" lon="12.083085544335871"><ele>-0.6666666666666666</ele><time>2026-04-26T17:01:14Z</time></trkpt><trkpt lat="44.86525621322115" lon="12.08314571153194"><ele>-1.3333333333333333</ele><time>2026-04-26T17:01:15Z</time></trkpt><trkpt lat="44.86546322670083" lon="12.08318872209398"><ele>-2.0</ele><time>2026-04-26T17:01:16Z</time></trkpt><trkpt lat="44.86566821269224" lon="12.083223238038112"><ele>-2.0</ele><time>2026-04-26T17:01:17Z</time></trkpt><trkpt lat="44.86587498552863" lon="12.083255059793602"><ele>-2.0</ele><time>2026-04-26T17:01:18Z</time></trkpt><trkpt lat="44.86608654745194" lon="12.083291616505832"><ele>-2.0</ele><time>2026-04-26T17:01:19Z</time></trkpt><trkpt lat="44.86629881087975" lon="12.08332725630265"><ele>-1.6666666666666665</ele><time>2026-04-26T17:01:20Z</time></trkpt><trkpt lat="44.866510464820145" lon="12.083365685958565"><ele>-1.3333333333333333</ele><time>2026-04-26T17:01:21Z</time></trkpt><trkpt lat="44.86670404990651" lon="12.083403685021505"><ele>-1.0</ele><time>2026-04-26T17:01:22Z</time></trkpt><trkpt lat="44.8669027683819" lon="12.08344753968616"><ele>-1.6666666666666665</ele><time>2026-04-26T17:01:23Z</time></trkpt><trkpt lat="44.8671118977178" lon="12.083506248720484"><ele>-2.3333333333333335</ele><time>2026-04-26T17:01:24Z</time></trkpt><trkpt lat="44.86733611970963" lon="12.08360197240515"><ele>-3.0</ele><time>2026-04-26T17:01:25Z</time></trkpt><trkpt lat="44.86755882325743" lon="12.08372180379944"><ele>-3.333333333333333</ele><time>2026-04-26T17:01:26Z</time></trkpt><trkpt lat="44.8677621234795" lon="12.08384825471076"><ele>-3.6666666666666665</ele><time>2026-04-26T17:01:27Z</time></trkpt><trkpt lat="44.867947453120394" lon="12.083957452289638"><ele>-4.0</ele><time>2026-04-26T17:01:28Z</time></trkpt><trkpt lat="44.868135212748555" lon="12.084060578961163"><ele>-3.0</ele><time>2026-04-26T17:01:29Z</time></trkpt><trkpt lat="44.86832418533669" lon="12.084162432696434"><ele>-2.0</ele><time>2026-04-26T17:01:30Z</time></trkpt><trkpt lat="44.86851551812805" lon="12.08426801609137"><ele>-1.0</ele><time>2026-04-26T17:01:31Z</time></trkpt><trkpt lat="44.86870474577349" lon="12.084368638437493"><ele>-1.0</ele><time>2026-04-26T17:01:32Z</time></trkpt><trkpt lat="44.86889698563113" lon="12.084469341946171"><ele>-1.0</ele><time>2026-04-26T17:01:33Z</time></trkpt><trkpt lat="44.86909083150015" lon="12.084578070594434"><ele>-1.0</ele><time>2026-04-26T17:01:34Z</time></trkpt><trkpt lat="44.86928907830873" lon="12.084686932804223"><ele>-0.6666666666666666</ele><time>2026-04-26T17:01:35Z</time></trkpt><trkpt lat="44.86948603877722" lon="12.084792900116012"><ele>-0.3333333333333333</ele><time>2026-04-26T17:01:36Z</time></trkpt><trkpt lat="44.869676430101606" lon="12.084895985370174"><ele>0.0</ele><time>2026-04-26T17:01:37Z</time></trkpt><trkpt lat="44.86986527826994" lon="12.084997734064498"><ele>0.0</ele><time>2026-04-26T17:01:38Z</time></trkpt><trkpt lat="44.870054142449135" lon="12.085099938367735"><ele>0.0</ele><time>2026-04-26T17:01:39Z</time></trkpt><trkpt lat="44.87024380421685" lon="12.085196974188323"><ele>0.0</ele><time>2026-04-26T17:01:40Z</time></trkpt><trkpt lat="44.87042877319419" lon="12.085297094771601"><ele>-0.3333333333333333</ele><time>2026-04-26T17:01:41Z</time></trkpt><trkpt lat="44.87061462333791" lon="12.08539996229227"><ele>-0.6666666666666666</ele><time>2026-04-26T17:01:42Z</time></trkpt><trkpt lat="44.870801459257144" lon="12.085490947614492"><ele>-1.0</ele><time>2026-04-26T17:01:43Z</time></trkpt><trkpt lat="44.87099701361258" lon="12.085559664743387"><ele>-1.3333333333333333</ele><time>2026-04-26T17:01:44Z</time></trkpt><trkpt lat="44.87119790777217" lon="12.085609766356429"><ele>-1.6666666666666665</ele><time>2026-04-26T17:01:45Z</time></trkpt><trkpt lat="44.87140129740676" lon="12.085644669309085"><ele>-2.0</ele><time>2026-04-26T17:01:46Z</time></trkpt><trkpt lat="44.87161100632375" lon="12.085670428511065"><ele>-2.5</ele><time>2026-04-26T17:01:47Z</time></trkpt><trkpt lat="44.871835629480984" lon="12.085683896856427"><ele>-3.0</ele><time>2026-04-26T17:01:48Z</time></trkpt><trkpt lat="44.872063381981924" lon="12.085685762390485"><ele>-3.0</ele><time>2026-04-26T17:01:49Z</time></trkpt><trkpt lat="44.87229017244783" lon="12.085674394544743"><ele>-3.0</ele><time>2026-04-26T17:01:50.001Z</time></trkpt><trkpt lat="44.87251510827229" lon="12.08564590084942"><ele>-2.6666666666666665</ele><time>2026-04-26T17:01:51.001Z</time></trkpt><trkpt lat="44.87273402321492" lon="12.085601299103654"><ele>-2.333333333333333</ele><time>2026-04-26T17:01:52.001Z</time></trkpt><trkpt lat="44.87294822864131" lon="12.085547169057193"><ele>-2.0</ele><time>2026-04-26T17:01:53.001Z</time></trkpt><trkpt lat="44.873160891080204" lon="12.085483042573092"><ele>-2.0</ele><time>2026-04-26T17:01:54.001Z</time></trkpt><trkpt lat="44.87337136811724" lon="12.085408605949164"><ele>-2.0</ele><time>2026-04-26T17:01:55.001Z</time></trkpt><trkpt lat="44.873578215005224" lon="12.085327922420884"><ele>-2.0</ele><time>2026-04-26T17:01:56.001Z</time></trkpt><trkpt lat="44.87378296940184" lon="12.085243395759965"><ele>-2.0</ele><time>2026-04-26T17:01:57.001Z</time></trkpt><trkpt lat="44.87398830220965" lon="12.0851627156422"><ele>-2.0</ele><time>2026-04-26T17:01:58.001Z</time></trkpt><trkpt lat="44.874192384367966" lon="12.085082701442483"><ele>-2.0</ele><time>2026-04-26T17:01:59.001Z</time></trkpt><trkpt lat="44.87439423678889" lon="12.085000304233322"><ele>-2.0</ele><time>2026-04-26T17:02:00.001Z</time></trkpt><trkpt lat="44.874583173924044" lon="12.084921149861026"><ele>-2.0</ele><time>2026-04-26T17:02:01.001Z</time></trkpt><trkpt lat="44.874772873439824" lon="12.084846085337832"><ele>-2.0</ele><time>2026-04-26T17:02:02.001Z</time></trkpt><trkpt lat="44.874974583839304" lon="12.084768622076119"><ele>-2.0</ele><time>2026-04-26T17:02:03.001Z</time></trkpt><trkpt lat="44.87517553945297" lon="12.084689374323537"><ele>-2.0</ele><time>2026-04-26T17:02:04.001Z</time></trkpt><trkpt lat="44.87537639636307" lon="12.084611141762734"><ele>-2.0</ele><time>2026-04-26T17:02:05.001Z</time></trkpt><trkpt lat="44.87558391574617" lon="12.084537412318939"><ele>-2.0</ele><time>2026-04-26T17:02:06.001Z</time></trkpt><trkpt lat="44.87579141571053" lon="12.084467717353865"><ele>-2.0</ele><time>2026-04-26T17:02:07.001Z</time></trkpt><trkpt lat="44.87600065686899" lon="12.08440873272638"><ele>-2.0</ele><time>2026-04-26T17:02:08.001Z</time></trkpt><trkpt lat="44.876213210114514" lon="12.084357320266932"><ele>-2.0</ele><time>2026-04-26T17:02:09.001Z</time></trkpt><trkpt lat="44.87642765513151" lon="12.084313109357138"><ele>-2.0</ele><time>2026-04-26T17:02:10.001Z</time></trkpt><trkpt lat="44.876647442633086" lon="12.08428596846272"><ele>-2.0</ele><time>2026-04-26T17:02:11.001Z</time></trkpt><trkpt lat="44.8768691235595" lon="12.084273528911732"><ele>-1.6666666666666665</ele><time>2026-04-26T17:02:12.001Z</time></trkpt><trkpt lat="44.877091562817725" lon="12.08428011393053"><ele>-1.3333333333333333</ele><time>2026-04-26T17:02:13.001Z</time></trkpt><trkpt lat="44.8773150938021" lon="12.084293076462648"><ele>-1.0</ele><time>2026-04-26T17:02:14.001Z</time></trkpt><trkpt lat="44.87753701684762" lon="12.084313654944006"><ele>-1.3333333333333333</ele><time>2026-04-26T17:02:15.001Z</time></trkpt><trkpt lat="44.87775610196665" lon="12.08433689007618"><ele>-1.6666666666666665</ele><time>2026-04-26T17:02:16.001Z</time></trkpt><trkpt lat="44.87797545643126" lon="12.084370149361087"><ele>-2.0</ele><time>2026-04-26T17:02:17.001Z</time></trkpt><trkpt lat="44.87818973039065" lon="12.08442624038735"><ele>-2.0</ele><time>2026-04-26T17:02:18.001Z</time></trkpt><trkpt lat="44.87839118201146" lon="12.084503215445684"><ele>-2.0</ele><time>2026-04-26T17:02:19.001Z</time></trkpt><trkpt lat="44.878577361315656" lon="12.084589272344925"><ele>-2.0</ele><time>2026-04-26T17:02:20.001Z</time></trkpt><trkpt lat="44.87875226473727" lon="12.084686230187094"><ele>-2.0</ele><time>2026-04-26T17:02:21.001Z</time></trkpt><trkpt lat="44.87892853168335" lon="12.084787593593305"><ele>-2.0</ele><time>2026-04-26T17:02:22.001Z</time></trkpt><trkpt lat="44.87911823467062" lon="12.08489616124786"><ele>-2.0</ele><time>2026-04-26T17:02:23.001Z</time></trkpt><trkpt lat="44.87929660153343" lon="12.085018854464238"><ele>-3.0</ele><time>2026-04-26T17:02:24.001Z</time></trkpt><trkpt lat="44.87948050074111" lon="12.085179582227079"><ele>-4.0</ele><time>2026-04-26T17:02:25.001Z</time></trkpt><trkpt lat="44.8796763830407" lon="12.08538653840516"><ele>-4.0</ele><time>2026-04-26T17:02:26.001Z</time></trkpt><trkpt lat="44.87987903082707" lon="12.0856322028665"><ele>-4.0</ele><time>2026-04-26T17:02:27.001Z</time></trkpt><trkpt lat="44.88008759060509" lon="12.08592316505037"><ele>-4.0</ele><time>2026-04-26T17:02:28.001Z</time></trkpt><trkpt lat="44.88028219915533" lon="12.086254782979163"><ele>-4.0</ele><time>2026-04-26T17:02:29.001Z</time></trkpt><trkpt lat="44.88043348382542" lon="12.086566264826553"><ele>-4.0</ele><time>2026-04-26T17:02:30.001Z</time></trkpt><trkpt lat="44.880581188838796" lon="12.08685003630074"><ele>-4.0</ele><time>2026-04-26T17:02:31.001Z</time></trkpt><trkpt lat="44.88069569507022" lon="12.087134166805722"><ele>-3.5</ele><time>2026-04-26T17:02:32.001Z</time></trkpt><trkpt lat="44.880777906916705" lon="12.087443127794241"><ele>-3.0</ele><time>2026-04-26T17:02:33.001Z</time></trkpt><trkpt lat="44.88083602226981" lon="12.087802308590076"><ele>-3.0</ele><time>2026-04-26T17:02:34.001Z</time></trkpt><trkpt lat="44.88088668168032" lon="12.088193759728844"><ele>-3.0</ele><time>2026-04-26T17:02:35.001Z</time></trkpt><trkpt lat="44.880935919763495" lon="12.088531328074406"><ele>-3.666666666666667</ele><time>2026-04-26T17:02:36.001Z</time></trkpt><trkpt lat="44.88098178006021" lon="12.088842962382502"><ele>-4.333333333333334</ele><time>2026-04-26T17:02:37.001Z</time></trkpt><trkpt lat="44.88102479114471" lon="12.089126899710795"><ele>-5.0</ele><time>2026-04-26T17:02:38.001Z</time></trkpt><trkpt lat="44.88106441547326" lon="12.089396315063102"><ele>-5.0</ele><time>2026-04-26T17:02:39.001Z</time></trkpt><trkpt lat="44.88109947183235" lon="12.089647446527852"><ele>-5.0</ele><time>2026-04-26T17:02:40.001Z</time></trkpt><trkpt lat="44.881135476552174" lon="12.089894303885295"><ele>-5.0</ele><time>2026-04-26T17:02:41.001Z</time></trkpt><trkpt lat="44.88117154933776" lon="12.09014403599174"><ele>-4.666666666666667</ele><time>2026-04-26T17:02:42.001Z</time></trkpt><trkpt lat="44.88120501234697" lon="12.090392491598323"><ele>-4.333333333333333</ele><time>2026-04-26T17:02:43.001Z</time></trkpt><trkpt lat="44.881239444865045" lon="12.090640487996888"><ele>-4.0</ele><time>2026-04-26T17:02:44.001Z</time></trkpt><trkpt lat="44.88127524106556" lon="12.090885645063782"><ele>-3.6666666666666665</ele><time>2026-04-26T17:02:45Z</time></trkpt><trkpt lat="44.881304018658476" lon="12.09111394102525"><ele>-3.333333333333333</ele><time>2026-04-26T17:02:46Z</time></trkpt><trkpt lat="44.88133546832197" lon="12.091346417338759"><ele>-3.0</ele><time>2026-04-26T17:02:47Z</time></trkpt><trkpt lat="44.88136832664324" lon="12.091592701429747"><ele>-3.0</ele><time>2026-04-26T17:02:48Z</time></trkpt><trkpt lat="44.88140484657835" lon="12.091839492165727"><ele>-3.0</ele><time>2026-04-26T17:02:49Z</time></trkpt><trkpt lat="44.881450896297814" lon="12.092085888738303"><ele>-3.0</ele><time>2026-04-26T17:02:50Z</time></trkpt><trkpt lat="44.881507288130585" lon="12.092328808954477"><ele>-3.333333333333333</ele><time>2026-04-26T17:02:51Z</time></trkpt><trkpt lat="44.88157587832996" lon="12.092570115257656"><ele>-3.6666666666666665</ele><time>2026-04-26T17:02:52Z</time></trkpt><trkpt lat="44.881656450671024" lon="12.092807711222257"><ele>-4.0</ele><time>2026-04-26T17:02:53Z</time></trkpt><trkpt lat="44.881749119025415" lon="12.093039704434648"><ele>-4.333333333333333</ele><time>2026-04-26T17:02:54Z</time></trkpt><trkpt lat="44.88185556960529" lon="12.093262092021952"><ele>-4.666666666666667</ele><time>2026-04-26T17:02:55Z</time></trkpt><trkpt lat="44.88199095573923" lon="12.093488334645434"><ele>-5.0</ele><time>2026-04-26T17:02:56Z</time></trkpt><trkpt lat="44.88216233916995" lon="12.093728864603024"><ele>-5.0</ele><time>2026-04-26T17:02:57Z</time></trkpt><trkpt lat="44.88235784399253" lon="12.093965848824437"><ele>-5.0</ele><time>2026-04-26T17:02:58Z</time></trkpt><trkpt lat="44.88253515698771" lon="12.094161218372184"><ele>-3.5</ele><time>2026-04-26T17:02:59Z</time></trkpt><trkpt lat="44.88272559228419" lon="12.094324754962807"><ele>-2.0</ele><time>2026-04-26T17:03:00Z</time></trkpt><trkpt lat="44.88293948221565" lon="12.094453534525003"><ele>-2.0</ele><time>2026-04-26T17:03:01Z</time></trkpt><trkpt lat="44.8831586365709" lon="12.094551258622865"><ele>-2.0</ele><time>2026-04-26T17:03:02Z</time></trkpt><trkpt lat="44.88338275155287" lon="12.09461118308186"><ele>-2.0</ele><time>2026-04-26T17:03:03Z</time></trkpt><trkpt lat="44.88360420315494" lon="12.094631658784321"><ele>-2.0</ele><time>2026-04-26T17:03:04Z</time></trkpt><trkpt lat="44.883818162923745" lon="12.094618843367213"><ele>-2.0</ele><time>2026-04-26T17:03:05Z</time></trkpt><trkpt lat="44.88402994996456" lon="12.094546673700709"><ele>-2.0</ele><time>2026-04-26T17:03:06Z</time></trkpt><trkpt lat="44.884247827482284" lon="12.094411430276066"><ele>-2.0</ele><time>2026-04-26T17:03:07Z</time></trkpt><trkpt lat="44.884474021688305" lon="12.094217754915077"><ele>-2.0</ele><time>2026-04-26T17:03:08Z</time></trkpt><trkpt lat="44.884668362263405" lon="12.094044450868772"><ele>-2.0</ele><time>2026-04-26T17:03:09Z</time></trkpt><trkpt lat="44.88485236646017" lon="12.093882209699284"><ele>-2.0</ele><time>2026-04-26T17:03:10Z</time></trkpt><trkpt lat="44.88503272611154" lon="12.093743061687668"><ele>-2.333333333333333</ele><time>2026-04-26T17:03:11Z</time></trkpt><trkpt lat="44.885207970133585" lon="12.093580039539935"><ele>-2.6666666666666665</ele><time>2026-04-26T17:03:12Z</time></trkpt><trkpt lat="44.88539514460503" lon="12.093421964050467"><ele>-3.0</ele><time>2026-04-26T17:03:13Z</time></trkpt><trkpt lat="44.8855822112994" lon="12.093278430521982"><ele>-3.0</ele><time>2026-04-26T17:03:14Z</time></trkpt><trkpt lat="44.88577397666111" lon="12.093137120916188"><ele>-3.0</ele><time>2026-04-26T17:03:15Z</time></trkpt><trkpt lat="44.88596713250235" lon="12.092992825475363"><ele>-3.0</ele><time>2026-04-26T17:03:16Z</time></trkpt><trkpt lat="44.88615888390418" lon="12.092857619421878"><ele>-2.3333333333333335</ele><time>2026-04-26T17:03:17Z</time></trkpt><trkpt lat="44.886344723382" lon="12.092727051301662"><ele>-1.6666666666666665</ele><time>2026-04-26T17:03:18Z</time></trkpt><trkpt lat="44.88652219638119" lon="12.092608358143028"><ele>-1.0</ele><time>2026-04-26T17:03:19Z</time></trkpt><trkpt lat="44.88670158046485" lon="12.092504825851934"><ele>-0.6666666666666666</ele><time>2026-04-26T17:03:20Z</time></trkpt><trkpt lat="44.88689560046285" lon="12.092417690602172"><ele>-0.3333333333333333</ele><time>2026-04-26T17:03:21Z</time></trkpt><trkpt lat="44.8870849951136" lon="12.09235503969061"><ele>0.0</ele><time>2026-04-26T17:03:22Z</time></trkpt><trkpt lat="44.88726177389746" lon="12.092309482815395"><ele>0.0</ele><time>2026-04-26T17:03:23Z</time></trkpt><trkpt lat="44.887428363134305" lon="12.092283883573968"><ele>0.0</ele><time>2026-04-26T17:03:24Z</time></trkpt><trkpt lat="44.887583535623854" lon="12.092276635242001"><ele>0.0</ele><time>2026-04-26T17:03:25Z</time></trkpt><trkpt lat="44.887731604969694" lon="12.092279441940226"><ele>-0.5</ele><time>2026-04-26T17:03:26Z</time></trkpt><trkpt lat="44.887868277823586" lon="12.092289666153366"><ele>-1.0</ele><time>2026-04-26T17:03:27Z</time></trkpt><trkpt lat="44.88799278232318" lon="12.092300391053167"><ele>-1.5</ele><time>2026-04-26T17:03:28Z</time></trkpt><trkpt lat="44.888109232243224" lon="12.092310599975043"><ele>-2.0</ele><time>2026-04-26T17:03:29Z</time></trkpt><trkpt lat="44.888211704248256" lon="12.092325822206837"><ele>-1.9999999999999998</ele><time>2026-04-26T17:03:30Z</time></trkpt><trkpt lat="44.88830370147996" lon="12.092343820509448"><ele>-2.0</ele><time>2026-04-26T17:03:31Z</time></trkpt><trkpt lat="44.888380402674485" lon="12.092400341016312"><ele>-2.0</ele><time>2026-04-26T17:03:32Z</time></trkpt><trkpt lat="44.88843931483781" lon="12.092480014808181"><ele>-2.0</ele><time>2026-04-26T17:03:33Z</time></trkpt><trkpt lat="44.88849847638207" lon="12.092539939202565"><ele>-1.9999999999999998</ele><time>2026-04-26T17:03:34Z</time></trkpt><trkpt lat="44.88857549253669" lon="12.092570615489288"><ele>-2.0</ele><time>2026-04-26T17:03:35Z</time></trkpt><trkpt lat="44.888661811664676" lon="12.092577794500999"><ele>-1.75</ele><time>2026-04-26T17:03:36Z</time></trkpt><trkpt lat="44.888758495428405" lon="12.092603327803252"><ele>-1.5</ele><time>2026-04-26T17:03:37Z</time></trkpt><trkpt lat="44.88885557119515" lon="12.092653896754161"><ele>-1.25</ele><time>2026-04-26T17:03:38Z</time></trkpt><trkpt lat="44.888958999425995" lon="12.092725932401919"><ele>-1.0</ele><time>2026-04-26T17:03:39Z</time></trkpt><trkpt lat="44.889072454827215" lon="12.092829263471833"><ele>-1.0</ele><time>2026-04-26T17:03:40Z</time></trkpt><trkpt lat="44.88917198864939" lon="12.092943514740178"><ele>-1.0</ele><time>2026-04-26T17:03:41Z</time></trkpt><trkpt lat="44.88927044805506" lon="12.093052135243736"><ele>-1.0</ele><time>2026-04-26T17:03:42Z</time></trkpt><trkpt lat="44.889378198865714" lon="12.093168751559379"><ele>-1.0</ele><time>2026-04-26T17:03:43Z</time></trkpt><trkpt lat="44.889489439886276" lon="12.093303508768466"><ele>-1.0</ele><time>2026-04-26T17:03:44Z</time></trkpt><trkpt lat="44.889597309216036" lon="12.093461123596072"><ele>-1.0</ele><time>2026-04-26T17:03:45Z</time></trkpt><trkpt lat="44.889704992216" lon="12.093628227849276"><ele>-1.0</ele><time>2026-04-26T17:03:46Z</time></trkpt><trkpt lat="44.88980969178224" lon="12.093798783294357"><ele>-1.0</ele><time>2026-04-26T17:03:47Z</time></trkpt><trkpt lat="44.88991822378302" lon="12.093966802259034"><ele>-1.0</ele><time>2026-04-26T17:03:48Z</time></trkpt><trkpt lat="44.89003181052509" lon="12.094128066125755"><ele>-1.0</ele><time>2026-04-26T17:03:49.001Z</time></trkpt><trkpt lat="44.89014597371777" lon="12.094298343744233"><ele>-1.3333333333333333</ele><time>2026-04-26T17:03:50.001Z</time></trkpt><trkpt lat="44.89026283569866" lon="12.094477720146035"><ele>-1.6666666666666665</ele><time>2026-04-26T17:03:51.001Z</time></trkpt><trkpt lat="44.89037909319864" lon="12.094667357249207"><ele>-2.0</ele><time>2026-04-26T17:03:52.001Z</time></trkpt><trkpt lat="44.89048713247105" lon="12.094844517336476"><ele>-1.6666666666666665</ele><time>2026-04-26T17:03:53.001Z</time></trkpt><trkpt lat="44.89060300765555" lon="12.095027998748746"><ele>-1.3333333333333333</ele><time>2026-04-26T17:03:54.001Z</time></trkpt><trkpt lat="44.89072238599843" lon="12.095216594729516"><ele>-1.0</ele><time>2026-04-26T17:03:55.001Z</time></trkpt><trkpt lat="44.89084199603861" lon="12.095409673339695"><ele>-1.3333333333333333</ele><time>2026-04-26T17:03:56.001Z</time></trkpt><trkpt lat="44.89096386416683" lon="12.095604964965137"><ele>-1.6666666666666665</ele><time>2026-04-26T17:03:57.001Z</time></trkpt><trkpt lat="44.8910837947127" lon="12.095797353641057"><ele>-2.0</ele><time>2026-04-26T17:03:58.001Z</time></trkpt><trkpt lat="44.891204932131515" lon="12.095985869624807"><ele>-2.0</ele><time>2026-04-26T17:03:59.001Z</time></trkpt><trkpt lat="44.89132956391374" lon="12.096169899951912"><ele>-2.0</ele><time>2026-04-26T17:04:00.001Z</time></trkpt><trkpt lat="44.89145760958757" lon="12.096355224415056"><ele>-2.0</ele><time>2026-04-26T17:04:01.001Z</time></trkpt><trkpt lat="44.89158950107964" lon="12.09653756379824"><ele>-1.6666666666666665</ele><time>2026-04-26T17:04:02.001Z</time></trkpt><trkpt lat="44.89172426848899" lon="12.096719315172718"><ele>-1.3333333333333333</ele><time>2026-04-26T17:04:03.001Z</time></trkpt><trkpt lat="44.89186228098088" lon="12.096891051685736"><ele>-1.0</ele><time>2026-04-26T17:04:04.001Z</time></trkpt><trkpt lat="44.89200403683148" lon="12.09705288210062"><ele>-1.0</ele><time>2026-04-26T17:04:05.001Z</time></trkpt><trkpt lat="44.892148880426205" lon="12.09720376884144"><ele>-1.0</ele><time>2026-04-26T17:04:06.001Z</time></trkpt><trkpt lat="44.89229691248978" lon="12.097348289828355"><ele>-1.0</ele><time>2026-04-26T17:04:07.001Z</time></trkpt><trkpt lat="44.8924475898534" lon="12.097490867968114"><ele>-1.0</ele><time>2026-04-26T17:04:08.001Z</time></trkpt><trkpt lat="44.89260100072417" lon="12.097624390952701"><ele>-1.0</ele><time>2026-04-26T17:04:09.001Z</time></trkpt><trkpt lat="44.89275507796083" lon="12.097749926519855"><ele>-1.0</ele><time>2026-04-26T17:04:10.001Z</time></trkpt><trkpt lat="44.89291177242513" lon="12.097862204935069"><ele>-1.0</ele><time>2026-04-26T17:04:11.001Z</time></trkpt><trkpt lat="44.89307174895371" lon="12.097951968446448"><ele>-1.0</ele><time>2026-04-26T17:04:12.001Z</time></trkpt><trkpt lat="44.8932444543102" lon="12.098019291112841"><ele>-1.0</ele><time>2026-04-26T17:04:13.001Z</time></trkpt><trkpt lat="44.89341980308619" lon="12.098071103455505"><ele>-1.0</ele><time>2026-04-26T17:04:14.001Z</time></trkpt><trkpt lat="44.893599126982565" lon="12.09812301530068"><ele>-1.0</ele><time>2026-04-26T17:04:15.001Z</time></trkpt><trkpt lat="44.8937760075801" lon="12.09818765181682"><ele>-1.0</ele><time>2026-04-26T17:04:16.001Z</time></trkpt><trkpt lat="44.89394723398447" lon="12.098255762237391"><ele>-1.0</ele><time>2026-04-26T17:04:17.001Z</time></trkpt><trkpt lat="44.89412370408825" lon="12.098310506021747"><ele>-1.0</ele><time>2026-04-26T17:04:18.001Z</time></trkpt><trkpt lat="44.894290775569154" lon="12.09842481466643"><ele>-1.0</ele><time>2026-04-26T17:04:19.001Z</time></trkpt><trkpt lat="44.89443200232952" lon="12.098538211508657"><ele>-0.6666666666666666</ele><time>2026-04-26T17:04:20.001Z</time></trkpt><trkpt lat="44.89459027872727" lon="12.098614913883788"><ele>-0.3333333333333333</ele><time>2026-04-26T17:04:21.001Z</time></trkpt><trkpt lat="44.89476133882416" lon="12.09865052991078"><ele>0.0</ele><time>2026-04-26T17:04:22.001Z</time></trkpt><trkpt lat="44.8949315640314" lon="12.098673542170333"><ele>0.0</ele><time>2026-04-26T17:04:23.001Z</time></trkpt><trkpt lat="44.89510601255381" lon="12.098693236129872"><ele>0.0</ele><time>2026-04-26T17:04:24.001Z</time></trkpt><trkpt lat="44.895277238183134" lon="12.098721421662578"><ele>0.0</ele><time>2026-04-26T17:04:25.001Z</time></trkpt><trkpt lat="44.89542033806947" lon="12.098752706591116"><ele>0.0</ele><time>2026-04-26T17:04:26.001Z</time></trkpt><trkpt lat="44.895560513448714" lon="12.098793229248525"><ele>0.0</ele><time>2026-04-26T17:04:27.001Z</time></trkpt><trkpt lat="44.89569053380893" lon="12.09882928142883"><ele>0.0</ele><time>2026-04-26T17:04:28.001Z</time></trkpt><trkpt lat="44.89580191868895" lon="12.098908680890725"><ele>0.0</ele><time>2026-04-26T17:04:29.001Z</time></trkpt><trkpt lat="44.895902062739076" lon="12.098963840233948"><ele>-0.2</ele><time>2026-04-26T17:04:30.001Z</time></trkpt><trkpt lat="44.89600113223768" lon="12.099003074912305"><ele>-0.4</ele><time>2026-04-26T17:04:31.001Z</time></trkpt><trkpt lat="44.8960732020564" lon="12.099048453156499"><ele>-0.6000000000000001</ele><time>2026-04-26T17:04:32.001Z</time></trkpt><trkpt lat="44.89612261587244" lon="12.099141644302511"><ele>-0.8</ele><time>2026-04-26T17:04:33.001Z</time></trkpt><trkpt lat="44.89613804918193" lon="12.099264791400872"><ele>-1.0</ele><time>2026-04-26T17:04:34.001Z</time></trkpt><trkpt lat="44.89612337834211" lon="12.09941562383307"><ele>-1.25</ele><time>2026-04-26T17:04:35.001Z</time></trkpt><trkpt lat="44.89610676318708" lon="12.099587233045861"><ele>-1.5</ele><time>2026-04-26T17:04:36.001Z</time></trkpt><trkpt lat="44.89610993208927" lon="12.099801559495011"><ele>-1.75</ele><time>2026-04-26T17:04:37.001Z</time></trkpt><trkpt lat="44.896106944774196" lon="12.099993400620647"><ele>-2.0</ele><time>2026-04-26T17:04:38.001Z</time></trkpt><trkpt lat="44.896104565048866" lon="12.100197549241921"><ele>-2.0</ele><time>2026-04-26T17:04:39.001Z</time></trkpt><trkpt lat="44.896106567688825" lon="12.10038417572567"><ele>-2.0</ele><time>2026-04-26T17:04:40.001Z</time></trkpt><trkpt lat="44.89610591108068" lon="12.100589164029225"><ele>-2.0</ele><time>2026-04-26T17:04:41.001Z</time></trkpt><trkpt lat="44.89608987326605" lon="12.100801653110057"><ele>-2.0</ele><time>2026-04-26T17:04:42.001Z</time></trkpt><trkpt lat="44.896074233915016" lon="12.101003332205567"><ele>-2.0</ele><time>2026-04-26T17:04:43.001Z</time></trkpt><trkpt lat="44.89606458793248" lon="12.101209949712583"><ele>-2.0</ele><time>2026-04-26T17:04:44.001Z</time></trkpt><trkpt lat="44.89607241850262" lon="12.10139824213819"><ele>-2.0</ele><time>2026-04-26T17:04:45.001Z</time></trkpt><trkpt lat="44.896121958256956" lon="12.101605596885399"><ele>-2.0</ele><time>2026-04-26T17:04:46.001Z</time></trkpt><trkpt lat="44.896202344618544" lon="12.101767446278384"><ele>-2.0</ele><time>2026-04-26T17:04:47.001Z</time></trkpt><trkpt lat="44.89630260555156" lon="12.101893510740798"><ele>-2.0</ele><time>2026-04-26T17:04:48.001Z</time></trkpt><trkpt lat="44.896422681567756" lon="12.10198197711915"><ele>-2.0</ele><time>2026-04-26T17:04:49.001Z</time></trkpt><trkpt lat="44.89663164446218" lon="12.102054154827167"><ele>-2.0</ele><time>2026-04-26T17:04:50.001Z</time></trkpt><trkpt lat="44.896821379650405" lon="12.102101633412003"><ele>-2.0</ele><time>2026-04-26T17:04:51Z</time></trkpt><trkpt lat="44.89700023610004" lon="12.102157537124862"><ele>-2.0</ele><time>2026-04-26T17:04:52Z</time></trkpt><trkpt lat="44.89717186156593" lon="12.102213531179654"><ele>-2.0</ele><time>2026-04-26T17:04:53Z</time></trkpt><trkpt lat="44.89734606666448" lon="12.102274503369683"><ele>-2.0</ele><time>2026-04-26T17:04:54Z</time></trkpt><trkpt lat="44.897534224070796" lon="12.102342372007502"><ele>-2.0</ele><time>2026-04-26T17:04:55Z</time></trkpt><trkpt lat="44.89774028347358" lon="12.102405051969738"><ele>-2.0</ele><time>2026-04-26T17:04:56Z</time></trkpt><trkpt lat="44.897941683192734" lon="12.102489782161994"><ele>-2.0</ele><time>2026-04-26T17:04:57Z</time></trkpt><trkpt lat="44.89815379495396" lon="12.102570457852297"><ele>-2.0</ele><time>2026-04-26T17:04:58Z</time></trkpt><trkpt lat="44.89836884184875" lon="12.102640104932831"><ele>-2.333333333333333</ele><time>2026-04-26T17:04:59Z</time></trkpt><trkpt lat="44.89857810386495" lon="12.102712895420531"><ele>-2.6666666666666665</ele><time>2026-04-26T17:05:00Z</time></trkpt><trkpt lat="44.898787548084286" lon="12.102784213451656"><ele>-3.0</ele><time>2026-04-26T17:05:01Z</time></trkpt><trkpt lat="44.898998366866145" lon="12.102862222515867"><ele>-3.0</ele><time>2026-04-26T17:05:02Z</time></trkpt><trkpt lat="44.899193956727494" lon="12.102929935250616"><ele>-3.0</ele><time>2026-04-26T17:05:03Z</time></trkpt><trkpt lat="44.899382167807055" lon="12.102997912225174"><ele>-3.0</ele><time>2026-04-26T17:05:04Z</time></trkpt><trkpt lat="44.89955987554882" lon="12.103066045431257"><ele>-3.0</ele><time>2026-04-26T17:05:05Z</time></trkpt><trkpt lat="44.899732761413155" lon="12.103136823086128"><ele>-3.0</ele><time>2026-04-26T17:05:06Z</time></trkpt><trkpt lat="44.8998985117905" lon="12.103208679398614"><ele>-3.0</ele><time>2026-04-26T17:05:07Z</time></trkpt><trkpt lat="44.9000522420254" lon="12.10327913106364"><ele>-3.333333333333333</ele><time>2026-04-26T17:05:08Z</time></trkpt><trkpt lat="44.90020718357313" lon="12.103329220253343"><ele>-3.6666666666666665</ele><time>2026-04-26T17:05:09Z</time></trkpt><trkpt lat="44.900375884609254" lon="12.103332527961957"><ele>-4.0</ele><time>2026-04-26T17:05:10Z</time></trkpt><trkpt lat="44.90054577750681" lon="12.103288225663634"><ele>-3.6666666666666665</ele><time>2026-04-26T17:05:11Z</time></trkpt><trkpt lat="44.90070954705692" lon="12.10324196634097"><ele>-3.333333333333333</ele><time>2026-04-26T17:05:12Z</time></trkpt><trkpt lat="44.900881765323575" lon="12.10318866878382"><ele>-3.0</ele><time>2026-04-26T17:05:13Z</time></trkpt><trkpt lat="44.90105195713345" lon="12.103135931073439"><ele>-3.0</ele><time>2026-04-26T17:05:14Z</time></trkpt><trkpt lat="44.90121982432026" lon="12.103094621561267"><ele>-3.0</ele><time>2026-04-26T17:05:15Z</time></trkpt><trkpt lat="44.90137905202875" lon="12.10305778722971"><ele>-3.0</ele><time>2026-04-26T17:05:16Z</time></trkpt><trkpt lat="44.90153271456326" lon="12.103014954045845"><ele>-3.0</ele><time>2026-04-26T17:05:17Z</time></trkpt><trkpt lat="44.90168460081039" lon="12.102986395392001"><ele>-3.0</ele><time>2026-04-26T17:05:18Z</time></trkpt><trkpt lat="44.90183320102498" lon="12.102964579887761"><ele>-3.0</ele><time>2026-04-26T17:05:19Z</time></trkpt><trkpt lat="44.901981701614694" lon="12.102949558170195"><ele>-3.0</ele><time>2026-04-26T17:05:20Z</time></trkpt><trkpt lat="44.9021313037669" lon="12.102941262082197"><ele>-3.0</ele><time>2026-04-26T17:05:21Z</time></trkpt><trkpt lat="44.902288072675695" lon="12.102935466520968"><ele>-3.0</ele><time>2026-04-26T17:05:22Z</time></trkpt><trkpt lat="44.90243867173768" lon="12.102923174117851"><ele>-3.0</ele><time>2026-04-26T17:05:23Z</time></trkpt><trkpt lat="44.90259329746226" lon="12.102911601088048"><ele>-3.0</ele><time>2026-04-26T17:05:24Z</time></trkpt><trkpt lat="44.90275510174224" lon="12.102877363304428"><ele>-3.0</ele><time>2026-04-26T17:05:25Z</time></trkpt><trkpt lat="44.90291798514795" lon="12.102859276603917"><ele>-3.0</ele><time>2026-04-26T17:05:26Z</time></trkpt><trkpt lat="44.903081120363424" lon="12.102840296233687"><ele>-3.0</ele><time>2026-04-26T17:05:27Z</time></trkpt><trkpt lat="44.903245751162444" lon="12.10282878125226"><ele>-3.0</ele><time>2026-04-26T17:05:28Z</time></trkpt><trkpt lat="44.903403198714756" lon="12.102824921669077"><ele>-2.6666666666666665</ele><time>2026-04-26T17:05:29Z</time></trkpt><trkpt lat="44.90356564278164" lon="12.102820719437235"><ele>-2.333333333333333</ele><time>2026-04-26T17:05:30Z</time></trkpt><trkpt lat="44.90373285238035" lon="12.10281711782511"><ele>-2.0</ele><time>2026-04-26T17:05:31Z</time></trkpt><trkpt lat="44.90389961480763" lon="12.102809197284248"><ele>-2.0</ele><time>2026-04-26T17:05:32Z</time></trkpt><trkpt lat="44.904066501798276" lon="12.10280056339022"><ele>-2.0</ele><time>2026-04-26T17:05:33Z</time></trkpt><trkpt lat="44.90422488457045" lon="12.102791252699893"><ele>-2.0</ele><time>2026-04-26T17:05:34Z</time></trkpt><trkpt lat="44.90438258793386" lon="12.102793764184977"><ele>-2.0</ele><time>2026-04-26T17:05:35Z</time></trkpt><trkpt lat="44.904535800902" lon="12.102791197177947"><ele>-2.0</ele><time>2026-04-26T17:05:36Z</time></trkpt><trkpt lat="44.90469864885277" lon="12.102772146816212"><ele>-2.0</ele><time>2026-04-26T17:05:37Z</time></trkpt><trkpt lat="44.904868222905904" lon="12.102723816971478"><ele>-2.0</ele><time>2026-04-26T17:05:38Z</time></trkpt><trkpt lat="44.90503432051658" lon="12.10265671282681"><ele>-2.0</ele><time>2026-04-26T17:05:39Z</time></trkpt><trkpt lat="44.905199982431625" lon="12.102570730945516"><ele>-2.0</ele><time>2026-04-26T17:05:40Z</time></trkpt><trkpt lat="44.905370879229615" lon="12.102467564465627"><ele>-2.333333333333333</ele><time>2026-04-26T17:05:41Z</time></trkpt><trkpt lat="44.90554646490641" lon="12.102354359970596"><ele>-2.6666666666666665</ele><time>2026-04-26T17:05:42Z</time></trkpt><trkpt lat="44.905723100359246" lon="12.102232845113694"><ele>-3.0</ele><time>2026-04-26T17:05:43Z</time></trkpt><trkpt lat="44.90590471451279" lon="12.102117683064087"><ele>-3.0</ele><time>2026-04-26T17:05:44Z</time></trkpt><trkpt lat="44.906091370834034" lon="12.101994932356927"><ele>-3.0</ele><time>2026-04-26T17:05:45Z</time></trkpt><trkpt lat="44.90628705818313" lon="12.101865494587386"><ele>-3.0</ele><time>2026-04-26T17:05:46Z</time></trkpt><trkpt lat="44.906466603251275" lon="12.101759925137095"><ele>-3.0</ele><time>2026-04-26T17:05:47Z</time></trkpt><trkpt lat="44.90664357323452" lon="12.101650086415207"><ele>-3.0</ele><time>2026-04-26T17:05:48Z</time></trkpt><trkpt lat="44.90682268811759" lon="12.101538557548157"><ele>-3.0</ele><time>2026-04-26T17:05:49Z</time></trkpt><trkpt lat="44.907008713077566" lon="12.101419625009258"><ele>-3.0</ele><time>2026-04-26T17:05:50Z</time></trkpt><trkpt lat="44.90720193897393" lon="12.101293388406903"><ele>-3.0</ele><time>2026-04-26T17:05:51Z</time></trkpt><trkpt lat="44.90739307589229" lon="12.101165601789083"><ele>-3.0</ele><time>2026-04-26T17:05:52Z</time></trkpt><trkpt lat="44.907589905795554" lon="12.101025077964696"><ele>-3.333333333333333</ele><time>2026-04-26T17:05:53Z</time></trkpt><trkpt lat="44.907778526566915" lon="12.10090334556421"><ele>-3.6666666666666665</ele><time>2026-04-26T17:05:54Z</time></trkpt><trkpt lat="44.90796612748491" lon="12.100781600529237"><ele>-4.0</ele><time>2026-04-26T17:05:55Z</time></trkpt><trkpt lat="44.90815809114841" lon="12.100659487246768"><ele>-4.0</ele><time>2026-04-26T17:05:56Z</time></trkpt><trkpt lat="44.9083534004139" lon="12.10053216616952"><ele>-4.0</ele><time>2026-04-26T17:05:57Z</time></trkpt><trkpt lat="44.908549286947675" lon="12.100404422442224"><ele>-4.0</ele><time>2026-04-26T17:05:58Z</time></trkpt><trkpt lat="44.908743741744594" lon="12.100279462006153"><ele>-4.0</ele><time>2026-04-26T17:05:59Z</time></trkpt><trkpt lat="44.90893199102532" lon="12.100149210646624"><ele>-4.0</ele><time>2026-04-26T17:06:00Z</time></trkpt><trkpt lat="44.909111012122715" lon="12.100030375967174"><ele>-4.0</ele><time>2026-04-26T17:06:01Z</time></trkpt><trkpt lat="44.909289961114645" lon="12.099914794361403"><ele>-3.6666666666666665</ele><time>2026-04-26T17:06:02Z</time></trkpt><trkpt lat="44.909468292287315" lon="12.099797571296191"><ele>-3.333333333333333</ele><time>2026-04-26T17:06:03Z</time></trkpt><trkpt lat="44.90965109499886" lon="12.099677747019033"><ele>-3.0</ele><time>2026-04-26T17:06:04Z</time></trkpt><trkpt lat="44.90983572389714" lon="12.099557976417547"><ele>-3.0</ele><time>2026-04-26T17:06:05Z</time></trkpt><trkpt lat="44.910021557251575" lon="12.099440005560034"><ele>-3.0</ele><time>2026-04-26T17:06:06Z</time></trkpt><trkpt lat="44.91020535098095" lon="12.099324062587755"><ele>-3.0</ele><time>2026-04-26T17:06:07Z</time></trkpt><trkpt lat="44.910386953084846" lon="12.099209611300811"><ele>-3.0</ele><time>2026-04-26T17:06:08Z</time></trkpt><trkpt lat="44.910566597835704" lon="12.099095151802793"><ele>-3.0</ele><time>2026-04-26T17:06:09Z</time></trkpt><trkpt lat="44.91074675365036" lon="12.098977879915303"><ele>-3.0</ele><time>2026-04-26T17:06:10Z</time></trkpt><trkpt lat="44.9109271684573" lon="12.098861244250621"><ele>-3.0</ele><time>2026-04-26T17:06:11.001Z</time></trkpt><trkpt lat="44.911105922983445" lon="12.098746275819677"><ele>-3.0</ele><time>2026-04-26T17:06:12.001Z</time></trkpt><trkpt lat="44.91127837311036" lon="12.098633559777745"><ele>-3.0</ele><time>2026-04-26T17:06:13.001Z</time></trkpt><trkpt lat="44.911441325182025" lon="12.098524329560378"><ele>-3.0</ele><time>2026-04-26T17:06:14.001Z</time></trkpt><trkpt lat="44.91159299771238" lon="12.098417460071758"><ele>-3.0</ele><time>2026-04-26T17:06:15.001Z</time></trkpt><trkpt lat="44.9117366718413" lon="12.098314891188467"><ele>-3.0</ele><time>2026-04-26T17:06:16.001Z</time></trkpt><trkpt lat="44.91187377553482" lon="12.098239307793545"><ele>-3.0</ele><time>2026-04-26T17:06:17.001Z</time></trkpt><trkpt lat="44.912015400979215" lon="12.098228353581824"><ele>-3.0</ele><time>2026-04-26T17:06:18.001Z</time></trkpt><trkpt lat="44.912154396361615" lon="12.098299413834923"><ele>-3.0</ele><time>2026-04-26T17:06:19.001Z</time></trkpt><trkpt lat="44.91229722482513" lon="12.098445746592704"><ele>-3.0</ele><time>2026-04-26T17:06:20.001Z</time></trkpt><trkpt lat="44.91245779227102" lon="12.098628318724097"><ele>-3.0</ele><time>2026-04-26T17:06:21.001Z</time></trkpt><trkpt lat="44.91264190387718" lon="12.098802695341611"><ele>-3.0</ele><time>2026-04-26T17:06:22.001Z</time></trkpt><trkpt lat="44.912806579001106" lon="12.098965940047849"><ele>-2.6666666666666665</ele><time>2026-04-26T17:06:23.001Z</time></trkpt><trkpt lat="44.91297678525256" lon="12.09913290358042"><ele>-2.333333333333333</ele><time>2026-04-26T17:06:24.001Z</time></trkpt><trkpt lat="44.91316237473329" lon="12.099290268858761"><ele>-2.0</ele><time>2026-04-26T17:06:25.001Z</time></trkpt><trkpt lat="44.91335127626929" lon="12.099441051423142"><ele>-2.0</ele><time>2026-04-26T17:06:26.001Z</time></trkpt><trkpt lat="44.913530120299235" lon="12.099579431466923"><ele>-2.0</ele><time>2026-04-26T17:06:27.001Z</time></trkpt><trkpt lat="44.91370542090298" lon="12.09970780848636"><ele>-2.0</ele><time>2026-04-26T17:06:28.001Z</time></trkpt><trkpt lat="44.91389049717068" lon="12.099834796578481"><ele>-2.0</ele><time>2026-04-26T17:06:29.001Z</time></trkpt><trkpt lat="44.914078883170525" lon="12.09996674680523"><ele>-2.0</ele><time>2026-04-26T17:06:30.001Z</time></trkpt><trkpt lat="44.91425694122881" lon="12.100087737397185"><ele>-2.0</ele><time>2026-04-26T17:06:31.001Z</time></trkpt><trkpt lat="44.91443173820919" lon="12.100204170972665"><ele>-2.0</ele><time>2026-04-26T17:06:32.001Z</time></trkpt><trkpt lat="44.9146051491084" lon="12.10033263788769"><ele>-2.0</ele><time>2026-04-26T17:06:33.001Z</time></trkpt><trkpt lat="44.91477797948435" lon="12.100497762271782"><ele>-2.0</ele><time>2026-04-26T17:06:34.001Z</time></trkpt><trkpt lat="44.91493749419" lon="12.100686665042815"><ele>-3.0</ele><time>2026-04-26T17:06:35.001Z</time></trkpt><trkpt lat="44.91509599265792" lon="12.100898194778337"><ele>-4.0</ele><time>2026-04-26T17:06:36.001Z</time></trkpt><trkpt lat="44.91532542060435" lon="12.100750605162375"><ele>-4.0</ele><time>2026-04-26T17:06:37.001Z</time></trkpt><trkpt lat="44.9155045611945" lon="12.100837359096221"><ele>-4.0</ele><time>2026-04-26T17:06:38.001Z</time></trkpt><trkpt lat="44.91568101280046" lon="12.10092693035329"><ele>-4.0</ele><time>2026-04-26T17:06:39.001Z</time></trkpt><trkpt lat="44.915860316663114" lon="12.101011325828143"><ele>-3.6666666666666665</ele><time>2026-04-26T17:06:40.001Z</time></trkpt><trkpt lat="44.91603871564076" lon="12.101095197716495"><ele>-3.333333333333333</ele><time>2026-04-26T17:06:41.001Z</time></trkpt><trkpt lat="44.91622730160848" lon="12.10116530516873"><ele>-3.0</ele><time>2026-04-26T17:06:42.001Z</time></trkpt><trkpt lat="44.91641498620494" lon="12.101226532497341"><ele>-3.0</ele><time>2026-04-26T17:06:43.001Z</time></trkpt><trkpt lat="44.91661180531462" lon="12.101286092106559"><ele>-3.0</ele><time>2026-04-26T17:06:44.001Z</time></trkpt><trkpt lat="44.91680445192465" lon="12.101342330871619"><ele>-3.0</ele><time>2026-04-26T17:06:45.001Z</time></trkpt><trkpt lat="44.91699228901304" lon="12.10138936783487"><ele>-2.3333333333333335</ele><time>2026-04-26T17:06:46.001Z</time></trkpt><trkpt lat="44.91718339024697" lon="12.101436184392012"><ele>-1.6666666666666665</ele><time>2026-04-26T17:06:47.001Z</time></trkpt><trkpt lat="44.917371449241635" lon="12.101480521059738"><ele>-1.0</ele><time>2026-04-26T17:06:48.001Z</time></trkpt><trkpt lat="44.91756580451862" lon="12.101516207360875"><ele>-1.6666666666666665</ele><time>2026-04-26T17:06:49.001Z</time></trkpt><trkpt lat="44.91775845892528" lon="12.10154631597661"><ele>-2.3333333333333335</ele><time>2026-04-26T17:06:50.001Z</time></trkpt><trkpt lat="44.917953001778216" lon="12.10156294177206"><ele>-3.0</ele><time>2026-04-26T17:06:51.001Z</time></trkpt><trkpt lat="44.91815161654496" lon="12.101570168903653"><ele>-3.0</ele><time>2026-04-26T17:06:52.001Z</time></trkpt><trkpt lat="44.91834862875433" lon="12.10156755463278"><ele>-3.0</ele><time>2026-04-26T17:06:53.001Z</time></trkpt><trkpt lat="44.91853868632121" lon="12.101567044885769"><ele>-3.0</ele><time>2026-04-26T17:06:54.001Z</time></trkpt><trkpt lat="44.918723285290085" lon="12.1015632380903"><ele>-2.6666666666666665</ele><time>2026-04-26T17:06:55.001Z</time></trkpt><trkpt lat="44.918898734385984" lon="12.101550033241088"><ele>-2.333333333333333</ele><time>2026-04-26T17:06:56.001Z</time></trkpt><trkpt lat="44.91906861387141" lon="12.101536757686466"><ele>-2.0</ele><time>2026-04-26T17:06:57Z</time></trkpt><trkpt lat="44.919236187455255" lon="12.101519219222839"><ele>-2.0</ele><time>2026-04-26T17:06:58Z</time></trkpt><trkpt lat="44.91938987076762" lon="12.101475897368521"><ele>-2.0</ele><time>2026-04-26T17:06:59Z</time></trkpt><trkpt lat="44.919572202781985" lon="12.101440072166158"><ele>-2.0</ele><time>2026-04-26T17:07:00Z</time></trkpt><trkpt lat="44.919774250119936" lon="12.101402199974412"><ele>-2.0</ele><time>2026-04-26T17:07:01Z</time></trkpt><trkpt lat="44.919981021046894" lon="12.101378962871939"><ele>-2.0</ele><time>2026-04-26T17:07:02Z</time></trkpt><trkpt lat="44.920189990997855" lon="12.10139983738832"><ele>-2.0</ele><time>2026-04-26T17:07:03Z</time></trkpt><trkpt lat="44.920396706751916" lon="12.101494766939274"><ele>-2.5</ele><time>2026-04-26T17:07:04Z</time></trkpt><trkpt lat="44.92059701002224" lon="12.101653598696975"><ele>-3.0</ele><time>2026-04-26T17:07:05Z</time></trkpt><trkpt lat="44.92078052588077" lon="12.101888948208561"><ele>-2.5</ele><time>2026-04-26T17:07:06Z</time></trkpt><trkpt lat="44.92095559783699" lon="12.102177439589322"><ele>-2.0</ele><time>2026-04-26T17:07:07Z</time></trkpt><trkpt lat="44.921097358781125" lon="12.102432748855781"><ele>-2.0</ele><time>2026-04-26T17:07:08Z</time></trkpt><trkpt lat="44.92123280627565" lon="12.102652843212114"><ele>-2.0</ele><time>2026-04-26T17:07:09Z</time></trkpt><trkpt lat="44.921378536216594" lon="12.102865078109328"><ele>-2.0</ele><time>2026-04-26T17:07:10Z</time></trkpt><trkpt lat="44.9215226973162" lon="12.103086959067115"><ele>-2.0</ele><time>2026-04-26T17:07:11Z</time></trkpt><trkpt lat="44.92166293949717" lon="12.103306823161953"><ele>-2.0</ele><time>2026-04-26T17:07:12Z</time></trkpt><trkpt lat="44.92180158616111" lon="12.10351008048698"><ele>-2.0</ele><time>2026-04-26T17:07:13Z</time></trkpt><trkpt lat="44.92193790322416" lon="12.103715723297578"><ele>-1.6666666666666665</ele><time>2026-04-26T17:07:14Z</time></trkpt><trkpt lat="44.92207695765586" lon="12.103926382605342"><ele>-1.3333333333333333</ele><time>2026-04-26T17:07:15Z</time></trkpt><trkpt lat="44.92222061221171" lon="12.104146739938836"><ele>-1.0</ele><time>2026-04-26T17:07:16Z</time></trkpt><trkpt lat="44.92236692298109" lon="12.104372077281115"><ele>-1.0</ele><time>2026-04-26T17:07:17Z</time></trkpt><trkpt lat="44.922513525836" lon="12.104595757578808"><ele>-1.0</ele><time>2026-04-26T17:07:18Z</time></trkpt><trkpt lat="44.9226550764211" lon="12.104811671426004"><ele>-1.0</ele><time>2026-04-26T17:07:19Z</time></trkpt><trkpt lat="44.92279212244333" lon="12.105019891806721"><ele>-1.3333333333333333</ele><time>2026-04-26T17:07:20Z</time></trkpt><trkpt lat="44.922930071347665" lon="12.105227935840812"><ele>-1.6666666666666665</ele><time>2026-04-26T17:07:21Z</time></trkpt><trkpt lat="44.92306718071211" lon="12.105439727253216"><ele>-2.0</ele><time>2026-04-26T17:07:22Z</time></trkpt><trkpt lat="44.92320454524994" lon="12.105649257807052"><ele>-2.333333333333333</ele><time>2026-04-26T17:07:23Z</time></trkpt><trkpt lat="44.923341751991856" lon="12.105859593623707"><ele>-2.6666666666666665</ele><time>2026-04-26T17:07:24Z</time></trkpt><trkpt lat="44.923482710271756" lon="12.1060696686981"><ele>-3.0</ele><time>2026-04-26T17:07:25Z</time></trkpt><trkpt lat="44.923621429269396" lon="12.106280337029071"><ele>-3.0</ele><time>2026-04-26T17:07:26Z</time></trkpt><trkpt lat="44.923763104983514" lon="12.106492465132414"><ele>-3.0</ele><time>2026-04-26T17:07:27Z</time></trkpt><trkpt lat="44.92389050956073" lon="12.106702846179191"><ele>-3.0</ele><time>2026-04-26T17:07:28Z</time></trkpt><trkpt lat="44.92402889981649" lon="12.106912717088607"><ele>-3.0</ele><time>2026-04-26T17:07:29Z</time></trkpt><trkpt lat="44.924165348882696" lon="12.107120361342194"><ele>-3.0</ele><time>2026-04-26T17:07:30Z</time></trkpt><trkpt lat="44.92429991239429" lon="12.107327751427146"><ele>-3.0</ele><time>2026-04-26T17:07:31Z</time></trkpt><trkpt lat="44.92443301666876" lon="12.10753131558861"><ele>-2.0</ele><time>2026-04-26T17:07:32Z</time></trkpt><trkpt lat="44.92456674403938" lon="12.107736242843087"><ele>-1.0</ele><time>2026-04-26T17:07:33Z</time></trkpt><trkpt lat="44.9246997524907" lon="12.107935853197496"><ele>0.0</ele><time>2026-04-26T17:07:34Z</time></trkpt><trkpt lat="44.92482710919244" lon="12.108136422826885"><ele>-0.6666666666666666</ele><time>2026-04-26T17:07:35Z</time></trkpt><trkpt lat="44.92495693622027" lon="12.108331259642597"><ele>-1.3333333333333333</ele><time>2026-04-26T17:07:36Z</time></trkpt><trkpt lat="44.92508346036454" lon="12.108525379571548"><ele>-2.0</ele><time>2026-04-26T17:07:37Z</time></trkpt><trkpt lat="44.925214434761656" lon="12.10872557586221"><ele>-2.0</ele><time>2026-04-26T17:07:38Z</time></trkpt><trkpt lat="44.9253417297451" lon="12.108929717717247"><ele>-2.0</ele><time>2026-04-26T17:07:39Z</time></trkpt><trkpt lat="44.925471826641925" lon="12.109126658336677"><ele>-2.0</ele><time>2026-04-26T17:07:40Z</time></trkpt><trkpt lat="44.925603338001636" lon="12.109327261636194"><ele>-2.0</ele><time>2026-04-26T17:07:41Z</time></trkpt><trkpt lat="44.925733487213414" lon="12.10952757503038"><ele>-2.0</ele><time>2026-04-26T17:07:42Z</time></trkpt><trkpt lat="44.925862826082664" lon="12.109730086071995"><ele>-2.0</ele><time>2026-04-26T17:07:43Z</time></trkpt><trkpt lat="44.925994145062326" lon="12.109928156890156"><ele>-2.333333333333333</ele><time>2026-04-26T17:07:44Z</time></trkpt><trkpt lat="44.926125714042634" lon="12.11012750752568"><ele>-2.6666666666666665</ele><time>2026-04-26T17:07:45Z</time></trkpt><trkpt lat="44.92625318069363" lon="12.110325936577487"><ele>-3.0</ele><time>2026-04-26T17:07:46Z</time></trkpt><trkpt lat="44.926379004317" lon="12.11052159593611"><ele>-3.0</ele><time>2026-04-26T17:07:47Z</time></trkpt><trkpt lat="44.926506540960155" lon="12.110716594765677"><ele>-3.0</ele><time>2026-04-26T17:07:48Z</time></trkpt><trkpt lat="44.92662924465075" lon="12.11091081706367"><ele>-3.0</ele><time>2026-04-26T17:07:49Z</time></trkpt><trkpt lat="44.92675908406333" lon="12.111108667416426"><ele>-2.3333333333333335</ele><time>2026-04-26T17:07:50Z</time></trkpt><trkpt lat="44.926888315395814" lon="12.111308388579822"><ele>-1.6666666666666665</ele><time>2026-04-26T17:07:51Z</time></trkpt><trkpt lat="44.9270217576128" lon="12.111510492629723"><ele>-1.0</ele><time>2026-04-26T17:07:52Z</time></trkpt><trkpt lat="44.92714683950351" lon="12.111711046487784"><ele>-1.0</ele><time>2026-04-26T17:07:53Z</time></trkpt><trkpt lat="44.9272748647438" lon="12.111908915688842"><ele>-1.0</ele><time>2026-04-26T17:07:54Z</time></trkpt><trkpt lat="44.927401478740826" lon="12.112107311388847"><ele>-1.0</ele><time>2026-04-26T17:07:55Z</time></trkpt><trkpt lat="44.927530033202395" lon="12.112304198209465"><ele>-1.0</ele><time>2026-04-26T17:07:56Z</time></trkpt><trkpt lat="44.92766277840706" lon="12.112503421051992"><ele>-1.0</ele><time>2026-04-26T17:07:57Z</time></trkpt><trkpt lat="44.92779845588943" lon="12.112695487770358"><ele>-1.0</ele><time>2026-04-26T17:07:58Z</time></trkpt><trkpt lat="44.92793399357885" lon="12.112884267304237"><ele>-1.0</ele><time>2026-04-26T17:07:59Z</time></trkpt><trkpt lat="44.928075123296594" lon="12.113063656392143"><ele>-1.0</ele><time>2026-04-26T17:08:00Z</time></trkpt><trkpt lat="44.92822195186602" lon="12.113229227694758"><ele>-1.0</ele><time>2026-04-26T17:08:01Z</time></trkpt><trkpt lat="44.92837422973255" lon="12.113384917518564"><ele>-1.0</ele><time>2026-04-26T17:08:02Z</time></trkpt><trkpt lat="44.928532783331164" lon="12.113529598543648"><ele>-1.0</ele><time>2026-04-26T17:08:03Z</time></trkpt><trkpt lat="44.928702383675684" lon="12.113656241625907"><ele>-1.0</ele><time>2026-04-26T17:08:04Z</time></trkpt><trkpt lat="44.928871132466" lon="12.113783378877711"><ele>-1.0</ele><time>2026-04-26T17:08:05Z</time></trkpt><trkpt lat="44.929044807015636" lon="12.113905656275461"><ele>-1.0</ele><time>2026-04-26T17:08:06Z</time></trkpt><trkpt lat="44.92922128040652" lon="12.114021942561585"><ele>-1.0</ele><time>2026-04-26T17:08:07Z</time></trkpt><trkpt lat="44.929392514601695" lon="12.114141432399162"><ele>-2.0</ele><time>2026-04-26T17:08:08Z</time></trkpt><trkpt lat="44.92956473181257" lon="12.114263130800317"><ele>-3.0</ele><time>2026-04-26T17:08:09Z</time></trkpt><trkpt lat="44.92974313071941" lon="12.114379630318279"><ele>-4.0</ele><time>2026-04-26T17:08:10Z</time></trkpt><trkpt lat="44.92991715764908" lon="12.114516309340653"><ele>-4.0</ele><time>2026-04-26T17:08:11Z</time></trkpt><trkpt lat="44.93009574725238" lon="12.11464246546105"><ele>-4.0</ele><time>2026-04-26T17:08:12Z</time></trkpt><trkpt lat="44.93027644185138" lon="12.114768464004182"><ele>-4.0</ele><time>2026-04-26T17:08:13Z</time></trkpt><trkpt lat="44.93045310720227" lon="12.114895130650691"><ele>-4.0</ele><time>2026-04-26T17:08:14Z</time></trkpt><trkpt lat="44.93063025608847" lon="12.115020961210144"><ele>-4.0</ele><time>2026-04-26T17:08:15Z</time></trkpt><trkpt lat="44.93080486158435" lon="12.115139707175649"><ele>-4.0</ele><time>2026-04-26T17:08:16Z</time></trkpt><trkpt lat="44.930974928015054" lon="12.115257618139543"><ele>-4.0</ele><time>2026-04-26T17:08:17Z</time></trkpt><trkpt lat="44.93114503606853" lon="12.115382836604466"><ele>-4.0</ele><time>2026-04-26T17:08:18.001Z</time></trkpt><trkpt lat="44.93131922439456" lon="12.115506833215282"><ele>-4.0</ele><time>2026-04-26T17:08:19.001Z</time></trkpt><trkpt lat="44.93149717059323" lon="12.115634436621363"><ele>-4.0</ele><time>2026-04-26T17:08:20.001Z</time></trkpt><trkpt lat="44.93167559000629" lon="12.11576178173305"><ele>-4.0</ele><time>2026-04-26T17:08:21.001Z</time></trkpt><trkpt lat="44.931852844447384" lon="12.115885226169366"><ele>-4.0</ele><time>2026-04-26T17:08:22.001Z</time></trkpt><trkpt lat="44.93202969583559" lon="12.116007796096982"><ele>-3.6666666666666665</ele><time>2026-04-26T17:08:23.001Z</time></trkpt><trkpt lat="44.93220783735773" lon="12.116134803846005"><ele>-3.333333333333333</ele><time>2026-04-26T17:08:24.001Z</time></trkpt><trkpt lat="44.93238723876984" lon="12.11626378807609"><ele>-3.0</ele><time>2026-04-26T17:08:25.001Z</time></trkpt><trkpt lat="44.93256897061049" lon="12.11639438013418"><ele>-3.0</ele><time>2026-04-26T17:08:26.001Z</time></trkpt><trkpt lat="44.93275447646126" lon="12.116528315351028"><ele>-3.0</ele><time>2026-04-26T17:08:27.001Z</time></trkpt><trkpt lat="44.93293714354717" lon="12.116659505925155"><ele>-3.0</ele><time>2026-04-26T17:08:28.001Z</time></trkpt><trkpt lat="44.93312072164128" lon="12.116787589691281"><ele>-3.333333333333333</ele><time>2026-04-26T17:08:29.001Z</time></trkpt><trkpt lat="44.93330375362791" lon="12.116915291435417"><ele>-3.6666666666666665</ele><time>2026-04-26T17:08:30.001Z</time></trkpt><trkpt lat="44.93348612902234" lon="12.117044480068381"><ele>-4.0</ele><time>2026-04-26T17:08:31.001Z</time></trkpt><trkpt lat="44.933670833827854" lon="12.117177995626491"><ele>-3.6666666666666665</ele><time>2026-04-26T17:08:32.001Z</time></trkpt><trkpt lat="44.9338526504684" lon="12.117306587295971"><ele>-3.333333333333333</ele><time>2026-04-26T17:08:33.001Z</time></trkpt><trkpt lat="44.93403470669534" lon="12.117437682185075"><ele>-3.0</ele><time>2026-04-26T17:08:34.001Z</time></trkpt><trkpt lat="44.93421510713539" lon="12.117565526956135"><ele>-3.333333333333333</ele><time>2026-04-26T17:08:35.001Z</time></trkpt><trkpt lat="44.93439540537268" lon="12.117695018587542"><ele>-3.6666666666666665</ele><time>2026-04-26T17:08:36.001Z</time></trkpt><trkpt lat="44.93457383301629" lon="12.117821761394003"><ele>-4.0</ele><time>2026-04-26T17:08:37.001Z</time></trkpt><trkpt lat="44.93475235684647" lon="12.117951023070015"><ele>-4.0</ele><time>2026-04-26T17:08:38.001Z</time></trkpt><trkpt lat="44.93492907438978" lon="12.118081075323"><ele>-4.0</ele><time>2026-04-26T17:08:39.001Z</time></trkpt><trkpt lat="44.93510448841775" lon="12.118208740635522"><ele>-4.0</ele><time>2026-04-26T17:08:40.001Z</time></trkpt><trkpt lat="44.9352817880427" lon="12.118338112906038"><ele>-4.333333333333333</ele><time>2026-04-26T17:08:41.001Z</time></trkpt><trkpt lat="44.93546006411898" lon="12.118463208279415"><ele>-4.666666666666667</ele><time>2026-04-26T17:08:42.001Z</time></trkpt><trkpt lat="44.93563290239804" lon="12.118589960326071"><ele>-5.0</ele><time>2026-04-26T17:08:43.001Z</time></trkpt><trkpt lat="44.93580769759618" lon="12.11871779591796"><ele>-4.666666666666667</ele><time>2026-04-26T17:08:44.001Z</time></trkpt><trkpt lat="44.93597458044905" lon="12.118834806029993"><ele>-4.333333333333333</ele><time>2026-04-26T17:08:45.001Z</time></trkpt><trkpt lat="44.93612807489974" lon="12.118950462460928"><ele>-4.0</ele><time>2026-04-26T17:08:46.001Z</time></trkpt><trkpt lat="44.93627093023335" lon="12.119061627000544"><ele>-3.75</ele><time>2026-04-26T17:08:47.001Z</time></trkpt><trkpt lat="44.93640471928896" lon="12.119162316501882"><ele>-3.5</ele><time>2026-04-26T17:08:48.001Z</time></trkpt><trkpt lat="44.93653425001185" lon="12.11925408309795"><ele>-3.25</ele><time>2026-04-26T17:08:49.001Z</time></trkpt><trkpt lat="44.936657287122834" lon="12.11933946145123"><ele>-3.0</ele><time>2026-04-26T17:08:50.001Z</time></trkpt><trkpt lat="44.936771162359186" lon="12.119424351151517"><ele>-3.0</ele><time>2026-04-26T17:08:51.001Z</time></trkpt><trkpt lat="44.9368628795135" lon="12.119517737136361"><ele>-3.0</ele><time>2026-04-26T17:08:52.001Z</time></trkpt><trkpt lat="44.93692659514309" lon="12.119621879495575"><ele>-3.0</ele><time>2026-04-26T17:08:53.001Z</time></trkpt><trkpt lat="44.9369797762567" lon="12.119727272056044"><ele>-3.0</ele><time>2026-04-26T17:08:54.001Z</time></trkpt><trkpt lat="44.93701086247591" lon="12.11985356774253"><ele>-3.0</ele><time>2026-04-26T17:08:55.001Z</time></trkpt><trkpt lat="44.93702648395974" lon="12.119997559062776"><ele>-3.0</ele><time>2026-04-26T17:08:56.001Z</time></trkpt><trkpt lat="44.93701107982925" lon="12.12014785956483"><ele>-3.0</ele><time>2026-04-26T17:08:57.001Z</time></trkpt><trkpt lat="44.93698893605965" lon="12.120303843810039"><ele>-3.0</ele><time>2026-04-26T17:08:58.001Z</time></trkpt><trkpt lat="44.936987173574174" lon="12.120472167896216"><ele>-3.0</ele><time>2026-04-26T17:08:59.001Z</time></trkpt><trkpt lat="44.93702780549685" lon="12.120631149897298"><ele>-3.5</ele><time>2026-04-26T17:09:00.001Z</time></trkpt><trkpt lat="44.9371129216326" lon="12.12076570260076"><ele>-4.0</ele><time>2026-04-26T17:09:01.001Z</time></trkpt><trkpt lat="44.93722052441107" lon="12.120876280712432"><ele>-4.5</ele><time>2026-04-26T17:09:02.001Z</time></trkpt><trkpt lat="44.9373626280004" lon="12.12093138679318"><ele>-5.0</ele><time>2026-04-26T17:09:03Z</time></trkpt><trkpt lat="44.937514762489194" lon="12.12095149877894"><ele>-4.333333333333334</ele><time>2026-04-26T17:09:04Z</time></trkpt><trkpt lat="44.937673627050906" lon="12.12096503839281"><ele>-3.666666666666667</ele><time>2026-04-26T17:09:05Z</time></trkpt><trkpt lat="44.937836676989875" lon="12.120982004865409"><ele>-3.0</ele><time>2026-04-26T17:09:06Z</time></trkpt><trkpt lat="44.93799695556661" lon="12.121015392589825"><ele>-3.0</ele><time>2026-04-26T17:09:07Z</time></trkpt><trkpt lat="44.938155641955646" lon="12.121050521979946"><ele>-3.0</ele><time>2026-04-26T17:09:08Z</time></trkpt><trkpt lat="44.93831432484518" lon="12.121094864203751"><ele>-3.0</ele><time>2026-04-26T17:09:09Z</time></trkpt><trkpt lat="44.93847253399776" lon="12.121170263703569"><ele>-2.6666666666666665</ele><time>2026-04-26T17:09:10Z</time></trkpt><trkpt lat="44.938618209771185" lon="12.121268519973993"><ele>-2.333333333333333</ele><time>2026-04-26T17:09:11Z</time></trkpt><trkpt lat="44.93874796825275" lon="12.121377596366692"><ele>-2.0</ele><time>2026-04-26T17:09:12Z</time></trkpt><trkpt lat="44.93886557128021" lon="12.12149262384404"><ele>-2.0</ele><time>2026-04-26T17:09:13Z</time></trkpt><trkpt lat="44.938969440416486" lon="12.121618122444143"><ele>-2.0</ele><time>2026-04-26T17:09:14Z</time></trkpt><trkpt lat="44.93906347823799" lon="12.121752716712514"><ele>-2.0</ele><time>2026-04-26T17:09:15Z</time></trkpt><trkpt lat="44.93915255789041" lon="12.12190463243162"><ele>-2.0</ele><time>2026-04-26T17:09:16Z</time></trkpt><trkpt lat="44.93923976039639" lon="12.122063706596519"><ele>-2.0</ele><time>2026-04-26T17:09:17Z</time></trkpt><trkpt lat="44.939328785912565" lon="12.122228220694028"><ele>-2.0</ele><time>2026-04-26T17:09:18Z</time></trkpt><trkpt lat="44.93941147484326" lon="12.1223819223776"><ele>-2.0</ele><time>2026-04-26T17:09:19Z</time></trkpt><trkpt lat="44.93949161046368" lon="12.122536190727912"><ele>-2.0</ele><time>2026-04-26T17:09:20Z</time></trkpt><trkpt lat="44.939555572082334" lon="12.122676043900567"><ele>-1.25</ele><time>2026-04-26T17:09:21Z</time></trkpt><trkpt lat="44.93962360927018" lon="12.122814962256188"><ele>-0.5</ele><time>2026-04-26T17:09:22Z</time></trkpt><trkpt lat="44.9396976550076" lon="12.122957137573737"><ele>0.25</ele><time>2026-04-26T17:09:23Z</time></trkpt><trkpt lat="44.939773232796234" lon="12.12310504599951"><ele>1.0</ele><time>2026-04-26T17:09:24Z</time></trkpt><trkpt lat="44.939848865175904" lon="12.123262914947619"><ele>1.0</ele><time>2026-04-26T17:09:25Z</time></trkpt><trkpt lat="44.939916611395475" lon="12.123408118136433"><ele>1.0</ele><time>2026-04-26T17:09:26Z</time></trkpt><trkpt lat="44.939979980500254" lon="12.123538980404387"><ele>1.0</ele><time>2026-04-26T17:09:27Z</time></trkpt><trkpt lat="44.94002807603476" lon="12.123667207264907"><ele>1.0</ele><time>2026-04-26T17:09:28Z</time></trkpt><trkpt lat="44.94006226882454" lon="12.12378376198568"><ele>1.0</ele><time>2026-04-26T17:09:29Z</time></trkpt><trkpt lat="44.94009054455524" lon="12.12387126510865"><ele>1.0</ele><time>2026-04-26T17:09:30Z</time></trkpt><trkpt lat="44.94014091540821" lon="12.123949029017199"><ele>1.0</ele><time>2026-04-26T17:09:32Z</time></trkpt><trkpt lat="44.940237632468765" lon="12.123969414569821"><ele>1.0</ele><time>2026-04-26T17:09:45Z</time></trkpt><trkpt lat="44.9403249353801" lon="12.123940167551638"><ele>1.0</ele><time>2026-04-26T17:09:46Z</time></trkpt><trkpt lat="44.94045173799424" lon="12.123865301366072"><ele>1.0</ele><time>2026-04-26T17:09:47Z</time></trkpt><trkpt lat="44.94058546062198" lon="12.123753046270393"><ele>1.0</ele><time>2026-04-26T17:09:48Z</time></trkpt><trkpt lat="44.94073521844356" lon="12.123618322917057"><ele>1.0</ele><time>2026-04-26T17:09:49Z</time></trkpt><trkpt lat="44.94092882574121" lon="12.1234595453538"><ele>1.0</ele><time>2026-04-26T17:09:50Z</time></trkpt><trkpt lat="44.94108892222474" lon="12.123337613682375"><ele>0.3333333333333333</ele><time>2026-04-26T17:09:51Z</time></trkpt><trkpt lat="44.941236538115916" lon="12.123212060458387"><ele>-0.3333333333333333</ele><time>2026-04-26T17:09:52Z</time></trkpt><trkpt lat="44.94139073998906" lon="12.123083746361372"><ele>-1.0</ele><time>2026-04-26T17:09:53Z</time></trkpt><trkpt lat="44.94154165770925" lon="12.122954355650313"><ele>-1.0</ele><time>2026-04-26T17:09:54Z</time></trkpt><trkpt lat="44.94169274847266" lon="12.122830696370862"><ele>-1.0</ele><time>2026-04-26T17:09:55Z</time></trkpt><trkpt lat="44.941839654485285" lon="12.122712491400701"><ele>-1.0</ele><time>2026-04-26T17:09:56Z</time></trkpt><trkpt lat="44.94197946337135" lon="12.122592819439852"><ele>-0.5</ele><time>2026-04-26T17:09:57Z</time></trkpt><trkpt lat="44.94211326203749" lon="12.122477770280398"><ele>0.0</ele><time>2026-04-26T17:09:58Z</time></trkpt><trkpt lat="44.9422279367978" lon="12.12236466507418"><ele>0.5</ele><time>2026-04-26T17:09:59Z</time></trkpt><trkpt lat="44.942324595999295" lon="12.122245872222859"><ele>1.0</ele><time>2026-04-26T17:10:00Z</time></trkpt><trkpt lat="44.94240626214676" lon="12.122129231506323"><ele>1.2000000000000002</ele><time>2026-04-26T17:10:01Z</time></trkpt><trkpt lat="44.942466910360565" lon="12.12202387726891"><ele>1.4000000000000001</ele><time>2026-04-26T17:10:02Z</time></trkpt><trkpt lat="44.942515051604374" lon="12.12194497393173"><ele>1.6</ele><time>2026-04-26T17:10:03Z</time></trkpt><trkpt lat="44.94256967762088" lon="12.121864913262149"><ele>1.8</ele><time>2026-04-26T17:10:05Z</time></trkpt><trkpt lat="44.94262326928492" lon="12.12178047386111"><ele>2.0</ele><time>2026-04-26T17:10:09Z</time></trkpt><trkpt lat="44.94266931808268" lon="12.12161242510721"><ele>2.2</ele><time>2026-04-26T17:10:11Z</time></trkpt><trkpt lat="44.94270807669275" lon="12.1214896075242"><ele>2.4000000000000004</ele><time>2026-04-26T17:10:12Z</time></trkpt><trkpt lat="44.942757291987185" lon="12.121361029518937"><ele>2.5999999999999996</ele><time>2026-04-26T17:10:13Z</time></trkpt><trkpt lat="44.942802964915835" lon="12.121244685778183"><ele>2.8</ele><time>2026-04-26T17:10:14Z</time></trkpt><trkpt lat="44.94284759456112" lon="12.121119076145227"><ele>3.0</ele><time>2026-04-26T17:10:15Z</time></trkpt><trkpt lat="44.942895707993785" lon="12.120978717279725"><ele>3.0</ele><time>2026-04-26T17:10:16Z</time></trkpt><trkpt lat="44.94295877295973" lon="12.120830141319075"><ele>3.0</ele><time>2026-04-26T17:10:17Z</time></trkpt><trkpt lat="44.943027606667286" lon="12.120675094898429"><ele>3.0</ele><time>2026-04-26T17:10:18Z</time></trkpt><trkpt lat="44.94309094237865" lon="12.120533147267656"><ele>3.0</ele><time>2026-04-26T17:10:19Z</time></trkpt><trkpt lat="44.94314225556441" lon="12.120387914634568"><ele>2.25</ele><time>2026-04-26T17:10:20Z</time></trkpt><trkpt lat="44.94318445380479" lon="12.120238632578893"><ele>1.5</ele><time>2026-04-26T17:10:21Z</time></trkpt><trkpt lat="44.943241870035564" lon="12.120085969412571"><ele>0.75</ele><time>2026-04-26T17:10:22Z</time></trkpt><trkpt lat="44.94330129023109" lon="12.119932839938178"><ele>0.0</ele><time>2026-04-26T17:10:23Z</time></trkpt><trkpt lat="44.94335755254824" lon="12.119781369510415"><ele>0.0</ele><time>2026-04-26T17:10:24Z</time></trkpt><trkpt lat="44.9432130206788" lon="12.119668379742217"><ele>0.0</ele><time>2026-04-26T17:10:25Z</time></trkpt><trkpt lat="44.943177193712586" lon="12.119545330052206"><ele>0.0</ele><time>2026-04-26T17:10:26Z</time></trkpt><trkpt lat="44.94314239334378" lon="12.119438829596877"><ele>0.0</ele><time>2026-04-26T17:10:27Z</time></trkpt><trkpt lat="44.94309958480385" lon="12.119341849434527"><ele>0.0</ele><time>2026-04-26T17:10:28Z</time></trkpt><trkpt lat="44.94306831008649" lon="12.119257481782768"><ele>0.0</ele><time>2026-04-26T17:10:29.001Z</time></trkpt><trkpt lat="44.94300673795728" lon="12.119105402445387"><ele>0.0</ele><time>2026-04-26T17:10:31.001Z</time></trkpt><trkpt lat="44.94296272929439" lon="12.118965729878067"><ele>0.0</ele><time>2026-04-26T17:10:33.001Z</time></trkpt><trkpt lat="44.9428784522923" lon="12.11883331733132"><ele>0.0</ele><time>2026-04-26T17:10:35.001Z</time></trkpt><trkpt lat="44.9428163111433" lon="12.118763997403608"><ele>0.0</ele><time>2026-04-26T17:10:36.001Z</time></trkpt><trkpt lat="44.94272892844146" lon="12.118652625806403"><ele>0.2</ele><time>2026-04-26T17:10:38.001Z</time></trkpt><trkpt lat="44.94269602165884" lon="12.118517674633303"><ele>0.4</ele><time>2026-04-26T17:10:40.001Z</time></trkpt><trkpt lat="44.942732149046975" lon="12.118442946612115"><ele>0.6000000000000001</ele><time>2026-04-26T17:10:41.001Z</time></trkpt><trkpt lat="44.94278969302373" lon="12.118359446285782"><ele>0.8</ele><time>2026-04-26T17:10:42.001Z</time></trkpt><trkpt lat="44.942870047039186" lon="12.118248581336898"><ele>1.0</ele><time>2026-04-26T17:10:43.001Z</time></trkpt><trkpt lat="44.94296044605741" lon="12.11810354430878"><ele>0.3333333333333333</ele><time>2026-04-26T17:10:44.001Z</time></trkpt><trkpt lat="44.943061868609504" lon="12.117936894322469"><ele>-0.3333333333333333</ele><time>2026-04-26T17:10:45.001Z</time></trkpt><trkpt lat="44.943165654600996" lon="12.11775983518886"><ele>-1.0</ele><time>2026-04-26T17:10:46.001Z</time></trkpt><trkpt lat="44.94325880770896" lon="12.117599726564212"><ele>-1.0</ele><time>2026-04-26T17:10:47.001Z</time></trkpt><trkpt lat="44.94338885153897" lon="12.11742880290575"><ele>-1.0</ele><time>2026-04-26T17:10:48.001Z</time></trkpt><trkpt lat="44.94350566237235" lon="12.117274113935025"><ele>-1.0</ele><time>2026-04-26T17:10:49.001Z</time></trkpt><trkpt lat="44.94361749904721" lon="12.1171071472535"><ele>-1.75</ele><time>2026-04-26T17:10:50.001Z</time></trkpt><trkpt lat="44.94370814798742" lon="12.116918303331694"><ele>-2.5</ele><time>2026-04-26T17:10:51.001Z</time></trkpt><trkpt lat="44.943793938450995" lon="12.11675553676265"><ele>-3.25</ele><time>2026-04-26T17:10:52.001Z</time></trkpt><trkpt lat="44.94387441024314" lon="12.116609181314315"><ele>-4.0</ele><time>2026-04-26T17:10:53.001Z</time></trkpt><trkpt lat="44.943961262669966" lon="12.116460569684014"><ele>-4.0</ele><time>2026-04-26T17:10:54.001Z</time></trkpt><trkpt lat="44.944052010558856" lon="12.116323410650214"><ele>-4.0</ele><time>2026-04-26T17:10:55.001Z</time></trkpt><trkpt lat="44.94416577736824" lon="12.116194903479567"><ele>-4.0</ele><time>2026-04-26T17:10:56.001Z</time></trkpt><trkpt lat="44.94431234155583" lon="12.116076712072738"><ele>-4.0</ele><time>2026-04-26T17:10:57.001Z</time></trkpt><trkpt lat="44.94450514842342" lon="12.115972417401785"><ele>-3.5</ele><time>2026-04-26T17:10:58.001Z</time></trkpt><trkpt lat="44.94472905830818" lon="12.115864466580032"><ele>-3.0</ele><time>2026-04-26T17:10:59.001Z</time></trkpt><trkpt lat="44.94498013980496" lon="12.115751172265297"><ele>-3.0</ele><time>2026-04-26T17:11:00.001Z</time></trkpt><trkpt lat="44.94521714433176" lon="12.115635863996815"><ele>-3.0</ele><time>2026-04-26T17:11:01.001Z</time></trkpt><trkpt lat="44.94542397934812" lon="12.115536120560925"><ele>-3.0</ele><time>2026-04-26T17:11:02.001Z</time></trkpt><trkpt lat="44.94561574989546" lon="12.115440139964454"><ele>-3.0</ele><time>2026-04-26T17:11:03.001Z</time></trkpt><trkpt lat="44.94580103836201" lon="12.11534068579663"><ele>-3.0</ele><time>2026-04-26T17:11:04.001Z</time></trkpt><trkpt lat="44.945978412515885" lon="12.115235314331098"><ele>-2.6666666666666665</ele><time>2026-04-26T17:11:05.001Z</time></trkpt><trkpt lat="44.94616414466447" lon="12.115112762763125"><ele>-2.333333333333333</ele><time>2026-04-26T17:11:06.001Z</time></trkpt><trkpt lat="44.9463338335765" lon="12.114969726464734"><ele>-2.0</ele><time>2026-04-26T17:11:07.001Z</time></trkpt><trkpt lat="44.946515288282434" lon="12.114811082038825"><ele>-2.0</ele><time>2026-04-26T17:11:08.001Z</time></trkpt><trkpt lat="44.94668708866656" lon="12.1146552978886"><ele>-2.0</ele><time>2026-04-26T17:11:09Z</time></trkpt><trkpt lat="44.94685256176873" lon="12.114509066722682"><ele>-2.0</ele><time>2026-04-26T17:11:10Z</time></trkpt><trkpt lat="44.94702161212937" lon="12.114370024490048"><ele>-2.0</ele><time>2026-04-26T17:11:11Z</time></trkpt><trkpt lat="44.947189241293046" lon="12.114229071039778"><ele>-2.0</ele><time>2026-04-26T17:11:12Z</time></trkpt><trkpt lat="44.94735401521894" lon="12.114079842175112"><ele>-2.0</ele><time>2026-04-26T17:11:13Z</time></trkpt><trkpt lat="44.94752462206485" lon="12.113937284972724"><ele>-2.333333333333333</ele><time>2026-04-26T17:11:14Z</time></trkpt><trkpt lat="44.94769750592469" lon="12.113800489667755"><ele>-2.6666666666666665</ele><time>2026-04-26T17:11:15Z</time></trkpt><trkpt lat="44.947876665104744" lon="12.113683090372165"><ele>-3.0</ele><time>2026-04-26T17:11:16Z</time></trkpt><trkpt lat="44.948077360846206" lon="12.113588276909546"><ele>-3.0</ele><time>2026-04-26T17:11:17Z</time></trkpt><trkpt lat="44.94828896594335" lon="12.113527105582417"><ele>-3.0</ele><time>2026-04-26T17:11:18Z</time></trkpt><trkpt lat="44.94850279847436" lon="12.11347682426251"><ele>-3.0</ele><time>2026-04-26T17:11:19Z</time></trkpt><trkpt lat="44.94871965888828" lon="12.113425908437774"><ele>-2.6666666666666665</ele><time>2026-04-26T17:11:20Z</time></trkpt><trkpt lat="44.94893584244376" lon="12.11338808235302"><ele>-2.333333333333333</ele><time>2026-04-26T17:11:21Z</time></trkpt><trkpt lat="44.94913449815719" lon="12.113362916798152"><ele>-2.0</ele><time>2026-04-26T17:11:22Z</time></trkpt><trkpt lat="44.94934422472076" lon="12.113334209316339"><ele>-1.5</ele><time>2026-04-26T17:11:23Z</time></trkpt><trkpt lat="44.949564254146786" lon="12.113298708727884"><ele>-1.0</ele><time>2026-04-26T17:11:24Z</time></trkpt><trkpt lat="44.94979588564854" lon="12.113247474137955"><ele>-3.0</ele><time>2026-04-26T17:11:25Z</time></trkpt><trkpt lat="44.9500318423019" lon="12.113169779445482"><ele>-5.0</ele><time>2026-04-26T17:11:26Z</time></trkpt><trkpt lat="44.95025873441057" lon="12.11307064644799"><ele>-5.0</ele><time>2026-04-26T17:11:27Z</time></trkpt><trkpt lat="44.95047846387859" lon="12.112957103139257"><ele>-5.0</ele><time>2026-04-26T17:11:28Z</time></trkpt><trkpt lat="44.950698184324764" lon="12.112830029953898"><ele>-3.5</ele><time>2026-04-26T17:11:29Z</time></trkpt><trkpt lat="44.950915633102134" lon="12.112691957132089"><ele>-2.0</ele><time>2026-04-26T17:11:30Z</time></trkpt><trkpt lat="44.951128049228664" lon="12.112545751281193"><ele>-3.5</ele><time>2026-04-26T17:11:31Z</time></trkpt><trkpt lat="44.951335586319786" lon="12.112393962521761"><ele>-5.0</ele><time>2026-04-26T17:11:32Z</time></trkpt><trkpt lat="44.95154223583752" lon="12.112227250524718"><ele>-3.0</ele><time>2026-04-26T17:11:33Z</time></trkpt><trkpt lat="44.951736102223116" lon="12.11204127554873"><ele>-1.0</ele><time>2026-04-26T17:11:34Z</time></trkpt><trkpt lat="44.95192177988043" lon="12.11184571002848"><ele>-1.0</ele><time>2026-04-26T17:11:35Z</time></trkpt><trkpt lat="44.9520989370678" lon="12.111663349357023"><ele>-1.0</ele><time>2026-04-26T17:11:36Z</time></trkpt><trkpt lat="44.952276432508846" lon="12.111481190063213"><ele>-1.0</ele><time>2026-04-26T17:11:37Z</time></trkpt><trkpt lat="44.952458083899785" lon="12.111301462546063"><ele>-1.6666666666666665</ele><time>2026-04-26T17:11:38Z</time></trkpt><trkpt lat="44.952638867556615" lon="12.111123575782518"><ele>-2.3333333333333335</ele><time>2026-04-26T17:11:39Z</time></trkpt><trkpt lat="44.95282320618253" lon="12.110943846418195"><ele>-3.0</ele><time>2026-04-26T17:11:40Z</time></trkpt><trkpt lat="44.95300629199841" lon="12.1107461877742"><ele>-4.0</ele><time>2026-04-26T17:11:41Z</time></trkpt><trkpt lat="44.95317897647977" lon="12.110520741277895"><ele>-5.0</ele><time>2026-04-26T17:11:42Z</time></trkpt><trkpt lat="44.95333198709768" lon="12.11026185945426"><ele>-5.5</ele><time>2026-04-26T17:11:43Z</time></trkpt><trkpt lat="44.953482628061266" lon="12.109998978518517"><ele>-6.0</ele><time>2026-04-26T17:11:44Z</time></trkpt><trkpt lat="44.953637757389046" lon="12.109732724693616"><ele>-6.0</ele><time>2026-04-26T17:11:45Z</time></trkpt><trkpt lat="44.953794766371274" lon="12.109462958312555"><ele>-6.0</ele><time>2026-04-26T17:11:46Z</time></trkpt><trkpt lat="44.95395151158208" lon="12.109188628046079"><ele>-4.5</ele><time>2026-04-26T17:11:47Z</time></trkpt><trkpt lat="44.95410071300143" lon="12.108913494094017"><ele>-3.0</ele><time>2026-04-26T17:11:48Z</time></trkpt><trkpt lat="44.9542452244387" lon="12.108641142030239"><ele>-3.0</ele><time>2026-04-26T17:11:49Z</time></trkpt><trkpt lat="44.954392005161274" lon="12.108372980584411"><ele>-3.0</ele><time>2026-04-26T17:11:50Z</time></trkpt><trkpt lat="44.95454083462997" lon="12.108111439151541"><ele>-3.0</ele><time>2026-04-26T17:11:51Z</time></trkpt><trkpt lat="44.954677988367735" lon="12.107865676838061"><ele>-3.0</ele><time>2026-04-26T17:11:52Z</time></trkpt><trkpt lat="44.95481064607036" lon="12.107611588643392"><ele>-3.0</ele><time>2026-04-26T17:11:53Z</time></trkpt><trkpt lat="44.95493079897272" lon="12.10734018340177"><ele>-3.0</ele><time>2026-04-26T17:11:54Z</time></trkpt><trkpt lat="44.95504070283096" lon="12.107046965943773"><ele>-3.0</ele><time>2026-04-26T17:11:55Z</time></trkpt><trkpt lat="44.95514862573317" lon="12.106736902430468"><ele>-3.0</ele><time>2026-04-26T17:11:56Z</time></trkpt><trkpt lat="44.95527094323857" lon="12.106434542521093"><ele>-3.0</ele><time>2026-04-26T17:11:57Z</time></trkpt><trkpt lat="44.95540940527758" lon="12.106140444245632"><ele>-3.0</ele><time>2026-04-26T17:11:58Z</time></trkpt><trkpt lat="44.95556081776845" lon="12.105850565272796"><ele>-3.0</ele><time>2026-04-26T17:11:59Z</time></trkpt><trkpt lat="44.95571703741992" lon="12.105564848102473"><ele>-2.5</ele><time>2026-04-26T17:12:00Z</time></trkpt><trkpt lat="44.9558560006175" lon="12.105301579508371"><ele>-2.0</ele><time>2026-04-26T17:12:01Z</time></trkpt><trkpt lat="44.95598353878566" lon="12.105052709778873"><ele>-2.0</ele><time>2026-04-26T17:12:02Z</time></trkpt><trkpt lat="44.95610608821994" lon="12.104792848362534"><ele>-2.0</ele><time>2026-04-26T17:12:03Z</time></trkpt><trkpt lat="44.95622932081922" lon="12.104508004528038"><ele>-2.0</ele><time>2026-04-26T17:12:04Z</time></trkpt><trkpt lat="44.95635194235841" lon="12.10420052785281"><ele>-2.0</ele><time>2026-04-26T17:12:05Z</time></trkpt><trkpt lat="44.95647865869924" lon="12.103886206338947"><ele>-2.5</ele><time>2026-04-26T17:12:06Z</time></trkpt><trkpt lat="44.9566127927477" lon="12.10357427371438"><ele>-3.0</ele><time>2026-04-26T17:12:07Z</time></trkpt><trkpt lat="44.95675463360363" lon="12.10326823988691"><ele>-1.5</ele><time>2026-04-26T17:12:08Z</time></trkpt><trkpt lat="44.95689304610862" lon="12.10298871933324"><ele>0.0</ele><time>2026-04-26T17:12:09Z</time></trkpt><trkpt lat="44.95702665422656" lon="12.102728946337102"><ele>0.0</ele><time>2026-04-26T17:12:10Z</time></trkpt><trkpt lat="44.95717667666234" lon="12.102457402973005"><ele>0.0</ele><time>2026-04-26T17:12:11Z</time></trkpt><trkpt lat="44.957307883186374" lon="12.102211059205455"><ele>-1.0</ele><time>2026-04-26T17:12:12Z</time></trkpt><trkpt lat="44.957431604815504" lon="12.101923474172274"><ele>-2.0</ele><time>2026-04-26T17:12:13Z</time></trkpt><trkpt lat="44.95756265812837" lon="12.101627651959449"><ele>-3.0</ele><time>2026-04-26T17:12:14Z</time></trkpt><trkpt lat="44.95768515682385" lon="12.101359105211825"><ele>-4.0</ele><time>2026-04-26T17:12:15Z</time></trkpt><trkpt lat="44.957829872942355" lon="12.101084232485354"><ele>-4.0</ele><time>2026-04-26T17:12:16Z</time></trkpt><trkpt lat="44.95794098145531" lon="12.100797940496806"><ele>-4.0</ele><time>2026-04-26T17:12:17Z</time></trkpt><trkpt lat="44.95806980554044" lon="12.100504449926918"><ele>-3.5</ele><time>2026-04-26T17:12:18Z</time></trkpt><trkpt lat="44.95816581121166" lon="12.10021754965195"><ele>-3.0</ele><time>2026-04-26T17:12:19Z</time></trkpt><trkpt lat="44.95828773448444" lon="12.099893411530102"><ele>-4.0</ele><time>2026-04-26T17:12:20Z</time></trkpt><trkpt lat="44.95839799028593" lon="12.099586525064502"><ele>-5.0</ele><time>2026-04-26T17:12:21Z</time></trkpt><trkpt lat="44.95850731609388" lon="12.099299374148496"><ele>-4.0</ele><time>2026-04-26T17:12:22Z</time></trkpt><trkpt lat="44.958626845013406" lon="12.099041034987485"><ele>-3.0</ele><time>2026-04-26T17:12:23Z</time></trkpt><trkpt lat="44.95872728125724" lon="12.09873548662966"><ele>-3.0</ele><time>2026-04-26T17:12:24Z</time></trkpt><trkpt lat="44.9588305980031" lon="12.098444729908607"><ele>-3.0</ele><time>2026-04-26T17:12:25Z</time></trkpt><trkpt lat="44.95893883117557" lon="12.098165992120295"><ele>-3.0</ele><time>2026-04-26T17:12:26Z</time></trkpt><trkpt lat="44.95904344156408" lon="12.097883436643844"><ele>-3.0</ele><time>2026-04-26T17:12:27Z</time></trkpt><trkpt lat="44.959179270078565" lon="12.097580335076657"><ele>-3.5</ele><time>2026-04-26T17:12:28Z</time></trkpt><trkpt lat="44.9593464293835" lon="12.09728095878862"><ele>-4.0</ele><time>2026-04-26T17:12:29Z</time></trkpt><trkpt lat="44.95952730213535" lon="12.096995710118435"><ele>-4.0</ele><time>2026-04-26T17:12:30Z</time></trkpt><trkpt lat="44.95968029808387" lon="12.096729620407034"><ele>-4.0</ele><time>2026-04-26T17:12:31Z</time></trkpt><trkpt lat="44.959828344339925" lon="12.096464760779623"><ele>-4.0</ele><time>2026-04-26T17:12:32Z</time></trkpt><trkpt lat="44.959965397101286" lon="12.096183632697437"><ele>-4.0</ele><time>2026-04-26T17:12:33Z</time></trkpt><trkpt lat="44.96009945883637" lon="12.095886500270414"><ele>-3.5</ele><time>2026-04-26T17:12:34Z</time></trkpt><trkpt lat="44.96024071210895" lon="12.095562985954745"><ele>-3.0</ele><time>2026-04-26T17:12:35Z</time></trkpt><trkpt lat="44.96037586789387" lon="12.095245114698377"><ele>-3.5</ele><time>2026-04-26T17:12:36Z</time></trkpt><trkpt lat="44.96051374317586" lon="12.094918189655589"><ele>-4.0</ele><time>2026-04-26T17:12:37Z</time></trkpt><trkpt lat="44.960647681733036" lon="12.094610682890451"><ele>-4.0</ele><time>2026-04-26T17:12:38Z</time></trkpt><trkpt lat="44.96079326297348" lon="12.09431623920056"><ele>-4.0</ele><time>2026-04-26T17:12:39Z</time></trkpt><trkpt lat="44.96092820130271" lon="12.094018520813641"><ele>-4.0</ele><time>2026-04-26T17:12:40Z</time></trkpt><trkpt lat="44.961060817672184" lon="12.093730487392431"><ele>-4.0</ele><time>2026-04-26T17:12:41Z</time></trkpt><trkpt lat="44.961186805880146" lon="12.093472322709156"><ele>-3.6666666666666665</ele><time>2026-04-26T17:12:42Z</time></trkpt><trkpt lat="44.961312172164966" lon="12.093221235156447"><ele>-3.333333333333333</ele><time>2026-04-26T17:12:43Z</time></trkpt><trkpt lat="44.96144256077714" lon="12.092970231196356"><ele>-3.0</ele><time>2026-04-26T17:12:44Z</time></trkpt><trkpt lat="44.96158036331462" lon="12.092721971082007"><ele>-3.0</ele><time>2026-04-26T17:12:45Z</time></trkpt><trkpt lat="44.96172672020275" lon="12.092479152856493"><ele>-3.0</ele><time>2026-04-26T17:12:46Z</time></trkpt><trkpt lat="44.96187124162066" lon="12.092247558900594"><ele>-3.0</ele><time>2026-04-26T17:12:47Z</time></trkpt><trkpt lat="44.96201700136463" lon="12.092011846478977"><ele>-3.333333333333333</ele><time>2026-04-26T17:12:48Z</time></trkpt><trkpt lat="44.96216649248988" lon="12.091803072405886"><ele>-3.6666666666666665</ele><time>2026-04-26T17:12:49Z</time></trkpt><trkpt lat="44.962327866166675" lon="12.091599773754293"><ele>-4.0</ele><time>2026-04-26T17:12:50Z</time></trkpt><trkpt lat="44.96247764402429" lon="12.091375222725372"><ele>-3.5</ele><time>2026-04-26T17:12:51Z</time></trkpt><trkpt lat="44.96264285724754" lon="12.09115048076847"><ele>-3.0</ele><time>2026-04-26T17:12:52.001Z</time></trkpt><trkpt lat="44.96281304111275" lon="12.0909190826774"><ele>-2.5</ele><time>2026-04-26T17:12:53.001Z</time></trkpt><trkpt lat="44.96298251342101" lon="12.090693704846851"><ele>-2.0</ele><time>2026-04-26T17:12:54.001Z</time></trkpt><trkpt lat="44.9631498974257" lon="12.090474476408492"><ele>-2.0</ele><time>2026-04-26T17:12:55.001Z</time></trkpt><trkpt lat="44.96331111153609" lon="12.090257150988219"><ele>-2.0</ele><time>2026-04-26T17:12:56.001Z</time></trkpt><trkpt lat="44.96346607782647" lon="12.090052425173974"><ele>-2.0</ele><time>2026-04-26T17:12:57.001Z</time></trkpt><trkpt lat="44.96360443488398" lon="12.089872678538281"><ele>-2.6666666666666665</ele><time>2026-04-26T17:12:58.001Z</time></trkpt><trkpt lat="44.96374690345283" lon="12.089679712145088"><ele>-3.333333333333333</ele><time>2026-04-26T17:12:59.001Z</time></trkpt><trkpt lat="44.96390768632948" lon="12.089460011170233"><ele>-4.0</ele><time>2026-04-26T17:13:00.001Z</time></trkpt><trkpt lat="44.964003720385655" lon="12.089172154857962"><ele>-3.5</ele><time>2026-04-26T17:13:01.001Z</time></trkpt><trkpt lat="44.964053784398" lon="12.088821474526142"><ele>-3.0</ele><time>2026-04-26T17:13:02.001Z</time></trkpt><trkpt lat="44.96406340499986" lon="12.088431993894913"><ele>-3.0</ele><time>2026-04-26T17:13:03.001Z</time></trkpt><trkpt lat="44.964077291822285" lon="12.08798464047058"><ele>-3.0</ele><time>2026-04-26T17:13:04.001Z</time></trkpt><trkpt lat="44.96410531891655" lon="12.087561727955986"><ele>-2.5</ele><time>2026-04-26T17:13:05.001Z</time></trkpt><trkpt lat="44.96411502818538" lon="12.087113692145879"><ele>-2.0</ele><time>2026-04-26T17:13:06.001Z</time></trkpt><trkpt lat="44.964120783512804" lon="12.086717436030925"><ele>-2.5</ele><time>2026-04-26T17:13:07.001Z</time></trkpt><trkpt lat="44.96411832116385" lon="12.08634687776613"><ele>-3.0</ele><time>2026-04-26T17:13:08.001Z</time></trkpt><trkpt lat="44.964114788489915" lon="12.085961903186238"><ele>-2.5</ele><time>2026-04-26T17:13:09.001Z</time></trkpt><trkpt lat="44.9641206408466" lon="12.085555922398182"><ele>-2.0</ele><time>2026-04-26T17:13:10.001Z</time></trkpt><trkpt lat="44.96411999346872" lon="12.08518291481622"><ele>-1.5</ele><time>2026-04-26T17:13:11.001Z</time></trkpt><trkpt lat="44.96412048068075" lon="12.084840493919042"><ele>-1.0</ele><time>2026-04-26T17:13:12.001Z</time></trkpt><trkpt lat="44.964115603677556" lon="12.084508844237645"><ele>-1.0</ele><time>2026-04-26T17:13:13.001Z</time></trkpt><trkpt lat="44.9641120373428" lon="12.084174109918086"><ele>-1.0</ele><time>2026-04-26T17:13:14.001Z</time></trkpt><trkpt lat="44.96416735673779" lon="12.083911350997557"><ele>-1.0</ele><time>2026-04-26T17:13:15Z</time></trkpt><trkpt lat="44.96417409541104" lon="12.08360118377838"><ele>-0.6666666666666666</ele><time>2026-04-26T17:13:16Z</time></trkpt><trkpt lat="44.96418085040367" lon="12.083282890499165"><ele>-0.3333333333333333</ele><time>2026-04-26T17:13:17Z</time></trkpt><trkpt lat="44.96418530639768" lon="12.082966356492857"><ele>0.0</ele><time>2026-04-26T17:13:18Z</time></trkpt><trkpt lat="44.964190136748485" lon="12.082651134822175"><ele>0.0</ele><time>2026-04-26T17:13:19Z</time></trkpt><trkpt lat="44.96419115358921" lon="12.082351080478317"><ele>0.0</ele><time>2026-04-26T17:13:20Z</time></trkpt><trkpt lat="44.96419258480379" lon="12.082050618102027"><ele>0.0</ele><time>2026-04-26T17:13:21Z</time></trkpt><trkpt lat="44.96419798287073" lon="12.081743985481472"><ele>1.3333333333333333</ele><time>2026-04-26T17:13:22Z</time></trkpt><trkpt lat="44.96421406577908" lon="12.081442592799018"><ele>2.6666666666666665</ele><time>2026-04-26T17:13:23Z</time></trkpt><trkpt lat="44.96421454115067" lon="12.081113908577509"><ele>4.0</ele><time>2026-04-26T17:13:24Z</time></trkpt><trkpt lat="44.96422094967139" lon="12.080801893537993"><ele>3.6666666666666665</ele><time>2026-04-26T17:13:25Z</time></trkpt><trkpt lat="44.96420046098617" lon="12.08046850642101"><ele>3.333333333333333</ele><time>2026-04-26T17:13:26Z</time></trkpt><trkpt lat="44.964206982034085" lon="12.080182964515341"><ele>3.0</ele><time>2026-04-26T17:13:27Z</time></trkpt><trkpt lat="44.964198341736726" lon="12.079867831242103"><ele>2.0</ele><time>2026-04-26T17:13:28Z</time></trkpt><trkpt lat="44.96419565171198" lon="12.0795638272616"><ele>1.0</ele><time>2026-04-26T17:13:29Z</time></trkpt><trkpt lat="44.96419558524128" lon="12.079257657551029"><ele>0.0</ele><time>2026-04-26T17:13:30Z</time></trkpt><trkpt lat="44.96419023937935" lon="12.078951764890332"><ele>0.0</ele><time>2026-04-26T17:13:31Z</time></trkpt><trkpt lat="44.96418571368502" lon="12.07864839795494"><ele>0.0</ele><time>2026-04-26T17:13:32Z</time></trkpt><trkpt lat="44.964179582815994" lon="12.078346289793588"><ele>0.0</ele><time>2026-04-26T17:13:33Z</time></trkpt><trkpt lat="44.964171908337896" lon="12.078046871767196"><ele>-0.6666666666666666</ele><time>2026-04-26T17:13:34Z</time></trkpt><trkpt lat="44.964169109829285" lon="12.077749482509576"><ele>-1.3333333333333333</ele><time>2026-04-26T17:13:35Z</time></trkpt><trkpt lat="44.9641669595681" lon="12.077458328246415"><ele>-2.0</ele><time>2026-04-26T17:13:36Z</time></trkpt><trkpt lat="44.96417106355198" lon="12.077183096870439"><ele>-2.333333333333333</ele><time>2026-04-26T17:13:37Z</time></trkpt><trkpt lat="44.9641694749093" lon="12.076883141353157"><ele>-2.6666666666666665</ele><time>2026-04-26T17:13:38Z</time></trkpt><trkpt lat="44.964160458751394" lon="12.076572989776318"><ele>-3.0</ele><time>2026-04-26T17:13:39Z</time></trkpt><trkpt lat="44.964161103025546" lon="12.076279520016726"><ele>-3.0</ele><time>2026-04-26T17:13:40Z</time></trkpt><trkpt lat="44.96415404881995" lon="12.075983776368131"><ele>-3.0</ele><time>2026-04-26T17:13:41Z</time></trkpt><trkpt lat="44.96414151034321" lon="12.075683115790667"><ele>-3.0</ele><time>2026-04-26T17:13:42Z</time></trkpt><trkpt lat="44.96413447405948" lon="12.075389063765755"><ele>-3.333333333333333</ele><time>2026-04-26T17:13:43Z</time></trkpt><trkpt lat="44.964135994647755" lon="12.075095541540236"><ele>-3.6666666666666665</ele><time>2026-04-26T17:13:44Z</time></trkpt><trkpt lat="44.96413473490101" lon="12.07481053794465"><ele>-4.0</ele><time>2026-04-26T17:13:45Z</time></trkpt><trkpt lat="44.96412907619145" lon="12.074515191431704"><ele>-3.0</ele><time>2026-04-26T17:13:46Z</time></trkpt><trkpt lat="44.96411888705153" lon="12.074227179483106"><ele>-2.0</ele><time>2026-04-26T17:13:47Z</time></trkpt><trkpt lat="44.96410488322822" lon="12.073951278235572"><ele>-1.0</ele><time>2026-04-26T17:13:48Z</time></trkpt><trkpt lat="44.964097109415334" lon="12.073667087164784"><ele>-1.0</ele><time>2026-04-26T17:13:49Z</time></trkpt><trkpt lat="44.96409540033068" lon="12.073385951315561"><ele>-1.0</ele><time>2026-04-26T17:13:50Z</time></trkpt><trkpt lat="44.96411134901042" lon="12.073095578695334"><ele>-1.0</ele><time>2026-04-26T17:13:51Z</time></trkpt><trkpt lat="44.96412050703004" lon="12.072809972567207"><ele>-0.6666666666666666</ele><time>2026-04-26T17:13:52Z</time></trkpt><trkpt lat="44.964132505222544" lon="12.072532568620987"><ele>-0.3333333333333333</ele><time>2026-04-26T17:13:53Z</time></trkpt><trkpt lat="44.96414352256053" lon="12.072267328659315"><ele>0.0</ele><time>2026-04-26T17:13:54Z</time></trkpt><trkpt lat="44.96415994685137" lon="12.072008572719813"><ele>0.0</ele><time>2026-04-26T17:13:55Z</time></trkpt><trkpt lat="44.96416802591318" lon="12.071748655607422"><ele>0.0</ele><time>2026-04-26T17:13:56Z</time></trkpt><trkpt lat="44.964160437240324" lon="12.07147219176025"><ele>0.0</ele><time>2026-04-26T17:13:57Z</time></trkpt><trkpt lat="44.964131282034195" lon="12.071190221512225"><ele>0.0</ele><time>2026-04-26T17:13:58Z</time></trkpt><trkpt lat="44.96408055878463" lon="12.070923824750139"><ele>0.0</ele><time>2026-04-26T17:13:59Z</time></trkpt><trkpt lat="44.96401677824692" lon="12.070643295793849"><ele>0.0</ele><time>2026-04-26T17:14:00Z</time></trkpt><trkpt lat="44.96395172751905" lon="12.070377887692725"><ele>0.0</ele><time>2026-04-26T17:14:01Z</time></trkpt><trkpt lat="44.963910282843024" lon="12.070084573345007"><ele>0.0</ele><time>2026-04-26T17:14:02Z</time></trkpt><trkpt lat="44.9638509279531" lon="12.069800638451897"><ele>0.0</ele><time>2026-04-26T17:14:03Z</time></trkpt><trkpt lat="44.96377929191863" lon="12.069530186480259"><ele>-0.6666666666666666</ele><time>2026-04-26T17:14:04Z</time></trkpt><trkpt lat="44.96370139994679" lon="12.069242580221397"><ele>-1.3333333333333333</ele><time>2026-04-26T17:14:05Z</time></trkpt><trkpt lat="44.96362227795447" lon="12.068955347309394"><ele>-2.0</ele><time>2026-04-26T17:14:06Z</time></trkpt><trkpt lat="44.96355002676321" lon="12.068685416256717"><ele>-2.333333333333333</ele><time>2026-04-26T17:14:07Z</time></trkpt><trkpt lat="44.963479272062585" lon="12.068412942840009"><ele>-2.6666666666666665</ele><time>2026-04-26T17:14:08Z</time></trkpt><trkpt lat="44.96342508550698" lon="12.068122711720065"><ele>-3.0</ele><time>2026-04-26T17:14:09Z</time></trkpt><trkpt lat="44.96337907308232" lon="12.067835259064072"><ele>-3.333333333333333</ele><time>2026-04-26T17:14:10Z</time></trkpt><trkpt lat="44.96333394386106" lon="12.067556578414942"><ele>-3.6666666666666665</ele><time>2026-04-26T17:14:11Z</time></trkpt><trkpt lat="44.96330611378369" lon="12.067270885237361"><ele>-4.0</ele><time>2026-04-26T17:14:12Z</time></trkpt><trkpt lat="44.963296221130065" lon="12.066983000733712"><ele>-4.0</ele><time>2026-04-26T17:14:13Z</time></trkpt><trkpt lat="44.96328072450903" lon="12.066685941644629"><ele>-4.0</ele><time>2026-04-26T17:14:14Z</time></trkpt><trkpt lat="44.96325914912811" lon="12.066384592843088"><ele>-4.0</ele><time>2026-04-26T17:14:15Z</time></trkpt><trkpt lat="44.963243372348565" lon="12.066088285653034"><ele>-4.0</ele><time>2026-04-26T17:14:16Z</time></trkpt><trkpt lat="44.963227124197026" lon="12.065796144989783"><ele>-4.0</ele><time>2026-04-26T17:14:17Z</time></trkpt><trkpt lat="44.963205456431645" lon="12.065503164518168"><ele>-4.0</ele><time>2026-04-26T17:14:18Z</time></trkpt><trkpt lat="44.96318286259393" lon="12.065203605207067"><ele>-3.6666666666666665</ele><time>2026-04-26T17:14:19Z</time></trkpt><trkpt lat="44.963159976529035" lon="12.064910952950543"><ele>-3.333333333333333</ele><time>2026-04-26T17:14:20Z</time></trkpt><trkpt lat="44.96313820939507" lon="12.06459349056364"><ele>-3.0</ele><time>2026-04-26T17:14:21Z</time></trkpt><trkpt lat="44.96311293276123" lon="12.064228919027382"><ele>-4.0</ele><time>2026-04-26T17:14:22Z</time></trkpt><trkpt lat="44.96308731213625" lon="12.063848013035285"><ele>-5.0</ele><time>2026-04-26T17:14:23Z</time></trkpt><trkpt lat="44.96305872286335" lon="12.063461249797726"><ele>-4.0</ele><time>2026-04-26T17:14:24Z</time></trkpt><trkpt lat="44.96302941334902" lon="12.063062145523599"><ele>-3.0</ele><time>2026-04-26T17:14:25Z</time></trkpt><trkpt lat="44.96299671547864" lon="12.062695160336057"><ele>-3.0</ele><time>2026-04-26T17:14:26Z</time></trkpt><trkpt lat="44.9629723517991" lon="12.06236292843616"><ele>-3.0</ele><time>2026-04-26T17:14:27Z</time></trkpt><trkpt lat="44.96295576998811" lon="12.062064031728216"><ele>-3.0</ele><time>2026-04-26T17:14:28Z</time></trkpt><trkpt lat="44.962957351039165" lon="12.06178464218157"><ele>-2.6666666666666665</ele><time>2026-04-26T17:14:29Z</time></trkpt><trkpt lat="44.96298357891228" lon="12.061520039720653"><ele>-2.333333333333333</ele><time>2026-04-26T17:14:30Z</time></trkpt><trkpt lat="44.96305774963213" lon="12.061238757594719"><ele>-2.0</ele><time>2026-04-26T17:14:31Z</time></trkpt><trkpt lat="44.9631642614505" lon="12.06092015185778"><ele>-2.0</ele><time>2026-04-26T17:14:32Z</time></trkpt><trkpt lat="44.96327711635819" lon="12.060548979499089"><ele>-2.0</ele><time>2026-04-26T17:14:33Z</time></trkpt><trkpt lat="44.96338352361853" lon="12.060159711014201"><ele>-2.0</ele><time>2026-04-26T17:14:34Z</time></trkpt><trkpt lat="44.96347889509116" lon="12.059813150438476"><ele>-2.0</ele><time>2026-04-26T17:14:35Z</time></trkpt><trkpt lat="44.96356823773825" lon="12.059500792986839"><ele>-2.0</ele><time>2026-04-26T17:14:36Z</time></trkpt><trkpt lat="44.963651201552246" lon="12.059201224222837"><ele>-2.0</ele><time>2026-04-26T17:14:37Z</time></trkpt><trkpt lat="44.96373035032386" lon="12.05890405602975"><ele>-2.5</ele><time>2026-04-26T17:14:38Z</time></trkpt><trkpt lat="44.963811020471475" lon="12.058604934592221"><ele>-3.0</ele><time>2026-04-26T17:14:39Z</time></trkpt><trkpt lat="44.96389302387516" lon="12.058310362120597"><ele>-2.0</ele><time>2026-04-26T17:14:40Z</time></trkpt><trkpt lat="44.96397702638165" lon="12.058018496017336"><ele>-1.0</ele><time>2026-04-26T17:14:41Z</time></trkpt><trkpt lat="44.96404719607689" lon="12.057707552824201"><ele>-1.5</ele><time>2026-04-26T17:14:42Z</time></trkpt><trkpt lat="44.96409451219134" lon="12.057378446194415"><ele>-2.0</ele><time>2026-04-26T17:14:43Z</time></trkpt><trkpt lat="44.96411290122984" lon="12.0570740799506"><ele>-2.0</ele><time>2026-04-26T17:14:44Z</time></trkpt><trkpt lat="44.964113323457276" lon="12.056793264583513"><ele>-2.0</ele><time>2026-04-26T17:14:45Z</time></trkpt><trkpt lat="44.9640943591862" lon="12.056498380311053"><ele>-2.0</ele><time>2026-04-26T17:14:46Z</time></trkpt><trkpt lat="44.96404786904855" lon="12.05616267590066"><ele>-2.5</ele><time>2026-04-26T17:14:47Z</time></trkpt><trkpt lat="44.96397456638776" lon="12.055782583553219"><ele>-3.0</ele><time>2026-04-26T17:14:48Z</time></trkpt><trkpt lat="44.96389033747895" lon="12.055371636173152"><ele>-3.0</ele><time>2026-04-26T17:14:49Z</time></trkpt><trkpt lat="44.96380212425816" lon="12.054931472264771"><ele>-3.0</ele><time>2026-04-26T17:14:50Z</time></trkpt><trkpt lat="44.96372506496637" lon="12.0545073740151"><ele>-3.0</ele><time>2026-04-26T17:14:51.001Z</time></trkpt><trkpt lat="44.963653285776346" lon="12.054131246181065"><ele>-3.0</ele><time>2026-04-26T17:14:52.001Z</time></trkpt><trkpt lat="44.963588346349844" lon="12.053776182862716"><ele>-2.5</ele><time>2026-04-26T17:14:53.001Z</time></trkpt><trkpt lat="44.963517882811054" lon="12.053418361655778"><ele>-2.0</ele><time>2026-04-26T17:14:54.001Z</time></trkpt><trkpt lat="44.96345049006083" lon="12.053065410844285"><ele>-2.0</ele><time>2026-04-26T17:14:55.001Z</time></trkpt><trkpt lat="44.963390674734356" lon="12.052736502092696"><ele>-2.0</ele><time>2026-04-26T17:14:56.001Z</time></trkpt><trkpt lat="44.963329079189585" lon="12.052407795875972"><ele>-3.0</ele><time>2026-04-26T17:14:57.001Z</time></trkpt><trkpt lat="44.963267997669845" lon="12.052075869682547"><ele>-4.0</ele><time>2026-04-26T17:14:58.001Z</time></trkpt><trkpt lat="44.9632117701739" lon="12.051772638197056"><ele>-3.6666666666666665</ele><time>2026-04-26T17:14:59.001Z</time></trkpt><trkpt lat="44.963158912436434" lon="12.051490211783163"><ele>-3.333333333333333</ele><time>2026-04-26T17:15:00.001Z</time></trkpt><trkpt lat="44.96310721681661" lon="12.051217576675752"><ele>-3.0</ele><time>2026-04-26T17:15:01.001Z</time></trkpt><trkpt lat="44.96305097962701" lon="12.050935698730424"><ele>-2.6666666666666665</ele><time>2026-04-26T17:15:02.001Z</time></trkpt><trkpt lat="44.96299740472817" lon="12.050650863065602"><ele>-2.333333333333333</ele><time>2026-04-26T17:15:03.001Z</time></trkpt><trkpt lat="44.96294336401972" lon="12.050376281712559"><ele>-2.0</ele><time>2026-04-26T17:15:04.001Z</time></trkpt><trkpt lat="44.96289458949318" lon="12.050115345012028"><ele>-1.3333333333333333</ele><time>2026-04-26T17:15:05.001Z</time></trkpt><trkpt lat="44.9628480816252" lon="12.049850055479746"><ele>-0.6666666666666666</ele><time>2026-04-26T17:15:06.001Z</time></trkpt><trkpt lat="44.9627931471842" lon="12.049570084234553"><ele>0.0</ele><time>2026-04-26T17:15:07.001Z</time></trkpt><trkpt lat="44.962732624151684" lon="12.049280058179626"><ele>-0.3333333333333333</ele><time>2026-04-26T17:15:08.001Z</time></trkpt><trkpt lat="44.96267668819472" lon="12.048988030950735"><ele>-0.6666666666666666</ele><time>2026-04-26T17:15:09.001Z</time></trkpt><trkpt lat="44.9626249340761" lon="12.048721075180342"><ele>-1.0</ele><time>2026-04-26T17:15:10.001Z</time></trkpt><trkpt lat="44.96257542886652" lon="12.048472729485287"><ele>-1.0</ele><time>2026-04-26T17:15:11.001Z</time></trkpt><trkpt lat="44.962526981100986" lon="12.048217975837186"><ele>-1.0</ele><time>2026-04-26T17:15:12.001Z</time></trkpt><trkpt lat="44.962479322867665" lon="12.047959337606086"><ele>-1.0</ele><time>2026-04-26T17:15:13.001Z</time></trkpt><trkpt lat="44.962437182428374" lon="12.047706621250901"><ele>-1.0</ele><time>2026-04-26T17:15:14.001Z</time></trkpt><trkpt lat="44.96239575714318" lon="12.047473494926932"><ele>-1.0</ele><time>2026-04-26T17:15:15.001Z</time></trkpt><trkpt lat="44.962352108346614" lon="12.04725606270662"><ele>-1.0</ele><time>2026-04-26T17:15:16.001Z</time></trkpt><trkpt lat="44.96230874399035" lon="12.047033621061335"><ele>-1.0</ele><time>2026-04-26T17:15:17.001Z</time></trkpt><trkpt lat="44.96226766265333" lon="12.04681627721335"><ele>-1.0</ele><time>2026-04-26T17:15:18.001Z</time></trkpt><trkpt lat="44.96222755067929" lon="12.04661385462175"><ele>-1.0</ele><time>2026-04-26T17:15:19.001Z</time></trkpt><trkpt lat="44.96218731848666" lon="12.04642439774276"><ele>-1.0</ele><time>2026-04-26T17:15:20.001Z</time></trkpt><trkpt lat="44.962152212947174" lon="12.046246084977367"><ele>-1.0</ele><time>2026-04-26T17:15:21Z</time></trkpt><trkpt lat="44.962114955232984" lon="12.046079910975243"><ele>-1.0</ele><time>2026-04-26T17:15:22Z</time></trkpt><trkpt lat="44.96206758259087" lon="12.045932571608784"><ele>-1.0</ele><time>2026-04-26T17:15:23Z</time></trkpt><trkpt lat="44.9620105928727" lon="12.045803928413022"><ele>-1.0</ele><time>2026-04-26T17:15:24Z</time></trkpt><trkpt lat="44.961944093492654" lon="12.04568893968342"><ele>-1.2000000000000002</ele><time>2026-04-26T17:15:25Z</time></trkpt><trkpt lat="44.961886037961584" lon="12.0455704118511"><ele>-1.4000000000000001</ele><time>2026-04-26T17:15:26Z</time></trkpt><trkpt lat="44.96184160210851" lon="12.045452751925247"><ele>-1.6</ele><time>2026-04-26T17:15:27Z</time></trkpt><trkpt lat="44.96182277827832" lon="12.045330384759845"><ele>-1.8</ele><time>2026-04-26T17:15:28Z</time></trkpt><trkpt lat="44.96183700750488" lon="12.045203670971237"><ele>-2.0</ele><time>2026-04-26T17:15:29Z</time></trkpt><trkpt lat="44.961885332866125" lon="12.045102558152655"><ele>-1.9999999999999998</ele><time>2026-04-26T17:15:30Z</time></trkpt><trkpt lat="44.96194935516806" lon="12.045039872765521"><ele>-2.0</ele><time>2026-04-26T17:15:31Z</time></trkpt><trkpt lat="44.96201962945318" lon="12.045016307598624"><ele>-2.0</ele><time>2026-04-26T17:15:32Z</time></trkpt><trkpt lat="44.96209207725227" lon="12.045013810901349"><ele>-2.0</ele><time>2026-04-26T17:15:33Z</time></trkpt><trkpt lat="44.962155637750485" lon="12.045004040240771"><ele>-1.9999999999999998</ele><time>2026-04-26T17:15:34Z</time></trkpt><trkpt lat="44.962269217951295" lon="12.044958999584974"><ele>-2.0</ele><time>2026-04-26T17:15:36Z</time></trkpt><trkpt lat="44.9623341715557" lon="12.044944122774405"><ele>-2.0</ele><time>2026-04-26T17:15:37Z</time></trkpt><trkpt lat="44.96240752607706" lon="12.04493013750618"><ele>-1.9999999999999998</ele><time>2026-04-26T17:15:38Z</time></trkpt><trkpt lat="44.96248526956502" lon="12.044915830073508"><ele>-2.0</ele><time>2026-04-26T17:15:39Z</time></trkpt><trkpt lat="44.96256283298525" lon="12.044913173894445"><ele>-2.0</ele><time>2026-04-26T17:15:40Z</time></trkpt><trkpt lat="44.96263464352695" lon="12.044901458895099"><ele>-1.9999999999999998</ele><time>2026-04-26T17:15:41Z</time></trkpt><trkpt lat="44.96270444924188" lon="12.044896133690594"><ele>-2.0</ele><time>2026-04-26T17:15:42Z</time></trkpt><trkpt lat="44.96277551566443" lon="12.044888703843949"><ele>-2.0</ele><time>2026-04-26T17:15:43Z</time></trkpt><trkpt lat="44.96284067576205" lon="12.044876525997985"><ele>-2.0</ele><time>2026-04-26T17:15:44Z</time></trkpt><trkpt lat="44.96294179082054" lon="12.044830735348995"><ele>-2.0</ele><time>2026-04-26T17:15:46Z</time></trkpt><trkpt lat="44.96298470856219" lon="12.04473383923981"><ele>-2.0</ele><time>2026-04-26T17:15:49Z</time></trkpt><trkpt lat="44.963007113334676" lon="12.044645622073563"><ele>-2.0</ele><time>2026-04-26T17:16:16Z</time></trkpt><trkpt lat="44.96301435885895" lon="12.044519590382786"><ele>-2.0</ele><time>2026-04-26T17:16:19Z</time></trkpt><trkpt lat="44.96302667164122" lon="12.044349973577383"><ele>-2.0</ele><time>2026-04-26T17:16:21Z</time></trkpt><trkpt lat="44.9630248789548" lon="12.044132033157306"><ele>-2.0</ele><time>2026-04-26T17:16:23Z</time></trkpt><trkpt lat="44.96305474638646" lon="12.043948141824277"><ele>-2.0</ele><time>2026-04-26T17:16:24Z</time></trkpt><trkpt lat="44.96309477326304" lon="12.043716565541017"><ele>-2.0</ele><time>2026-04-26T17:16:25Z</time></trkpt><trkpt lat="44.96313323977975" lon="12.043487805301687"><ele>-2.0</ele><time>2026-04-26T17:16:26Z</time></trkpt><trkpt lat="44.96317174249983" lon="12.043232318962438"><ele>-2.0</ele><time>2026-04-26T17:16:27Z</time></trkpt><trkpt lat="44.96321037041377" lon="12.042982922964223"><ele>-2.0</ele><time>2026-04-26T17:16:28Z</time></trkpt><trkpt lat="44.963247019644406" lon="12.042732875134769"><ele>-2.0</ele><time>2026-04-26T17:16:29Z</time></trkpt><trkpt lat="44.96328681378543" lon="12.042481577184695"><ele>-2.0</ele><time>2026-04-26T17:16:30Z</time></trkpt><trkpt lat="44.96332435806307" lon="12.042226983870115"><ele>-2.0</ele><time>2026-04-26T17:16:31Z</time></trkpt><trkpt lat="44.96335933985138" lon="12.041974864343947"><ele>-2.0</ele><time>2026-04-26T17:16:32Z</time></trkpt><trkpt lat="44.96339688919799" lon="12.041722608505106"><ele>-2.0</ele><time>2026-04-26T17:16:33Z</time></trkpt><trkpt lat="44.96343215504684" lon="12.041469886163746"><ele>-2.333333333333333</ele><time>2026-04-26T17:16:34Z</time></trkpt><trkpt lat="44.963469857634664" lon="12.04121557385501"><ele>-2.6666666666666665</ele><time>2026-04-26T17:16:35Z</time></trkpt><trkpt lat="44.963506177933645" lon="12.04095975596215"><ele>-3.0</ele><time>2026-04-26T17:16:36Z</time></trkpt><trkpt lat="44.96354181980193" lon="12.04070599735396"><ele>-3.0</ele><time>2026-04-26T17:16:37Z</time></trkpt><trkpt lat="44.96357993630276" lon="12.040453258422632"><ele>-3.0</ele><time>2026-04-26T17:16:38.001Z</time></trkpt><trkpt lat="44.96361736850775" lon="12.04020306146082"><ele>-3.0</ele><time>2026-04-26T17:16:39.001Z</time></trkpt><trkpt lat="44.963653922784694" lon="12.039950724090751"><ele>-2.6666666666666665</ele><time>2026-04-26T17:16:40.001Z</time></trkpt><trkpt lat="44.963686778818605" lon="12.03970201594291"><ele>-2.333333333333333</ele><time>2026-04-26T17:16:41.001Z</time></trkpt><trkpt lat="44.963722866591304" lon="12.039443321755883"><ele>-2.0</ele><time>2026-04-26T17:16:42.001Z</time></trkpt><trkpt lat="44.963763437751915" lon="12.039179379536723"><ele>-2.0</ele><time>2026-04-26T17:16:43.001Z</time></trkpt><trkpt lat="44.96380454222155" lon="12.038912285690808"><ele>-2.0</ele><time>2026-04-26T17:16:44.001Z</time></trkpt><trkpt lat="44.96384660993242" lon="12.038636386815725"><ele>-2.0</ele><time>2026-04-26T17:16:45.001Z</time></trkpt><trkpt lat="44.963885751307174" lon="12.038360710403124"><ele>-2.0</ele><time>2026-04-26T17:16:46.001Z</time></trkpt><trkpt lat="44.96392850260777" lon="12.038084619422316"><ele>-2.0</ele><time>2026-04-26T17:16:47.001Z</time></trkpt><trkpt lat="44.96396920050871" lon="12.037807892295364"><ele>-2.0</ele><time>2026-04-26T17:16:48.001Z</time></trkpt><trkpt lat="44.964008629355796" lon="12.037532028527837"><ele>-2.0</ele><time>2026-04-26T17:16:49.001Z</time></trkpt><trkpt lat="44.96404968586029" lon="12.037252577132797"><ele>-2.0</ele><time>2026-04-26T17:16:50.001Z</time></trkpt><trkpt lat="44.964093710233" lon="12.036969431375477"><ele>-2.0</ele><time>2026-04-26T17:16:51.001Z</time></trkpt><trkpt lat="44.964136833460294" lon="12.036686212630961"><ele>-2.0</ele><time>2026-04-26T17:16:52.001Z</time></trkpt><trkpt lat="44.96417748440122" lon="12.036402369435711"><ele>-2.0</ele><time>2026-04-26T17:16:53.001Z</time></trkpt><trkpt lat="44.96421816914246" lon="12.0361183974067"><ele>-2.0</ele><time>2026-04-26T17:16:54.001Z</time></trkpt><trkpt lat="44.96425933062339" lon="12.035837201701355"><ele>-2.0</ele><time>2026-04-26T17:16:55.001Z</time></trkpt><trkpt lat="44.96430386722847" lon="12.035549106826082"><ele>-2.0</ele><time>2026-04-26T17:16:56.001Z</time></trkpt><trkpt lat="44.96434819677208" lon="12.035257513245483"><ele>-2.0</ele><time>2026-04-26T17:16:57.001Z</time></trkpt><trkpt lat="44.96439182792859" lon="12.034962149549173"><ele>-2.0</ele><time>2026-04-26T17:16:58.001Z</time></trkpt><trkpt lat="44.964434609880605" lon="12.034664105036489"><ele>-2.0</ele><time>2026-04-26T17:16:59.001Z</time></trkpt><trkpt lat="44.964476392336245" lon="12.034368415498864"><ele>-2.0</ele><time>2026-04-26T17:17:00.001Z</time></trkpt><trkpt lat="44.96452007902485" lon="12.03407310943955"><ele>-2.0</ele><time>2026-04-26T17:17:01.001Z</time></trkpt><trkpt lat="44.9645652060086" lon="12.033776475118957"><ele>-2.0</ele><time>2026-04-26T17:17:02.001Z</time></trkpt><trkpt lat="44.96460682934507" lon="12.033476791049406"><ele>-2.0</ele><time>2026-04-26T17:17:03.001Z</time></trkpt><trkpt lat="44.964649046815175" lon="12.033183579382538"><ele>-2.0</ele><time>2026-04-26T17:17:04.001Z</time></trkpt><trkpt lat="44.96469715720917" lon="12.032891297807671"><ele>-2.0</ele><time>2026-04-26T17:17:05.001Z</time></trkpt><trkpt lat="44.9647452372223" lon="12.03259195192008"><ele>-2.0</ele><time>2026-04-26T17:17:06.001Z</time></trkpt><trkpt lat="44.96479058675905" lon="12.032291297318983"><ele>-2.0</ele><time>2026-04-26T17:17:07.001Z</time></trkpt><trkpt lat="44.964835613215165" lon="12.031987368345215"><ele>-2.0</ele><time>2026-04-26T17:17:08.001Z</time></trkpt><trkpt lat="44.964881066223285" lon="12.03168245223106"><ele>-2.0</ele><time>2026-04-26T17:17:09.001Z</time></trkpt><trkpt lat="44.96492628422045" lon="12.031374413705626"><ele>-2.0</ele><time>2026-04-26T17:17:10.001Z</time></trkpt><trkpt lat="44.964972373558794" lon="12.031064423987356"><ele>-2.0</ele><time>2026-04-26T17:17:11.001Z</time></trkpt><trkpt lat="44.96501816954969" lon="12.030753490642272"><ele>-2.0</ele><time>2026-04-26T17:17:12.001Z</time></trkpt><trkpt lat="44.96506414507323" lon="12.03043992037405"><ele>-2.0</ele><time>2026-04-26T17:17:13.001Z</time></trkpt><trkpt lat="44.96510829426803" lon="12.030127921517757"><ele>-2.0</ele><time>2026-04-26T17:17:14.001Z</time></trkpt><trkpt lat="44.96515347188148" lon="12.029818840140615"><ele>-2.0</ele><time>2026-04-26T17:17:15.001Z</time></trkpt><trkpt lat="44.965199685708214" lon="12.02950698348567"><ele>-2.6666666666666665</ele><time>2026-04-26T17:17:16.001Z</time></trkpt><trkpt lat="44.965243713404625" lon="12.02919959508038"><ele>-3.333333333333333</ele><time>2026-04-26T17:17:17.001Z</time></trkpt><trkpt lat="44.96528749767625" lon="12.028891995325862"><ele>-4.0</ele><time>2026-04-26T17:17:18.001Z</time></trkpt><trkpt lat="44.96533353294837" lon="12.028585740882498"><ele>-4.0</ele><time>2026-04-26T17:17:19.001Z</time></trkpt><trkpt lat="44.96538133543398" lon="12.028276037560131"><ele>-4.0</ele><time>2026-04-26T17:17:20.001Z</time></trkpt><trkpt lat="44.96542744679634" lon="12.027964254599022"><ele>-4.0</ele><time>2026-04-26T17:17:21.001Z</time></trkpt><trkpt lat="44.965475729555884" lon="12.027652921708182"><ele>-4.0</ele><time>2026-04-26T17:17:22.001Z</time></trkpt><trkpt lat="44.96553140528436" lon="12.027343027282988"><ele>-4.0</ele><time>2026-04-26T17:17:23.001Z</time></trkpt><trkpt lat="44.96559308287586" lon="12.027029735039289"><ele>-4.0</ele><time>2026-04-26T17:17:24.001Z</time></trkpt><trkpt lat="44.965656541845114" lon="12.026727726496679"><ele>-3.6666666666666665</ele><time>2026-04-26T17:17:25.001Z</time></trkpt><trkpt lat="44.9657227728538" lon="12.026428216233912"><ele>-3.333333333333333</ele><time>2026-04-26T17:17:26.001Z</time></trkpt><trkpt lat="44.96578562672514" lon="12.026134417763787"><ele>-3.0</ele><time>2026-04-26T17:17:27Z</time></trkpt><trkpt lat="44.9658497081771" lon="12.025845396926766"><ele>-3.333333333333333</ele><time>2026-04-26T17:17:28Z</time></trkpt><trkpt lat="44.96591326905729" lon="12.025555709060907"><ele>-3.6666666666666665</ele><time>2026-04-26T17:17:29Z</time></trkpt><trkpt lat="44.96597692910485" lon="12.025266944985848"><ele>-4.0</ele><time>2026-04-26T17:17:30Z</time></trkpt><trkpt lat="44.96603896715829" lon="12.02498007281084"><ele>-4.0</ele><time>2026-04-26T17:17:31Z</time></trkpt><trkpt lat="44.966102134217394" lon="12.024694216445456"><ele>-4.0</ele><time>2026-04-26T17:17:32Z</time></trkpt><trkpt lat="44.96617080219187" lon="12.024404409595045"><ele>-4.0</ele><time>2026-04-26T17:17:33Z</time></trkpt><trkpt lat="44.96623725006006" lon="12.024113495775502"><ele>-3.6666666666666665</ele><time>2026-04-26T17:17:34Z</time></trkpt><trkpt lat="44.966302466472506" lon="12.023814611844793"><ele>-3.333333333333333</ele><time>2026-04-26T17:17:35Z</time></trkpt><trkpt lat="44.96636743357838" lon="12.023516162232244"><ele>-3.0</ele><time>2026-04-26T17:17:36Z</time></trkpt><trkpt lat="44.966434374540945" lon="12.023216503241704"><ele>-3.0</ele><time>2026-04-26T17:17:37Z</time></trkpt><trkpt lat="44.96649944366428" lon="12.022915019196745"><ele>-3.0</ele><time>2026-04-26T17:17:38Z</time></trkpt><trkpt lat="44.96656371879493" lon="12.022616398049406"><ele>-3.0</ele><time>2026-04-26T17:17:39Z</time></trkpt><trkpt lat="44.96662508216433" lon="12.022320390767117"><ele>-3.0</ele><time>2026-04-26T17:17:40Z</time></trkpt><trkpt lat="44.96668869216746" lon="12.022027986227807"><ele>-3.0</ele><time>2026-04-26T17:17:41Z</time></trkpt><trkpt lat="44.966754285998164" lon="12.021733371039883"><ele>-3.0</ele><time>2026-04-26T17:17:42Z</time></trkpt><trkpt lat="44.96682099522866" lon="12.021439910065219"><ele>-3.0</ele><time>2026-04-26T17:17:43Z</time></trkpt><trkpt lat="44.96688388707767" lon="12.021159860365525"><ele>-3.0</ele><time>2026-04-26T17:17:44Z</time></trkpt><trkpt lat="44.96694090005135" lon="12.02089663667353"><ele>-3.0</ele><time>2026-04-26T17:17:45Z</time></trkpt><trkpt lat="44.966995260981626" lon="12.020638443179127"><ele>-3.0</ele><time>2026-04-26T17:17:46Z</time></trkpt><trkpt lat="44.96704619109628" lon="12.020366423316425"><ele>-3.0</ele><time>2026-04-26T17:17:47Z</time></trkpt><trkpt lat="44.96708575924166" lon="12.020090089024151"><ele>-3.0</ele><time>2026-04-26T17:17:48Z</time></trkpt><trkpt lat="44.96710829093723" lon="12.019805795155877"><ele>-2.6666666666666665</ele><time>2026-04-26T17:17:49Z</time></trkpt><trkpt lat="44.96711261609713" lon="12.019507711958163"><ele>-2.333333333333333</ele><time>2026-04-26T17:17:50Z</time></trkpt><trkpt lat="44.96709231820964" lon="12.019178245517246"><ele>-2.0</ele><time>2026-04-26T17:17:51Z</time></trkpt><trkpt lat="44.967051735571815" lon="12.018821060703424"><ele>-2.0</ele><time>2026-04-26T17:17:52Z</time></trkpt><trkpt lat="44.96701038489914" lon="12.018427657352348"><ele>-2.0</ele><time>2026-04-26T17:17:53Z</time></trkpt><trkpt lat="44.966982295068945" lon="12.018072663721203"><ele>-1.0</ele><time>2026-04-26T17:17:54Z</time></trkpt><trkpt lat="44.96696847862368" lon="12.017744377600458"><ele>0.0</ele><time>2026-04-26T17:17:55Z</time></trkpt><trkpt lat="44.96693199765182" lon="12.017449801309834"><ele>1.0</ele><time>2026-04-26T17:17:56Z</time></trkpt><trkpt lat="44.96689859815945" lon="12.017157036406068"><ele>1.3333333333333333</ele><time>2026-04-26T17:17:57Z</time></trkpt><trkpt lat="44.96685585460286" lon="12.016870211049426"><ele>1.6666666666666665</ele><time>2026-04-26T17:17:58Z</time></trkpt><trkpt lat="44.96682801419426" lon="12.016597422353005"><ele>2.0</ele><time>2026-04-26T17:17:59Z</time></trkpt><trkpt lat="44.966801231823055" lon="12.016325232319899"><ele>2.0</ele><time>2026-04-26T17:18:00Z</time></trkpt><trkpt lat="44.96677466699397" lon="12.016057235384185"><ele>2.0</ele><time>2026-04-26T17:18:01Z</time></trkpt><trkpt lat="44.96675003040101" lon="12.015797991642765"><ele>2.0</ele><time>2026-04-26T17:18:02Z</time></trkpt><trkpt lat="44.96672913023744" lon="12.015550396315279"><ele>0.6666666666666666</ele><time>2026-04-26T17:18:03Z</time></trkpt><trkpt lat="44.9667160758112" lon="12.015310694960034"><ele>-0.6666666666666666</ele><time>2026-04-26T17:18:04Z</time></trkpt><trkpt lat="44.96670834850825" lon="12.015069834779391"><ele>-2.0</ele><time>2026-04-26T17:18:05Z</time></trkpt><trkpt lat="44.96671290206923" lon="12.014816977389694"><ele>-2.333333333333333</ele><time>2026-04-26T17:18:06Z</time></trkpt><trkpt lat="44.96673083217482" lon="12.014562989841538"><ele>-2.6666666666666665</ele><time>2026-04-26T17:18:07Z</time></trkpt><trkpt lat="44.96676571525693" lon="12.014307411215537"><ele>-3.0</ele><time>2026-04-26T17:18:08Z</time></trkpt><trkpt lat="44.96679923138212" lon="12.014051814607175"><ele>-3.0</ele><time>2026-04-26T17:18:09Z</time></trkpt><trkpt lat="44.96683343281301" lon="12.013799465958751"><ele>-3.0</ele><time>2026-04-26T17:18:10Z</time></trkpt><trkpt lat="44.96687337995852" lon="12.013533634781714"><ele>-3.0</ele><time>2026-04-26T17:18:11Z</time></trkpt><trkpt lat="44.96691777033655" lon="12.013268341105535"><ele>-3.0</ele><time>2026-04-26T17:18:12Z</time></trkpt><trkpt lat="44.96696167701985" lon="12.01299461195677"><ele>-3.0</ele><time>2026-04-26T17:18:13Z</time></trkpt><trkpt lat="44.96700097933904" lon="12.012720679058623"><ele>-3.0</ele><time>2026-04-26T17:18:14Z</time></trkpt><trkpt lat="44.967042301657976" lon="12.012450192284252"><ele>-3.0</ele><time>2026-04-26T17:18:15Z</time></trkpt><trkpt lat="44.967086694759104" lon="12.012182924772576"><ele>-3.0</ele><time>2026-04-26T17:18:16Z</time></trkpt><trkpt lat="44.967130887891194" lon="12.011907380317261"><ele>-3.0</ele><time>2026-04-26T17:18:17Z</time></trkpt><trkpt lat="44.96717610086342" lon="12.011627803547812"><ele>-3.0</ele><time>2026-04-26T17:18:18Z</time></trkpt><trkpt lat="44.967222830225" lon="12.011339811093917"><ele>-3.0</ele><time>2026-04-26T17:18:19Z</time></trkpt><trkpt lat="44.967269308537254" lon="12.011052457162682"><ele>-3.0</ele><time>2026-04-26T17:18:20Z</time></trkpt><trkpt lat="44.96731285211523" lon="12.010757984780293"><ele>-3.0</ele><time>2026-04-26T17:18:21Z</time></trkpt><trkpt lat="44.9673583635261" lon="12.01046287255071"><ele>-3.0</ele><time>2026-04-26T17:18:22Z</time></trkpt><trkpt lat="44.96740161346258" lon="12.010170826261461"><ele>-3.0</ele><time>2026-04-26T17:18:23Z</time></trkpt><trkpt lat="44.967439914394774" lon="12.009896493104684"><ele>-3.333333333333333</ele><time>2026-04-26T17:18:24Z</time></trkpt><trkpt lat="44.96747979774264" lon="12.009618721311844"><ele>-3.6666666666666665</ele><time>2026-04-26T17:18:25Z</time></trkpt><trkpt lat="44.967522764052966" lon="12.00933851466454"><ele>-4.0</ele><time>2026-04-26T17:18:26Z</time></trkpt><trkpt lat="44.96756747601286" lon="12.00905059864719"><ele>-3.333333333333333</ele><time>2026-04-26T17:18:27Z</time></trkpt><trkpt lat="44.96760889025904" lon="12.008756647818958"><ele>-2.6666666666666665</ele><time>2026-04-26T17:18:28Z</time></trkpt><trkpt lat="44.96765246097932" lon="12.008461314112873"><ele>-2.0</ele><time>2026-04-26T17:18:29Z</time></trkpt><trkpt lat="44.967694063408196" lon="12.008170042861492"><ele>-2.0</ele><time>2026-04-26T17:18:30Z</time></trkpt><trkpt lat="44.96773712013379" lon="12.007877454057189"><ele>-2.0</ele><time>2026-04-26T17:18:31Z</time></trkpt><trkpt lat="44.96778061757374" lon="12.007578261889218"><ele>-2.0</ele><time>2026-04-26T17:18:32Z</time></trkpt><trkpt lat="44.967821420823796" lon="12.007283476724368"><ele>-2.0</ele><time>2026-04-26T17:18:33Z</time></trkpt><trkpt lat="44.96786792319303" lon="12.00699019684894"><ele>-2.0</ele><time>2026-04-26T17:18:34Z</time></trkpt><trkpt lat="44.96791400399356" lon="12.00669764475786"><ele>-2.0</ele><time>2026-04-26T17:18:35Z</time></trkpt><trkpt lat="44.96795978332396" lon="12.006407437935833"><ele>-2.0</ele><time>2026-04-26T17:18:36Z</time></trkpt><trkpt lat="44.96800258538999" lon="12.006118481626295"><ele>-2.0</ele><time>2026-04-26T17:18:37Z</time></trkpt><trkpt lat="44.968049317902846" lon="12.005834069973188"><ele>-2.0</ele><time>2026-04-26T17:18:38Z</time></trkpt><trkpt lat="44.96809298534389" lon="12.005547748479291"><ele>-1.3333333333333333</ele><time>2026-04-26T17:18:39Z</time></trkpt><trkpt lat="44.96813774679317" lon="12.00525943204126"><ele>-0.6666666666666666</ele><time>2026-04-26T17:18:40Z</time></trkpt><trkpt lat="44.968178752739476" lon="12.004960371795262"><ele>0.0</ele><time>2026-04-26T17:18:41Z</time></trkpt><trkpt lat="44.96821867306987" lon="12.00467689856068"><ele>0.0</ele><time>2026-04-26T17:18:42Z</time></trkpt><trkpt lat="44.96826090067184" lon="12.004383866814525"><ele>0.0</ele><time>2026-04-26T17:18:43Z</time></trkpt><trkpt lat="44.9683141416896" lon="12.004056883886271"><ele>0.0</ele><time>2026-04-26T17:18:44Z</time></trkpt><trkpt lat="44.96836882291983" lon="12.003701669259058"><ele>0.0</ele><time>2026-04-26T17:18:45.001Z</time></trkpt><trkpt lat="44.968419009350505" lon="12.003332781091757"><ele>0.0</ele><time>2026-04-26T17:18:46.001Z</time></trkpt><trkpt lat="44.96847113151726" lon="12.002963346139937"><ele>0.0</ele><time>2026-04-26T17:18:47.001Z</time></trkpt><trkpt lat="44.96852231778069" lon="12.002607242893376"><ele>0.0</ele><time>2026-04-26T17:18:48.001Z</time></trkpt><trkpt lat="44.96857058972602" lon="12.002283047217075"><ele>-0.3333333333333333</ele><time>2026-04-26T17:18:49.001Z</time></trkpt><trkpt lat="44.96863437569003" lon="12.001985543363737"><ele>-0.6666666666666666</ele><time>2026-04-26T17:18:50.001Z</time></trkpt><trkpt lat="44.96871938405232" lon="12.001694772153979"><ele>-1.0</ele><time>2026-04-26T17:18:51.001Z</time></trkpt><trkpt lat="44.968822779668486" lon="12.001423940247683"><ele>-1.0</ele><time>2026-04-26T17:18:52.001Z</time></trkpt><trkpt lat="44.96893273656398" lon="12.00118567823484"><ele>-1.0</ele><time>2026-04-26T17:18:53.001Z</time></trkpt><trkpt lat="44.96906284733807" lon="12.000977663271978"><ele>-1.0</ele><time>2026-04-26T17:18:54.001Z</time></trkpt><trkpt lat="44.96920893780535" lon="12.000802440544883"><ele>-0.6666666666666666</ele><time>2026-04-26T17:18:55.001Z</time></trkpt><trkpt lat="44.96937090697792" lon="12.000639835265789"><ele>-0.3333333333333333</ele><time>2026-04-26T17:18:56.001Z</time></trkpt><trkpt lat="44.969543597532855" lon="12.000493339350038"><ele>0.0</ele><time>2026-04-26T17:18:57.001Z</time></trkpt><trkpt lat="44.9697494537207" lon="12.000391908773976"><ele>0.0</ele><time>2026-04-26T17:18:58.001Z</time></trkpt><trkpt lat="44.96998836612087" lon="12.000296874447345"><ele>0.0</ele><time>2026-04-26T17:18:59.001Z</time></trkpt><trkpt lat="44.97020800050404" lon="12.000189774657672"><ele>-0.3333333333333333</ele><time>2026-04-26T17:19:00.001Z</time></trkpt><trkpt lat="44.97040317728612" lon="12.000073267543614"><ele>-0.6666666666666666</ele><time>2026-04-26T17:19:01.001Z</time></trkpt><trkpt lat="44.970569900419854" lon="11.999910859413333"><ele>-1.0</ele><time>2026-04-26T17:19:02.001Z</time></trkpt><trkpt lat="44.97071788957808" lon="11.999668799729614"><ele>-0.5</ele><time>2026-04-26T17:19:03.001Z</time></trkpt><trkpt lat="44.97086745675484" lon="11.99935211396829"><ele>0.0</ele><time>2026-04-26T17:19:04.001Z</time></trkpt><trkpt lat="44.97103367150537" lon="11.99902265564285"><ele>0.5</ele><time>2026-04-26T17:19:05.001Z</time></trkpt><trkpt lat="44.97118665394381" lon="11.998727339869612"><ele>1.0</ele><time>2026-04-26T17:19:06.001Z</time></trkpt><trkpt lat="44.97133007108008" lon="11.998457821669957"><ele>0.0</ele><time>2026-04-26T17:19:07.001Z</time></trkpt><trkpt lat="44.97147289144609" lon="11.998177705538337"><ele>-1.0</ele><time>2026-04-26T17:19:08.001Z</time></trkpt><trkpt lat="44.97161461975216" lon="11.997887711178574"><ele>-1.0</ele><time>2026-04-26T17:19:09.001Z</time></trkpt><trkpt lat="44.97174381535052" lon="11.997614189984526"><ele>-1.0</ele><time>2026-04-26T17:19:10.001Z</time></trkpt><trkpt lat="44.97185944391216" lon="11.997361997359645"><ele>-1.0</ele><time>2026-04-26T17:19:11.001Z</time></trkpt><trkpt lat="44.97196954765877" lon="11.997116949420459"><ele>-0.6666666666666666</ele><time>2026-04-26T17:19:12.001Z</time></trkpt><trkpt lat="44.97208235694697" lon="11.99687433434983"><ele>-0.3333333333333333</ele><time>2026-04-26T17:19:13.001Z</time></trkpt><trkpt lat="44.972203794318034" lon="11.996628999343649"><ele>0.0</ele><time>2026-04-26T17:19:14.001Z</time></trkpt><trkpt lat="44.97233640123333" lon="11.99637980610749"><ele>0.0</ele><time>2026-04-26T17:19:15.001Z</time></trkpt><trkpt lat="44.97247992336486" lon="11.996128528633264"><ele>0.0</ele><time>2026-04-26T17:19:16.001Z</time></trkpt><trkpt lat="44.97262470168516" lon="11.995884062690969"><ele>0.0</ele><time>2026-04-26T17:19:17.001Z</time></trkpt><trkpt lat="44.972766679136036" lon="11.99564371413946"><ele>0.0</ele><time>2026-04-26T17:19:18.001Z</time></trkpt><trkpt lat="44.97290757462613" lon="11.99540460526461"><ele>0.0</ele><time>2026-04-26T17:19:19.001Z</time></trkpt><trkpt lat="44.9730470719176" lon="11.995167947266664"><ele>-0.3333333333333333</ele><time>2026-04-26T17:19:20.001Z</time></trkpt><trkpt lat="44.97318161042237" lon="11.994940582852136"><ele>-0.6666666666666666</ele><time>2026-04-26T17:19:21.001Z</time></trkpt><trkpt lat="44.973315823358035" lon="11.99470199843523"><ele>-1.0</ele><time>2026-04-26T17:19:22.001Z</time></trkpt><trkpt lat="44.97344218700687" lon="11.994468774645895"><ele>-1.0</ele><time>2026-04-26T17:19:23.001Z</time></trkpt><trkpt lat="44.97357590652533" lon="11.99423672683956"><ele>-1.0</ele><time>2026-04-26T17:19:24.001Z</time></trkpt><trkpt lat="44.973707616943436" lon="11.994007737437569"><ele>-1.0</ele><time>2026-04-26T17:19:25.001Z</time></trkpt><trkpt lat="44.973836215847136" lon="11.993780061355618"><ele>-1.0</ele><time>2026-04-26T17:19:26.001Z</time></trkpt><trkpt lat="44.97396944457334" lon="11.993545989330851"><ele>-1.0</ele><time>2026-04-26T17:19:27.001Z</time></trkpt><trkpt lat="44.974097599114295" lon="11.99332117098417"><ele>-1.0</ele><time>2026-04-26T17:19:28.001Z</time></trkpt><trkpt lat="44.97421946882696" lon="11.993108953432694"><ele>-0.6666666666666666</ele><time>2026-04-26T17:19:29.001Z</time></trkpt><trkpt lat="44.97434693878221" lon="11.992886147167637"><ele>-0.3333333333333333</ele><time>2026-04-26T17:19:30.001Z</time></trkpt><trkpt lat="44.974474271189415" lon="11.992661228168847"><ele>0.0</ele><time>2026-04-26T17:19:31.001Z</time></trkpt><trkpt lat="44.974592857818465" lon="11.992453062747751"><ele>0.0</ele><time>2026-04-26T17:19:32.001Z</time></trkpt><trkpt lat="44.974715913937196" lon="11.992241679114876"><ele>0.0</ele><time>2026-04-26T17:19:33Z</time></trkpt><trkpt lat="44.97483861380239" lon="11.99202500026424"><ele>0.0</ele><time>2026-04-26T17:19:34Z</time></trkpt><trkpt lat="44.97496393204771" lon="11.991800436998936"><ele>0.0</ele><time>2026-04-26T17:19:35Z</time></trkpt><trkpt lat="44.97509809025374" lon="11.991587405756416"><ele>0.0</ele><time>2026-04-26T17:19:36Z</time></trkpt><trkpt lat="44.97522422039271" lon="11.99137039597162"><ele>0.0</ele><time>2026-04-26T17:19:37Z</time></trkpt><trkpt lat="44.97534930951594" lon="11.991150737298256"><ele>0.0</ele><time>2026-04-26T17:19:38Z</time></trkpt><trkpt lat="44.97547502857651" lon="11.990932996003208"><ele>0.0</ele><time>2026-04-26T17:19:39Z</time></trkpt><trkpt lat="44.97560128247248" lon="11.990723290583865"><ele>0.0</ele><time>2026-04-26T17:19:40Z</time></trkpt><trkpt lat="44.975720981084045" lon="11.990527156339931"><ele>0.3333333333333333</ele><time>2026-04-26T17:19:41Z</time></trkpt><trkpt lat="44.975842982837925" lon="11.990310198331686"><ele>0.6666666666666666</ele><time>2026-04-26T17:19:42Z</time></trkpt><trkpt lat="44.97595589437154" lon="11.990107460204044"><ele>1.0</ele><time>2026-04-26T17:19:43Z</time></trkpt><trkpt lat="44.97606578121794" lon="11.989881213172646"><ele>1.3333333333333333</ele><time>2026-04-26T17:19:44Z</time></trkpt><trkpt lat="44.97617437576069" lon="11.989645133237387"><ele>1.6666666666666665</ele><time>2026-04-26T17:19:45Z</time></trkpt><trkpt lat="44.97629575311616" lon="11.989478182746184"><ele>2.0</ele><time>2026-04-26T17:19:46Z</time></trkpt><trkpt lat="44.976414075819854" lon="11.989274319597598"><ele>1.6666666666666665</ele><time>2026-04-26T17:19:47Z</time></trkpt><trkpt lat="44.97650970639799" lon="11.989099090153166"><ele>1.3333333333333333</ele><time>2026-04-26T17:19:48Z</time></trkpt><trkpt lat="44.97659470362763" lon="11.988892231432178"><ele>1.0</ele><time>2026-04-26T17:19:49Z</time></trkpt><trkpt lat="44.976659825777304" lon="11.988657523623234"><ele>0.6666666666666666</ele><time>2026-04-26T17:19:50Z</time></trkpt><trkpt lat="44.97672196839143" lon="11.988393778758285"><ele>0.3333333333333333</ele><time>2026-04-26T17:19:51Z</time></trkpt><trkpt lat="44.97680356984287" lon="11.988129948364737"><ele>0.0</ele><time>2026-04-26T17:19:52Z</time></trkpt><trkpt lat="44.97683507646253" lon="11.987909524404792"><ele>0.0</ele><time>2026-04-26T17:19:53Z</time></trkpt><trkpt lat="44.97686525738771" lon="11.987699505977803"><ele>0.0</ele><time>2026-04-26T17:19:54Z</time></trkpt><trkpt lat="44.97690276868528" lon="11.987496614150912"><ele>0.0</ele><time>2026-04-26T17:19:55Z</time></trkpt><trkpt lat="44.97694237323867" lon="11.98729110328274"><ele>0.0</ele><time>2026-04-26T17:19:56Z</time></trkpt><trkpt lat="44.97697912248028" lon="11.98708081349684"><ele>0.0</ele><time>2026-04-26T17:19:57Z</time></trkpt><trkpt lat="44.97701054484097" lon="11.986871979744084"><ele>0.0</ele><time>2026-04-26T17:19:58Z</time></trkpt><trkpt lat="44.97704281815084" lon="11.986666286207067"><ele>0.0</ele><time>2026-04-26T17:19:59Z</time></trkpt><trkpt lat="44.97707685636733" lon="11.986462614535153"><ele>0.0</ele><time>2026-04-26T17:20:00Z</time></trkpt><trkpt lat="44.977110361310345" lon="11.98625066771069"><ele>0.0</ele><time>2026-04-26T17:20:01Z</time></trkpt><trkpt lat="44.9771469178083" lon="11.98603598165806"><ele>0.25</ele><time>2026-04-26T17:20:02Z</time></trkpt><trkpt lat="44.97717673538523" lon="11.985836359710271"><ele>0.5</ele><time>2026-04-26T17:20:03Z</time></trkpt><trkpt lat="44.97721182709538" lon="11.985639196253508"><ele>0.75</ele><time>2026-04-26T17:20:04Z</time></trkpt><trkpt lat="44.97725469937746" lon="11.985438848765007"><ele>1.0</ele><time>2026-04-26T17:20:05Z</time></trkpt><trkpt lat="44.97728815315186" lon="11.985220284019109"><ele>1.0</ele><time>2026-04-26T17:20:06Z</time></trkpt><trkpt lat="44.977331510253784" lon="11.984988865672367"><ele>1.0</ele><time>2026-04-26T17:20:07Z</time></trkpt><trkpt lat="44.977374241782094" lon="11.984759071629188"><ele>1.0</ele><time>2026-04-26T17:20:08Z</time></trkpt><trkpt lat="44.97740276949343" lon="11.98456446676438"><ele>1.0</ele><time>2026-04-26T17:20:09Z</time></trkpt><trkpt lat="44.97744837159245" lon="11.984377788248798"><ele>1.0</ele><time>2026-04-26T17:20:10Z</time></trkpt><trkpt lat="44.97747681120565" lon="11.984143456681348"><ele>1.0</ele><time>2026-04-26T17:20:11Z</time></trkpt><trkpt lat="44.977496863902175" lon="11.983936156156643"><ele>1.0</ele><time>2026-04-26T17:20:12Z</time></trkpt><trkpt lat="44.97752508675973" lon="11.983729027582417"><ele>1.0</ele><time>2026-04-26T17:20:13Z</time></trkpt><trkpt lat="44.97754995510807" lon="11.98356653861588"><ele>1.0</ele><time>2026-04-26T17:20:14Z</time></trkpt><trkpt lat="44.97758005131259" lon="11.98341291098542"><ele>1.0</ele><time>2026-04-26T17:20:15Z</time></trkpt><trkpt lat="44.97761771264817" lon="11.983250056762511"><ele>1.0</ele><time>2026-04-26T17:20:16Z</time></trkpt><trkpt lat="44.97761893540736" lon="11.983073748868723"><ele>1.0</ele><time>2026-04-26T17:20:17Z</time></trkpt><trkpt lat="44.97758897832218" lon="11.982877076157768"><ele>1.0</ele><time>2026-04-26T17:20:18Z</time></trkpt><trkpt lat="44.97752990907229" lon="11.982698997682059"><ele>1.0</ele><time>2026-04-26T17:20:19Z</time></trkpt><trkpt lat="44.97747173264356" lon="11.98251007117716"><ele>1.0</ele><time>2026-04-26T17:20:20Z</time></trkpt><trkpt lat="44.977399251838" lon="11.982321526459023"><ele>1.0</ele><time>2026-04-26T17:20:21Z</time></trkpt><trkpt lat="44.97731439963652" lon="11.982107210430897"><ele>1.0</ele><time>2026-04-26T17:20:22Z</time></trkpt><trkpt lat="44.977230691186264" lon="11.981890535285812"><ele>0.6666666666666666</ele><time>2026-04-26T17:20:23Z</time></trkpt><trkpt lat="44.977145099432114" lon="11.981676079116385"><ele>0.3333333333333333</ele><time>2026-04-26T17:20:24Z</time></trkpt><trkpt lat="44.97705863558369" lon="11.981445402992486"><ele>0.0</ele><time>2026-04-26T17:20:25Z</time></trkpt><trkpt lat="44.97698134354732" lon="11.981252075348722"><ele>0.0</ele><time>2026-04-26T17:20:26Z</time></trkpt><trkpt lat="44.9769067911272" lon="11.981034502611791"><ele>0.0</ele><time>2026-04-26T17:20:27Z</time></trkpt><trkpt lat="44.97686365675395" lon="11.980870039302017"><ele>0.0</ele><time>2026-04-26T17:20:28Z</time></trkpt><trkpt lat="44.97680523467878" lon="11.980668883351376"><ele>0.0</ele><time>2026-04-26T17:20:29Z</time></trkpt><trkpt lat="44.976718175700476" lon="11.980468460527637"><ele>0.0</ele><time>2026-04-26T17:20:30Z</time></trkpt><trkpt lat="44.9766210904396" lon="11.980267977338942"><ele>0.0</ele><time>2026-04-26T17:20:31Z</time></trkpt><trkpt lat="44.97652240248714" lon="11.980066749403855"><ele>0.0</ele><time>2026-04-26T17:20:32Z</time></trkpt><trkpt lat="44.976406677739796" lon="11.979910991277888"><ele>0.0</ele><time>2026-04-26T17:20:33Z</time></trkpt><trkpt lat="44.976298340193765" lon="11.979755262839104"><ele>0.0</ele><time>2026-04-26T17:20:34Z</time></trkpt><trkpt lat="44.976197335974405" lon="11.979619997846445"><ele>0.0</ele><time>2026-04-26T17:20:35Z</time></trkpt><trkpt lat="44.976078980448236" lon="11.979455599068945"><ele>0.0</ele><time>2026-04-26T17:20:36Z</time></trkpt><trkpt lat="44.97595640398326" lon="11.979278102231111"><ele>0.0</ele><time>2026-04-26T17:20:37Z</time></trkpt><trkpt lat="44.97579564177702" lon="11.97913521201294"><ele>0.0</ele><time>2026-04-26T17:20:38Z</time></trkpt><trkpt lat="44.97567073990916" lon="11.978998279312686"><ele>0.3333333333333333</ele><time>2026-04-26T17:20:39Z</time></trkpt><trkpt lat="44.975534909163365" lon="11.978839688453538"><ele>0.6666666666666666</ele><time>2026-04-26T17:20:40Z</time></trkpt><trkpt lat="44.97540853985655" lon="11.97870654985524"><ele>1.0</ele><time>2026-04-26T17:20:41Z</time></trkpt><trkpt lat="44.97527909064948" lon="11.978565248670346"><ele>1.0</ele><time>2026-04-26T17:20:42Z</time></trkpt><trkpt lat="44.97515574023746" lon="11.978398721809985"><ele>1.0</ele><time>2026-04-26T17:20:43Z</time></trkpt><trkpt lat="44.975020123816805" lon="11.978237138923681"><ele>1.0</ele><time>2026-04-26T17:20:44Z</time></trkpt><trkpt lat="44.97489587240735" lon="11.97808567231752"><ele>0.3333333333333333</ele><time>2026-04-26T17:20:45Z</time></trkpt><trkpt lat="44.974769068013195" lon="11.977930959653094"><ele>-0.3333333333333333</ele><time>2026-04-26T17:20:46Z</time></trkpt><trkpt lat="44.9746339822204" lon="11.9777750248695"><ele>-1.0</ele><time>2026-04-26T17:20:47Z</time></trkpt><trkpt lat="44.974516285481215" lon="11.977604585949543"><ele>-1.0</ele><time>2026-04-26T17:20:48Z</time></trkpt><trkpt lat="44.974380505647964" lon="11.977452949023665"><ele>-1.0</ele><time>2026-04-26T17:20:49Z</time></trkpt><trkpt lat="44.97425369161709" lon="11.97731209341089"><ele>-1.0</ele><time>2026-04-26T17:20:50Z</time></trkpt><trkpt lat="44.97412663802876" lon="11.977151778797172"><ele>-1.0</ele><time>2026-04-26T17:20:51Z</time></trkpt><trkpt lat="44.973995255646614" lon="11.97699769543565"><ele>-1.0</ele><time>2026-04-26T17:20:52Z</time></trkpt><trkpt lat="44.97386710854899" lon="11.976835690179643"><ele>-1.0</ele><time>2026-04-26T17:20:53Z</time></trkpt><trkpt lat="44.973738530863415" lon="11.976663885296086"><ele>-1.0</ele><time>2026-04-26T17:20:54Z</time></trkpt><trkpt lat="44.97361874167317" lon="11.976486187756716"><ele>-1.0</ele><time>2026-04-26T17:20:55Z</time></trkpt><trkpt lat="44.97350456517138" lon="11.97631762349431"><ele>-1.0</ele><time>2026-04-26T17:20:56Z</time></trkpt><trkpt lat="44.973420606026856" lon="11.976154220487071"><ele>-1.0</ele><time>2026-04-26T17:20:57Z</time></trkpt><trkpt lat="44.97332380252671" lon="11.97596519869212"><ele>-1.0</ele><time>2026-04-26T17:20:58Z</time></trkpt><trkpt lat="44.97323741950647" lon="11.97577313684659"><ele>-1.0</ele><time>2026-04-26T17:20:59Z</time></trkpt><trkpt lat="44.97314116324987" lon="11.97555180178308"><ele>-1.0</ele><time>2026-04-26T17:21:00Z</time></trkpt><trkpt lat="44.97304348602513" lon="11.97535638064863"><ele>-1.0</ele><time>2026-04-26T17:21:01Z</time></trkpt><trkpt lat="44.972967130282655" lon="11.975160029664837"><ele>-1.0</ele><time>2026-04-26T17:21:02Z</time></trkpt><trkpt lat="44.972886870136726" lon="11.974951708964282"><ele>-0.3333333333333333</ele><time>2026-04-26T17:21:03Z</time></trkpt><trkpt lat="44.97281950858658" lon="11.974750394287708"><ele>0.3333333333333333</ele><time>2026-04-26T17:21:04Z</time></trkpt><trkpt lat="44.97274762255452" lon="11.974537645028615"><ele>1.0</ele><time>2026-04-26T17:21:05Z</time></trkpt><trkpt lat="44.97267550491813" lon="11.974323708828216"><ele>1.0</ele><time>2026-04-26T17:21:06Z</time></trkpt><trkpt lat="44.9726000851341" lon="11.974125196577624"><ele>1.0</ele><time>2026-04-26T17:21:07Z</time></trkpt><trkpt lat="44.972543514381165" lon="11.97391996123612"><ele>1.0</ele><time>2026-04-26T17:21:08Z</time></trkpt><trkpt lat="44.972486488964435" lon="11.973722835602631"><ele>1.0</ele><time>2026-04-26T17:21:09Z</time></trkpt><trkpt lat="44.97243148549971" lon="11.97352128876196"><ele>1.0</ele><time>2026-04-26T17:21:10Z</time></trkpt><trkpt lat="44.97234762214527" lon="11.973279810660175"><ele>1.0</ele><time>2026-04-26T17:21:11.001Z</time></trkpt><trkpt lat="44.972294206314565" lon="11.973056220379137"><ele>1.0</ele><time>2026-04-26T17:21:12.001Z</time></trkpt><trkpt lat="44.972241559966804" lon="11.972832886676661"><ele>1.0</ele><time>2026-04-26T17:21:13.001Z</time></trkpt><trkpt lat="44.97219034423215" lon="11.972591909007189"><ele>1.0</ele><time>2026-04-26T17:21:14.001Z</time></trkpt><trkpt lat="44.97213294609234" lon="11.972374613226874"><ele>1.0</ele><time>2026-04-26T17:21:15.001Z</time></trkpt><trkpt lat="44.97207808795356" lon="11.972131212218473"><ele>1.0</ele><time>2026-04-26T17:21:16.001Z</time></trkpt><trkpt lat="44.972031844552205" lon="11.97190909315706"><ele>1.0</ele><time>2026-04-26T17:21:17.001Z</time></trkpt><trkpt lat="44.97198136047713" lon="11.971674191368775"><ele>1.0</ele><time>2026-04-26T17:21:18.001Z</time></trkpt><trkpt lat="44.97193227281041" lon="11.971457857616265"><ele>1.0</ele><time>2026-04-26T17:21:19.001Z</time></trkpt><trkpt lat="44.971882474733256" lon="11.971222841086254"><ele>1.0</ele><time>2026-04-26T17:21:20.001Z</time></trkpt><trkpt lat="44.97183387542069" lon="11.971015172474411"><ele>1.0</ele><time>2026-04-26T17:21:21.001Z</time></trkpt><trkpt lat="44.971768605118996" lon="11.97077948426336"><ele>1.0</ele><time>2026-04-26T17:21:22.001Z</time></trkpt><trkpt lat="44.971719934451215" lon="11.970560091706878"><ele>1.0</ele><time>2026-04-26T17:21:23.001Z</time></trkpt><trkpt lat="44.97167170591635" lon="11.970349435138719"><ele>1.0</ele><time>2026-04-26T17:21:24.001Z</time></trkpt><trkpt lat="44.971618079888955" lon="11.970149597812464"><ele>1.0</ele><time>2026-04-26T17:21:25.001Z</time></trkpt><trkpt lat="44.97156887121325" lon="11.969947180739265"><ele>1.0</ele><time>2026-04-26T17:21:26.001Z</time></trkpt><trkpt lat="44.97152551541549" lon="11.96974094766376"><ele>1.0</ele><time>2026-04-26T17:21:27.001Z</time></trkpt><trkpt lat="44.97148309761099" lon="11.969536018408215"><ele>1.0</ele><time>2026-04-26T17:21:28.001Z</time></trkpt><trkpt lat="44.971435609671516" lon="11.969339710335284"><ele>1.0</ele><time>2026-04-26T17:21:29.001Z</time></trkpt><trkpt lat="44.97138722789597" lon="11.96913591826959"><ele>0.6666666666666666</ele><time>2026-04-26T17:21:30.001Z</time></trkpt><trkpt lat="44.971348592789035" lon="11.968915748713947"><ele>0.3333333333333333</ele><time>2026-04-26T17:21:31.001Z</time></trkpt><trkpt lat="44.97130863342002" lon="11.968667891088485"><ele>0.0</ele><time>2026-04-26T17:21:32.001Z</time></trkpt><trkpt lat="44.97129713080622" lon="11.968434029574624"><ele>0.0</ele><time>2026-04-26T17:21:33.001Z</time></trkpt><trkpt lat="44.97130396691666" lon="11.968166103071413"><ele>0.0</ele><time>2026-04-26T17:21:34.001Z</time></trkpt><trkpt lat="44.97129318926771" lon="11.96789726781901"><ele>0.0</ele><time>2026-04-26T17:21:35.001Z</time></trkpt><trkpt lat="44.971273886837736" lon="11.967646071304113"><ele>0.3333333333333333</ele><time>2026-04-26T17:21:36.001Z</time></trkpt><trkpt lat="44.971253402450294" lon="11.967369371030333"><ele>0.6666666666666666</ele><time>2026-04-26T17:21:37.001Z</time></trkpt><trkpt lat="44.97123069497464" lon="11.967103646636337"><ele>1.0</ele><time>2026-04-26T17:21:38.001Z</time></trkpt><trkpt lat="44.97116584814348" lon="11.96682369368592"><ele>1.0</ele><time>2026-04-26T17:21:39Z</time></trkpt><trkpt lat="44.97108694463977" lon="11.966539666369773"><ele>1.0</ele><time>2026-04-26T17:21:40Z</time></trkpt><trkpt lat="44.971005123034914" lon="11.96628531087368"><ele>1.0</ele><time>2026-04-26T17:21:41Z</time></trkpt><trkpt lat="44.970904062973055" lon="11.966017783546294"><ele>1.5</ele><time>2026-04-26T17:21:42Z</time></trkpt><trkpt lat="44.9707839940789" lon="11.965709369426987"><ele>2.0</ele><time>2026-04-26T17:21:43Z</time></trkpt><trkpt lat="44.97062030115638" lon="11.965404943225796"><ele>2.0</ele><time>2026-04-26T17:21:44Z</time></trkpt><trkpt lat="44.970435631256585" lon="11.965050863393865"><ele>2.0</ele><time>2026-04-26T17:21:45Z</time></trkpt><trkpt lat="44.970262277045606" lon="11.964717827768101"><ele>1.6666666666666665</ele><time>2026-04-26T17:21:46Z</time></trkpt><trkpt lat="44.97008255928597" lon="11.964673023890585"><ele>1.3333333333333333</ele><time>2026-04-26T17:21:47Z</time></trkpt><trkpt lat="44.96995769110603" lon="11.964442215649244"><ele>1.0</ele><time>2026-04-26T17:21:48Z</time></trkpt><trkpt lat="44.96986813486545" lon="11.964113604801247"><ele>1.0</ele><time>2026-04-26T17:21:49Z</time></trkpt><trkpt lat="44.9698051766018" lon="11.963740897863792"><ele>1.0</ele><time>2026-04-26T17:21:50Z</time></trkpt><trkpt lat="44.96978977782966" lon="11.963356448033563"><ele>1.0</ele><time>2026-04-26T17:21:51Z</time></trkpt><trkpt lat="44.96969468195474" lon="11.9629847616292"><ele>1.0</ele><time>2026-04-26T17:21:52Z</time></trkpt><trkpt lat="44.969551228456645" lon="11.962619385365752"><ele>0.5</ele><time>2026-04-26T17:21:53Z</time></trkpt><trkpt lat="44.96937221913459" lon="11.962246688968403"><ele>0.0</ele><time>2026-04-26T17:21:54Z</time></trkpt><trkpt lat="44.96921647981975" lon="11.961918151808714"><ele>0.0</ele><time>2026-04-26T17:21:55Z</time></trkpt><trkpt lat="44.969075387978165" lon="11.961615271687073"><ele>0.0</ele><time>2026-04-26T17:21:56Z</time></trkpt><trkpt lat="44.96893623930465" lon="11.961307063283083"><ele>0.0</ele><time>2026-04-26T17:21:57Z</time></trkpt><trkpt lat="44.968811975198584" lon="11.961021298687841"><ele>0.0</ele><time>2026-04-26T17:21:58Z</time></trkpt><trkpt lat="44.968689672549104" lon="11.96075962154923"><ele>-0.3333333333333333</ele><time>2026-04-26T17:21:59Z</time></trkpt><trkpt lat="44.96857131582909" lon="11.960490061800035"><ele>-0.6666666666666666</ele><time>2026-04-26T17:22:00Z</time></trkpt><trkpt lat="44.96845421016805" lon="11.960222548155622"><ele>-1.0</ele><time>2026-04-26T17:22:01Z</time></trkpt><trkpt lat="44.96833645252399" lon="11.959960639230433"><ele>-1.0</ele><time>2026-04-26T17:22:02Z</time></trkpt><trkpt lat="44.96821428536234" lon="11.959696655563935"><ele>-1.0</ele><time>2026-04-26T17:22:03Z</time></trkpt><trkpt lat="44.968095363346556" lon="11.959419973104772"><ele>-1.0</ele><time>2026-04-26T17:22:04Z</time></trkpt><trkpt lat="44.967965665866814" lon="11.95914178840508"><ele>-1.0</ele><time>2026-04-26T17:22:05Z</time></trkpt><trkpt lat="44.96784034662905" lon="11.958865294722377"><ele>-1.0</ele><time>2026-04-26T17:22:06Z</time></trkpt><trkpt lat="44.967718120891625" lon="11.958583980098652"><ele>-1.0</ele><time>2026-04-26T17:22:07Z</time></trkpt><trkpt lat="44.96759628779247" lon="11.958309033638837"><ele>-1.0</ele><time>2026-04-26T17:22:08Z</time></trkpt><trkpt lat="44.9674759874251" lon="11.958045295177325"><ele>-1.0</ele><time>2026-04-26T17:22:09Z</time></trkpt><trkpt lat="44.967357921574134" lon="11.957787392371687"><ele>-1.0</ele><time>2026-04-26T17:22:10Z</time></trkpt><trkpt lat="44.96724003376634" lon="11.957525787650921"><ele>-0.3333333333333333</ele><time>2026-04-26T17:22:11Z</time></trkpt><trkpt lat="44.967127137856124" lon="11.9572620884881"><ele>0.3333333333333333</ele><time>2026-04-26T17:22:12Z</time></trkpt><trkpt lat="44.967016354182036" lon="11.957000604593224"><ele>1.0</ele><time>2026-04-26T17:22:13Z</time></trkpt><trkpt lat="44.96690105709611" lon="11.956738361506389"><ele>1.0</ele><time>2026-04-26T17:22:14Z</time></trkpt><trkpt lat="44.96678850351968" lon="11.9564757168604"><ele>1.0</ele><time>2026-04-26T17:22:15Z</time></trkpt><trkpt lat="44.96666349186371" lon="11.956229191593911"><ele>1.0</ele><time>2026-04-26T17:22:16Z</time></trkpt><trkpt lat="44.96657295979816" lon="11.955958337021174"><ele>1.0</ele><time>2026-04-26T17:22:17Z</time></trkpt><trkpt lat="44.96647820835282" lon="11.955694378137727"><ele>1.0</ele><time>2026-04-26T17:22:18Z</time></trkpt><trkpt lat="44.96637834315421" lon="11.955443461276758"><ele>1.0</ele><time>2026-04-26T17:22:19Z</time></trkpt><trkpt lat="44.96627432109699" lon="11.955174321804607"><ele>0.6666666666666666</ele><time>2026-04-26T17:22:20Z</time></trkpt><trkpt lat="44.96616326254205" lon="11.954907693226437"><ele>0.3333333333333333</ele><time>2026-04-26T17:22:21Z</time></trkpt><trkpt lat="44.96606121460171" lon="11.954635824478698"><ele>0.0</ele><time>2026-04-26T17:22:22Z</time></trkpt><trkpt lat="44.96597702672687" lon="11.954358748762953"><ele>-0.3333333333333333</ele><time>2026-04-26T17:22:23Z</time></trkpt><trkpt lat="44.965917182118076" lon="11.954068203051058"><ele>-0.6666666666666666</ele><time>2026-04-26T17:22:24Z</time></trkpt><trkpt lat="44.96586493858319" lon="11.953777718955289"><ele>-1.0</ele><time>2026-04-26T17:22:25Z</time></trkpt><trkpt lat="44.96581625403714" lon="11.953520664982406"><ele>-1.3333333333333333</ele><time>2026-04-26T17:22:26Z</time></trkpt><trkpt lat="44.96575744690308" lon="11.953277792606448"><ele>-1.6666666666666665</ele><time>2026-04-26T17:22:27Z</time></trkpt><trkpt lat="44.96572019852823" lon="11.95301747520728"><ele>-2.0</ele><time>2026-04-26T17:22:28Z</time></trkpt><trkpt lat="44.96570374728602" lon="11.952741649985445"><ele>-1.6666666666666665</ele><time>2026-04-26T17:22:29Z</time></trkpt><trkpt lat="44.965694426177656" lon="11.952456916907037"><ele>-1.3333333333333333</ele><time>2026-04-26T17:22:30Z</time></trkpt><trkpt lat="44.96568091637204" lon="11.952163560948604"><ele>-1.0</ele><time>2026-04-26T17:22:31Z</time></trkpt><trkpt lat="44.96565816298034" lon="11.951866191899198"><ele>-0.3333333333333333</ele><time>2026-04-26T17:22:32Z</time></trkpt><trkpt lat="44.96563764350655" lon="11.95156593493923"><ele>0.3333333333333333</ele><time>2026-04-26T17:22:33Z</time></trkpt><trkpt lat="44.965632997911676" lon="11.951294753056228"><ele>1.0</ele><time>2026-04-26T17:22:34Z</time></trkpt><trkpt lat="44.96564053470092" lon="11.950977380307338"><ele>2.0</ele><time>2026-04-26T17:22:35Z</time></trkpt><trkpt lat="44.96567093318382" lon="11.950593697087752"><ele>3.0</ele><time>2026-04-26T17:22:36Z</time></trkpt><trkpt lat="44.965691675037185" lon="11.950210749859892"><ele>3.0</ele><time>2026-04-26T17:22:37Z</time></trkpt><trkpt lat="44.96574650381928" lon="11.949798158030813"><ele>3.0</ele><time>2026-04-26T17:22:38Z</time></trkpt><trkpt lat="44.965787162298795" lon="11.949427795821792"><ele>2.0</ele><time>2026-04-26T17:22:39Z</time></trkpt><trkpt lat="44.96575999571987" lon="11.949051554325559"><ele>1.0</ele><time>2026-04-26T17:22:40Z</time></trkpt><trkpt lat="44.96579642009967" lon="11.948627423836852"><ele>1.0</ele><time>2026-04-26T17:22:41Z</time></trkpt><trkpt lat="44.96535313696855" lon="11.948462456481625"><ele>0.0</ele><time>2026-04-26T17:22:42Z</time></trkpt><trkpt lat="44.96526714909554" lon="11.94812526496649"><ele>-1.0</ele><time>2026-04-26T17:22:43Z</time></trkpt><trkpt lat="44.96518996560286" lon="11.9478034962977"><ele>-0.6666666666666666</ele><time>2026-04-26T17:22:44Z</time></trkpt><trkpt lat="44.965107836718836" lon="11.947472975861395"><ele>-0.3333333333333333</ele><time>2026-04-26T17:22:45Z</time></trkpt><trkpt lat="44.96505858814569" lon="11.947210482735853"><ele>0.0</ele><time>2026-04-26T17:22:46Z</time></trkpt><trkpt lat="44.965007167812864" lon="11.94693095573493"><ele>-0.5</ele><time>2026-04-26T17:22:47Z</time></trkpt><trkpt lat="44.96496816777119" lon="11.946613986694674"><ele>-1.0</ele><time>2026-04-26T17:22:48Z</time></trkpt><trkpt lat="44.964945665729" lon="11.946259265985745"><ele>-1.0</ele><time>2026-04-26T17:22:49Z</time></trkpt><trkpt lat="44.96498171046757" lon="11.945886663671082"><ele>-1.0</ele><time>2026-04-26T17:22:50Z</time></trkpt><trkpt lat="44.965050583490644" lon="11.945472306231505"><ele>-1.0</ele><time>2026-04-26T17:22:51Z</time></trkpt><trkpt lat="44.96512758683116" lon="11.945089674103361"><ele>-1.0</ele><time>2026-04-26T17:22:52Z</time></trkpt><trkpt lat="44.96520432096288" lon="11.944769598147834"><ele>-1.0</ele><time>2026-04-26T17:22:53Z</time></trkpt><trkpt lat="44.96526369372563" lon="11.944460546127397"><ele>-1.0</ele><time>2026-04-26T17:22:54Z</time></trkpt><trkpt lat="44.96531130214016" lon="11.944167612362909"><ele>-1.0</ele><time>2026-04-26T17:22:55Z</time></trkpt><trkpt lat="44.96536066861827" lon="11.943888057668794"><ele>-0.6666666666666666</ele><time>2026-04-26T17:22:56Z</time></trkpt><trkpt lat="44.9654074398374" lon="11.943604345390824"><ele>-0.3333333333333333</ele><time>2026-04-26T17:22:57Z</time></trkpt><trkpt lat="44.96545456501162" lon="11.943316514834239"><ele>0.0</ele><time>2026-04-26T17:22:58Z</time></trkpt><trkpt lat="44.96548268012793" lon="11.943026528170254"><ele>0.3333333333333333</ele><time>2026-04-26T17:22:59Z</time></trkpt><trkpt lat="44.96550476274125" lon="11.942730394736783"><ele>0.6666666666666666</ele><time>2026-04-26T17:23:00Z</time></trkpt><trkpt lat="44.965514084515824" lon="11.942414680426399"><ele>1.0</ele><time>2026-04-26T17:23:01Z</time></trkpt><trkpt lat="44.96550202496886" lon="11.94210692751036"><ele>1.0</ele><time>2026-04-26T17:23:02Z</time></trkpt><trkpt lat="44.96547966857279" lon="11.94180291385923"><ele>1.0</ele><time>2026-04-26T17:23:03Z</time></trkpt><trkpt lat="44.96543005736214" lon="11.941475985972248"><ele>0.6666666666666666</ele><time>2026-04-26T17:23:04Z</time></trkpt><trkpt lat="44.96540242711881" lon="11.941170007128513"><ele>0.3333333333333333</ele><time>2026-04-26T17:23:05Z</time></trkpt><trkpt lat="44.965376027320914" lon="11.94087392585373"><ele>0.0</ele><time>2026-04-26T17:23:06Z</time></trkpt><trkpt lat="44.96535459789035" lon="11.940571154278288"><ele>0.0</ele><time>2026-04-26T17:23:07Z</time></trkpt><trkpt lat="44.9653340371394" lon="11.940265512677358"><ele>0.0</ele><time>2026-04-26T17:23:08.001Z</time></trkpt><trkpt lat="44.96530641026261" lon="11.939962796080932"><ele>0.0</ele><time>2026-04-26T17:23:09.001Z</time></trkpt><trkpt lat="44.96528186290027" lon="11.939659558937276"><ele>0.0</ele><time>2026-04-26T17:23:10.001Z</time></trkpt><trkpt lat="44.96525932301455" lon="11.939356576133445"><ele>0.0</ele><time>2026-04-26T17:23:11.001Z</time></trkpt><trkpt lat="44.965218326343724" lon="11.939043874077822"><ele>0.0</ele><time>2026-04-26T17:23:12.001Z</time></trkpt><trkpt lat="44.965157531362244" lon="11.938751459812211"><ele>0.0</ele><time>2026-04-26T17:23:13.001Z</time></trkpt><trkpt lat="44.965094400699535" lon="11.938453845800408"><ele>0.0</ele><time>2026-04-26T17:23:14.001Z</time></trkpt><trkpt lat="44.965039126944944" lon="11.938172618177036"><ele>0.0</ele><time>2026-04-26T17:23:15.001Z</time></trkpt><trkpt lat="44.96498093487008" lon="11.937896138124232"><ele>0.0</ele><time>2026-04-26T17:23:16.001Z</time></trkpt><trkpt lat="44.9649248488343" lon="11.937613093405169"><ele>0.0</ele><time>2026-04-26T17:23:17.001Z</time></trkpt><trkpt lat="44.96487036057732" lon="11.937329182401752"><ele>0.0</ele><time>2026-04-26T17:23:18.001Z</time></trkpt><trkpt lat="44.96481373183885" lon="11.937059721642445"><ele>0.0</ele><time>2026-04-26T17:23:19.001Z</time></trkpt><trkpt lat="44.96476384601704" lon="11.936767183809545"><ele>0.0</ele><time>2026-04-26T17:23:20.001Z</time></trkpt><trkpt lat="44.96469759364989" lon="11.936484744963007"><ele>0.0</ele><time>2026-04-26T17:23:21.001Z</time></trkpt><trkpt lat="44.96464247293826" lon="11.936205180722848"><ele>0.0</ele><time>2026-04-26T17:23:22.001Z</time></trkpt><trkpt lat="44.96459498501405" lon="11.935942563900273"><ele>0.0</ele><time>2026-04-26T17:23:23.001Z</time></trkpt><trkpt lat="44.96453941558355" lon="11.935679440056177"><ele>0.0</ele><time>2026-04-26T17:23:24.001Z</time></trkpt><trkpt lat="44.96447917611802" lon="11.935397382264139"><ele>0.0</ele><time>2026-04-26T17:23:25.001Z</time></trkpt><trkpt lat="44.964432900801256" lon="11.935124341084917"><ele>0.0</ele><time>2026-04-26T17:23:26.001Z</time></trkpt><trkpt lat="44.9643964518846" lon="11.934828380505332"><ele>0.0</ele><time>2026-04-26T17:23:27.001Z</time></trkpt><trkpt lat="44.96436985198094" lon="11.9345459554163"><ele>0.0</ele><time>2026-04-26T17:23:28.001Z</time></trkpt><trkpt lat="44.96437364229458" lon="11.934300695620783"><ele>0.0</ele><time>2026-04-26T17:23:29.001Z</time></trkpt><trkpt lat="44.96435759481293" lon="11.93398381471764"><ele>0.0</ele><time>2026-04-26T17:23:30.001Z</time></trkpt><trkpt lat="44.96433911527421" lon="11.933664137935338"><ele>0.5</ele><time>2026-04-26T17:23:31.001Z</time></trkpt><trkpt lat="44.96432083441557" lon="11.933307015907866"><ele>1.0</ele><time>2026-04-26T17:23:32.001Z</time></trkpt><trkpt lat="44.96433700878645" lon="11.932962665913506"><ele>1.0</ele><time>2026-04-26T17:23:33.001Z</time></trkpt><trkpt lat="44.96441814377459" lon="11.932564663648625"><ele>1.0</ele><time>2026-04-26T17:23:34.001Z</time></trkpt><trkpt lat="44.96450470031474" lon="11.932139774812798"><ele>1.0</ele><time>2026-04-26T17:23:35.001Z</time></trkpt><trkpt lat="44.964586207609024" lon="11.931729559393997"><ele>1.0</ele><time>2026-04-26T17:23:36.001Z</time></trkpt><trkpt lat="44.964653204400065" lon="11.931329860745679"><ele>1.0</ele><time>2026-04-26T17:23:37.001Z</time></trkpt><trkpt lat="44.96496450397068" lon="11.930927068317088"><ele>1.0</ele><time>2026-04-26T17:23:38.001Z</time></trkpt><trkpt lat="44.96515003557687" lon="11.930575657141215"><ele>0.5</ele><time>2026-04-26T17:23:39.001Z</time></trkpt><trkpt lat="44.96533915774523" lon="11.93027302482389"><ele>0.0</ele><time>2026-04-26T17:23:40.001Z</time></trkpt><trkpt lat="44.965510270622914" lon="11.929980834839071"><ele>0.0</ele><time>2026-04-26T17:23:41.001Z</time></trkpt><trkpt lat="44.965655823595924" lon="11.929649063290585"><ele>0.0</ele><time>2026-04-26T17:23:42.001Z</time></trkpt><trkpt lat="44.96579307995879" lon="11.929304800915807"><ele>0.5</ele><time>2026-04-26T17:23:43.001Z</time></trkpt><trkpt lat="44.96591135325727" lon="11.928951272612254"><ele>1.0</ele><time>2026-04-26T17:23:44.001Z</time></trkpt><trkpt lat="44.96601181881277" lon="11.928622367202037"><ele>1.0</ele><time>2026-04-26T17:23:45Z</time></trkpt><trkpt lat="44.966103033924384" lon="11.92830570584244"><ele>1.0</ele><time>2026-04-26T17:23:46Z</time></trkpt><trkpt lat="44.96617861896269" lon="11.928013721646833"><ele>1.0</ele><time>2026-04-26T17:23:47Z</time></trkpt><trkpt lat="44.96624425460821" lon="11.927738068157531"><ele>1.0</ele><time>2026-04-26T17:23:48Z</time></trkpt><trkpt lat="44.96630257016069" lon="11.92746368647116"><ele>1.0</ele><time>2026-04-26T17:23:49Z</time></trkpt><trkpt lat="44.96633870374951" lon="11.92716298683895"><ele>0.5</ele><time>2026-04-26T17:23:50Z</time></trkpt><trkpt lat="44.966358784789115" lon="11.926823617576893"><ele>0.0</ele><time>2026-04-26T17:23:51Z</time></trkpt><trkpt lat="44.96638606430257" lon="11.926444282896792"><ele>0.0</ele><time>2026-04-26T17:23:52Z</time></trkpt><trkpt lat="44.966404946760505" lon="11.926041190210947"><ele>0.0</ele><time>2026-04-26T17:23:53Z</time></trkpt><trkpt lat="44.966419790290686" lon="11.925639702540925"><ele>0.5</ele><time>2026-04-26T17:23:54Z</time></trkpt><trkpt lat="44.96642572318049" lon="11.925238167039018"><ele>1.0</ele><time>2026-04-26T17:23:55Z</time></trkpt><trkpt lat="44.96639842815032" lon="11.924822489068225"><ele>0.0</ele><time>2026-04-26T17:23:56Z</time></trkpt><trkpt lat="44.966321665135226" lon="11.924379859905837"><ele>-1.0</ele><time>2026-04-26T17:23:57Z</time></trkpt><trkpt lat="44.966208429644645" lon="11.923936406434281"><ele>-1.5</ele><time>2026-04-26T17:23:58Z</time></trkpt><trkpt lat="44.96610274957918" lon="11.923532405430466"><ele>-2.0</ele><time>2026-04-26T17:23:59Z</time></trkpt><trkpt lat="44.966010025148634" lon="11.923170219197495"><ele>-2.0</ele><time>2026-04-26T17:24:00Z</time></trkpt><trkpt lat="44.96590385709986" lon="11.922844885029917"><ele>-2.0</ele><time>2026-04-26T17:24:01Z</time></trkpt><trkpt lat="44.96583028003559" lon="11.922535865002683"><ele>-1.6666666666666665</ele><time>2026-04-26T17:24:02Z</time></trkpt><trkpt lat="44.965758629600096" lon="11.922236679477441"><ele>-1.3333333333333333</ele><time>2026-04-26T17:24:03Z</time></trkpt><trkpt lat="44.96568840631476" lon="11.921941986616302"><ele>-1.0</ele><time>2026-04-26T17:24:04Z</time></trkpt><trkpt lat="44.96561967307356" lon="11.921641601243888"><ele>-1.0</ele><time>2026-04-26T17:24:05Z</time></trkpt><trkpt lat="44.9655541707505" lon="11.921350562884648"><ele>-1.0</ele><time>2026-04-26T17:24:06Z</time></trkpt><trkpt lat="44.96548678169112" lon="11.921065728398744"><ele>-1.0</ele><time>2026-04-26T17:24:07Z</time></trkpt><trkpt lat="44.965419203286864" lon="11.920782252790522"><ele>-1.0</ele><time>2026-04-26T17:24:08Z</time></trkpt><trkpt lat="44.96535405778333" lon="11.92050963874255"><ele>-1.0</ele><time>2026-04-26T17:24:09Z</time></trkpt><trkpt lat="44.965293802133566" lon="11.92024510622202"><ele>-1.0</ele><time>2026-04-26T17:24:10Z</time></trkpt><trkpt lat="44.96523414579055" lon="11.919979528999951"><ele>-1.0</ele><time>2026-04-26T17:24:11Z</time></trkpt><trkpt lat="44.965169093530314" lon="11.919710887871195"><ele>-1.0</ele><time>2026-04-26T17:24:12Z</time></trkpt><trkpt lat="44.96510460765265" lon="11.919436530220601"><ele>-1.0</ele><time>2026-04-26T17:24:13Z</time></trkpt><trkpt lat="44.96504398646928" lon="11.919151867844793"><ele>-0.3333333333333333</ele><time>2026-04-26T17:24:14Z</time></trkpt><trkpt lat="44.964982972999856" lon="11.91887049431018"><ele>0.3333333333333333</ele><time>2026-04-26T17:24:15Z</time></trkpt><trkpt lat="44.964920642382445" lon="11.918596512807966"><ele>1.0</ele><time>2026-04-26T17:24:16Z</time></trkpt><trkpt lat="44.964858135128054" lon="11.918323448450177"><ele>1.0</ele><time>2026-04-26T17:24:17Z</time></trkpt><trkpt lat="44.964795407644615" lon="11.918052633397766"><ele>1.0</ele><time>2026-04-26T17:24:18Z</time></trkpt><trkpt lat="44.964730340135866" lon="11.917779296736628"><ele>1.0</ele><time>2026-04-26T17:24:19Z</time></trkpt><trkpt lat="44.964668460336085" lon="11.91751542316808"><ele>0.6666666666666666</ele><time>2026-04-26T17:24:20Z</time></trkpt><trkpt lat="44.964613144686886" lon="11.917259449612638"><ele>0.3333333333333333</ele><time>2026-04-26T17:24:21Z</time></trkpt><trkpt lat="44.964553552854426" lon="11.91700446804123"><ele>0.0</ele><time>2026-04-26T17:24:22Z</time></trkpt><trkpt lat="44.96449168624589" lon="11.916755402990654"><ele>-0.3333333333333333</ele><time>2026-04-26T17:24:23Z</time></trkpt><trkpt lat="44.9644308347127" lon="11.916503284943197"><ele>-0.6666666666666666</ele><time>2026-04-26T17:24:24Z</time></trkpt><trkpt lat="44.96437339592047" lon="11.916247420540758"><ele>-1.0</ele><time>2026-04-26T17:24:25Z</time></trkpt><trkpt lat="44.96431525511167" lon="11.915988178739541"><ele>-1.0</ele><time>2026-04-26T17:24:26Z</time></trkpt><trkpt lat="44.9642556793479" lon="11.915733067766672"><ele>-1.0</ele><time>2026-04-26T17:24:27Z</time></trkpt><trkpt lat="44.96419795356303" lon="11.915476174955911"><ele>-1.0</ele><time>2026-04-26T17:24:28Z</time></trkpt><trkpt lat="44.96413858006302" lon="11.915216897966499"><ele>-1.0</ele><time>2026-04-26T17:24:29Z</time></trkpt><trkpt lat="44.96408184901387" lon="11.914959661817973"><ele>-1.0</ele><time>2026-04-26T17:24:30Z</time></trkpt><trkpt lat="44.964018859905984" lon="11.914706747584544"><ele>-1.0</ele><time>2026-04-26T17:24:31Z</time></trkpt><trkpt lat="44.96396015435116" lon="11.914450501192817"><ele>-1.0</ele><time>2026-04-26T17:24:32Z</time></trkpt><trkpt lat="44.963899975365415" lon="11.914191577967774"><ele>-1.0</ele><time>2026-04-26T17:24:33Z</time></trkpt><trkpt lat="44.9638420944761" lon="11.913937613360167"><ele>-1.0</ele><time>2026-04-26T17:24:34Z</time></trkpt><trkpt lat="44.963779696785906" lon="11.913669242395228"><ele>-1.0</ele><time>2026-04-26T17:24:35Z</time></trkpt><trkpt lat="44.96371756058471" lon="11.913426009652035"><ele>-1.0</ele><time>2026-04-26T17:24:36Z</time></trkpt><trkpt lat="44.9636415068136" lon="11.913153053839693"><ele>-1.0</ele><time>2026-04-26T17:24:37Z</time></trkpt><trkpt lat="44.96357327819932" lon="11.912888431783468"><ele>-1.0</ele><time>2026-04-26T17:24:38Z</time></trkpt><trkpt lat="44.96352692164159" lon="11.912662320003442"><ele>-1.0</ele><time>2026-04-26T17:24:39Z</time></trkpt><trkpt lat="44.96349021899468" lon="11.912494161080453"><ele>-1.0</ele><time>2026-04-26T17:24:40Z</time></trkpt><trkpt lat="44.963446922203566" lon="11.912289505323537"><ele>-1.0</ele><time>2026-04-26T17:24:41Z</time></trkpt><trkpt lat="44.963405690855105" lon="11.912095556895984"><ele>-1.0</ele><time>2026-04-26T17:24:42Z</time></trkpt><trkpt lat="44.963368851552765" lon="11.9119315062936"><ele>-1.0</ele><time>2026-04-26T17:24:43Z</time></trkpt><trkpt lat="44.963340434801474" lon="11.911768623477224"><ele>-1.0</ele><time>2026-04-26T17:24:44Z</time></trkpt><trkpt lat="44.96332546025822" lon="11.911636216027867"><ele>-1.0</ele><time>2026-04-26T17:24:45Z</time></trkpt><trkpt lat="44.96330996894997" lon="11.911529639900461"><ele>-1.0</ele><time>2026-04-26T17:24:46Z</time></trkpt><trkpt lat="44.96327664495556" lon="11.911430842191047"><ele>-0.6000000000000001</ele><time>2026-04-26T17:24:48Z</time></trkpt><trkpt lat="44.96322212047103" lon="11.911328952469042"><ele>-0.20000000000000007</ele><time>2026-04-26T17:25:06Z</time></trkpt><trkpt lat="44.96318179484805" lon="11.911196803711062"><ele>0.20000000000000007</ele><time>2026-04-26T17:25:07Z</time></trkpt><trkpt lat="44.96316073449661" lon="11.911046946584994"><ele>0.6000000000000001</ele><time>2026-04-26T17:25:08Z</time></trkpt><trkpt lat="44.96312752197608" lon="11.910887803171688"><ele>1.0</ele><time>2026-04-26T17:25:09Z</time></trkpt><trkpt lat="44.96308939414468" lon="11.91072310883006"><ele>1.0</ele><time>2026-04-26T17:25:10Z</time></trkpt><trkpt lat="44.9630490671942" lon="11.910551215173967"><ele>1.0</ele><time>2026-04-26T17:25:11Z</time></trkpt><trkpt lat="44.96299913905161" lon="11.910381998815058"><ele>1.0</ele><time>2026-04-26T17:25:12Z</time></trkpt><trkpt lat="44.9629546090141" lon="11.910235354778333"><ele>1.0</ele><time>2026-04-26T17:25:13Z</time></trkpt><trkpt lat="44.96291773087743" lon="11.910105518427399"><ele>0.9999999999999999</ele><time>2026-04-26T17:25:14Z</time></trkpt><trkpt lat="44.96288326447555" lon="11.909988793854803"><ele>1.0</ele><time>2026-04-26T17:25:15Z</time></trkpt><trkpt lat="44.962853188285735" lon="11.90989066110539"><ele>1.0</ele><time>2026-04-26T17:25:16.001Z</time></trkpt><trkpt lat="44.962854043967894" lon="11.909781019330186"><ele>1.0</ele><time>2026-04-26T17:25:17.001Z</time></trkpt><trkpt lat="44.962895122332185" lon="11.909704163000281"><ele>0.9999999999999999</ele><time>2026-04-26T17:25:18.001Z</time></trkpt><trkpt lat="44.96296376054538" lon="11.909653137118188"><ele>1.0</ele><time>2026-04-26T17:25:19.001Z</time></trkpt><trkpt lat="44.96306865604113" lon="11.90961828061258"><ele>1.0</ele><time>2026-04-26T17:25:20.001Z</time></trkpt><trkpt lat="44.96319839478775" lon="11.909586321933316"><ele>1.0</ele><time>2026-04-26T17:25:21.001Z</time></trkpt><trkpt lat="44.963340565027096" lon="11.90955495909631"><ele>1.0</ele><time>2026-04-26T17:25:22.001Z</time></trkpt><trkpt lat="44.9634859318549" lon="11.909511356617822"><ele>1.0</ele><time>2026-04-26T17:25:23.001Z</time></trkpt><trkpt lat="44.96363331761288" lon="11.909469667744293"><ele>0.6666666666666666</ele><time>2026-04-26T17:25:24.001Z</time></trkpt><trkpt lat="44.96378804817681" lon="11.909423286996033"><ele>0.3333333333333333</ele><time>2026-04-26T17:25:25.001Z</time></trkpt><trkpt lat="44.96393892910765" lon="11.909379641026224"><ele>0.0</ele><time>2026-04-26T17:25:26.001Z</time></trkpt><trkpt lat="44.964077627450806" lon="11.909342267215393"><ele>0.0</ele><time>2026-04-26T17:25:27.001Z</time></trkpt><trkpt lat="44.964207257439824" lon="11.909309889856464"><ele>0.0</ele><time>2026-04-26T17:25:28.001Z</time></trkpt><trkpt lat="44.964341464592835" lon="11.909271817353106"><ele>0.0</ele><time>2026-04-26T17:25:29.001Z</time></trkpt><trkpt lat="44.964481318378" lon="11.909227427390825"><ele>0.0</ele><time>2026-04-26T17:25:30.001Z</time></trkpt><trkpt lat="44.964624605365444" lon="11.90918231459549"><ele>0.0</ele><time>2026-04-26T17:25:31.001Z</time></trkpt><trkpt lat="44.964770159473865" lon="11.909137418718327"><ele>0.0</ele><time>2026-04-26T17:25:32.001Z</time></trkpt><trkpt lat="44.96491679409394" lon="11.909095846194573"><ele>0.0</ele><time>2026-04-26T17:25:33.001Z</time></trkpt><trkpt lat="44.965063396338344" lon="11.909056093762016"><ele>0.0</ele><time>2026-04-26T17:25:34.001Z</time></trkpt><trkpt lat="44.965210977822196" lon="11.909014732251627"><ele>0.0</ele><time>2026-04-26T17:25:35.001Z</time></trkpt><trkpt lat="44.965360084681166" lon="11.90896830779885"><ele>0.0</ele><time>2026-04-26T17:25:36.001Z</time></trkpt><trkpt lat="44.965512178443994" lon="11.908922679293008"><ele>0.0</ele><time>2026-04-26T17:25:37.001Z</time></trkpt><trkpt lat="44.96566502642041" lon="11.908883651863496"><ele>0.0</ele><time>2026-04-26T17:25:38.001Z</time></trkpt><trkpt lat="44.96581907667778" lon="11.908843889211147"><ele>0.0</ele><time>2026-04-26T17:25:39.001Z</time></trkpt><trkpt lat="44.965967527637446" lon="11.90880013950705"><ele>0.0</ele><time>2026-04-26T17:25:40.001Z</time></trkpt><trkpt lat="44.966108043392616" lon="11.90876038670842"><ele>0.0</ele><time>2026-04-26T17:25:41.001Z</time></trkpt><trkpt lat="44.96623905310524" lon="11.908725741197904"><ele>0.0</ele><time>2026-04-26T17:25:42.001Z</time></trkpt><trkpt lat="44.9663568093704" lon="11.908691322599429"><ele>0.0</ele><time>2026-04-26T17:25:43.001Z</time></trkpt><trkpt lat="44.96646177007995" lon="11.908650273014205"><ele>0.0</ele><time>2026-04-26T17:25:44.001Z</time></trkpt><trkpt lat="44.966555917675706" lon="11.908566261698562"><ele>0.0</ele><time>2026-04-26T17:25:45.001Z</time></trkpt><trkpt lat="44.96661987426342" lon="11.908435006898328"><ele>0.0</ele><time>2026-04-26T17:25:46.001Z</time></trkpt><trkpt lat="44.966636879429785" lon="11.908289338433388"><ele>0.0</ele><time>2026-04-26T17:25:47.001Z</time></trkpt><trkpt lat="44.96661872829408" lon="11.90811365722189"><ele>0.0</ele><time>2026-04-26T17:25:48.001Z</time></trkpt><trkpt lat="44.96657564076773" lon="11.907927497587972"><ele>0.3333333333333333</ele><time>2026-04-26T17:25:49.001Z</time></trkpt><trkpt lat="44.96652765410692" lon="11.907725763741317"><ele>0.6666666666666666</ele><time>2026-04-26T17:25:50.001Z</time></trkpt><trkpt lat="44.96648875253547" lon="11.907509919970705"><ele>1.0</ele><time>2026-04-26T17:25:51Z</time></trkpt><trkpt lat="44.966450854058536" lon="11.907283688211184"><ele>1.0</ele><time>2026-04-26T17:25:52Z</time></trkpt><trkpt lat="44.966410762514336" lon="11.907051422773664"><ele>1.0</ele><time>2026-04-26T17:25:53Z</time></trkpt><trkpt lat="44.96637880888365" lon="11.906823195844458"><ele>1.0</ele><time>2026-04-26T17:25:54Z</time></trkpt><trkpt lat="44.96636952137927" lon="11.906613646564935"><ele>0.6666666666666666</ele><time>2026-04-26T17:25:55Z</time></trkpt><trkpt lat="44.96638218714173" lon="11.906416672109941"><ele>0.3333333333333333</ele><time>2026-04-26T17:25:56Z</time></trkpt><trkpt lat="44.96642331628081" lon="11.90620131256743"><ele>0.0</ele><time>2026-04-26T17:25:57Z</time></trkpt><trkpt lat="44.96649266710922" lon="11.905980579555564"><ele>0.0</ele><time>2026-04-26T17:25:58Z</time></trkpt><trkpt lat="44.96657801745399" lon="11.905747771523068"><ele>0.0</ele><time>2026-04-26T17:25:59Z</time></trkpt><trkpt lat="44.96667014540249" lon="11.905497561794077"><ele>0.0</ele><time>2026-04-26T17:26:00Z</time></trkpt><trkpt lat="44.96674696423938" lon="11.905239415098228"><ele>0.0</ele><time>2026-04-26T17:26:01Z</time></trkpt><trkpt lat="44.96679162820147" lon="11.904969347502316"><ele>0.0</ele><time>2026-04-26T17:26:02Z</time></trkpt><trkpt lat="44.96680940660955" lon="11.904682169994102"><ele>0.0</ele><time>2026-04-26T17:26:03Z</time></trkpt><trkpt lat="44.96681434295528" lon="11.904408893866341"><ele>0.6666666666666666</ele><time>2026-04-26T17:26:04Z</time></trkpt><trkpt lat="44.966826336965376" lon="11.904160494130782"><ele>1.3333333333333333</ele><time>2026-04-26T17:26:05Z</time></trkpt><trkpt lat="44.966841461038165" lon="11.903927593971806"><ele>2.0</ele><time>2026-04-26T17:26:06Z</time></trkpt><trkpt lat="44.96685193230664" lon="11.903686775807374"><ele>2.0</ele><time>2026-04-26T17:26:07Z</time></trkpt><trkpt lat="44.96685718628459" lon="11.903446058001226"><ele>2.0</ele><time>2026-04-26T17:26:08Z</time></trkpt><trkpt lat="44.96685647258979" lon="11.903214174966639"><ele>2.0</ele><time>2026-04-26T17:26:09Z</time></trkpt><trkpt lat="44.96684591557658" lon="11.902985052682586"><ele>2.0</ele><time>2026-04-26T17:26:10Z</time></trkpt><trkpt lat="44.96682537764946" lon="11.90274444385942"><ele>2.0</ele><time>2026-04-26T17:26:11Z</time></trkpt><trkpt lat="44.966808116365456" lon="11.902507467626656"><ele>2.0</ele><time>2026-04-26T17:26:12Z</time></trkpt><trkpt lat="44.96679237428411" lon="11.902280339598624"><ele>1.6666666666666665</ele><time>2026-04-26T17:26:13Z</time></trkpt><trkpt lat="44.96677697056976" lon="11.902059045531717"><ele>1.3333333333333333</ele><time>2026-04-26T17:26:14Z</time></trkpt><trkpt lat="44.966762245450994" lon="11.901843531772963"><ele>1.0</ele><time>2026-04-26T17:26:15Z</time></trkpt><trkpt lat="44.96674466747892" lon="11.901632757547036"><ele>1.0</ele><time>2026-04-26T17:26:16Z</time></trkpt><trkpt lat="44.9667396497083" lon="11.901422549904296"><ele>1.0</ele><time>2026-04-26T17:26:17Z</time></trkpt><trkpt lat="44.96675055044797" lon="11.90121783321833"><ele>1.0</ele><time>2026-04-26T17:26:18Z</time></trkpt><trkpt lat="44.966783155784874" lon="11.901020397978249"><ele>1.0</ele><time>2026-04-26T17:26:19Z</time></trkpt><trkpt lat="44.96683645888211" lon="11.900826488176616"><ele>1.0</ele><time>2026-04-26T17:26:20Z</time></trkpt><trkpt lat="44.96689431572792" lon="11.900632705001184"><ele>1.0</ele><time>2026-04-26T17:26:21Z</time></trkpt><trkpt lat="44.96694652278223" lon="11.900447436551703"><ele>1.0</ele><time>2026-04-26T17:26:22Z</time></trkpt><trkpt lat="44.966993187837645" lon="11.900275247565915"><ele>1.0</ele><time>2026-04-26T17:26:23Z</time></trkpt><trkpt lat="44.96704371851687" lon="11.900108068216154"><ele>1.0</ele><time>2026-04-26T17:26:24Z</time></trkpt><trkpt lat="44.96710307657198" lon="11.899938074403423"><ele>1.0</ele><time>2026-04-26T17:26:25Z</time></trkpt><trkpt lat="44.9671641495078" lon="11.899770663184764"><ele>1.0</ele><time>2026-04-26T17:26:26Z</time></trkpt><trkpt lat="44.96722494274388" lon="11.899599925463574"><ele>1.0</ele><time>2026-04-26T17:26:27Z</time></trkpt><trkpt lat="44.96724799992516" lon="11.899434100508666"><ele>1.0</ele><time>2026-04-26T17:26:28Z</time></trkpt><trkpt lat="44.96726787908088" lon="11.899277386409178"><ele>1.0</ele><time>2026-04-26T17:26:29Z</time></trkpt><trkpt lat="44.96728047096111" lon="11.899119905086208"><ele>1.0</ele><time>2026-04-26T17:26:30Z</time></trkpt><trkpt lat="44.9673128931909" lon="11.898953546342748"><ele>1.0</ele><time>2026-04-26T17:26:31Z</time></trkpt><trkpt lat="44.96734465859808" lon="11.898791644195272"><ele>1.25</ele><time>2026-04-26T17:26:32Z</time></trkpt><trkpt lat="44.96736651540839" lon="11.898627553417862"><ele>1.5</ele><time>2026-04-26T17:26:33Z</time></trkpt><trkpt lat="44.9673966498071" lon="11.898475520384807"><ele>1.75</ele><time>2026-04-26T17:26:34Z</time></trkpt><trkpt lat="44.96741238210899" lon="11.898297680962244"><ele>2.0</ele><time>2026-04-26T17:26:35Z</time></trkpt><trkpt lat="44.96740258377439" lon="11.89812381596925"><ele>2.0</ele><time>2026-04-26T17:26:36Z</time></trkpt><trkpt lat="44.96739163731908" lon="11.897945827867233"><ele>2.0</ele><time>2026-04-26T17:26:37Z</time></trkpt><trkpt lat="44.96737518418432" lon="11.89775638711159"><ele>2.0</ele><time>2026-04-26T17:26:38Z</time></trkpt><trkpt lat="44.96735847947913" lon="11.89757037650638"><ele>2.0</ele><time>2026-04-26T17:26:39Z</time></trkpt><trkpt lat="44.967351798110585" lon="11.897383210717095"><ele>2.0</ele><time>2026-04-26T17:26:40Z</time></trkpt><trkpt lat="44.96734523718567" lon="11.897193974015712"><ele>2.0</ele><time>2026-04-26T17:26:41Z</time></trkpt><trkpt lat="44.96732956601705" lon="11.89700412219671"><ele>2.0</ele><time>2026-04-26T17:26:42Z</time></trkpt><trkpt lat="44.967300499092396" lon="11.896822994723971"><ele>2.0</ele><time>2026-04-26T17:26:43Z</time></trkpt><trkpt lat="44.96726269275228" lon="11.896640219676978"><ele>2.25</ele><time>2026-04-26T17:26:44Z</time></trkpt><trkpt lat="44.96723120890404" lon="11.896457101296376"><ele>2.5</ele><time>2026-04-26T17:26:45Z</time></trkpt><trkpt lat="44.96721602352062" lon="11.896272227478912"><ele>2.75</ele><time>2026-04-26T17:26:46Z</time></trkpt><trkpt lat="44.96721720255169" lon="11.896080514566355"><ele>3.0</ele><time>2026-04-26T17:26:47Z</time></trkpt><trkpt lat="44.967236813749835" lon="11.895886767298423"><ele>3.0</ele><time>2026-04-26T17:26:48Z</time></trkpt><trkpt lat="44.967262901447114" lon="11.89570238996092"><ele>3.0</ele><time>2026-04-26T17:26:49Z</time></trkpt><trkpt lat="44.967282145860366" lon="11.895510588318032"><ele>3.0</ele><time>2026-04-26T17:26:50Z</time></trkpt><trkpt lat="44.967295142173924" lon="11.895304915991964"><ele>3.0</ele><time>2026-04-26T17:26:51Z</time></trkpt><trkpt lat="44.967337257798846" lon="11.895105449435505"><ele>2.6666666666666665</ele><time>2026-04-26T17:26:52Z</time></trkpt><trkpt lat="44.967399615515546" lon="11.894910076661594"><ele>2.333333333333333</ele><time>2026-04-26T17:26:53Z</time></trkpt><trkpt lat="44.96747505698391" lon="11.894723643626174"><ele>2.0</ele><time>2026-04-26T17:26:54Z</time></trkpt><trkpt lat="44.96757195648506" lon="11.894528927431978"><ele>2.0</ele><time>2026-04-26T17:26:55Z</time></trkpt><trkpt lat="44.96767474643318" lon="11.894330899130232"><ele>2.0</ele><time>2026-04-26T17:26:56Z</time></trkpt><trkpt lat="44.96779821620904" lon="11.894124468350906"><ele>2.0</ele><time>2026-04-26T17:26:57Z</time></trkpt><trkpt lat="44.96789129329759" lon="11.893922380822382"><ele>2.0</ele><time>2026-04-26T17:26:58Z</time></trkpt><trkpt lat="44.967984497394184" lon="11.893722325122638"><ele>2.0</ele><time>2026-04-26T17:26:59Z</time></trkpt><trkpt lat="44.9680663553835" lon="11.893520679211944"><ele>2.0</ele><time>2026-04-26T17:27:00Z</time></trkpt><trkpt lat="44.968140240772314" lon="11.893287863396482"><ele>2.0</ele><time>2026-04-26T17:27:01Z</time></trkpt><trkpt lat="44.968210293836755" lon="11.89303348754701"><ele>2.0</ele><time>2026-04-26T17:27:02Z</time></trkpt><trkpt lat="44.968268971933426" lon="11.89278000710979"><ele>2.0</ele><time>2026-04-26T17:27:03Z</time></trkpt><trkpt lat="44.96832474441924" lon="11.892550200590568"><ele>1.6666666666666665</ele><time>2026-04-26T17:27:04Z</time></trkpt><trkpt lat="44.96837055260588" lon="11.892325839647118"><ele>1.3333333333333333</ele><time>2026-04-26T17:27:05Z</time></trkpt><trkpt lat="44.96841733842245" lon="11.892095064396484"><ele>1.0</ele><time>2026-04-26T17:27:06Z</time></trkpt><trkpt lat="44.96844637139385" lon="11.8918697860987"><ele>1.3333333333333333</ele><time>2026-04-26T17:27:07Z</time></trkpt><trkpt lat="44.96851117024275" lon="11.891656928762567"><ele>1.6666666666666665</ele><time>2026-04-26T17:27:08Z</time></trkpt><trkpt lat="44.96857931708454" lon="11.891441221760372"><ele>2.0</ele><time>2026-04-26T17:27:09Z</time></trkpt><trkpt lat="44.968610827190616" lon="11.891204134793712"><ele>2.0</ele><time>2026-04-26T17:27:10Z</time></trkpt><trkpt lat="44.96865263968874" lon="11.890968740207413"><ele>2.0</ele><time>2026-04-26T17:27:11Z</time></trkpt><trkpt lat="44.968684909857735" lon="11.890759290427134"><ele>2.0</ele><time>2026-04-26T17:27:12Z</time></trkpt><trkpt lat="44.968683285433755" lon="11.890545173860085"><ele>1.6666666666666665</ele><time>2026-04-26T17:27:13Z</time></trkpt><trkpt lat="44.96864873694209" lon="11.890316810325356"><ele>1.3333333333333333</ele><time>2026-04-26T17:27:14Z</time></trkpt><trkpt lat="44.96858454064037" lon="11.890060957707961"><ele>1.0</ele><time>2026-04-26T17:27:15Z</time></trkpt><trkpt lat="44.968513791073974" lon="11.889832963832644"><ele>1.0</ele><time>2026-04-26T17:27:16Z</time></trkpt><trkpt lat="44.968449596061916" lon="11.889634134455285"><ele>1.0</ele><time>2026-04-26T17:27:17Z</time></trkpt><trkpt lat="44.96836679650224" lon="11.889443259666157"><ele>1.0</ele><time>2026-04-26T17:27:18Z</time></trkpt><trkpt lat="44.96826142151714" lon="11.889285086462978"><ele>1.25</ele><time>2026-04-26T17:27:19Z</time></trkpt><trkpt lat="44.96816124591557" lon="11.889155294806818"><ele>1.5</ele><time>2026-04-26T17:27:20Z</time></trkpt><trkpt lat="44.96806749177571" lon="11.889042531227947"><ele>1.75</ele><time>2026-04-26T17:27:21Z</time></trkpt><trkpt lat="44.9679744620527" lon="11.88894151090573"><ele>2.0</ele><time>2026-04-26T17:27:22Z</time></trkpt><trkpt lat="44.967883266688695" lon="11.888869357041159"><ele>2.0</ele><time>2026-04-26T17:27:23.001Z</time></trkpt><trkpt lat="44.96780372552344" lon="11.88878283664733"><ele>2.0</ele><time>2026-04-26T17:27:24.001Z</time></trkpt><trkpt lat="44.967741017454834" lon="11.888658764024479"><ele>2.0</ele><time>2026-04-26T17:27:25.001Z</time></trkpt><trkpt lat="44.96768608606649" lon="11.888499996954064"><ele>2.0</ele><time>2026-04-26T17:27:26.001Z</time></trkpt><trkpt lat="44.96761693963275" lon="11.88832768871165"><ele>2.0</ele><time>2026-04-26T17:27:27.001Z</time></trkpt><trkpt lat="44.96752922848275" lon="11.888149841900331"><ele>2.0</ele><time>2026-04-26T17:27:28.001Z</time></trkpt><trkpt lat="44.96743502521228" lon="11.887968650084542"><ele>2.0</ele><time>2026-04-26T17:27:29.001Z</time></trkpt><trkpt lat="44.96734625073434" lon="11.887771500325458"><ele>2.0</ele><time>2026-04-26T17:27:30.001Z</time></trkpt><trkpt lat="44.96726750241692" lon="11.887548841509352"><ele>2.0</ele><time>2026-04-26T17:27:31.001Z</time></trkpt><trkpt lat="44.96720176839782" lon="11.887303076556742"><ele>2.0</ele><time>2026-04-26T17:27:32.001Z</time></trkpt><trkpt lat="44.96714611323731" lon="11.887039141105186"><ele>2.0</ele><time>2026-04-26T17:27:33.001Z</time></trkpt><trkpt lat="44.96710293548047" lon="11.886765561200239"><ele>2.0</ele><time>2026-04-26T17:27:34.001Z</time></trkpt><trkpt lat="44.967063173942215" lon="11.886477774974097"><ele>2.0</ele><time>2026-04-26T17:27:35.001Z</time></trkpt><trkpt lat="44.96702610719723" lon="11.88618930124176"><ele>0.33333333333333326</ele><time>2026-04-26T17:27:36.001Z</time></trkpt><trkpt lat="44.96699507575711" lon="11.885927970915345"><ele>-1.3333333333333335</ele><time>2026-04-26T17:27:37.001Z</time></trkpt><trkpt lat="44.96697262465721" lon="11.885690963964308"><ele>-3.0</ele><time>2026-04-26T17:27:38.001Z</time></trkpt><trkpt lat="44.96695665583227" lon="11.885466356738526"><ele>-3.0</ele><time>2026-04-26T17:27:39.001Z</time></trkpt><trkpt lat="44.96695126134345" lon="11.88525802593035"><ele>-3.0</ele><time>2026-04-26T17:27:40.001Z</time></trkpt><trkpt lat="44.96695584224386" lon="11.885056031682483"><ele>-3.0</ele><time>2026-04-26T17:27:41.001Z</time></trkpt><trkpt lat="44.96696666805598" lon="11.88487033943883"><ele>-3.0</ele><time>2026-04-26T17:27:42.001Z</time></trkpt><trkpt lat="44.9669829853373" lon="11.884701090087425"><ele>-2.8</ele><time>2026-04-26T17:27:43.001Z</time></trkpt><trkpt lat="44.96699728470115" lon="11.884544510184027"><ele>-2.5999999999999996</ele><time>2026-04-26T17:27:44.001Z</time></trkpt><trkpt lat="44.96701623395038" lon="11.8843969173201"><ele>-2.4000000000000004</ele><time>2026-04-26T17:27:45.001Z</time></trkpt><trkpt lat="44.96704222665719" lon="11.884246015927621"><ele>-2.2</ele><time>2026-04-26T17:27:46.001Z</time></trkpt><trkpt lat="44.9670765254789" lon="11.884084749716418"><ele>-2.0</ele><time>2026-04-26T17:27:47.001Z</time></trkpt><trkpt lat="44.96712593435602" lon="11.883908414392948"><ele>-2.0</ele><time>2026-04-26T17:27:48.001Z</time></trkpt><trkpt lat="44.96718827109535" lon="11.883714053081698"><ele>-2.0</ele><time>2026-04-26T17:27:49.001Z</time></trkpt><trkpt lat="44.96726663695761" lon="11.883503208656238"><ele>-2.0</ele><time>2026-04-26T17:27:50.001Z</time></trkpt><trkpt lat="44.967348154020364" lon="11.883301036988762"><ele>-2.0</ele><time>2026-04-26T17:27:51.001Z</time></trkpt><trkpt lat="44.96741769832353" lon="11.883085728058"><ele>-2.0</ele><time>2026-04-26T17:27:52.001Z</time></trkpt><trkpt lat="44.96749076680256" lon="11.882868243357594"><ele>-2.0</ele><time>2026-04-26T17:27:53.001Z</time></trkpt><trkpt lat="44.96758601886893" lon="11.882661063659215"><ele>-2.0</ele><time>2026-04-26T17:27:54.001Z</time></trkpt><trkpt lat="44.96768962635661" lon="11.882451957540493"><ele>-2.0</ele><time>2026-04-26T17:27:55.001Z</time></trkpt><trkpt lat="44.9677906803785" lon="11.882233638548314"><ele>-2.0</ele><time>2026-04-26T17:27:56.001Z</time></trkpt><trkpt lat="44.967895552997206" lon="11.88201307886884"><ele>-2.0</ele><time>2026-04-26T17:27:57Z</time></trkpt><trkpt lat="44.96800272365464" lon="11.881793954983717"><ele>-2.0</ele><time>2026-04-26T17:27:58Z</time></trkpt><trkpt lat="44.9681193711832" lon="11.8815811409364"><ele>-2.0</ele><time>2026-04-26T17:27:59Z</time></trkpt><trkpt lat="44.96823846135233" lon="11.881370872170516"><ele>-1.3333333333333333</ele><time>2026-04-26T17:28:00Z</time></trkpt><trkpt lat="44.968359562819536" lon="11.881179385765272"><ele>-0.6666666666666666</ele><time>2026-04-26T17:28:01Z</time></trkpt><trkpt lat="44.96846273191793" lon="11.881005747845181"><ele>0.0</ele><time>2026-04-26T17:28:02Z</time></trkpt><trkpt lat="44.96858972999517" lon="11.88079545164506"><ele>0.3333333333333333</ele><time>2026-04-26T17:28:03Z</time></trkpt><trkpt lat="44.96868869798271" lon="11.880578476959496"><ele>0.6666666666666666</ele><time>2026-04-26T17:28:04Z</time></trkpt><trkpt lat="44.96880410420969" lon="11.880331446562957"><ele>1.0</ele><time>2026-04-26T17:28:05Z</time></trkpt><trkpt lat="44.968917515016116" lon="11.880106519807043"><ele>1.0</ele><time>2026-04-26T17:28:06Z</time></trkpt><trkpt lat="44.96902091078791" lon="11.879911160546415"><ele>1.0</ele><time>2026-04-26T17:28:07Z</time></trkpt><trkpt lat="44.96912178738513" lon="11.879701799328867"><ele>1.0</ele><time>2026-04-26T17:28:08Z</time></trkpt><trkpt lat="44.96920133517356" lon="11.879522361550405"><ele>0.6666666666666666</ele><time>2026-04-26T17:28:09Z</time></trkpt><trkpt lat="44.969287389295644" lon="11.879308593482694"><ele>0.3333333333333333</ele><time>2026-04-26T17:28:10Z</time></trkpt><trkpt lat="44.96938671533723" lon="11.879099815577108"><ele>0.0</ele><time>2026-04-26T17:28:11Z</time></trkpt><trkpt lat="44.96948912884997" lon="11.87884694827008"><ele>0.6666666666666666</ele><time>2026-04-26T17:28:12Z</time></trkpt><trkpt lat="44.969592852235365" lon="11.878596004491065"><ele>1.3333333333333333</ele><time>2026-04-26T17:28:13Z</time></trkpt><trkpt lat="44.969642701517465" lon="11.878326246018787"><ele>2.0</ele><time>2026-04-26T17:28:14Z</time></trkpt><trkpt lat="44.96967042487563" lon="11.878000404096131"><ele>3.0</ele><time>2026-04-26T17:28:15Z</time></trkpt><trkpt lat="44.96967680371996" lon="11.877638201493053"><ele>4.0</ele><time>2026-04-26T17:28:16Z</time></trkpt><trkpt lat="44.969680686952366" lon="11.877256679248841"><ele>4.0</ele><time>2026-04-26T17:28:17Z</time></trkpt><trkpt lat="44.96969175923863" lon="11.876907046132029"><ele>4.0</ele><time>2026-04-26T17:28:18Z</time></trkpt><trkpt lat="44.96970453540391" lon="11.876594792630883"><ele>4.0</ele><time>2026-04-26T17:28:19Z</time></trkpt><trkpt lat="44.96972020161697" lon="11.876301005119599"><ele>4.0</ele><time>2026-04-26T17:28:20Z</time></trkpt><trkpt lat="44.969729771682154" lon="11.876019238193416"><ele>4.0</ele><time>2026-04-26T17:28:21Z</time></trkpt><trkpt lat="44.96974263612334" lon="11.875732372690964"><ele>3.0</ele><time>2026-04-26T17:28:22Z</time></trkpt><trkpt lat="44.96975588357913" lon="11.875451260709546"><ele>2.0</ele><time>2026-04-26T17:28:23Z</time></trkpt><trkpt lat="44.969772769334824" lon="11.875163321694716"><ele>1.0</ele><time>2026-04-26T17:28:24Z</time></trkpt><trkpt lat="44.969790067881576" lon="11.874862928024582"><ele>0.6666666666666666</ele><time>2026-04-26T17:28:25Z</time></trkpt><trkpt lat="44.96981106639591" lon="11.874557890842889"><ele>0.3333333333333333</ele><time>2026-04-26T17:28:26Z</time></trkpt><trkpt lat="44.969826198275044" lon="11.874246891633245"><ele>0.0</ele><time>2026-04-26T17:28:27Z</time></trkpt><trkpt lat="44.96983743590419" lon="11.873931213874112"><ele>0.0</ele><time>2026-04-26T17:28:28Z</time></trkpt><trkpt lat="44.969853877997075" lon="11.87363101660836"><ele>0.0</ele><time>2026-04-26T17:28:29Z</time></trkpt><trkpt lat="44.96986813365147" lon="11.873324017344439"><ele>0.0</ele><time>2026-04-26T17:28:30Z</time></trkpt><trkpt lat="44.96989447344114" lon="11.873010627278552"><ele>0.5</ele><time>2026-04-26T17:28:31Z</time></trkpt><trkpt lat="44.96994278952408" lon="11.872694393412829"><ele>1.0</ele><time>2026-04-26T17:28:32Z</time></trkpt><trkpt lat="44.97002723051935" lon="11.872368425708368"><ele>1.5</ele><time>2026-04-26T17:28:33Z</time></trkpt><trkpt lat="44.970110732076236" lon="11.872013815774803"><ele>2.0</ele><time>2026-04-26T17:28:34Z</time></trkpt><trkpt lat="44.97021217538063" lon="11.871659151370695"><ele>2.0</ele><time>2026-04-26T17:28:35Z</time></trkpt><trkpt lat="44.97029925515705" lon="11.871348943473903"><ele>2.0</ele><time>2026-04-26T17:28:36Z</time></trkpt><trkpt lat="44.97037063020789" lon="11.871049637038112"><ele>1.6666666666666665</ele><time>2026-04-26T17:28:37Z</time></trkpt><trkpt lat="44.970444960555334" lon="11.870769457817502"><ele>1.3333333333333333</ele><time>2026-04-26T17:28:38Z</time></trkpt><trkpt lat="44.97051126709647" lon="11.870497703540835"><ele>1.0</ele><time>2026-04-26T17:28:39Z</time></trkpt><trkpt lat="44.97058130634716" lon="11.870225758370609"><ele>1.0</ele><time>2026-04-26T17:28:40Z</time></trkpt><trkpt lat="44.97066055415667" lon="11.869960170613469"><ele>1.0</ele><time>2026-04-26T17:28:41Z</time></trkpt><trkpt lat="44.9707244446785" lon="11.869670904933843"><ele>1.0</ele><time>2026-04-26T17:28:42Z</time></trkpt><trkpt lat="44.97080179800563" lon="11.869393274399142"><ele>1.3333333333333333</ele><time>2026-04-26T17:28:43Z</time></trkpt><trkpt lat="44.97086000493837" lon="11.869134789187443"><ele>1.6666666666666665</ele><time>2026-04-26T17:28:44Z</time></trkpt><trkpt lat="44.97085868666793" lon="11.86883739710597"><ele>2.0</ele><time>2026-04-26T17:28:45Z</time></trkpt><trkpt lat="44.97082316403454" lon="11.868517418068715"><ele>2.0</ele><time>2026-04-26T17:28:46Z</time></trkpt><trkpt lat="44.970729752613956" lon="11.868196025767688"><ele>2.0</ele><time>2026-04-26T17:28:47Z</time></trkpt><trkpt lat="44.97058107459599" lon="11.867876752504818"><ele>3.0</ele><time>2026-04-26T17:28:48Z</time></trkpt><trkpt lat="44.970456655694" lon="11.867510357738773"><ele>4.0</ele><time>2026-04-26T17:28:49Z</time></trkpt><trkpt lat="44.97037678665781" lon="11.867119631411901"><ele>4.0</ele><time>2026-04-26T17:28:50Z</time></trkpt><trkpt lat="44.97033933299515" lon="11.866704471121306"><ele>4.0</ele><time>2026-04-26T17:28:51Z</time></trkpt><trkpt lat="44.970312268209724" lon="11.866254068964517"><ele>4.5</ele><time>2026-04-26T17:28:52Z</time></trkpt><trkpt lat="44.97025960817074" lon="11.865807803687991"><ele>5.0</ele><time>2026-04-26T17:28:53Z</time></trkpt><trkpt lat="44.97016358405162" lon="11.865396138105597"><ele>3.0</ele><time>2026-04-26T17:28:54Z</time></trkpt><trkpt lat="44.970022521792224" lon="11.86494187983536"><ele>1.0</ele><time>2026-04-26T17:28:55Z</time></trkpt><trkpt lat="44.96989139031638" lon="11.864591758397347"><ele>0.5</ele><time>2026-04-26T17:28:56Z</time></trkpt><trkpt lat="44.969779738229846" lon="11.86422364178501"><ele>0.0</ele><time>2026-04-26T17:28:57Z</time></trkpt><trkpt lat="44.96967760155701" lon="11.863893090612214"><ele>0.0</ele><time>2026-04-26T17:28:58Z</time></trkpt><trkpt lat="44.969579426498456" lon="11.863584286361926"><ele>0.0</ele><time>2026-04-26T17:28:59Z</time></trkpt><trkpt lat="44.969487305757376" lon="11.86327890753137"><ele>0.5</ele><time>2026-04-26T17:29:00Z</time></trkpt><trkpt lat="44.96939444379618" lon="11.862977133039024"><ele>1.0</ele><time>2026-04-26T17:29:01Z</time></trkpt><trkpt lat="44.96930596940336" lon="11.862690031338246"><ele>1.0</ele><time>2026-04-26T17:29:02Z</time></trkpt><trkpt lat="44.96922389413752" lon="11.862417943458274"><ele>1.0</ele><time>2026-04-26T17:29:03Z</time></trkpt><trkpt lat="44.96914416456455" lon="11.862146791195089"><ele>1.0</ele><time>2026-04-26T17:29:04Z</time></trkpt><trkpt lat="44.969074952980606" lon="11.861886824318184"><ele>0.3333333333333333</ele><time>2026-04-26T17:29:05Z</time></trkpt><trkpt lat="44.96900823184147" lon="11.861637330485795"><ele>-0.3333333333333333</ele><time>2026-04-26T17:29:06Z</time></trkpt><trkpt lat="44.96892588689842" lon="11.86136861228726"><ele>-1.0</ele><time>2026-04-26T17:29:07Z</time></trkpt><trkpt lat="44.968840195182096" lon="11.861086299829893"><ele>-1.0</ele><time>2026-04-26T17:29:08Z</time></trkpt><trkpt lat="44.96874973112046" lon="11.860821591507284"><ele>-1.0</ele><time>2026-04-26T17:29:09Z</time></trkpt><trkpt lat="44.968644068590216" lon="11.860535616878833"><ele>-1.0</ele><time>2026-04-26T17:29:10Z</time></trkpt><trkpt lat="44.96857840773901" lon="11.860281924796102"><ele>-0.3333333333333333</ele><time>2026-04-26T17:29:11Z</time></trkpt><trkpt lat="44.9685211270856" lon="11.860011677166305"><ele>0.3333333333333333</ele><time>2026-04-26T17:29:12Z</time></trkpt><trkpt lat="44.96845606856158" lon="11.859730825707121"><ele>1.0</ele><time>2026-04-26T17:29:13Z</time></trkpt><trkpt lat="44.96840986827495" lon="11.859446606509652"><ele>1.3333333333333333</ele><time>2026-04-26T17:29:14Z</time></trkpt><trkpt lat="44.96837100589093" lon="11.859149148852165"><ele>1.6666666666666665</ele><time>2026-04-26T17:29:15Z</time></trkpt><trkpt lat="44.96834003091639" lon="11.858859851708678"><ele>2.0</ele><time>2026-04-26T17:29:16Z</time></trkpt><trkpt lat="44.96830200839312" lon="11.858604800954497"><ele>2.0</ele><time>2026-04-26T17:29:17Z</time></trkpt><trkpt lat="44.968250936486946" lon="11.85836090697791"><ele>2.0</ele><time>2026-04-26T17:29:18Z</time></trkpt><trkpt lat="44.968225891679175" lon="11.858082617861097"><ele>2.0</ele><time>2026-04-26T17:29:19Z</time></trkpt><trkpt lat="44.96820788529652" lon="11.857805450214457"><ele>1.6666666666666665</ele><time>2026-04-26T17:29:20Z</time></trkpt><trkpt lat="44.96817877380836" lon="11.857514391422018"><ele>1.3333333333333333</ele><time>2026-04-26T17:29:21Z</time></trkpt><trkpt lat="44.968132409865646" lon="11.857221873209582"><ele>1.0</ele><time>2026-04-26T17:29:22Z</time></trkpt><trkpt lat="44.9680337768266" lon="11.856927950208046"><ele>0.5</ele><time>2026-04-26T17:29:23Z</time></trkpt><trkpt lat="44.967919949931144" lon="11.85661313054391"><ele>0.0</ele><time>2026-04-26T17:29:24Z</time></trkpt><trkpt lat="44.967815362585" lon="11.856252861269798"><ele>0.5</ele><time>2026-04-26T17:29:25Z</time></trkpt><trkpt lat="44.96770473352761" lon="11.855909031430985"><ele>1.0</ele><time>2026-04-26T17:29:26Z</time></trkpt><trkpt lat="44.96763204225762" lon="11.855585619466863"><ele>1.0</ele><time>2026-04-26T17:29:27Z</time></trkpt><trkpt lat="44.96756958193829" lon="11.855287372303584"><ele>1.0</ele><time>2026-04-26T17:29:28Z</time></trkpt><trkpt lat="44.96748064837114" lon="11.854975358332048"><ele>1.0</ele><time>2026-04-26T17:29:29Z</time></trkpt><trkpt lat="44.96739894639127" lon="11.854648250875035"><ele>1.0</ele><time>2026-04-26T17:29:30Z</time></trkpt><trkpt lat="44.96732736026287" lon="11.854321075987924"><ele>1.5</ele><time>2026-04-26T17:29:31Z</time></trkpt><trkpt lat="44.967269644531044" lon="11.853958905472064"><ele>2.0</ele><time>2026-04-26T17:29:32Z</time></trkpt><trkpt lat="44.96723888733121" lon="11.853590895410965"><ele>2.0</ele><time>2026-04-26T17:29:33Z</time></trkpt><trkpt lat="44.96722793161195" lon="11.853233068504105"><ele>2.0</ele><time>2026-04-26T17:29:34Z</time></trkpt><trkpt lat="44.96723272325055" lon="11.852870259443405"><ele>1.5</ele><time>2026-04-26T17:29:35Z</time></trkpt><trkpt lat="44.967248801123155" lon="11.852499051991972"><ele>1.0</ele><time>2026-04-26T17:29:36Z</time></trkpt><trkpt lat="44.96726828583904" lon="11.85213765701067"><ele>1.0</ele><time>2026-04-26T17:29:37Z</time></trkpt><trkpt lat="44.96729249146535" lon="11.851799642472626"><ele>1.0</ele><time>2026-04-26T17:29:38.001Z</time></trkpt><trkpt lat="44.96730997292588" lon="11.851484923411542"><ele>0.6666666666666666</ele><time>2026-04-26T17:29:39.001Z</time></trkpt><trkpt lat="44.96732559726166" lon="11.851187637133243"><ele>0.3333333333333333</ele><time>2026-04-26T17:29:40.001Z</time></trkpt><trkpt lat="44.96733439389156" lon="11.850902997343193"><ele>0.0</ele><time>2026-04-26T17:29:41.001Z</time></trkpt><trkpt lat="44.96733630232375" lon="11.850629853860731"><ele>0.0</ele><time>2026-04-26T17:29:42.001Z</time></trkpt><trkpt lat="44.967331037660074" lon="11.850361995670987"><ele>0.0</ele><time>2026-04-26T17:29:43.001Z</time></trkpt><trkpt lat="44.96731990485581" lon="11.850101902328754"><ele>0.0</ele><time>2026-04-26T17:29:44.001Z</time></trkpt><trkpt lat="44.96730222797524" lon="11.849839064620252"><ele>0.0</ele><time>2026-04-26T17:29:45.001Z</time></trkpt><trkpt lat="44.96729155869686" lon="11.84957751433415"><ele>0.0</ele><time>2026-04-26T17:29:46.001Z</time></trkpt><trkpt lat="44.967291993378204" lon="11.849317234749423"><ele>0.0</ele><time>2026-04-26T17:29:47.001Z</time></trkpt><trkpt lat="44.96726167655551" lon="11.849063886263497"><ele>0.0</ele><time>2026-04-26T17:29:48.001Z</time></trkpt><trkpt lat="44.96738818969944" lon="11.84876377666593"><ele>0.0</ele><time>2026-04-26T17:29:49.001Z</time></trkpt><trkpt lat="44.96739503686687" lon="11.848510373767985"><ele>0.0</ele><time>2026-04-26T17:29:50.001Z</time></trkpt><trkpt lat="44.96740023574788" lon="11.848261081109323"><ele>0.3333333333333333</ele><time>2026-04-26T17:29:51.001Z</time></trkpt><trkpt lat="44.96741255307435" lon="11.848001884632405"><ele>0.6666666666666666</ele><time>2026-04-26T17:29:52.001Z</time></trkpt><trkpt lat="44.967433918163714" lon="11.84775949974164"><ele>1.0</ele><time>2026-04-26T17:29:53.001Z</time></trkpt><trkpt lat="44.967447706774216" lon="11.84752032781792"><ele>1.0</ele><time>2026-04-26T17:29:54.001Z</time></trkpt><trkpt lat="44.96746186175891" lon="11.847275900480225"><ele>1.0</ele><time>2026-04-26T17:29:55.001Z</time></trkpt><trkpt lat="44.967473727910594" lon="11.847030906664285"><ele>1.0</ele><time>2026-04-26T17:29:56.001Z</time></trkpt><trkpt lat="44.96748248778247" lon="11.84678673931644"><ele>1.0</ele><time>2026-04-26T17:29:57.001Z</time></trkpt><trkpt lat="44.967486010958964" lon="11.846519312278566"><ele>1.0</ele><time>2026-04-26T17:29:58.001Z</time></trkpt><trkpt lat="44.96746904040102" lon="11.846222182557634"><ele>1.0</ele><time>2026-04-26T17:29:59.001Z</time></trkpt><trkpt lat="44.96742775088723" lon="11.845918439354822"><ele>1.0</ele><time>2026-04-26T17:30:00.001Z</time></trkpt><trkpt lat="44.967371624486184" lon="11.84561618551431"><ele>1.0</ele><time>2026-04-26T17:30:01.001Z</time></trkpt><trkpt lat="44.96729150603697" lon="11.84533148691085"><ele>1.0</ele><time>2026-04-26T17:30:02.001Z</time></trkpt><trkpt lat="44.96718801322234" lon="11.845054409192757"><ele>1.0</ele><time>2026-04-26T17:30:03Z</time></trkpt><trkpt lat="44.967067381176385" lon="11.844787722248137"><ele>1.0</ele><time>2026-04-26T17:30:04Z</time></trkpt><trkpt lat="44.96694096730212" lon="11.84456093996447"><ele>1.0</ele><time>2026-04-26T17:30:05Z</time></trkpt><trkpt lat="44.96680790199034" lon="11.844373125572902"><ele>1.0</ele><time>2026-04-26T17:30:06Z</time></trkpt><trkpt lat="44.966668780771464" lon="11.844219332778257"><ele>1.0</ele><time>2026-04-26T17:30:07Z</time></trkpt><trkpt lat="44.96652470932305" lon="11.844069742848625"><ele>1.0</ele><time>2026-04-26T17:30:08Z</time></trkpt><trkpt lat="44.9663770536661" lon="11.84394261526927"><ele>1.0</ele><time>2026-04-26T17:30:09Z</time></trkpt><trkpt lat="44.96623045379122" lon="11.843827451320385"><ele>1.0</ele><time>2026-04-26T17:30:10Z</time></trkpt><trkpt lat="44.96607629876779" lon="11.843743963925881"><ele>1.0</ele><time>2026-04-26T17:30:11Z</time></trkpt><trkpt lat="44.96593447709708" lon="11.843652990622731"><ele>1.0</ele><time>2026-04-26T17:30:12Z</time></trkpt><trkpt lat="44.96580648561014" lon="11.843548608408103"><ele>1.0</ele><time>2026-04-26T17:30:13Z</time></trkpt><trkpt lat="44.9656770327588" lon="11.843445034084464"><ele>1.0</ele><time>2026-04-26T17:30:14Z</time></trkpt><trkpt lat="44.96554565436751" lon="11.843347383982044"><ele>1.0</ele><time>2026-04-26T17:30:15Z</time></trkpt><trkpt lat="44.96541146297563" lon="11.84324686339253"><ele>1.0</ele><time>2026-04-26T17:30:16Z</time></trkpt><trkpt lat="44.96527786661565" lon="11.84314960995788"><ele>1.0</ele><time>2026-04-26T17:30:17Z</time></trkpt><trkpt lat="44.96514607079312" lon="11.843041220821341"><ele>1.0</ele><time>2026-04-26T17:30:18Z</time></trkpt><trkpt lat="44.965011538985166" lon="11.842937455727288"><ele>1.0</ele><time>2026-04-26T17:30:19Z</time></trkpt><trkpt lat="44.9648793536718" lon="11.84283090115334"><ele>1.0</ele><time>2026-04-26T17:30:20Z</time></trkpt><trkpt lat="44.96473859616156" lon="11.842732504680772"><ele>1.0</ele><time>2026-04-26T17:30:21Z</time></trkpt><trkpt lat="44.964606167388425" lon="11.842624687364378"><ele>1.0</ele><time>2026-04-26T17:30:22Z</time></trkpt><trkpt lat="44.96447329866184" lon="11.842529681792898"><ele>1.0</ele><time>2026-04-26T17:30:23Z</time></trkpt><trkpt lat="44.96433325621297" lon="11.842447451224132"><ele>1.0</ele><time>2026-04-26T17:30:24Z</time></trkpt><trkpt lat="44.96418727316372" lon="11.842375557825896"><ele>0.75</ele><time>2026-04-26T17:30:25Z</time></trkpt><trkpt lat="44.96404688592353" lon="11.842318426623512"><ele>0.5</ele><time>2026-04-26T17:30:26Z</time></trkpt><trkpt lat="44.963909815240164" lon="11.84226474672924"><ele>0.25</ele><time>2026-04-26T17:30:27Z</time></trkpt><trkpt lat="44.9637811080133" lon="11.842198263400347"><ele>0.0</ele><time>2026-04-26T17:30:28Z</time></trkpt><trkpt lat="44.96368012775515" lon="11.842100445313996"><ele>0.0</ele><time>2026-04-26T17:30:29Z</time></trkpt><trkpt lat="44.96361018331523" lon="11.841960754369081"><ele>0.0</ele><time>2026-04-26T17:30:30Z</time></trkpt><trkpt lat="44.963590098057544" lon="11.841794239079736"><ele>0.0</ele><time>2026-04-26T17:30:31Z</time></trkpt><trkpt lat="44.96360094705167" lon="11.841597285636237"><ele>0.0</ele><time>2026-04-26T17:30:32Z</time></trkpt><trkpt lat="44.963625271170066" lon="11.841363713699481"><ele>0.3333333333333333</ele><time>2026-04-26T17:30:33Z</time></trkpt><trkpt lat="44.963652286419446" lon="11.841124919452179"><ele>0.6666666666666666</ele><time>2026-04-26T17:30:34Z</time></trkpt><trkpt lat="44.963674153874074" lon="11.840895242322663"><ele>1.0</ele><time>2026-04-26T17:30:35Z</time></trkpt><trkpt lat="44.96369243285566" lon="11.840687252284358"><ele>1.0</ele><time>2026-04-26T17:30:36Z</time></trkpt><trkpt lat="44.963704978922934" lon="11.840478422716545"><ele>1.0</ele><time>2026-04-26T17:30:37Z</time></trkpt><trkpt lat="44.96372119761174" lon="11.840267183817355"><ele>1.0</ele><time>2026-04-26T17:30:38Z</time></trkpt><trkpt lat="44.963736875524845" lon="11.840058484651728"><ele>1.0</ele><time>2026-04-26T17:30:39Z</time></trkpt><trkpt lat="44.96374379387868" lon="11.839852411571588"><ele>1.25</ele><time>2026-04-26T17:30:40Z</time></trkpt><trkpt lat="44.96375372736723" lon="11.83964591607052"><ele>1.5</ele><time>2026-04-26T17:30:41Z</time></trkpt><trkpt lat="44.96376248889225" lon="11.839443156884638"><ele>1.75</ele><time>2026-04-26T17:30:42Z</time></trkpt><trkpt lat="44.96376858926114" lon="11.83924303018492"><ele>2.0</ele><time>2026-04-26T17:30:43Z</time></trkpt><trkpt lat="44.963776422555426" lon="11.839044461066688"><ele>2.0</ele><time>2026-04-26T17:30:44Z</time></trkpt><trkpt lat="44.96377934329882" lon="11.838849825294346"><ele>2.0</ele><time>2026-04-26T17:30:45Z</time></trkpt><trkpt lat="44.963783723076986" lon="11.838650858665451"><ele>2.0</ele><time>2026-04-26T17:30:46Z</time></trkpt><trkpt lat="44.96378249822002" lon="11.838454993255473"><ele>2.0</ele><time>2026-04-26T17:30:47Z</time></trkpt><trkpt lat="44.96378113126423" lon="11.838259690360827"><ele>2.0</ele><time>2026-04-26T17:30:48Z</time></trkpt><trkpt lat="44.963786416044876" lon="11.83805878518555"><ele>2.0</ele><time>2026-04-26T17:30:49Z</time></trkpt><trkpt lat="44.96379119421323" lon="11.83785994376489"><ele>2.0</ele><time>2026-04-26T17:30:50Z</time></trkpt><trkpt lat="44.963798348218894" lon="11.837661371153517"><ele>2.0</ele><time>2026-04-26T17:30:51Z</time></trkpt><trkpt lat="44.963801595989004" lon="11.83746617898425"><ele>1.75</ele><time>2026-04-26T17:30:52Z</time></trkpt><trkpt lat="44.963812666208" lon="11.837269622578704"><ele>1.5</ele><time>2026-04-26T17:30:53Z</time></trkpt><trkpt lat="44.96382858246885" lon="11.837083678834276"><ele>1.25</ele><time>2026-04-26T17:30:54Z</time></trkpt><trkpt lat="44.96383431720704" lon="11.836923073470702"><ele>1.0</ele><time>2026-04-26T17:30:55Z</time></trkpt><trkpt lat="44.963847188061486" lon="11.836774718212649"><ele>0.8333333333333333</ele><time>2026-04-26T17:30:56Z</time></trkpt><trkpt lat="44.96386209697949" lon="11.83663450275726"><ele>0.6666666666666666</ele><time>2026-04-26T17:30:57Z</time></trkpt><trkpt lat="44.963876369723195" lon="11.83650776727657"><ele>0.5</ele><time>2026-04-26T17:30:58Z</time></trkpt><trkpt lat="44.963887224095956" lon="11.836395340156484"><ele>0.3333333333333333</ele><time>2026-04-26T17:30:59Z</time></trkpt><trkpt lat="44.963903929636466" lon="11.836290831315806"><ele>0.16666666666666666</ele><time>2026-04-26T17:31:00Z</time></trkpt><trkpt lat="44.96391448677892" lon="11.836151948019419"><ele>0.0</ele><time>2026-04-26T17:31:02Z</time></trkpt><trkpt lat="44.96392557452002" lon="11.836047684355732"><ele>0.16666666666666666</ele><time>2026-04-26T17:31:05Z</time></trkpt><trkpt lat="44.96393668866754" lon="11.835958123265806"><ele>0.3333333333333333</ele><time>2026-04-26T17:31:36.001Z</time></trkpt><trkpt lat="44.96394323481254" lon="11.835782077398632"><ele>0.5</ele><time>2026-04-26T17:31:38.001Z</time></trkpt><trkpt lat="44.96394657951571" lon="11.835683683071553"><ele>0.6666666666666666</ele><time>2026-04-26T17:31:39.001Z</time></trkpt><trkpt lat="44.9639514178773" lon="11.835573275870702"><ele>0.8333333333333333</ele><time>2026-04-26T17:31:40.001Z</time></trkpt><trkpt lat="44.963957156520244" lon="11.835445702021447"><ele>1.0</ele><time>2026-04-26T17:31:41.001Z</time></trkpt><trkpt lat="44.96396683250652" lon="11.835303749629231"><ele>1.0</ele><time>2026-04-26T17:31:42.001Z</time></trkpt><trkpt lat="44.96397085045114" lon="11.835146325682024"><ele>1.0</ele><time>2026-04-26T17:31:43.001Z</time></trkpt><trkpt lat="44.9639726642556" lon="11.834997303990999"><ele>1.0</ele><time>2026-04-26T17:31:44.001Z</time></trkpt><trkpt lat="44.96397125119147" lon="11.834849561090406"><ele>1.0</ele><time>2026-04-26T17:31:45.001Z</time></trkpt><trkpt lat="44.96396858445266" lon="11.834699178041001"><ele>1.0</ele><time>2026-04-26T17:31:46.001Z</time></trkpt><trkpt lat="44.9639688592436" lon="11.834540715409767"><ele>1.0</ele><time>2026-04-26T17:31:47.001Z</time></trkpt><trkpt lat="44.96397438553697" lon="11.834375370506297"><ele>1.0</ele><time>2026-04-26T17:31:48.001Z</time></trkpt><trkpt lat="44.963973612721304" lon="11.834205493690556"><ele>1.0</ele><time>2026-04-26T17:31:49.001Z</time></trkpt><trkpt lat="44.96398010349716" lon="11.834048025232068"><ele>1.0</ele><time>2026-04-26T17:31:50.001Z</time></trkpt><trkpt lat="44.96397211986502" lon="11.833870949368997"><ele>1.0</ele><time>2026-04-26T17:31:51.001Z</time></trkpt><trkpt lat="44.96396901888339" lon="11.833705710692978"><ele>1.0</ele><time>2026-04-26T17:31:52.001Z</time></trkpt><trkpt lat="44.96396699706817" lon="11.833527779032039"><ele>1.0</ele><time>2026-04-26T17:31:53.001Z</time></trkpt><trkpt lat="44.96396931126901" lon="11.83335015618451"><ele>1.0</ele><time>2026-04-26T17:31:54.001Z</time></trkpt><trkpt lat="44.96397127508584" lon="11.833166525778836"><ele>1.0</ele><time>2026-04-26T17:31:55.001Z</time></trkpt><trkpt lat="44.96396371857816" lon="11.8329803463505"><ele>1.0</ele><time>2026-04-26T17:31:56.001Z</time></trkpt><trkpt lat="44.963954811823065" lon="11.8327848820026"><ele>1.0</ele><time>2026-04-26T17:31:57.001Z</time></trkpt><trkpt lat="44.96392980013818" lon="11.83260466520908"><ele>1.0</ele><time>2026-04-26T17:31:58.001Z</time></trkpt><trkpt lat="44.963904707035375" lon="11.83241062736368"><ele>1.0</ele><time>2026-04-26T17:31:59.001Z</time></trkpt><trkpt lat="44.96387678671576" lon="11.832228664909952"><ele>1.0</ele><time>2026-04-26T17:32:00.001Z</time></trkpt><trkpt lat="44.96384958874564" lon="11.832037060557939"><ele>1.0</ele><time>2026-04-26T17:32:01.001Z</time></trkpt><trkpt lat="44.96382303670119" lon="11.831836961143374"><ele>1.0</ele><time>2026-04-26T17:32:02.001Z</time></trkpt><trkpt lat="44.96378994431209" lon="11.83161965455437"><ele>1.0</ele><time>2026-04-26T17:32:03.001Z</time></trkpt><trkpt lat="44.96376144297617" lon="11.83139047400468"><ele>1.0</ele><time>2026-04-26T17:32:04.001Z</time></trkpt><trkpt lat="44.96373954703209" lon="11.831157882491949"><ele>1.0</ele><time>2026-04-26T17:32:05.001Z</time></trkpt><trkpt lat="44.96370896026041" lon="11.83094158164891"><ele>0.75</ele><time>2026-04-26T17:32:06.001Z</time></trkpt><trkpt lat="44.96367806818862" lon="11.83071731118532"><ele>0.5</ele><time>2026-04-26T17:32:07.001Z</time></trkpt><trkpt lat="44.96365695832444" lon="11.830502635643008"><ele>0.25</ele><time>2026-04-26T17:32:08.001Z</time></trkpt><trkpt lat="44.963642200277796" lon="11.830328927527502"><ele>0.0</ele><time>2026-04-26T17:32:09Z</time></trkpt><trkpt lat="44.96360957337571" lon="11.830124579474035"><ele>0.0</ele><time>2026-04-26T17:32:10Z</time></trkpt><trkpt lat="44.963575920041066" lon="11.829945856087775"><ele>0.0</ele><time>2026-04-26T17:32:11Z</time></trkpt><trkpt lat="44.96353421969414" lon="11.829746239949626"><ele>0.0</ele><time>2026-04-26T17:32:12Z</time></trkpt><trkpt lat="44.963464611979255" lon="11.829579193589089"><ele>0.0</ele><time>2026-04-26T17:32:13Z</time></trkpt><trkpt lat="44.963371914584066" lon="11.829413787219531"><ele>0.6666666666666666</ele><time>2026-04-26T17:32:14Z</time></trkpt><trkpt lat="44.96327896259212" lon="11.829254012030669"><ele>1.3333333333333333</ele><time>2026-04-26T17:32:15Z</time></trkpt><trkpt lat="44.96314788082216" lon="11.829075502171314"><ele>2.0</ele><time>2026-04-26T17:32:16Z</time></trkpt><trkpt lat="44.9630467105624" lon="11.828901385944047"><ele>2.0</ele><time>2026-04-26T17:32:17Z</time></trkpt><trkpt lat="44.962940900585544" lon="11.828724931477717"><ele>2.0</ele><time>2026-04-26T17:32:18Z</time></trkpt><trkpt lat="44.96283706578104" lon="11.828551523707493"><ele>2.0</ele><time>2026-04-26T17:32:19Z</time></trkpt><trkpt lat="44.962732280631194" lon="11.828388480891665"><ele>1.6666666666666665</ele><time>2026-04-26T17:32:20Z</time></trkpt><trkpt lat="44.96263389418597" lon="11.828222836232522"><ele>1.3333333333333333</ele><time>2026-04-26T17:32:21Z</time></trkpt><trkpt lat="44.96253927409823" lon="11.828047286443047"><ele>1.0</ele><time>2026-04-26T17:32:22Z</time></trkpt><trkpt lat="44.96243380602924" lon="11.827884945613107"><ele>1.6666666666666665</ele><time>2026-04-26T17:32:23Z</time></trkpt><trkpt lat="44.96231972995097" lon="11.827718551402151"><ele>2.3333333333333335</ele><time>2026-04-26T17:32:24Z</time></trkpt><trkpt lat="44.96222531488697" lon="11.82753251316065"><ele>3.0</ele><time>2026-04-26T17:32:25Z</time></trkpt><trkpt lat="44.96212259245046" lon="11.82735957176417"><ele>4.333333333333334</ele><time>2026-04-26T17:32:26Z</time></trkpt><trkpt lat="44.96201394283966" lon="11.827190104790352"><ele>5.666666666666667</ele><time>2026-04-26T17:32:27Z</time></trkpt><trkpt lat="44.961907292901294" lon="11.827015411206604"><ele>7.0</ele><time>2026-04-26T17:32:28Z</time></trkpt><trkpt lat="44.9617981339888" lon="11.826837811071488"><ele>5.0</ele><time>2026-04-26T17:32:29Z</time></trkpt><trkpt lat="44.961690793389934" lon="11.826663003573502"><ele>3.0</ele><time>2026-04-26T17:32:30Z</time></trkpt><trkpt lat="44.96159017937514" lon="11.826487144024805"><ele>1.0</ele><time>2026-04-26T17:32:31Z</time></trkpt><trkpt lat="44.9614869433362" lon="11.826304278285647"><ele>1.0</ele><time>2026-04-26T17:32:32Z</time></trkpt><trkpt lat="44.96137946853888" lon="11.826121537398796"><ele>1.0</ele><time>2026-04-26T17:32:33Z</time></trkpt><trkpt lat="44.96126534076613" lon="11.82593317616707"><ele>1.0</ele><time>2026-04-26T17:32:34Z</time></trkpt><trkpt lat="44.96114841020897" lon="11.82573755351576"><ele>0.6666666666666666</ele><time>2026-04-26T17:32:35Z</time></trkpt><trkpt lat="44.96102455632112" lon="11.825528575479748"><ele>0.3333333333333333</ele><time>2026-04-26T17:32:36Z</time></trkpt><trkpt lat="44.960902851613895" lon="11.825320528083113"><ele>0.0</ele><time>2026-04-26T17:32:37Z</time></trkpt><trkpt lat="44.96078117923241" lon="11.82511048076186"><ele>0.0</ele><time>2026-04-26T17:32:38Z</time></trkpt><trkpt lat="44.96065847567953" lon="11.82490172213302"><ele>0.0</ele><time>2026-04-26T17:32:39Z</time></trkpt><trkpt lat="44.960531040286746" lon="11.824692182875745"><ele>0.0</ele><time>2026-04-26T17:32:40Z</time></trkpt><trkpt lat="44.96039994991705" lon="11.824483344740521"><ele>0.0</ele><time>2026-04-26T17:32:41Z</time></trkpt><trkpt lat="44.96027357079556" lon="11.824284529416909"><ele>0.0</ele><time>2026-04-26T17:32:42Z</time></trkpt><trkpt lat="44.960154904204025" lon="11.824087473585163"><ele>0.0</ele><time>2026-04-26T17:32:43Z</time></trkpt><trkpt lat="44.960036629207444" lon="11.82390075298936"><ele>0.0</ele><time>2026-04-26T17:32:44Z</time></trkpt><trkpt lat="44.95992307755451" lon="11.823711793104781"><ele>0.0</ele><time>2026-04-26T17:32:45Z</time></trkpt><trkpt lat="44.95982376489092" lon="11.823538464076325"><ele>0.0</ele><time>2026-04-26T17:32:46Z</time></trkpt><trkpt lat="44.9597259750846" lon="11.823372118378325"><ele>0.0</ele><time>2026-04-26T17:32:47Z</time></trkpt><trkpt lat="44.95963780154565" lon="11.823218687981209"><ele>0.0</ele><time>2026-04-26T17:32:48Z</time></trkpt><trkpt lat="44.95955166817785" lon="11.82308659893785"><ele>0.0</ele><time>2026-04-26T17:32:49Z</time></trkpt><trkpt lat="44.95946576053726" lon="11.82296320626521"><ele>0.0</ele><time>2026-04-26T17:32:50Z</time></trkpt><trkpt lat="44.95937600093328" lon="11.822825549628915"><ele>0.0</ele><time>2026-04-26T17:32:51Z</time></trkpt><trkpt lat="44.95929945358564" lon="11.822709712251854"><ele>0.0</ele><time>2026-04-26T17:32:52Z</time></trkpt><trkpt lat="44.95923916497881" lon="11.822583463812602"><ele>0.0</ele><time>2026-04-26T17:32:53Z</time></trkpt><trkpt lat="44.959195837627036" lon="11.822435219197123"><ele>0.0</ele><time>2026-04-26T17:32:54Z</time></trkpt><trkpt lat="44.95918737831637" lon="11.822250366074593"><ele>0.25</ele><time>2026-04-26T17:32:55Z</time></trkpt><trkpt lat="44.959223281768736" lon="11.822086747478835"><ele>0.5</ele><time>2026-04-26T17:32:56Z</time></trkpt><trkpt lat="44.95930979291957" lon="11.821961743825117"><ele>0.75</ele><time>2026-04-26T17:32:57Z</time></trkpt><trkpt lat="44.959430230206955" lon="11.821862357124658"><ele>1.0</ele><time>2026-04-26T17:32:58Z</time></trkpt><trkpt lat="44.95955922734673" lon="11.821757385091306"><ele>1.0</ele><time>2026-04-26T17:32:59Z</time></trkpt><trkpt lat="44.959703391112384" lon="11.821639913007306"><ele>1.0</ele><time>2026-04-26T17:33:00Z</time></trkpt><trkpt lat="44.959796723659416" lon="11.821523388881731"><ele>1.0</ele><time>2026-04-26T17:33:01Z</time></trkpt><trkpt lat="44.959924899900145" lon="11.821427071347626"><ele>1.0</ele><time>2026-04-26T17:33:02Z</time></trkpt><trkpt lat="44.96006130796942" lon="11.82133193539362"><ele>0.75</ele><time>2026-04-26T17:33:03Z</time></trkpt><trkpt lat="44.96017111805801" lon="11.821255753081"><ele>0.5</ele><time>2026-04-26T17:33:04Z</time></trkpt><trkpt lat="44.960280334106955" lon="11.821184000380647"><ele>0.25</ele><time>2026-04-26T17:33:05Z</time></trkpt><trkpt lat="44.96038869674256" lon="11.821123067871387"><ele>0.0</ele><time>2026-04-26T17:33:06Z</time></trkpt><trkpt lat="44.96049046847822" lon="11.821040477146722"><ele>0.0</ele><time>2026-04-26T17:33:07Z</time></trkpt><trkpt lat="44.960613141477225" lon="11.820972392565672"><ele>0.0</ele><time>2026-04-26T17:33:08Z</time></trkpt><trkpt lat="44.96072072930093" lon="11.82089151379395"><ele>0.0</ele><time>2026-04-26T17:33:09Z</time></trkpt><trkpt lat="44.96083584963152" lon="11.820802007008817"><ele>0.0</ele><time>2026-04-26T17:33:10Z</time></trkpt><trkpt lat="44.9609595571854" lon="11.820719376655445"><ele>0.0</ele><time>2026-04-26T17:33:11Z</time></trkpt><trkpt lat="44.96111386223352" lon="11.82062857175695"><ele>0.0</ele><time>2026-04-26T17:33:12Z</time></trkpt><trkpt lat="44.96122366306829" lon="11.820540662748563"><ele>0.0</ele><time>2026-04-26T17:33:13Z</time></trkpt><trkpt lat="44.9613525040203" lon="11.82044119324731"><ele>0.0</ele><time>2026-04-26T17:33:14Z</time></trkpt><trkpt lat="44.96148056126194" lon="11.820348258923726"><ele>0.0</ele><time>2026-04-26T17:33:15Z</time></trkpt><trkpt lat="44.96160196980363" lon="11.820257971217025"><ele>0.0</ele><time>2026-04-26T17:33:16Z</time></trkpt><trkpt lat="44.96174003154303" lon="11.820162264866426"><ele>0.0</ele><time>2026-04-26T17:33:17Z</time></trkpt><trkpt lat="44.96188660418705" lon="11.820053905695662"><ele>0.0</ele><time>2026-04-26T17:33:18Z</time></trkpt><trkpt lat="44.962024642008835" lon="11.81995698486591"><ele>0.0</ele><time>2026-04-26T17:33:19Z</time></trkpt><trkpt lat="44.96216508113422" lon="11.819865147381687"><ele>0.0</ele><time>2026-04-26T17:33:20Z</time></trkpt><trkpt lat="44.96231232530671" lon="11.81974664521442"><ele>0.0</ele><time>2026-04-26T17:33:21Z</time></trkpt><trkpt lat="44.96246209588165" lon="11.819635198085802"><ele>0.0</ele><time>2026-04-26T17:33:22Z</time></trkpt><trkpt lat="44.96262078530115" lon="11.819523922446942"><ele>0.0</ele><time>2026-04-26T17:33:23Z</time></trkpt><trkpt lat="44.962804315147615" lon="11.819370676956474"><ele>0.0</ele><time>2026-04-26T17:33:24Z</time></trkpt><trkpt lat="44.96297136132325" lon="11.81925701713724"><ele>0.0</ele><time>2026-04-26T17:33:25Z</time></trkpt><trkpt lat="44.963149207555546" lon="11.81913223080474"><ele>0.0</ele><time>2026-04-26T17:33:26Z</time></trkpt><trkpt lat="44.963333617706304" lon="11.818987015329306"><ele>0.0</ele><time>2026-04-26T17:33:27Z</time></trkpt><trkpt lat="44.96349495947317" lon="11.818843309478526"><ele>0.0</ele><time>2026-04-26T17:33:28.001Z</time></trkpt><trkpt lat="44.96369457769798" lon="11.818730011943194"><ele>0.0</ele><time>2026-04-26T17:33:29.001Z</time></trkpt><trkpt lat="44.96388506765104" lon="11.818622820563192"><ele>0.0</ele><time>2026-04-26T17:33:30.001Z</time></trkpt><trkpt lat="44.9640726502831" lon="11.818530240394548"><ele>0.0</ele><time>2026-04-26T17:33:31.001Z</time></trkpt><trkpt lat="44.9642479947834" lon="11.818392230097986"><ele>0.0</ele><time>2026-04-26T17:33:32.001Z</time></trkpt><trkpt lat="44.96443132708391" lon="11.818244185889354"><ele>0.0</ele><time>2026-04-26T17:33:33.001Z</time></trkpt><trkpt lat="44.96460304936499" lon="11.818128776806057"><ele>0.0</ele><time>2026-04-26T17:33:34.001Z</time></trkpt><trkpt lat="44.96476507446207" lon="11.818022963625799"><ele>0.0</ele><time>2026-04-26T17:33:35.001Z</time></trkpt><trkpt lat="44.96491193022397" lon="11.817932837081313"><ele>0.0</ele><time>2026-04-26T17:33:36.001Z</time></trkpt><trkpt lat="44.965067442400525" lon="11.817807668062068"><ele>0.0</ele><time>2026-04-26T17:33:37.001Z</time></trkpt><trkpt lat="44.965233123882456" lon="11.817680543343334"><ele>0.0</ele><time>2026-04-26T17:33:38.001Z</time></trkpt><trkpt lat="44.96540342149404" lon="11.817575291462058"><ele>0.0</ele><time>2026-04-26T17:33:39.001Z</time></trkpt><trkpt lat="44.96560283801837" lon="11.817444857053882"><ele>0.0</ele><time>2026-04-26T17:33:40.001Z</time></trkpt><trkpt lat="44.96578798127351" lon="11.817307416984411"><ele>0.0</ele><time>2026-04-26T17:33:41.001Z</time></trkpt><trkpt lat="44.965952976445344" lon="11.817183967293579"><ele>0.0</ele><time>2026-04-26T17:33:42.001Z</time></trkpt><trkpt lat="44.96610932209833" lon="11.817062661654216"><ele>0.0</ele><time>2026-04-26T17:33:43.001Z</time></trkpt><trkpt lat="44.966262344184" lon="11.81694985509279"><ele>0.0</ele><time>2026-04-26T17:33:44.001Z</time></trkpt><trkpt lat="44.966434962288055" lon="11.816873532452073"><ele>0.3333333333333333</ele><time>2026-04-26T17:33:45.001Z</time></trkpt><trkpt lat="44.96656284381314" lon="11.816726600905893"><ele>0.6666666666666666</ele><time>2026-04-26T17:33:46.001Z</time></trkpt><trkpt lat="44.96668363247202" lon="11.816558402871634"><ele>1.0</ele><time>2026-04-26T17:33:47.001Z</time></trkpt><trkpt lat="44.966827318855266" lon="11.816368350138672"><ele>1.0</ele><time>2026-04-26T17:33:48.001Z</time></trkpt><trkpt lat="44.96695576494322" lon="11.81617326628567"><ele>1.0</ele><time>2026-04-26T17:33:49.001Z</time></trkpt><trkpt lat="44.96707178937979" lon="11.815953908208817"><ele>1.0</ele><time>2026-04-26T17:33:50.001Z</time></trkpt><trkpt lat="44.96719956530812" lon="11.815738565178505"><ele>1.0</ele><time>2026-04-26T17:33:51.001Z</time></trkpt><trkpt lat="44.967318940059016" lon="11.815498708962291"><ele>1.0</ele><time>2026-04-26T17:33:52.001Z</time></trkpt><trkpt lat="44.96742950292885" lon="11.815303773301393"><ele>1.0</ele><time>2026-04-26T17:33:53.001Z</time></trkpt><trkpt lat="44.96752618059092" lon="11.81510084582111"><ele>1.0</ele><time>2026-04-26T17:33:54.001Z</time></trkpt><trkpt lat="44.96763678973554" lon="11.814892559469046"><ele>1.0</ele><time>2026-04-26T17:33:55.001Z</time></trkpt><trkpt lat="44.96776043706104" lon="11.814635992411535"><ele>1.0</ele><time>2026-04-26T17:33:56.001Z</time></trkpt><trkpt lat="44.9678798775023" lon="11.81440571883718"><ele>1.3333333333333333</ele><time>2026-04-26T17:33:57.001Z</time></trkpt><trkpt lat="44.96799377249374" lon="11.81418755835076"><ele>1.6666666666666665</ele><time>2026-04-26T17:33:58.001Z</time></trkpt><trkpt lat="44.968112482137734" lon="11.813951888923873"><ele>2.0</ele><time>2026-04-26T17:33:59.001Z</time></trkpt><trkpt lat="44.96825177533742" lon="11.813680235048672"><ele>2.0</ele><time>2026-04-26T17:34:00.001Z</time></trkpt><trkpt lat="44.968380803832765" lon="11.813436362428059"><ele>2.0</ele><time>2026-04-26T17:34:01.001Z</time></trkpt><trkpt lat="44.96849540154515" lon="11.813192593552698"><ele>2.0</ele><time>2026-04-26T17:34:02.001Z</time></trkpt><trkpt lat="44.96862534451652" lon="11.812967156179429"><ele>2.0</ele><time>2026-04-26T17:34:03.001Z</time></trkpt><trkpt lat="44.96873126600206" lon="11.812735563280329"><ele>2.0</ele><time>2026-04-26T17:34:04.001Z</time></trkpt><trkpt lat="44.968855238410505" lon="11.812516513674183"><ele>2.0</ele><time>2026-04-26T17:34:05.001Z</time></trkpt><trkpt lat="44.96897742178406" lon="11.812300150846948"><ele>1.6666666666666665</ele><time>2026-04-26T17:34:06.001Z</time></trkpt><trkpt lat="44.96910404878646" lon="11.812068312470176"><ele>1.3333333333333333</ele><time>2026-04-26T17:34:07.001Z</time></trkpt><trkpt lat="44.96920890737055" lon="11.811833504277796"><ele>1.0</ele><time>2026-04-26T17:34:08.001Z</time></trkpt><trkpt lat="44.96931016760101" lon="11.811603442281095"><ele>1.0</ele><time>2026-04-26T17:34:09.001Z</time></trkpt><trkpt lat="44.96944194353815" lon="11.811348045172217"><ele>1.0</ele><time>2026-04-26T17:34:10.001Z</time></trkpt><trkpt lat="44.96955667761936" lon="11.811131520386041"><ele>1.0</ele><time>2026-04-26T17:34:11.001Z</time></trkpt><trkpt lat="44.96967098979296" lon="11.810938324911817"><ele>1.0</ele><time>2026-04-26T17:34:12.001Z</time></trkpt><trkpt lat="44.969788784861954" lon="11.810735428403348"><ele>1.0</ele><time>2026-04-26T17:34:13.001Z</time></trkpt><trkpt lat="44.96993361419849" lon="11.810545666509531"><ele>1.0</ele><time>2026-04-26T17:34:14.001Z</time></trkpt><trkpt lat="44.970082496627676" lon="11.810373472050363"><ele>1.3333333333333333</ele><time>2026-04-26T17:34:15Z</time></trkpt><trkpt lat="44.97024893922538" lon="11.81023082473097"><ele>1.6666666666666665</ele><time>2026-04-26T17:34:16Z</time></trkpt><trkpt lat="44.970423540027134" lon="11.810122689793635"><ele>2.0</ele><time>2026-04-26T17:34:17Z</time></trkpt><trkpt lat="44.97059963098193" lon="11.810028340077816"><ele>2.333333333333333</ele><time>2026-04-26T17:34:18Z</time></trkpt><trkpt lat="44.97078001258624" lon="11.80994885235895"><ele>2.6666666666666665</ele><time>2026-04-26T17:34:19Z</time></trkpt><trkpt lat="44.970959243642014" lon="11.809877072576828"><ele>3.0</ele><time>2026-04-26T17:34:20Z</time></trkpt><trkpt lat="44.971139616587614" lon="11.809818184127094"><ele>3.333333333333333</ele><time>2026-04-26T17:34:21Z</time></trkpt><trkpt lat="44.97129540437719" lon="11.809774052958984"><ele>3.6666666666666665</ele><time>2026-04-26T17:34:22Z</time></trkpt><trkpt lat="44.97146919180048" lon="11.809741018782299"><ele>4.0</ele><time>2026-04-26T17:34:23Z</time></trkpt><trkpt lat="44.971605436939086" lon="11.809703563203321"><ele>3.25</ele><time>2026-04-26T17:34:24Z</time></trkpt><trkpt lat="44.971752572672806" lon="11.809655944585316"><ele>2.5</ele><time>2026-04-26T17:34:25Z</time></trkpt><trkpt lat="44.97190301540354" lon="11.809604787222277"><ele>1.75</ele><time>2026-04-26T17:34:26Z</time></trkpt><trkpt lat="44.97203686392251" lon="11.809545405265625"><ele>1.0</ele><time>2026-04-26T17:34:27Z</time></trkpt><trkpt lat="44.97217019070249" lon="11.80948815560976"><ele>1.0</ele><time>2026-04-26T17:34:28Z</time></trkpt><trkpt lat="44.97228555383656" lon="11.809433784226398"><ele>1.0</ele><time>2026-04-26T17:34:29Z</time></trkpt><trkpt lat="44.9723844460786" lon="11.809382021206234"><ele>1.0</ele><time>2026-04-26T17:34:30Z</time></trkpt><trkpt lat="44.97247448794732" lon="11.809329939285682"><ele>1.0</ele><time>2026-04-26T17:34:31Z</time></trkpt><trkpt lat="44.97255602715593" lon="11.80927950515342"><ele>1.0</ele><time>2026-04-26T17:34:32Z</time></trkpt><trkpt lat="44.97263715793972" lon="11.809214602289588"><ele>1.2000000000000002</ele><time>2026-04-26T17:34:33Z</time></trkpt><trkpt lat="44.97271065844108" lon="11.80912886938706"><ele>1.4000000000000001</ele><time>2026-04-26T17:34:34Z</time></trkpt><trkpt lat="44.97277809780526" lon="11.809023448411274"><ele>1.6</ele><time>2026-04-26T17:34:35Z</time></trkpt><trkpt lat="44.97283434143222" lon="11.808904863987637"><ele>1.8</ele><time>2026-04-26T17:34:36Z</time></trkpt><trkpt lat="44.972879624977864" lon="11.808777675888035"><ele>2.0</ele><time>2026-04-26T17:34:37Z</time></trkpt><trkpt lat="44.972907697421775" lon="11.80864755163054"><ele>2.0</ele><time>2026-04-26T17:34:38Z</time></trkpt><trkpt lat="44.972924755129554" lon="11.808512584268092"><ele>2.0</ele><time>2026-04-26T17:34:39Z</time></trkpt><trkpt lat="44.972931276567984" lon="11.808369048901865"><ele>2.0</ele><time>2026-04-26T17:34:40Z</time></trkpt><trkpt lat="44.97293444844996" lon="11.808213729160343"><ele>2.0</ele><time>2026-04-26T17:34:41Z</time></trkpt><trkpt lat="44.97294230688534" lon="11.808052419974876"><ele>2.0</ele><time>2026-04-26T17:34:42Z</time></trkpt><trkpt lat="44.97294997292251" lon="11.807893833870864"><ele>2.25</ele><time>2026-04-26T17:34:43Z</time></trkpt><trkpt lat="44.972951852098866" lon="11.807733621469769"><ele>2.5</ele><time>2026-04-26T17:34:44Z</time></trkpt><trkpt lat="44.972956734976435" lon="11.807559450731471"><ele>2.75</ele><time>2026-04-26T17:34:45Z</time></trkpt><trkpt lat="44.97295699279441" lon="11.807392780518835"><ele>3.0</ele><time>2026-04-26T17:34:46Z</time></trkpt><trkpt lat="44.972955933476555" lon="11.807231533573907"><ele>3.25</ele><time>2026-04-26T17:34:47Z</time></trkpt><trkpt lat="44.97295210151498" lon="11.807066118977971"><ele>3.5</ele><time>2026-04-26T17:34:48Z</time></trkpt><trkpt lat="44.97294174301203" lon="11.806900129741843"><ele>3.75</ele><time>2026-04-26T17:34:49Z</time></trkpt><trkpt lat="44.97293156380159" lon="11.806720709779336"><ele>4.0</ele><time>2026-04-26T17:34:50Z</time></trkpt><trkpt lat="44.972923643046" lon="11.80653762528988"><ele>4.0</ele><time>2026-04-26T17:34:51Z</time></trkpt><trkpt lat="44.97291255192269" lon="11.806360257919334"><ele>4.0</ele><time>2026-04-26T17:34:52Z</time></trkpt><trkpt lat="44.97290446963046" lon="11.806181863618587"><ele>4.0</ele><time>2026-04-26T17:34:53Z</time></trkpt><trkpt lat="44.972895205123564" lon="11.8060060012856"><ele>4.0</ele><time>2026-04-26T17:34:54Z</time></trkpt><trkpt lat="44.97287927077193" lon="11.805826396514147"><ele>4.0</ele><time>2026-04-26T17:34:55Z</time></trkpt><trkpt lat="44.97285250783582" lon="11.805646409873093"><ele>4.0</ele><time>2026-04-26T17:34:56Z</time></trkpt><trkpt lat="44.9728191035679" lon="11.805462880039515"><ele>4.0</ele><time>2026-04-26T17:34:57Z</time></trkpt><trkpt lat="44.97277182504457" lon="11.805284230198376"><ele>4.0</ele><time>2026-04-26T17:34:58Z</time></trkpt><trkpt lat="44.97270810896671" lon="11.805110195956605"><ele>4.0</ele><time>2026-04-26T17:34:59Z</time></trkpt><trkpt lat="44.97263353025458" lon="11.804956698376659"><ele>4.0</ele><time>2026-04-26T17:35:00Z</time></trkpt><trkpt lat="44.97253849148533" lon="11.804825892480084"><ele>4.0</ele><time>2026-04-26T17:35:01Z</time></trkpt><trkpt lat="44.97241584094377" lon="11.804716323179205"><ele>4.0</ele><time>2026-04-26T17:35:02Z</time></trkpt><trkpt lat="44.97229460046391" lon="11.804623196794603"><ele>4.0</ele><time>2026-04-26T17:35:03Z</time></trkpt><trkpt lat="44.97216933196941" lon="11.804529551049106"><ele>4.0</ele><time>2026-04-26T17:35:04Z</time></trkpt><trkpt lat="44.97205015493646" lon="11.804429762502183"><ele>4.0</ele><time>2026-04-26T17:35:05Z</time></trkpt><trkpt lat="44.97192824330829" lon="11.804323708490745"><ele>4.0</ele><time>2026-04-26T17:35:06Z</time></trkpt><trkpt lat="44.97182031599677" lon="11.804210147050906"><ele>3.75</ele><time>2026-04-26T17:35:07Z</time></trkpt><trkpt lat="44.9717091692613" lon="11.80410309680736"><ele>3.5</ele><time>2026-04-26T17:35:08Z</time></trkpt><trkpt lat="44.97161037894487" lon="11.803996539199705"><ele>3.25</ele><time>2026-04-26T17:35:09Z</time></trkpt><trkpt lat="44.971512922250525" lon="11.803884592768839"><ele>3.0</ele><time>2026-04-26T17:35:10Z</time></trkpt><trkpt lat="44.971413575697504" lon="11.80376773768309"><ele>2.5</ele><time>2026-04-26T17:35:11Z</time></trkpt><trkpt lat="44.97131633371079" lon="11.803646275909873"><ele>2.0</ele><time>2026-04-26T17:35:12Z</time></trkpt><trkpt lat="44.97121374659963" lon="11.803520151384271"><ele>1.5</ele><time>2026-04-26T17:35:13Z</time></trkpt><trkpt lat="44.97112356062578" lon="11.803378961817156"><ele>1.0</ele><time>2026-04-26T17:35:14Z</time></trkpt><trkpt lat="44.97102796998281" lon="11.803243048114455"><ele>1.0</ele><time>2026-04-26T17:35:15Z</time></trkpt><trkpt lat="44.97093598556639" lon="11.803095137206048"><ele>1.0</ele><time>2026-04-26T17:35:16Z</time></trkpt><trkpt lat="44.970846018154525" lon="11.802950443396094"><ele>1.0</ele><time>2026-04-26T17:35:17Z</time></trkpt><trkpt lat="44.97075722660133" lon="11.802805357693604"><ele>1.0</ele><time>2026-04-26T17:35:18Z</time></trkpt><trkpt lat="44.970676093777115" lon="11.802659242442799"><ele>1.25</ele><time>2026-04-26T17:35:19Z</time></trkpt><trkpt lat="44.97059376616576" lon="11.8025144941836"><ele>1.5</ele><time>2026-04-26T17:35:20Z</time></trkpt><trkpt lat="44.97050035018708" lon="11.802366135388695"><ele>1.75</ele><time>2026-04-26T17:35:21Z</time></trkpt><trkpt lat="44.970407402862975" lon="11.80221172511408"><ele>2.0</ele><time>2026-04-26T17:35:22Z</time></trkpt><trkpt lat="44.97031263587207" lon="11.802058685969136"><ele>2.0</ele><time>2026-04-26T17:35:23Z</time></trkpt><trkpt lat="44.970219973924124" lon="11.801905367797085"><ele>2.0</ele><time>2026-04-26T17:35:24Z</time></trkpt><trkpt lat="44.97012305609713" lon="11.801755092900512"><ele>2.0</ele><time>2026-04-26T17:35:25Z</time></trkpt><trkpt lat="44.97002769410778" lon="11.801594121199873"><ele>2.0</ele><time>2026-04-26T17:35:26Z</time></trkpt><trkpt lat="44.969932391227466" lon="11.801436462511063"><ele>2.0</ele><time>2026-04-26T17:35:27.001Z</time></trkpt><trkpt lat="44.96984501138177" lon="11.801291331470908"><ele>2.0</ele><time>2026-04-26T17:35:28.001Z</time></trkpt><trkpt lat="44.96975994513065" lon="11.801143594460836"><ele>2.0</ele><time>2026-04-26T17:35:29.001Z</time></trkpt><trkpt lat="44.96966718223101" lon="11.801006380814659"><ele>2.0</ele><time>2026-04-26T17:35:30.001Z</time></trkpt><trkpt lat="44.9695753045039" lon="11.800857561374787"><ele>2.0</ele><time>2026-04-26T17:35:31.001Z</time></trkpt><trkpt lat="44.96948681521128" lon="11.800709831645433"><ele>2.0</ele><time>2026-04-26T17:35:32.001Z</time></trkpt><trkpt lat="44.96940631439225" lon="11.800558036649944"><ele>2.0</ele><time>2026-04-26T17:35:33.001Z</time></trkpt><trkpt lat="44.96932730285099" lon="11.800425463179204"><ele>2.0</ele><time>2026-04-26T17:35:34.001Z</time></trkpt><trkpt lat="44.96925494888891" lon="11.800295668539379"><ele>2.0</ele><time>2026-04-26T17:35:35.001Z</time></trkpt><trkpt lat="44.96917255237827" lon="11.800165768286801"><ele>2.0</ele><time>2026-04-26T17:35:36.001Z</time></trkpt><trkpt lat="44.9690991948312" lon="11.80000278906017"><ele>2.0</ele><time>2026-04-26T17:35:37.001Z</time></trkpt><trkpt lat="44.96902590369405" lon="11.799826209503957"><ele>2.0</ele><time>2026-04-26T17:35:38.001Z</time></trkpt><trkpt lat="44.968947673556414" lon="11.799648396583587"><ele>2.0</ele><time>2026-04-26T17:35:39.001Z</time></trkpt><trkpt lat="44.968870677566194" lon="11.799463859287306"><ele>2.0</ele><time>2026-04-26T17:35:40.001Z</time></trkpt><trkpt lat="44.968792292589605" lon="11.799273003620321"><ele>2.0</ele><time>2026-04-26T17:35:41.001Z</time></trkpt><trkpt lat="44.96871551251677" lon="11.799084273654445"><ele>2.0</ele><time>2026-04-26T17:35:42.001Z</time></trkpt><trkpt lat="44.96864404735493" lon="11.798899141552699"><ele>2.0</ele><time>2026-04-26T17:35:43.001Z</time></trkpt><trkpt lat="44.96857743921119" lon="11.79872831840181"><ele>2.0</ele><time>2026-04-26T17:35:44.001Z</time></trkpt><trkpt lat="44.968509133329455" lon="11.798574038217096"><ele>2.0</ele><time>2026-04-26T17:35:45.001Z</time></trkpt><trkpt lat="44.96844652819265" lon="11.798428437448573"><ele>2.2</ele><time>2026-04-26T17:35:46.001Z</time></trkpt><trkpt lat="44.968373028426754" lon="11.798314441072364"><ele>2.4000000000000004</ele><time>2026-04-26T17:35:47.001Z</time></trkpt><trkpt lat="44.968290894679676" lon="11.798205955318526"><ele>2.5999999999999996</ele><time>2026-04-26T17:35:48.001Z</time></trkpt><trkpt lat="44.96821551390699" lon="11.798099673677937"><ele>2.8</ele><time>2026-04-26T17:35:49.001Z</time></trkpt><trkpt lat="44.968143633730094" lon="11.79798142899064"><ele>3.0</ele><time>2026-04-26T17:35:50.001Z</time></trkpt><trkpt lat="44.96807791387272" lon="11.79785956314862"><ele>3.0</ele><time>2026-04-26T17:35:51.001Z</time></trkpt><trkpt lat="44.96804019652671" lon="11.79771558294794"><ele>3.0</ele><time>2026-04-26T17:35:52.001Z</time></trkpt><trkpt lat="44.96803290646185" lon="11.797512561712965"><ele>3.0</ele><time>2026-04-26T17:35:53.001Z</time></trkpt><trkpt lat="44.968005889482264" lon="11.797354108379018"><ele>3.0</ele><time>2026-04-26T17:35:54.001Z</time></trkpt><trkpt lat="44.967982792699814" lon="11.797234560992152"><ele>3.0</ele><time>2026-04-26T17:35:55.001Z</time></trkpt><trkpt lat="44.96796593948183" lon="11.797139518706954"><ele>3.0</ele><time>2026-04-26T17:35:56.001Z</time></trkpt><trkpt lat="44.967929117120185" lon="11.796997780358803"><ele>3.0</ele><time>2026-04-26T17:35:58.001Z</time></trkpt><trkpt lat="44.96789949084727" lon="11.796890579414402"><ele>3.0</ele><time>2026-04-26T17:36:00.001Z</time></trkpt><trkpt lat="44.96783989134674" lon="11.796846494642132"><ele>3.0</ele><time>2026-04-26T17:36:04.001Z</time></trkpt><trkpt lat="44.96778050694401" lon="11.796758825762451"><ele>3.0</ele><time>2026-04-26T17:36:34Z</time></trkpt><trkpt lat="44.96773144529099" lon="11.796652421630554"><ele>3.0</ele><time>2026-04-26T17:36:35Z</time></trkpt><trkpt lat="44.96768233681013" lon="11.796508606290613"><ele>3.0</ele><time>2026-04-26T17:36:36Z</time></trkpt><trkpt lat="44.967624036042395" lon="11.796362513149019"><ele>3.0</ele><time>2026-04-26T17:36:37Z</time></trkpt><trkpt lat="44.96755464726422" lon="11.796190531982262"><ele>3.0</ele><time>2026-04-26T17:36:38Z</time></trkpt><trkpt lat="44.96747514986428" lon="11.795999320167962"><ele>2.6666666666666665</ele><time>2026-04-26T17:36:39Z</time></trkpt><trkpt lat="44.967386343837546" lon="11.795801495147835"><ele>2.333333333333333</ele><time>2026-04-26T17:36:40Z</time></trkpt><trkpt lat="44.967290771816046" lon="11.795620840921153"><ele>2.0</ele><time>2026-04-26T17:36:41Z</time></trkpt><trkpt lat="44.96717677376871" lon="11.795449854025483"><ele>2.0</ele><time>2026-04-26T17:36:42Z</time></trkpt><trkpt lat="44.96705409729442" lon="11.795284158363243"><ele>2.0</ele><time>2026-04-26T17:36:43Z</time></trkpt><trkpt lat="44.9669260717961" lon="11.79511530243674"><ele>2.0</ele><time>2026-04-26T17:36:44Z</time></trkpt><trkpt lat="44.96679203147948" lon="11.794947977230136"><ele>1.6666666666666665</ele><time>2026-04-26T17:36:45Z</time></trkpt><trkpt lat="44.96665680552934" lon="11.794785502946134"><ele>1.3333333333333333</ele><time>2026-04-26T17:36:46Z</time></trkpt><trkpt lat="44.96651932286547" lon="11.794623355970957"><ele>1.0</ele><time>2026-04-26T17:36:47Z</time></trkpt><trkpt lat="44.96637835341848" lon="11.794459061712109"><ele>1.3333333333333333</ele><time>2026-04-26T17:36:48Z</time></trkpt><trkpt lat="44.96623527920819" lon="11.794292145337524"><ele>1.6666666666666665</ele><time>2026-04-26T17:36:49Z</time></trkpt><trkpt lat="44.96609158480884" lon="11.794123183898273"><ele>2.0</ele><time>2026-04-26T17:36:50Z</time></trkpt><trkpt lat="44.96594229797993" lon="11.793947979041302"><ele>2.0</ele><time>2026-04-26T17:36:51Z</time></trkpt><trkpt lat="44.9657914703614" lon="11.7937698378467"><ele>2.0</ele><time>2026-04-26T17:36:52Z</time></trkpt><trkpt lat="44.96563457074961" lon="11.79359182936718"><ele>2.0</ele><time>2026-04-26T17:36:53Z</time></trkpt><trkpt lat="44.965486487004604" lon="11.793419295549857"><ele>2.0</ele><time>2026-04-26T17:36:54Z</time></trkpt><trkpt lat="44.96533471731685" lon="11.79323874806042"><ele>2.0</ele><time>2026-04-26T17:36:55Z</time></trkpt><trkpt lat="44.96517528675802" lon="11.793056517500482"><ele>2.0</ele><time>2026-04-26T17:36:56Z</time></trkpt><trkpt lat="44.96501690609651" lon="11.792870425273374"><ele>2.0</ele><time>2026-04-26T17:36:57Z</time></trkpt><trkpt lat="44.96485792833403" lon="11.79268304508139"><ele>2.0</ele><time>2026-04-26T17:36:58Z</time></trkpt><trkpt lat="44.964698778180264" lon="11.792494205395052"><ele>2.0</ele><time>2026-04-26T17:36:59Z</time></trkpt><trkpt lat="44.96453727098072" lon="11.792302624357925"><ele>2.333333333333333</ele><time>2026-04-26T17:37:00Z</time></trkpt><trkpt lat="44.96437493297517" lon="11.79211056178454"><ele>2.6666666666666665</ele><time>2026-04-26T17:37:01Z</time></trkpt><trkpt lat="44.96421139827514" lon="11.791925148692382"><ele>3.0</ele><time>2026-04-26T17:37:02Z</time></trkpt><trkpt lat="44.96404812502873" lon="11.79174100639876"><ele>3.0</ele><time>2026-04-26T17:37:03Z</time></trkpt><trkpt lat="44.963883082383575" lon="11.791553197411872"><ele>3.0</ele><time>2026-04-26T17:37:04Z</time></trkpt><trkpt lat="44.96371750360556" lon="11.791367853870403"><ele>3.0</ele><time>2026-04-26T17:37:05Z</time></trkpt><trkpt lat="44.96355518731529" lon="11.791176602129298"><ele>2.6666666666666665</ele><time>2026-04-26T17:37:06Z</time></trkpt><trkpt lat="44.96339403814025" lon="11.790983028398644"><ele>2.333333333333333</ele><time>2026-04-26T17:37:07Z</time></trkpt><trkpt lat="44.96323576894023" lon="11.790795078227486"><ele>2.0</ele><time>2026-04-26T17:37:08Z</time></trkpt><trkpt lat="44.96307814246945" lon="11.790610443961711"><ele>2.0</ele><time>2026-04-26T17:37:09Z</time></trkpt><trkpt lat="44.96293187791277" lon="11.790435478148517"><ele>2.0</ele><time>2026-04-26T17:37:10Z</time></trkpt><trkpt lat="44.962784390457514" lon="11.790263978346609"><ele>2.0</ele><time>2026-04-26T17:37:11Z</time></trkpt><trkpt lat="44.96263467200891" lon="11.790088754376187"><ele>1.6666666666666665</ele><time>2026-04-26T17:37:12Z</time></trkpt><trkpt lat="44.96248127755892" lon="11.789910675464856"><ele>1.3333333333333333</ele><time>2026-04-26T17:37:13Z</time></trkpt><trkpt lat="44.962323867112" lon="11.789729709508658"><ele>1.0</ele><time>2026-04-26T17:37:14Z</time></trkpt><trkpt lat="44.96217271001215" lon="11.789544226803574"><ele>1.0</ele><time>2026-04-26T17:37:15Z</time></trkpt><trkpt lat="44.962021149658874" lon="11.789352348727423"><ele>1.0</ele><time>2026-04-26T17:37:16Z</time></trkpt><trkpt lat="44.9618768540567" lon="11.789151277721793"><ele>1.0</ele><time>2026-04-26T17:37:17Z</time></trkpt><trkpt lat="44.961738136310245" lon="11.788939074612218"><ele>1.3333333333333333</ele><time>2026-04-26T17:37:18Z</time></trkpt><trkpt lat="44.96160653518384" lon="11.788709798190489"><ele>1.6666666666666665</ele><time>2026-04-26T17:37:19Z</time></trkpt><trkpt lat="44.96147504145629" lon="11.788475699699433"><ele>2.0</ele><time>2026-04-26T17:37:20Z</time></trkpt><trkpt lat="44.96134931475726" lon="11.788234337381075"><ele>3.0</ele><time>2026-04-26T17:37:21Z</time></trkpt><trkpt lat="44.96122784370775" lon="11.78798166076981"><ele>4.0</ele><time>2026-04-26T17:37:22Z</time></trkpt><trkpt lat="44.961102230630466" lon="11.787722817006326"><ele>5.0</ele><time>2026-04-26T17:37:23Z</time></trkpt><trkpt lat="44.96097873874877" lon="11.78746563090091"><ele>4.333333333333334</ele><time>2026-04-26T17:37:24Z</time></trkpt><trkpt lat="44.960854349211175" lon="11.78721033755839"><ele>3.666666666666667</ele><time>2026-04-26T17:37:25Z</time></trkpt><trkpt lat="44.96072995195617" lon="11.786956433971497"><ele>3.0</ele><time>2026-04-26T17:37:26Z</time></trkpt><trkpt lat="44.96060721603228" lon="11.786703909690623"><ele>3.0</ele><time>2026-04-26T17:37:27Z</time></trkpt><trkpt lat="44.96048449305851" lon="11.786454610719245"><ele>3.0</ele><time>2026-04-26T17:37:28Z</time></trkpt><trkpt lat="44.96036263871229" lon="11.78620684462713"><ele>3.0</ele><time>2026-04-26T17:37:29Z</time></trkpt><trkpt lat="44.960245377611095" lon="11.785962583854383"><ele>3.0</ele><time>2026-04-26T17:37:30Z</time></trkpt><trkpt lat="44.960129956781856" lon="11.785717331373979"><ele>3.0</ele><time>2026-04-26T17:37:31Z</time></trkpt><trkpt lat="44.96002393264223" lon="11.785473267815734"><ele>3.0</ele><time>2026-04-26T17:37:32Z</time></trkpt><trkpt lat="44.95992350877391" lon="11.785220950352887"><ele>3.666666666666667</ele><time>2026-04-26T17:37:33Z</time></trkpt><trkpt lat="44.95983298682124" lon="11.784960511403032"><ele>4.333333333333334</ele><time>2026-04-26T17:37:34Z</time></trkpt><trkpt lat="44.95974690485026" lon="11.784692198911651"><ele>5.0</ele><time>2026-04-26T17:37:35Z</time></trkpt><trkpt lat="44.959675508279176" lon="11.784415037541025"><ele>5.666666666666667</ele><time>2026-04-26T17:37:36Z</time></trkpt><trkpt lat="44.95960814495745" lon="11.78413454347193"><ele>6.333333333333334</ele><time>2026-04-26T17:37:37Z</time></trkpt><trkpt lat="44.9595402749224" lon="11.783848603687394"><ele>7.0</ele><time>2026-04-26T17:37:38Z</time></trkpt><trkpt lat="44.959473346718966" lon="11.78356297976797"><ele>7.0</ele><time>2026-04-26T17:37:39Z</time></trkpt><trkpt lat="44.95940708647931" lon="11.783274324527879"><ele>7.0</ele><time>2026-04-26T17:37:40Z</time></trkpt><trkpt lat="44.95934103657759" lon="11.782992664960059"><ele>7.0</ele><time>2026-04-26T17:37:41Z</time></trkpt><trkpt lat="44.95927640371654" lon="11.78272966812602"><ele>6.666666666666667</ele><time>2026-04-26T17:37:42Z</time></trkpt><trkpt lat="44.95921690955176" lon="11.782480355893789"><ele>6.333333333333334</ele><time>2026-04-26T17:37:43Z</time></trkpt><trkpt lat="44.95915470875106" lon="11.782225156847586"><ele>6.0</ele><time>2026-04-26T17:37:44Z</time></trkpt><trkpt lat="44.95909029980253" lon="11.781966959207335"><ele>5.0</ele><time>2026-04-26T17:37:45.001Z</time></trkpt><trkpt lat="44.9590115032077" lon="11.78170489090912"><ele>4.0</ele><time>2026-04-26T17:37:46.001Z</time></trkpt><trkpt lat="44.95892208257588" lon="11.781443231955064"><ele>3.0</ele><time>2026-04-26T17:37:47.001Z</time></trkpt><trkpt lat="44.95882703585683" lon="11.7811815627086"><ele>3.333333333333333</ele><time>2026-04-26T17:37:48.001Z</time></trkpt><trkpt lat="44.95871922120648" lon="11.780928215023263"><ele>3.6666666666666665</ele><time>2026-04-26T17:37:49.001Z</time></trkpt><trkpt lat="44.95859886172041" lon="11.780687180508702"><ele>4.0</ele><time>2026-04-26T17:37:50.001Z</time></trkpt><trkpt lat="44.95847731823285" lon="11.780451113206833"><ele>3.333333333333333</ele><time>2026-04-26T17:37:51.001Z</time></trkpt><trkpt lat="44.958349494487194" lon="11.78021269575855"><ele>2.6666666666666665</ele><time>2026-04-26T17:37:52.001Z</time></trkpt><trkpt lat="44.95821847676428" lon="11.779973162731222"><ele>2.0</ele><time>2026-04-26T17:37:53.001Z</time></trkpt><trkpt lat="44.95808387145545" lon="11.77973433428429"><ele>1.6666666666666665</ele><time>2026-04-26T17:37:54.001Z</time></trkpt><trkpt lat="44.95795492656964" lon="11.779496579262004"><ele>1.3333333333333333</ele><time>2026-04-26T17:37:55.001Z</time></trkpt><trkpt lat="44.957829587320774" lon="11.77925882372076"><ele>1.0</ele><time>2026-04-26T17:37:56.001Z</time></trkpt><trkpt lat="44.95770176942435" lon="11.77901593573007"><ele>1.0</ele><time>2026-04-26T17:37:57.001Z</time></trkpt><trkpt lat="44.957573084093916" lon="11.778772791422035"><ele>1.0</ele><time>2026-04-26T17:37:58.001Z</time></trkpt><trkpt lat="44.957444292759114" lon="11.778529145744347"><ele>1.0</ele><time>2026-04-26T17:37:59.001Z</time></trkpt><trkpt lat="44.95731445982257" lon="11.778288931888467"><ele>1.0</ele><time>2026-04-26T17:38:00.001Z</time></trkpt><trkpt lat="44.95718174536895" lon="11.778051150683043"><ele>1.0</ele><time>2026-04-26T17:38:01.001Z</time></trkpt><trkpt lat="44.95705157142007" lon="11.777809690385636"><ele>1.0</ele><time>2026-04-26T17:38:02.001Z</time></trkpt><trkpt lat="44.956922981530546" lon="11.77756616742847"><ele>1.0</ele><time>2026-04-26T17:38:03.001Z</time></trkpt><trkpt lat="44.9567977543416" lon="11.777319779336908"><ele>1.0</ele><time>2026-04-26T17:38:04.001Z</time></trkpt><trkpt lat="44.956674453917266" lon="11.77707564204223"><ele>1.0</ele><time>2026-04-26T17:38:05.001Z</time></trkpt><trkpt lat="44.95655226277314" lon="11.776830558642928"><ele>1.0</ele><time>2026-04-26T17:38:06.001Z</time></trkpt><trkpt lat="44.95642491578461" lon="11.77658290978453"><ele>1.0</ele><time>2026-04-26T17:38:07.001Z</time></trkpt><trkpt lat="44.956300272723084" lon="11.776344250365085"><ele>1.0</ele><time>2026-04-26T17:38:08.001Z</time></trkpt><trkpt lat="44.95617618560444" lon="11.776108795013357"><ele>1.3333333333333333</ele><time>2026-04-26T17:38:09.001Z</time></trkpt><trkpt lat="44.95604915405395" lon="11.775878089258116"><ele>1.6666666666666665</ele><time>2026-04-26T17:38:10.001Z</time></trkpt><trkpt lat="44.95592431126856" lon="11.77563965780986"><ele>2.0</ele><time>2026-04-26T17:38:11.001Z</time></trkpt><trkpt lat="44.955796901200344" lon="11.775403367756118"><ele>2.0</ele><time>2026-04-26T17:38:12.001Z</time></trkpt><trkpt lat="44.95567577047833" lon="11.775165490073375"><ele>2.0</ele><time>2026-04-26T17:38:13.001Z</time></trkpt><trkpt lat="44.95555405334368" lon="11.774923645655186"><ele>2.0</ele><time>2026-04-26T17:38:14.001Z</time></trkpt><trkpt lat="44.95543287429893" lon="11.77468023296303"><ele>2.0</ele><time>2026-04-26T17:38:15.001Z</time></trkpt><trkpt lat="44.95531329783547" lon="11.774437016495904"><ele>2.0</ele><time>2026-04-26T17:38:16.001Z</time></trkpt><trkpt lat="44.95519476527117" lon="11.774193488851422"><ele>2.0</ele><time>2026-04-26T17:38:17.001Z</time></trkpt><trkpt lat="44.955075672726046" lon="11.773952415103247"><ele>2.0</ele><time>2026-04-26T17:38:18.001Z</time></trkpt><trkpt lat="44.95495738371575" lon="11.773709138014839"><ele>2.0</ele><time>2026-04-26T17:38:19.001Z</time></trkpt><trkpt lat="44.954838209642936" lon="11.773467616648244"><ele>2.0</ele><time>2026-04-26T17:38:20.001Z</time></trkpt><trkpt lat="44.95471631307896" lon="11.773222956125288"><ele>2.333333333333333</ele><time>2026-04-26T17:38:21.001Z</time></trkpt><trkpt lat="44.95459728483804" lon="11.772977773304033"><ele>2.6666666666666665</ele><time>2026-04-26T17:38:22.001Z</time></trkpt><trkpt lat="44.95447667193361" lon="11.772732776322437"><ele>3.0</ele><time>2026-04-26T17:38:23.001Z</time></trkpt><trkpt lat="44.95435776327455" lon="11.772487037423263"><ele>3.0</ele><time>2026-04-26T17:38:24.001Z</time></trkpt><trkpt lat="44.9542383427484" lon="11.772240166681701"><ele>3.0</ele><time>2026-04-26T17:38:25.001Z</time></trkpt><trkpt lat="44.954117962010244" lon="11.772001339848895"><ele>3.0</ele><time>2026-04-26T17:38:26.001Z</time></trkpt><trkpt lat="44.95400678750029" lon="11.771764141366939"><ele>2.6666666666666665</ele><time>2026-04-26T17:38:27Z</time></trkpt><trkpt lat="44.95388899805261" lon="11.771530180524028"><ele>2.333333333333333</ele><time>2026-04-26T17:38:28Z</time></trkpt><trkpt lat="44.953780163507105" lon="11.771308198223458"><ele>2.0</ele><time>2026-04-26T17:38:29Z</time></trkpt><trkpt lat="44.953674695729354" lon="11.771097712942204"><ele>1.6666666666666665</ele><time>2026-04-26T17:38:30Z</time></trkpt><trkpt lat="44.95357619204466" lon="11.770887883659405"><ele>1.3333333333333333</ele><time>2026-04-26T17:38:31Z</time></trkpt><trkpt lat="44.95348252777814" lon="11.770666737142736"><ele>1.0</ele><time>2026-04-26T17:38:32Z</time></trkpt><trkpt lat="44.953409277089186" lon="11.77042684827948"><ele>1.6666666666666665</ele><time>2026-04-26T17:38:33Z</time></trkpt><trkpt lat="44.953346484244676" lon="11.770182888615528"><ele>2.3333333333333335</ele><time>2026-04-26T17:38:34Z</time></trkpt><trkpt lat="44.95329481977221" lon="11.769936994593492"><ele>3.0</ele><time>2026-04-26T17:38:35Z</time></trkpt><trkpt lat="44.95323977498824" lon="11.769688419844401"><ele>3.0</ele><time>2026-04-26T17:38:36Z</time></trkpt><trkpt lat="44.95318011306908" lon="11.769441868954052"><ele>3.0</ele><time>2026-04-26T17:38:37Z</time></trkpt><trkpt lat="44.953117678726414" lon="11.7691939934373"><ele>3.0</ele><time>2026-04-26T17:38:38Z</time></trkpt><trkpt lat="44.95305975483767" lon="11.768944981786671"><ele>3.0</ele><time>2026-04-26T17:38:39Z</time></trkpt><trkpt lat="44.953004451094635" lon="11.768691014212825"><ele>3.0</ele><time>2026-04-26T17:38:40Z</time></trkpt><trkpt lat="44.952946864702206" lon="11.76843923386866"><ele>3.0</ele><time>2026-04-26T17:38:41Z</time></trkpt><trkpt lat="44.95288884301622" lon="11.768183343519139"><ele>3.0</ele><time>2026-04-26T17:38:42Z</time></trkpt><trkpt lat="44.95282756817082" lon="11.767928912655831"><ele>3.0</ele><time>2026-04-26T17:38:43Z</time></trkpt><trkpt lat="44.95276849197191" lon="11.767679669968707"><ele>3.0</ele><time>2026-04-26T17:38:44Z</time></trkpt><trkpt lat="44.95269418971986" lon="11.76743153778713"><ele>3.0</ele><time>2026-04-26T17:38:45Z</time></trkpt><trkpt lat="44.952610054371384" lon="11.767182087081915"><ele>3.0</ele><time>2026-04-26T17:38:46Z</time></trkpt><trkpt lat="44.95250886738866" lon="11.766946676385492"><ele>3.0</ele><time>2026-04-26T17:38:47Z</time></trkpt><trkpt lat="44.952386640892676" lon="11.7667396943953"><ele>3.0</ele><time>2026-04-26T17:38:48Z</time></trkpt><trkpt lat="44.952237382784034" lon="11.766554228540999"><ele>3.0</ele><time>2026-04-26T17:38:49Z</time></trkpt><trkpt lat="44.95208191098783" lon="11.766380057270498"><ele>3.0</ele><time>2026-04-26T17:38:50Z</time></trkpt><trkpt lat="44.95191709329599" lon="11.766210386971569"><ele>3.0</ele><time>2026-04-26T17:38:51Z</time></trkpt><trkpt lat="44.95174871029703" lon="11.76603956749325"><ele>3.0</ele><time>2026-04-26T17:38:52Z</time></trkpt><trkpt lat="44.95158331134746" lon="11.765864856357593"><ele>3.0</ele><time>2026-04-26T17:38:53Z</time></trkpt><trkpt lat="44.95141998316264" lon="11.765690286358241"><ele>3.0</ele><time>2026-04-26T17:38:54Z</time></trkpt><trkpt lat="44.95126383523364" lon="11.765507122857466"><ele>3.0</ele><time>2026-04-26T17:38:55Z</time></trkpt><trkpt lat="44.951119754300215" lon="11.765311692827021"><ele>3.0</ele><time>2026-04-26T17:38:56Z</time></trkpt><trkpt lat="44.950982188487146" lon="11.765112722845092"><ele>3.0</ele><time>2026-04-26T17:38:57Z</time></trkpt><trkpt lat="44.950855029989405" lon="11.76490305286113"><ele>3.0</ele><time>2026-04-26T17:38:58Z</time></trkpt><trkpt lat="44.95073543502825" lon="11.764688217800941"><ele>3.0</ele><time>2026-04-26T17:38:59Z</time></trkpt><trkpt lat="44.95062131147077" lon="11.764473107173567"><ele>2.6666666666666665</ele><time>2026-04-26T17:39:00Z</time></trkpt><trkpt lat="44.95051129151592" lon="11.764256095285473"><ele>2.333333333333333</ele><time>2026-04-26T17:39:01Z</time></trkpt><trkpt lat="44.95042071203519" lon="11.764052809492242"><ele>2.0</ele><time>2026-04-26T17:39:02Z</time></trkpt><trkpt lat="44.950343755577315" lon="11.763856583896446"><ele>2.0</ele><time>2026-04-26T17:39:03Z</time></trkpt><trkpt lat="44.95026917176643" lon="11.763673539577669"><ele>2.0</ele><time>2026-04-26T17:39:04Z</time></trkpt><trkpt lat="44.95020848496236" lon="11.763493218926033"><ele>2.0</ele><time>2026-04-26T17:39:05Z</time></trkpt><trkpt lat="44.9501609885064" lon="11.763301618782817"><ele>2.0</ele><time>2026-04-26T17:39:06Z</time></trkpt><trkpt lat="44.95013127881919" lon="11.763099962919329"><ele>2.0</ele><time>2026-04-26T17:39:07Z</time></trkpt><trkpt lat="44.95011010045298" lon="11.762894802571058"><ele>2.0</ele><time>2026-04-26T17:39:08Z</time></trkpt><trkpt lat="44.95009234016834" lon="11.76266126466269"><ele>2.0</ele><time>2026-04-26T17:39:09Z</time></trkpt><trkpt lat="44.9500850754332" lon="11.762437262374865"><ele>2.25</ele><time>2026-04-26T17:39:10Z</time></trkpt><trkpt lat="44.95007961192409" lon="11.762217182142576"><ele>2.5</ele><time>2026-04-26T17:39:11Z</time></trkpt><trkpt lat="44.950092804381796" lon="11.76200933438655"><ele>2.75</ele><time>2026-04-26T17:39:12Z</time></trkpt><trkpt lat="44.95010324609654" lon="11.761823236604718"><ele>3.0</ele><time>2026-04-26T17:39:13Z</time></trkpt><trkpt lat="44.9500840289963" lon="11.76164372880094"><ele>3.1666666666666665</ele><time>2026-04-26T17:39:14Z</time></trkpt><trkpt lat="44.95008407803365" lon="11.761495087106107"><ele>3.333333333333333</ele><time>2026-04-26T17:39:15Z</time></trkpt><trkpt lat="44.95009135363674" lon="11.761396634293277"><ele>3.5</ele><time>2026-04-26T17:39:16Z</time></trkpt><trkpt lat="44.95011800550753" lon="11.761291026043207"><ele>3.6666666666666665</ele><time>2026-04-26T17:39:18Z</time></trkpt><trkpt lat="44.950208230444986" lon="11.761256887141505"><ele>3.833333333333333</ele><time>2026-04-26T17:39:21Z</time></trkpt><trkpt lat="44.95028187287325" lon="11.761280298727659"><ele>4.0</ele><time>2026-04-26T17:39:22Z</time></trkpt><trkpt lat="44.95037482158142" lon="11.761283033452138"><ele>4.0</ele><time>2026-04-26T17:39:23Z</time></trkpt><trkpt lat="44.95046773150217" lon="11.761268823052895"><ele>4.0</ele><time>2026-04-26T17:39:24Z</time></trkpt><trkpt lat="44.95057927874503" lon="11.76122304564367"><ele>4.0</ele><time>2026-04-26T17:39:25Z</time></trkpt><trkpt lat="44.95071593600475" lon="11.761155392888808"><ele>4.0</ele><time>2026-04-26T17:39:26Z</time></trkpt><trkpt lat="44.950838166656574" lon="11.761044903675026"><ele>3.75</ele><time>2026-04-26T17:39:27Z</time></trkpt><trkpt lat="44.95092876966901" lon="11.760930453796517"><ele>3.5</ele><time>2026-04-26T17:39:28Z</time></trkpt><trkpt lat="44.95103328959312" lon="11.760796967799877"><ele>3.25</ele><time>2026-04-26T17:39:29Z</time></trkpt><trkpt lat="44.95114525501699" lon="11.76064524146928"><ele>3.0</ele><time>2026-04-26T17:39:30Z</time></trkpt><trkpt lat="44.95125913249774" lon="11.760485567874278"><ele>3.0</ele><time>2026-04-26T17:39:31Z</time></trkpt><trkpt lat="44.95138300215533" lon="11.760328347827004"><ele>3.0</ele><time>2026-04-26T17:39:32Z</time></trkpt><trkpt lat="44.951507128088515" lon="11.76017569536135"><ele>3.0</ele><time>2026-04-26T17:39:33Z</time></trkpt><trkpt lat="44.95163587082173" lon="11.760027162440583"><ele>3.333333333333333</ele><time>2026-04-26T17:39:34Z</time></trkpt><trkpt lat="44.951777643797854" lon="11.759889928030955"><ele>3.6666666666666665</ele><time>2026-04-26T17:39:35Z</time></trkpt><trkpt lat="44.95192680774382" lon="11.75976581069123"><ele>4.0</ele><time>2026-04-26T17:39:36Z</time></trkpt><trkpt lat="44.952070804871" lon="11.759648676925586"><ele>4.0</ele><time>2026-04-26T17:39:37Z</time></trkpt><trkpt lat="44.952202841905084" lon="11.759530055221292"><ele>4.0</ele><time>2026-04-26T17:39:38Z</time></trkpt><trkpt lat="44.95232101283664" lon="11.759406633748702"><ele>4.0</ele><time>2026-04-26T17:39:39Z</time></trkpt><trkpt lat="44.95243257377065" lon="11.759273404702432"><ele>4.0</ele><time>2026-04-26T17:39:40Z</time></trkpt><trkpt lat="44.952537039427746" lon="11.75913324372903"><ele>3.6666666666666665</ele><time>2026-04-26T17:39:41Z</time></trkpt><trkpt lat="44.95264387505538" lon="11.758984588734888"><ele>3.333333333333333</ele><time>2026-04-26T17:39:42Z</time></trkpt><trkpt lat="44.95274924479406" lon="11.758807739038915"><ele>3.0</ele><time>2026-04-26T17:39:43Z</time></trkpt><trkpt lat="44.952849657060376" lon="11.758614281228706"><ele>3.666666666666667</ele><time>2026-04-26T17:39:44Z</time></trkpt><trkpt lat="44.95293577350615" lon="11.758411670617857"><ele>4.333333333333334</ele><time>2026-04-26T17:39:45Z</time></trkpt><trkpt lat="44.95300959583175" lon="11.758199666883044"><ele>5.0</ele><time>2026-04-26T17:39:46Z</time></trkpt><trkpt lat="44.95307082381901" lon="11.757985716183558"><ele>5.0</ele><time>2026-04-26T17:39:47Z</time></trkpt><trkpt lat="44.953137180763854" lon="11.757753395243995"><ele>5.0</ele><time>2026-04-26T17:39:48Z</time></trkpt><trkpt lat="44.953200506382224" lon="11.757532006924075"><ele>5.0</ele><time>2026-04-26T17:39:49Z</time></trkpt><trkpt lat="44.953261014929616" lon="11.757337282541824"><ele>5.0</ele><time>2026-04-26T17:39:50Z</time></trkpt><trkpt lat="44.95332148708655" lon="11.75715575203428"><ele>5.0</ele><time>2026-04-26T17:39:51Z</time></trkpt><trkpt lat="44.95336437255181" lon="11.756980666820645"><ele>5.0</ele><time>2026-04-26T17:39:52Z</time></trkpt><trkpt lat="44.953392585996475" lon="11.756821049908565"><ele>5.0</ele><time>2026-04-26T17:39:53Z</time></trkpt><trkpt lat="44.95341092786069" lon="11.75670985467794"><ele>5.0</ele><time>2026-04-26T17:39:54Z</time></trkpt><trkpt lat="44.953425142560846" lon="11.756596333212581"><ele>5.0</ele><time>2026-04-26T17:39:56.001Z</time></trkpt><trkpt lat="44.95345954864071" lon="11.756506753017272"><ele>5.0</ele><time>2026-04-26T17:40:00.001Z</time></trkpt><trkpt lat="44.953556432669366" lon="11.756479396949457"><ele>5.0</ele><time>2026-04-26T17:40:01.001Z</time></trkpt><trkpt lat="44.953735794954326" lon="11.756461163352629"><ele>5.0</ele><time>2026-04-26T17:40:02.001Z</time></trkpt><trkpt lat="44.95389236658859" lon="11.7564703847651"><ele>5.0</ele><time>2026-04-26T17:40:03.001Z</time></trkpt><trkpt lat="44.95409766071446" lon="11.756473029758553"><ele>5.0</ele><time>2026-04-26T17:40:04.001Z</time></trkpt><trkpt lat="44.954304826427304" lon="11.756474257199516"><ele>5.0</ele><time>2026-04-26T17:40:05.001Z</time></trkpt><trkpt lat="44.954559943794564" lon="11.756464286551255"><ele>5.333333333333334</ele><time>2026-04-26T17:40:06.001Z</time></trkpt><trkpt lat="44.95477765935165" lon="11.756456591171034"><ele>5.666666666666667</ele><time>2026-04-26T17:40:07.001Z</time></trkpt><trkpt lat="44.954971788728436" lon="11.756457760412601"><ele>6.0</ele><time>2026-04-26T17:40:08.001Z</time></trkpt><trkpt lat="44.95517559225307" lon="11.756466943242232"><ele>6.0</ele><time>2026-04-26T17:40:09.001Z</time></trkpt><trkpt lat="44.95537183553223" lon="11.756485472574838"><ele>6.0</ele><time>2026-04-26T17:40:10.001Z</time></trkpt><trkpt lat="44.95557027062387" lon="11.756497160377876"><ele>6.0</ele><time>2026-04-26T17:40:11.001Z</time></trkpt><trkpt lat="44.95576664142175" lon="11.756496122020486"><ele>7.0</ele><time>2026-04-26T17:40:12.001Z</time></trkpt><trkpt lat="44.95588410635195" lon="11.756357946892512"><ele>8.0</ele><time>2026-04-26T17:40:13.001Z</time></trkpt><trkpt lat="44.956069025857374" lon="11.756348193457915"><ele>9.0</ele><time>2026-04-26T17:40:14.001Z</time></trkpt><trkpt lat="44.95625936333041" lon="11.756339335222934"><ele>9.0</ele><time>2026-04-26T17:40:15.001Z</time></trkpt><trkpt lat="44.9564530501372" lon="11.756336098658778"><ele>9.0</ele><time>2026-04-26T17:40:16.001Z</time></trkpt><trkpt lat="44.95664691481921" lon="11.756330442391869"><ele>9.0</ele><time>2026-04-26T17:40:17.001Z</time></trkpt><trkpt lat="44.956836283720875" lon="11.756317924648416"><ele>9.0</ele><time>2026-04-26T17:40:18.001Z</time></trkpt><trkpt lat="44.957022770182846" lon="11.756311430940102"><ele>9.0</ele><time>2026-04-26T17:40:19.001Z</time></trkpt><trkpt lat="44.95720911643582" lon="11.756306395481047"><ele>9.0</ele><time>2026-04-26T17:40:20.001Z</time></trkpt><trkpt lat="44.95739545612758" lon="11.75629876492412"><ele>7.0</ele><time>2026-04-26T17:40:21.001Z</time></trkpt><trkpt lat="44.95757780235033" lon="11.756288294384637"><ele>5.0</ele><time>2026-04-26T17:40:22.001Z</time></trkpt><trkpt lat="44.9577631578485" lon="11.756277182851113"><ele>3.0</ele><time>2026-04-26T17:40:23.001Z</time></trkpt><trkpt lat="44.95795002985251" lon="11.756271316779975"><ele>3.0</ele><time>2026-04-26T17:40:24.001Z</time></trkpt><trkpt lat="44.95813338823022" lon="11.756262284738876"><ele>3.0</ele><time>2026-04-26T17:40:25.001Z</time></trkpt><trkpt lat="44.958323584312154" lon="11.756253735907897"><ele>3.0</ele><time>2026-04-26T17:40:26.001Z</time></trkpt><trkpt lat="44.95850851043264" lon="11.756245059877916"><ele>2.3333333333333335</ele><time>2026-04-26T17:40:27.001Z</time></trkpt><trkpt lat="44.95869929469575" lon="11.75623179669012"><ele>1.6666666666666665</ele><time>2026-04-26T17:40:28.001Z</time></trkpt><trkpt lat="44.95889216064644" lon="11.75622999988596"><ele>1.0</ele><time>2026-04-26T17:40:29.001Z</time></trkpt><trkpt lat="44.95907986326259" lon="11.756215919423841"><ele>1.0</ele><time>2026-04-26T17:40:30.001Z</time></trkpt><trkpt lat="44.959276116026004" lon="11.756201717895776"><ele>1.0</ele><time>2026-04-26T17:40:31.001Z</time></trkpt><trkpt lat="44.95946366155078" lon="11.756193756388964"><ele>1.0</ele><time>2026-04-26T17:40:32.001Z</time></trkpt><trkpt lat="44.959649925705286" lon="11.756187019919677"><ele>1.0</ele><time>2026-04-26T17:40:33Z</time></trkpt><trkpt lat="44.95983255420427" lon="11.756183842348902"><ele>1.0</ele><time>2026-04-26T17:40:34Z</time></trkpt><trkpt lat="44.96002162341764" lon="11.756173701048478"><ele>1.0</ele><time>2026-04-26T17:40:35Z</time></trkpt><trkpt lat="44.96020760310138" lon="11.756175070381417"><ele>2.0</ele><time>2026-04-26T17:40:36Z</time></trkpt><trkpt lat="44.960392676305986" lon="11.756161943528252"><ele>3.0</ele><time>2026-04-26T17:40:37Z</time></trkpt><trkpt lat="44.96058596712152" lon="11.756152487048837"><ele>4.0</ele><time>2026-04-26T17:40:38Z</time></trkpt><trkpt lat="44.96075042119902" lon="11.756146314646525"><ele>5.333333333333333</ele><time>2026-04-26T17:40:39Z</time></trkpt><trkpt lat="44.96090316270771" lon="11.756151421999212"><ele>6.666666666666666</ele><time>2026-04-26T17:40:40Z</time></trkpt><trkpt lat="44.961087145102866" lon="11.756139467278159"><ele>8.0</ele><time>2026-04-26T17:40:41Z</time></trkpt><trkpt lat="44.961256662655245" lon="11.756133386131623"><ele>8.0</ele><time>2026-04-26T17:40:42Z</time></trkpt><trkpt lat="44.96142484914295" lon="11.756118845330578"><ele>8.0</ele><time>2026-04-26T17:40:43Z</time></trkpt><trkpt lat="44.96156989018535" lon="11.75611701881921"><ele>8.0</ele><time>2026-04-26T17:40:44Z</time></trkpt><trkpt lat="44.96172065133412" lon="11.756118695828189"><ele>7.666666666666666</ele><time>2026-04-26T17:40:45Z</time></trkpt><trkpt lat="44.961885708309445" lon="11.756115705472226"><ele>7.333333333333334</ele><time>2026-04-26T17:40:46Z</time></trkpt><trkpt lat="44.962042092707854" lon="11.756102447663448"><ele>7.0</ele><time>2026-04-26T17:40:47Z</time></trkpt><trkpt lat="44.962197191891505" lon="11.756094999957018"><ele>7.0</ele><time>2026-04-26T17:40:48Z</time></trkpt><trkpt lat="44.962360073423994" lon="11.75608100999239"><ele>7.0</ele><time>2026-04-26T17:40:49Z</time></trkpt><trkpt lat="44.96249054210189" lon="11.756081007370103"><ele>7.0</ele><time>2026-04-26T17:40:50Z</time></trkpt><trkpt lat="44.96261943051698" lon="11.756078771645013"><ele>7.0</ele><time>2026-04-26T17:40:51Z</time></trkpt><trkpt lat="44.962769654627245" lon="11.756059864329414"><ele>6.666666666666667</ele><time>2026-04-26T17:40:52Z</time></trkpt><trkpt lat="44.96294638314105" lon="11.756043478258587"><ele>6.333333333333334</ele><time>2026-04-26T17:40:53Z</time></trkpt><trkpt lat="44.96314996289187" lon="11.756017133282947"><ele>6.0</ele><time>2026-04-26T17:40:54Z</time></trkpt><trkpt lat="44.96335897249694" lon="11.756014664655122"><ele>5.666666666666667</ele><time>2026-04-26T17:40:55Z</time></trkpt><trkpt lat="44.96356782520396" lon="11.756013670922394"><ele>5.333333333333334</ele><time>2026-04-26T17:40:56Z</time></trkpt><trkpt lat="44.963786608899" lon="11.756028488338705"><ele>5.0</ele><time>2026-04-26T17:40:57Z</time></trkpt><trkpt lat="44.963994122907806" lon="11.756020442646493"><ele>4.0</ele><time>2026-04-26T17:40:58Z</time></trkpt><trkpt lat="44.96420299507088" lon="11.756009267304073"><ele>3.0</ele><time>2026-04-26T17:40:59Z</time></trkpt><trkpt lat="44.964414684901556" lon="11.756007263252172"><ele>2.0</ele><time>2026-04-26T17:41:00Z</time></trkpt><trkpt lat="44.964618895705655" lon="11.75600132464931"><ele>2.0</ele><time>2026-04-26T17:41:01Z</time></trkpt><trkpt lat="44.96481072876918" lon="11.75599729987306"><ele>2.0</ele><time>2026-04-26T17:41:02Z</time></trkpt><trkpt lat="44.96499894262565" lon="11.755989426776"><ele>2.0</ele><time>2026-04-26T17:41:03Z</time></trkpt><trkpt lat="44.96519335240421" lon="11.755983415443758"><ele>2.333333333333333</ele><time>2026-04-26T17:41:04Z</time></trkpt><trkpt lat="44.965391531755174" lon="11.755971302513096"><ele>2.6666666666666665</ele><time>2026-04-26T17:41:05Z</time></trkpt><trkpt lat="44.96558379903075" lon="11.755959255195288"><ele>3.0</ele><time>2026-04-26T17:41:06Z</time></trkpt><trkpt lat="44.965765520417165" lon="11.755965766585438"><ele>3.333333333333333</ele><time>2026-04-26T17:41:07Z</time></trkpt><trkpt lat="44.965934497793896" lon="11.755965222920784"><ele>3.6666666666666665</ele><time>2026-04-26T17:41:08Z</time></trkpt><trkpt lat="44.96609840759458" lon="11.755960604594954"><ele>4.0</ele><time>2026-04-26T17:41:09Z</time></trkpt><trkpt lat="44.96626007174344" lon="11.7559540594318"><ele>4.0</ele><time>2026-04-26T17:41:10Z</time></trkpt><trkpt lat="44.966424880528876" lon="11.755946709922844"><ele>4.0</ele><time>2026-04-26T17:41:11Z</time></trkpt><trkpt lat="44.9665955064158" lon="11.75592950426913"><ele>4.0</ele><time>2026-04-26T17:41:12Z</time></trkpt><trkpt lat="44.96676507060516" lon="11.755904038956125"><ele>3.6666666666666665</ele><time>2026-04-26T17:41:13Z</time></trkpt><trkpt lat="44.966930529590364" lon="11.755866000710986"><ele>3.333333333333333</ele><time>2026-04-26T17:41:14Z</time></trkpt><trkpt lat="44.96709197154575" lon="11.75580699933809"><ele>3.0</ele><time>2026-04-26T17:41:15Z</time></trkpt><trkpt lat="44.96724878643728" lon="11.7557184888746"><ele>3.0</ele><time>2026-04-26T17:41:16Z</time></trkpt><trkpt lat="44.96740866085314" lon="11.75562096672776"><ele>3.0</ele><time>2026-04-26T17:41:17Z</time></trkpt><trkpt lat="44.96756737608561" lon="11.755512583470646"><ele>3.0</ele><time>2026-04-26T17:41:18Z</time></trkpt><trkpt lat="44.96773242537515" lon="11.755399945184678"><ele>3.0</ele><time>2026-04-26T17:41:19Z</time></trkpt><trkpt lat="44.96789430633383" lon="11.755290864211526"><ele>3.0</ele><time>2026-04-26T17:41:20Z</time></trkpt><trkpt lat="44.96805093041843" lon="11.755189790684385"><ele>3.0</ele><time>2026-04-26T17:41:21Z</time></trkpt><trkpt lat="44.96819597084629" lon="11.755098998131542"><ele>2.75</ele><time>2026-04-26T17:41:22Z</time></trkpt><trkpt lat="44.968333333896545" lon="11.75501169084392"><ele>2.5</ele><time>2026-04-26T17:41:23Z</time></trkpt><trkpt lat="44.96846509897638" lon="11.754923463057551"><ele>2.25</ele><time>2026-04-26T17:41:24Z</time></trkpt><trkpt lat="44.9685987603001" lon="11.754839180133821"><ele>2.0</ele><time>2026-04-26T17:41:25Z</time></trkpt><trkpt lat="44.96873666870065" lon="11.754763066782727"><ele>2.0</ele><time>2026-04-26T17:41:26Z</time></trkpt><trkpt lat="44.968863534998455" lon="11.754678453589676"><ele>2.0</ele><time>2026-04-26T17:41:27Z</time></trkpt><trkpt lat="44.96899144090793" lon="11.75459604508251"><ele>2.0</ele><time>2026-04-26T17:41:28Z</time></trkpt><trkpt lat="44.96911806585804" lon="11.754508493509002"><ele>2.0</ele><time>2026-04-26T17:41:29Z</time></trkpt><trkpt lat="44.969242314293275" lon="11.754429439219853"><ele>2.25</ele><time>2026-04-26T17:41:30Z</time></trkpt><trkpt lat="44.96936565817627" lon="11.75434433699621"><ele>2.5</ele><time>2026-04-26T17:41:31Z</time></trkpt><trkpt lat="44.96949007900858" lon="11.754260643688728"><ele>2.75</ele><time>2026-04-26T17:41:32Z</time></trkpt><trkpt lat="44.96961553929679" lon="11.754192419243594"><ele>3.0</ele><time>2026-04-26T17:41:33Z</time></trkpt><trkpt lat="44.969737456736844" lon="11.754114712501668"><ele>3.0</ele><time>2026-04-26T17:41:34Z</time></trkpt><trkpt lat="44.96985059712463" lon="11.754045421872775"><ele>3.0</ele><time>2026-04-26T17:41:35Z</time></trkpt><trkpt lat="44.96995627796506" lon="11.753976999007897"><ele>3.0</ele><time>2026-04-26T17:41:36Z</time></trkpt><trkpt lat="44.97005466246486" lon="11.753916020318098"><ele>3.0</ele><time>2026-04-26T17:41:37Z</time></trkpt><trkpt lat="44.97014963320094" lon="11.753866113032197"><ele>3.0</ele><time>2026-04-26T17:41:38Z</time></trkpt><trkpt lat="44.970245666475144" lon="11.753827301531738"><ele>3.0</ele><time>2026-04-26T17:41:39Z</time></trkpt><trkpt lat="44.97033921156315" lon="11.753805861576451"><ele>3.0</ele><time>2026-04-26T17:41:40Z</time></trkpt><trkpt lat="44.970426574402445" lon="11.75379671139651"><ele>3.0</ele><time>2026-04-26T17:41:41Z</time></trkpt><trkpt lat="44.9704944721967" lon="11.753790974912684"><ele>3.0</ele><time>2026-04-26T17:41:42Z</time></trkpt><trkpt lat="44.970565090674555" lon="11.753786489476203"><ele>3.0</ele><time>2026-04-26T17:41:44Z</time></trkpt><trkpt lat="44.97064107078102" lon="11.753792293246258"><ele>3.0</ele><time>2026-04-26T17:41:47.001Z</time></trkpt><trkpt lat="44.9707398061302" lon="11.75379764500101"><ele>3.0</ele><time>2026-04-26T17:41:53.001Z</time></trkpt><trkpt lat="44.970802631793205" lon="11.753811630542057"><ele>3.0</ele><time>2026-04-26T17:41:54.001Z</time></trkpt><trkpt lat="44.970876608841614" lon="11.753837795862845"><ele>3.0</ele><time>2026-04-26T17:41:55.001Z</time></trkpt><trkpt lat="44.970953821310054" lon="11.753867973166976"><ele>3.0</ele><time>2026-04-26T17:41:56.001Z</time></trkpt><trkpt lat="44.97104541469714" lon="11.753910660162305"><ele>3.0</ele><time>2026-04-26T17:41:57.001Z</time></trkpt><trkpt lat="44.9711514057056" lon="11.753964426325702"><ele>3.0</ele><time>2026-04-26T17:41:58.001Z</time></trkpt><trkpt lat="44.9712745595881" lon="11.75402721002972"><ele>3.25</ele><time>2026-04-26T17:41:59.001Z</time></trkpt><trkpt lat="44.97140182134716" lon="11.75408767171396"><ele>3.5</ele><time>2026-04-26T17:42:00.001Z</time></trkpt><trkpt lat="44.971532715223155" lon="11.754154228683966"><ele>3.75</ele><time>2026-04-26T17:42:01.001Z</time></trkpt><trkpt lat="44.971672441200624" lon="11.754227806046508"><ele>4.0</ele><time>2026-04-26T17:42:02.001Z</time></trkpt><trkpt lat="44.971811321496084" lon="11.75430031193488"><ele>3.6666666666666665</ele><time>2026-04-26T17:42:03.001Z</time></trkpt><trkpt lat="44.971950683428325" lon="11.754380079091938"><ele>3.333333333333333</ele><time>2026-04-26T17:42:04.001Z</time></trkpt><trkpt lat="44.97209180070097" lon="11.754459752401555"><ele>3.0</ele><time>2026-04-26T17:42:05.001Z</time></trkpt><trkpt lat="44.97223317226982" lon="11.754537659537439"><ele>3.0</ele><time>2026-04-26T17:42:06.001Z</time></trkpt><trkpt lat="44.972366223539" lon="11.754612453100705"><ele>3.0</ele><time>2026-04-26T17:42:07.001Z</time></trkpt><trkpt lat="44.97248952740029" lon="11.7546852371191"><ele>3.0</ele><time>2026-04-26T17:42:08.001Z</time></trkpt><trkpt lat="44.9726005591924" lon="11.75475269732323"><ele>3.0</ele><time>2026-04-26T17:42:09.001Z</time></trkpt><trkpt lat="44.97270245429688" lon="11.754821410156937"><ele>3.0</ele><time>2026-04-26T17:42:10.001Z</time></trkpt><trkpt lat="44.97279603824528" lon="11.754880422670249"><ele>3.0</ele><time>2026-04-26T17:42:11.001Z</time></trkpt><trkpt lat="44.97286838213146" lon="11.754946866827847"><ele>3.0</ele><time>2026-04-26T17:42:12.001Z</time></trkpt><trkpt lat="44.972913836760625" lon="11.755022857319767"><ele>3.0</ele><time>2026-04-26T17:42:13.001Z</time></trkpt><trkpt lat="44.97296445057109" lon="11.755143425261329"><ele>3.0</ele><time>2026-04-26T17:42:15.001Z</time></trkpt><trkpt lat="44.97301988819518" lon="11.755201791619132"><ele>3.0</ele><time>2026-04-26T17:42:17.001Z</time></trkpt><trkpt lat="44.97309982544913" lon="11.755226125393278"><ele>3.5</ele><time>2026-04-26T17:42:20.001Z</time></trkpt><trkpt lat="44.97316631848344" lon="11.755290965885413"><ele>4.0</ele><time>2026-04-26T17:45:48.001Z</time></trkpt><trkpt lat="44.97323150348153" lon="11.755301259219138"><ele>4.5</ele><time>2026-04-26T17:45:51.001Z</time></trkpt><trkpt lat="44.973309657985" lon="11.755268968653235"><ele>5.0</ele><time>2026-04-26T17:45:56.001Z</time></trkpt><trkpt lat="44.973397038532184" lon="11.75531271301229"><ele>5.5</ele><time>2026-04-26T17:45:58.001Z</time></trkpt><trkpt lat="44.97346191632226" lon="11.755368154993517"><ele>6.0</ele><time>2026-04-26T17:45:59.001Z</time></trkpt><trkpt lat="44.97355633007441" lon="11.755446844336294"><ele>6.0</ele><time>2026-04-26T17:46:00.001Z</time></trkpt><trkpt lat="44.97369161117579" lon="11.755523313040165"><ele>6.0</ele><time>2026-04-26T17:46:01.001Z</time></trkpt><trkpt lat="44.973863566635764" lon="11.755633300985886"><ele>6.0</ele><time>2026-04-26T17:46:02.001Z</time></trkpt><trkpt lat="44.973994385571785" lon="11.75576038705884"><ele>6.0</ele><time>2026-04-26T17:46:03.001Z</time></trkpt><trkpt lat="44.97410948293047" lon="11.755876769115392"><ele>6.0</ele><time>2026-04-26T17:46:04.001Z</time></trkpt><trkpt lat="44.97422732570876" lon="11.75595941078647"><ele>6.0</ele><time>2026-04-26T17:46:05.001Z</time></trkpt><trkpt lat="44.97437285159612" lon="11.756008591217787"><ele>6.0</ele><time>2026-04-26T17:46:06.001Z</time></trkpt><trkpt lat="44.974496000652444" lon="11.756088815878595"><ele>6.0</ele><time>2026-04-26T17:46:07.001Z</time></trkpt><trkpt lat="44.974610002818366" lon="11.756173970689735"><ele>6.0</ele><time>2026-04-26T17:46:08.001Z</time></trkpt><trkpt lat="44.974720641063286" lon="11.756264307163693"><ele>6.0</ele><time>2026-04-26T17:46:09.001Z</time></trkpt><trkpt lat="44.97483509790796" lon="11.756347123018141"><ele>6.0</ele><time>2026-04-26T17:46:10.001Z</time></trkpt><trkpt lat="44.974957421495006" lon="11.756426119820848"><ele>5.5</ele><time>2026-04-26T17:46:11.001Z</time></trkpt><trkpt lat="44.97508193035039" lon="11.756508712675997"><ele>5.0</ele><time>2026-04-26T17:46:12.001Z</time></trkpt><trkpt lat="44.97520652516325" lon="11.756603646262782"><ele>4.5</ele><time>2026-04-26T17:46:13.001Z</time></trkpt><trkpt lat="44.9753296091667" lon="11.75669568159415"><ele>4.0</ele><time>2026-04-26T17:46:14.001Z</time></trkpt><trkpt lat="44.97545659496828" lon="11.756785948113542"><ele>4.25</ele><time>2026-04-26T17:46:15.001Z</time></trkpt><trkpt lat="44.97558704895839" lon="11.756882397271218"><ele>4.5</ele><time>2026-04-26T17:46:16.001Z</time></trkpt><trkpt lat="44.975718966230325" lon="11.756981298347657"><ele>4.75</ele><time>2026-04-26T17:46:17.001Z</time></trkpt><trkpt lat="44.97585061752846" lon="11.75707424396509"><ele>5.0</ele><time>2026-04-26T17:46:18.001Z</time></trkpt><trkpt lat="44.97598169482552" lon="11.757179197689593"><ele>4.5</ele><time>2026-04-26T17:46:19.001Z</time></trkpt><trkpt lat="44.97611264118808" lon="11.757279751073405"><ele>4.0</ele><time>2026-04-26T17:46:20.001Z</time></trkpt><trkpt lat="44.976242767909724" lon="11.75737372566628"><ele>3.5</ele><time>2026-04-26T17:46:21.001Z</time></trkpt><trkpt lat="44.97637542021063" lon="11.757471229098346"><ele>3.0</ele><time>2026-04-26T17:46:22.001Z</time></trkpt><trkpt lat="44.976506204781884" lon="11.75756563950232"><ele>3.0</ele><time>2026-04-26T17:46:23.001Z</time></trkpt><trkpt lat="44.97663832248928" lon="11.757661881394709"><ele>3.0</ele><time>2026-04-26T17:46:24.001Z</time></trkpt><trkpt lat="44.97676974788718" lon="11.757755231922472"><ele>3.0</ele><time>2026-04-26T17:46:25.001Z</time></trkpt><trkpt lat="44.97690112671657" lon="11.757850200870921"><ele>3.0</ele><time>2026-04-26T17:46:26.001Z</time></trkpt><trkpt lat="44.97703290452844" lon="11.757944391669792"><ele>3.0</ele><time>2026-04-26T17:46:27.001Z</time></trkpt><trkpt lat="44.97716526432233" lon="11.758040692325586"><ele>3.0</ele><time>2026-04-26T17:46:28.001Z</time></trkpt><trkpt lat="44.97729710341218" lon="11.758137560589232"><ele>3.0</ele><time>2026-04-26T17:46:29.001Z</time></trkpt><trkpt lat="44.97742932442897" lon="11.758236963537744"><ele>3.0</ele><time>2026-04-26T17:46:30.001Z</time></trkpt><trkpt lat="44.97756419828143" lon="11.758328597911209"><ele>3.0</ele><time>2026-04-26T17:46:31.001Z</time></trkpt><trkpt lat="44.97770229352942" lon="11.758412835062833"><ele>3.0</ele><time>2026-04-26T17:46:32.001Z</time></trkpt><trkpt lat="44.97784457648063" lon="11.758479748386124"><ele>3.0</ele><time>2026-04-26T17:46:33.001Z</time></trkpt><trkpt lat="44.97798824221468" lon="11.758536494826789"><ele>2.6666666666666665</ele><time>2026-04-26T17:46:34.001Z</time></trkpt><trkpt lat="44.97814097514846" lon="11.758567777902366"><ele>2.333333333333333</ele><time>2026-04-26T17:46:35.001Z</time></trkpt><trkpt lat="44.97829381269553" lon="11.758594810853085"><ele>2.0</ele><time>2026-04-26T17:46:36.001Z</time></trkpt><trkpt lat="44.9784447225258" lon="11.75862941128461"><ele>1.6666666666666665</ele><time>2026-04-26T17:46:37.001Z</time></trkpt><trkpt lat="44.978596686147604" lon="11.758663192253385"><ele>1.3333333333333333</ele><time>2026-04-26T17:46:38.001Z</time></trkpt><trkpt lat="44.978747531027864" lon="11.758700922898603"><ele>1.0</ele><time>2026-04-26T17:46:39.001Z</time></trkpt><trkpt lat="44.97890579820254" lon="11.758741100052013"><ele>1.0</ele><time>2026-04-26T17:46:40.001Z</time></trkpt><trkpt lat="44.97906548600073" lon="11.75877928575415"><ele>1.0</ele><time>2026-04-26T17:46:41.001Z</time></trkpt><trkpt lat="44.979225798442876" lon="11.758812269207926"><ele>1.0</ele><time>2026-04-26T17:46:42.001Z</time></trkpt><trkpt lat="44.979386657974324" lon="11.758843557776183"><ele>1.0</ele><time>2026-04-26T17:46:43.001Z</time></trkpt><trkpt lat="44.97954720876971" lon="11.758877577181815"><ele>1.0</ele><time>2026-04-26T17:46:44.001Z</time></trkpt><trkpt lat="44.97970782503369" lon="11.758912204270887"><ele>1.0</ele><time>2026-04-26T17:46:45.001Z</time></trkpt><trkpt lat="44.97986204957416" lon="11.75894322768685"><ele>1.0</ele><time>2026-04-26T17:46:46.001Z</time></trkpt><trkpt lat="44.980011826976245" lon="11.75897737417879"><ele>1.0</ele><time>2026-04-26T17:46:47.001Z</time></trkpt><trkpt lat="44.980162203637974" lon="11.759011295857029"><ele>1.0</ele><time>2026-04-26T17:46:48.001Z</time></trkpt><trkpt lat="44.980310631794346" lon="11.759030816065087"><ele>1.0</ele><time>2026-04-26T17:46:49.001Z</time></trkpt><trkpt lat="44.980447006781475" lon="11.75905857960741"><ele>1.0</ele><time>2026-04-26T17:46:50.001Z</time></trkpt><trkpt lat="44.98058670176352" lon="11.75909392930398"><ele>1.0</ele><time>2026-04-26T17:46:51Z</time></trkpt><trkpt lat="44.98072800213194" lon="11.759132610817373"><ele>1.0</ele><time>2026-04-26T17:46:52Z</time></trkpt><trkpt lat="44.98087228958806" lon="11.759170055982104"><ele>1.0</ele><time>2026-04-26T17:46:53Z</time></trkpt><trkpt lat="44.98101682867024" lon="11.759205385553795"><ele>1.0</ele><time>2026-04-26T17:46:54Z</time></trkpt><trkpt lat="44.98116239784237" lon="11.759241753776793"><ele>1.0</ele><time>2026-04-26T17:46:55Z</time></trkpt><trkpt lat="44.98131017236897" lon="11.759277589532438"><ele>1.0</ele><time>2026-04-26T17:46:56Z</time></trkpt><trkpt lat="44.98145894826685" lon="11.759312401098303"><ele>1.0</ele><time>2026-04-26T17:46:57Z</time></trkpt><trkpt lat="44.98160863646652" lon="11.759343137682107"><ele>1.0</ele><time>2026-04-26T17:46:58Z</time></trkpt><trkpt lat="44.98176055651024" lon="11.759378352181601"><ele>1.0</ele><time>2026-04-26T17:46:59Z</time></trkpt><trkpt lat="44.98192027099996" lon="11.759415164943167"><ele>0.6666666666666666</ele><time>2026-04-26T17:47:00Z</time></trkpt><trkpt lat="44.98207979736938" lon="11.759447859884217"><ele>0.3333333333333333</ele><time>2026-04-26T17:47:01Z</time></trkpt><trkpt lat="44.98224364460261" lon="11.75947788134132"><ele>0.0</ele><time>2026-04-26T17:47:02Z</time></trkpt><trkpt lat="44.982404098131745" lon="11.759508555081371"><ele>0.0</ele><time>2026-04-26T17:47:03Z</time></trkpt><trkpt lat="44.9825663942931" lon="11.759542655291108"><ele>0.0</ele><time>2026-04-26T17:47:04Z</time></trkpt><trkpt lat="44.98273170309866" lon="11.759578357701555"><ele>0.0</ele><time>2026-04-26T17:47:05Z</time></trkpt><trkpt lat="44.98289890769799" lon="11.759612430120233"><ele>0.0</ele><time>2026-04-26T17:47:06Z</time></trkpt><trkpt lat="44.98307194367239" lon="11.759642996183894"><ele>0.0</ele><time>2026-04-26T17:47:07Z</time></trkpt><trkpt lat="44.98324674254666" lon="11.7596773990252"><ele>0.0</ele><time>2026-04-26T17:47:08Z</time></trkpt><trkpt lat="44.98342422632257" lon="11.759707701311704"><ele>0.3333333333333333</ele><time>2026-04-26T17:47:09Z</time></trkpt><trkpt lat="44.983606984760236" lon="11.759736706101679"><ele>0.6666666666666666</ele><time>2026-04-26T17:47:10Z</time></trkpt><trkpt lat="44.98378815492361" lon="11.75976788474202"><ele>1.0</ele><time>2026-04-26T17:47:11Z</time></trkpt><trkpt lat="44.98396647297255" lon="11.759805223544173"><ele>1.0</ele><time>2026-04-26T17:47:12Z</time></trkpt><trkpt lat="44.98413567493829" lon="11.759842878724976"><ele>1.0</ele><time>2026-04-26T17:47:13Z</time></trkpt><trkpt lat="44.98430819625532" lon="11.759877413084064"><ele>1.0</ele><time>2026-04-26T17:47:14Z</time></trkpt><trkpt lat="44.9844865998724" lon="11.759905336471915"><ele>0.6666666666666666</ele><time>2026-04-26T17:47:15Z</time></trkpt><trkpt lat="44.98466307169944" lon="11.759926212460103"><ele>0.3333333333333333</ele><time>2026-04-26T17:47:16Z</time></trkpt><trkpt lat="44.98482646386821" lon="11.759930134976763"><ele>0.0</ele><time>2026-04-26T17:47:17Z</time></trkpt><trkpt lat="44.98498492319636" lon="11.759929709480033"><ele>0.0</ele><time>2026-04-26T17:47:18Z</time></trkpt><trkpt lat="44.985147825681416" lon="11.759941523575714"><ele>0.0</ele><time>2026-04-26T17:47:19Z</time></trkpt><trkpt lat="44.985307487959076" lon="11.759963164171156"><ele>0.0</ele><time>2026-04-26T17:47:20Z</time></trkpt><trkpt lat="44.98546699880135" lon="11.760003980964852"><ele>0.0</ele><time>2026-04-26T17:47:21Z</time></trkpt><trkpt lat="44.985622886677135" lon="11.76006141125586"><ele>0.0</ele><time>2026-04-26T17:47:22Z</time></trkpt><trkpt lat="44.985774601937656" lon="11.760153793530172"><ele>0.0</ele><time>2026-04-26T17:47:23Z</time></trkpt><trkpt lat="44.98593300156622" lon="11.76019522636439"><ele>0.0</ele><time>2026-04-26T17:47:24Z</time></trkpt><trkpt lat="44.98609422533648" lon="11.760233964521289"><ele>0.0</ele><time>2026-04-26T17:47:25Z</time></trkpt><trkpt lat="44.986257870600355" lon="11.760273295941671"><ele>0.0</ele><time>2026-04-26T17:47:26Z</time></trkpt><trkpt lat="44.98642373230119" lon="11.760312370214734"><ele>0.0</ele><time>2026-04-26T17:47:27Z</time></trkpt><trkpt lat="44.9865941628052" lon="11.760356092606687"><ele>0.0</ele><time>2026-04-26T17:47:28Z</time></trkpt><trkpt lat="44.98675731881851" lon="11.760399443997194"><ele>0.0</ele><time>2026-04-26T17:47:29Z</time></trkpt><trkpt lat="44.98693899291475" lon="11.760433806083645"><ele>0.0</ele><time>2026-04-26T17:47:30Z</time></trkpt><trkpt lat="44.987113363651176" lon="11.76047020270371"><ele>0.0</ele><time>2026-04-26T17:47:31Z</time></trkpt><trkpt lat="44.98728338800998" lon="11.760501879384618"><ele>0.0</ele><time>2026-04-26T17:47:32Z</time></trkpt><trkpt lat="44.987452652530926" lon="11.760540724565978"><ele>-0.3333333333333333</ele><time>2026-04-26T17:47:33Z</time></trkpt><trkpt lat="44.98762135313831" lon="11.760575675530461"><ele>-0.6666666666666666</ele><time>2026-04-26T17:47:34Z</time></trkpt><trkpt lat="44.98778746893614" lon="11.76060772431545"><ele>-1.0</ele><time>2026-04-26T17:47:35Z</time></trkpt><trkpt lat="44.987957921581305" lon="11.760643566178846"><ele>-1.0</ele><time>2026-04-26T17:47:36Z</time></trkpt><trkpt lat="44.988123807704525" lon="11.760677833248108"><ele>-1.0</ele><time>2026-04-26T17:47:37Z</time></trkpt><trkpt lat="44.988293834423544" lon="11.76070836151665"><ele>-1.0</ele><time>2026-04-26T17:47:38Z</time></trkpt><trkpt lat="44.98846474794718" lon="11.760746413744279"><ele>-0.6666666666666666</ele><time>2026-04-26T17:47:39Z</time></trkpt><trkpt lat="44.9886250322812" lon="11.760784081244143"><ele>-0.3333333333333333</ele><time>2026-04-26T17:47:40Z</time></trkpt><trkpt lat="44.988790323886874" lon="11.760812010712272"><ele>0.0</ele><time>2026-04-26T17:47:41Z</time></trkpt><trkpt lat="44.98895602251216" lon="11.76085383258362"><ele>0.0</ele><time>2026-04-26T17:47:42Z</time></trkpt><trkpt lat="44.989119546718484" lon="11.760890789538163"><ele>0.0</ele><time>2026-04-26T17:47:43Z</time></trkpt><trkpt lat="44.989283435939576" lon="11.760922419464748"><ele>0.0</ele><time>2026-04-26T17:47:44Z</time></trkpt><trkpt lat="44.9894473298987" lon="11.76096286967015"><ele>0.0</ele><time>2026-04-26T17:47:45Z</time></trkpt><trkpt lat="44.9896100524468" lon="11.760996246550937"><ele>0.0</ele><time>2026-04-26T17:47:46Z</time></trkpt><trkpt lat="44.98977152763292" lon="11.76103113235752"><ele>0.0</ele><time>2026-04-26T17:47:47Z</time></trkpt><trkpt lat="44.989927833534296" lon="11.761063507520898"><ele>0.75</ele><time>2026-04-26T17:47:48Z</time></trkpt><trkpt lat="44.9900774707285" lon="11.761091390028044"><ele>1.5</ele><time>2026-04-26T17:47:49Z</time></trkpt><trkpt lat="44.99021370133023" lon="11.761118707190526"><ele>2.25</ele><time>2026-04-26T17:47:50Z</time></trkpt><trkpt lat="44.99034556676826" lon="11.761147420070726"><ele>3.0</ele><time>2026-04-26T17:47:51Z</time></trkpt><trkpt lat="44.99049219072128" lon="11.76117732683388"><ele>3.0</ele><time>2026-04-26T17:47:52Z</time></trkpt><trkpt lat="44.990642331035595" lon="11.761202071864686"><ele>3.0</ele><time>2026-04-26T17:47:53Z</time></trkpt><trkpt lat="44.99079498235625" lon="11.761234163014773"><ele>3.0</ele><time>2026-04-26T17:47:54Z</time></trkpt><trkpt lat="44.990937437492356" lon="11.761270166985815"><ele>3.0</ele><time>2026-04-26T17:47:55Z</time></trkpt><trkpt lat="44.99107277211599" lon="11.761296009800212"><ele>3.0</ele><time>2026-04-26T17:47:56Z</time></trkpt><trkpt lat="44.991216879263796" lon="11.761333110388337"><ele>3.0</ele><time>2026-04-26T17:47:57Z</time></trkpt><trkpt lat="44.99136574494356" lon="11.76136580340627"><ele>3.0</ele><time>2026-04-26T17:47:58Z</time></trkpt><trkpt lat="44.99151441040453" lon="11.76139456444641"><ele>3.0</ele><time>2026-04-26T17:47:59Z</time></trkpt><trkpt lat="44.991651289669136" lon="11.761422716352694"><ele>3.0</ele><time>2026-04-26T17:48:00Z</time></trkpt><trkpt lat="44.991780457649575" lon="11.761442423512941"><ele>3.0</ele><time>2026-04-26T17:48:01Z</time></trkpt><trkpt lat="44.991909878890006" lon="11.761462203220379"><ele>3.0</ele><time>2026-04-26T17:48:02Z</time></trkpt><trkpt lat="44.992035944687636" lon="11.761494950877895"><ele>3.0</ele><time>2026-04-26T17:48:03Z</time></trkpt><trkpt lat="44.99215232576429" lon="11.761515631949505"><ele>3.0</ele><time>2026-04-26T17:48:04Z</time></trkpt><trkpt lat="44.99225816578604" lon="11.761539728809701"><ele>3.0</ele><time>2026-04-26T17:48:05Z</time></trkpt><trkpt lat="44.9923606569861" lon="11.761570392885348"><ele>3.0</ele><time>2026-04-26T17:48:06Z</time></trkpt><trkpt lat="44.992464999799225" lon="11.761597311983849"><ele>3.0</ele><time>2026-04-26T17:48:07Z</time></trkpt><trkpt lat="44.99257494967528" lon="11.761614976376793"><ele>3.0</ele><time>2026-04-26T17:48:08Z</time></trkpt><trkpt lat="44.99268087733196" lon="11.761635521705541"><ele>3.0</ele><time>2026-04-26T17:48:09Z</time></trkpt><trkpt lat="44.99278836574485" lon="11.76166339531924"><ele>3.0</ele><time>2026-04-26T17:48:10Z</time></trkpt><trkpt lat="44.992898597527066" lon="11.761689714181742"><ele>3.0</ele><time>2026-04-26T17:48:11Z</time></trkpt><trkpt lat="44.993011820754305" lon="11.761716198530074"><ele>3.0</ele><time>2026-04-26T17:48:12Z</time></trkpt><trkpt lat="44.9931220765963" lon="11.76175118498653"><ele>3.0</ele><time>2026-04-26T17:48:13Z</time></trkpt><trkpt lat="44.99324166940707" lon="11.761762226449404"><ele>3.0</ele><time>2026-04-26T17:48:14Z</time></trkpt><trkpt lat="44.993352610080095" lon="11.761780751351044"><ele>3.0</ele><time>2026-04-26T17:48:15Z</time></trkpt><trkpt lat="44.993450323896624" lon="11.761792898952196"><ele>3.0</ele><time>2026-04-26T17:48:16Z</time></trkpt><trkpt lat="44.99355035086484" lon="11.761819293644615"><ele>3.0</ele><time>2026-04-26T17:48:17Z</time></trkpt><trkpt lat="44.99364995422652" lon="11.761838955204103"><ele>2.75</ele><time>2026-04-26T17:48:18Z</time></trkpt><trkpt lat="44.99375899180796" lon="11.761860547050896"><ele>2.5</ele><time>2026-04-26T17:48:19Z</time></trkpt><trkpt lat="44.99387540425956" lon="11.761891423163654"><ele>2.25</ele><time>2026-04-26T17:48:20Z</time></trkpt><trkpt lat="44.99398878895843" lon="11.761909283802671"><ele>2.0</ele><time>2026-04-26T17:48:21Z</time></trkpt><trkpt lat="44.99410031833344" lon="11.761929200666918"><ele>2.25</ele><time>2026-04-26T17:48:22Z</time></trkpt><trkpt lat="44.99421498596359" lon="11.761961774945558"><ele>2.5</ele><time>2026-04-26T17:48:23Z</time></trkpt><trkpt lat="44.994334168990804" lon="11.76199838136431"><ele>2.75</ele><time>2026-04-26T17:48:24Z</time></trkpt><trkpt lat="44.99445492085237" lon="11.76205181399014"><ele>3.0</ele><time>2026-04-26T17:48:25Z</time></trkpt><trkpt lat="44.99456966628027" lon="11.762046764756866"><ele>3.0</ele><time>2026-04-26T17:48:26Z</time></trkpt><trkpt lat="44.994691299206124" lon="11.76207073886087"><ele>3.0</ele><time>2026-04-26T17:48:27Z</time></trkpt><trkpt lat="44.99481477498477" lon="11.76209984686684"><ele>3.0</ele><time>2026-04-26T17:48:28Z</time></trkpt><trkpt lat="44.994943694567944" lon="11.76213110164219"><ele>3.0</ele><time>2026-04-26T17:48:29Z</time></trkpt><trkpt lat="44.99506661384353" lon="11.762159394471283"><ele>3.0</ele><time>2026-04-26T17:48:30Z</time></trkpt><trkpt lat="44.995192170996816" lon="11.762184821272617"><ele>3.0</ele><time>2026-04-26T17:48:31Z</time></trkpt><trkpt lat="44.995319791417415" lon="11.762212546549096"><ele>3.0</ele><time>2026-04-26T17:48:32Z</time></trkpt><trkpt lat="44.995455431977774" lon="11.76223385002982"><ele>3.0</ele><time>2026-04-26T17:48:33Z</time></trkpt><trkpt lat="44.99559422818734" lon="11.76226282038193"><ele>3.0</ele><time>2026-04-26T17:48:34Z</time></trkpt><trkpt lat="44.995736180820614" lon="11.762300197959352"><ele>3.0</ele><time>2026-04-26T17:48:35Z</time></trkpt><trkpt lat="44.99588219760535" lon="11.76232982012096"><ele>3.0</ele><time>2026-04-26T17:48:36Z</time></trkpt><trkpt lat="44.99602619167273" lon="11.762353254852194"><ele>3.0</ele><time>2026-04-26T17:48:37Z</time></trkpt><trkpt lat="44.996162176881604" lon="11.762377170901466"><ele>3.0</ele><time>2026-04-26T17:48:38Z</time></trkpt><trkpt lat="44.996288063983684" lon="11.762404380743941"><ele>3.0</ele><time>2026-04-26T17:48:39Z</time></trkpt><trkpt lat="44.996416336088785" lon="11.762436313329005"><ele>3.0</ele><time>2026-04-26T17:48:40Z</time></trkpt><trkpt lat="44.996549788025895" lon="11.76246025101814"><ele>3.0</ele><time>2026-04-26T17:48:41Z</time></trkpt><trkpt lat="44.996677180184406" lon="11.762482015900913"><ele>3.0</ele><time>2026-04-26T17:48:42Z</time></trkpt><trkpt lat="44.99680851976982" lon="11.762507868551833"><ele>3.0</ele><time>2026-04-26T17:48:43Z</time></trkpt><trkpt lat="44.996943060662375" lon="11.762531997082778"><ele>3.0</ele><time>2026-04-26T17:48:44Z</time></trkpt><trkpt lat="44.997078140398095" lon="11.762557211642939"><ele>3.0</ele><time>2026-04-26T17:48:45Z</time></trkpt><trkpt lat="44.99720746287166" lon="11.762584284261774"><ele>3.0</ele><time>2026-04-26T17:48:46Z</time></trkpt><trkpt lat="44.99732871505613" lon="11.762621092725386"><ele>3.0</ele><time>2026-04-26T17:48:47Z</time></trkpt><trkpt lat="44.99743359792782" lon="11.762650653129082"><ele>3.0</ele><time>2026-04-26T17:48:48Z</time></trkpt><trkpt lat="44.997549884749574" lon="11.762669833138993"><ele>3.0</ele><time>2026-04-26T17:48:49Z</time></trkpt><trkpt lat="44.997672812518616" lon="11.76269909383178"><ele>2.75</ele><time>2026-04-26T17:48:50Z</time></trkpt><trkpt lat="44.99780168604667" lon="11.762730367569672"><ele>2.5</ele><time>2026-04-26T17:48:51Z</time></trkpt><trkpt lat="44.99792580737876" lon="11.76276238191208"><ele>2.25</ele><time>2026-04-26T17:48:52Z</time></trkpt><trkpt lat="44.9980531888536" lon="11.76278306971848"><ele>2.0</ele><time>2026-04-26T17:48:53Z</time></trkpt><trkpt lat="44.99818051231099" lon="11.762809095811933"><ele>2.0</ele><time>2026-04-26T17:48:54Z</time></trkpt><trkpt lat="44.99830428876036" lon="11.762833949332533"><ele>2.0</ele><time>2026-04-26T17:48:55Z</time></trkpt><trkpt lat="44.99841861895379" lon="11.762856802358627"><ele>2.0</ele><time>2026-04-26T17:48:56Z</time></trkpt><trkpt lat="44.99852888139239" lon="11.7628768716296"><ele>2.0</ele><time>2026-04-26T17:48:57Z</time></trkpt><trkpt lat="44.9986437347702" lon="11.762899471947895"><ele>2.25</ele><time>2026-04-26T17:48:58Z</time></trkpt><trkpt lat="44.998760920946154" lon="11.762929596125947"><ele>2.5</ele><time>2026-04-26T17:48:59Z</time></trkpt><trkpt lat="44.99887628247196" lon="11.76295360836509"><ele>2.75</ele><time>2026-04-26T17:49:00Z</time></trkpt><trkpt lat="44.99899928524658" lon="11.762979419069199"><ele>3.0</ele><time>2026-04-26T17:49:01Z</time></trkpt><trkpt lat="44.99912216207919" lon="11.7630066989171"><ele>3.2</ele><time>2026-04-26T17:49:02Z</time></trkpt><trkpt lat="44.999235731645996" lon="11.76303390898011"><ele>3.4</ele><time>2026-04-26T17:49:03Z</time></trkpt><trkpt lat="44.99934549257353" lon="11.76305441507641"><ele>3.6000000000000005</ele><time>2026-04-26T17:49:04Z</time></trkpt><trkpt lat="44.999454075661674" lon="11.763079040444046"><ele>3.8000000000000003</ele><time>2026-04-26T17:49:05Z</time></trkpt><trkpt lat="44.99954840511775" lon="11.763098756999137"><ele>4.0</ele><time>2026-04-26T17:49:06Z</time></trkpt><trkpt lat="44.9996373529307" lon="11.763105046507908"><ele>4.0</ele><time>2026-04-26T17:49:07Z</time></trkpt><trkpt lat="44.99972229248335" lon="11.763111514363782"><ele>4.0</ele><time>2026-04-26T17:49:08Z</time></trkpt><trkpt lat="44.999792531492254" lon="11.763128574956554"><ele>4.0</ele><time>2026-04-26T17:49:09Z</time></trkpt><trkpt lat="44.99990584886367" lon="11.763150454192937"><ele>4.0</ele><time>2026-04-26T17:49:11Z</time></trkpt><trkpt lat="45.000013670328514" lon="11.763168093232192"><ele>4.0</ele><time>2026-04-26T17:49:13Z</time></trkpt><trkpt lat="45.00014904977728" lon="11.763178397656528"><ele>4.0</ele><time>2026-04-26T17:49:15Z</time></trkpt><trkpt lat="45.000236633152234" lon="11.763189894700288"><ele>4.0</ele><time>2026-04-26T17:49:16Z</time></trkpt><trkpt lat="45.000333125547094" lon="11.763223633545413"><ele>4.0</ele><time>2026-04-26T17:49:17Z</time></trkpt><trkpt lat="45.0004381712229" lon="11.763253779169467"><ele>4.0</ele><time>2026-04-26T17:49:18Z</time></trkpt><trkpt lat="45.00055445168538" lon="11.763278061662245"><ele>4.0</ele><time>2026-04-26T17:49:19Z</time></trkpt><trkpt lat="45.00065595203404" lon="11.763304950475039"><ele>4.0</ele><time>2026-04-26T17:49:20Z</time></trkpt><trkpt lat="45.00075800154136" lon="11.763323024002204"><ele>4.0</ele><time>2026-04-26T17:49:21Z</time></trkpt><trkpt lat="45.00085379212334" lon="11.763336104018535"><ele>4.0</ele><time>2026-04-26T17:49:22Z</time></trkpt><trkpt lat="45.00093725425554" lon="11.763355555307877"><ele>4.0</ele><time>2026-04-26T17:49:23Z</time></trkpt><trkpt lat="45.001019933597085" lon="11.763380587959166"><ele>4.0</ele><time>2026-04-26T17:49:24Z</time></trkpt><trkpt lat="45.001102179094154" lon="11.763392116259114"><ele>4.166666666666666</ele><time>2026-04-26T17:49:25Z</time></trkpt><trkpt lat="45.00118745730454" lon="11.763408734845521"><ele>4.333333333333333</ele><time>2026-04-26T17:49:26Z</time></trkpt><trkpt lat="45.00127719348247" lon="11.763429269999463"><ele>4.5</ele><time>2026-04-26T17:49:27Z</time></trkpt><trkpt lat="45.001363705715335" lon="11.763449706192835"><ele>4.666666666666667</ele><time>2026-04-26T17:49:28Z</time></trkpt><trkpt lat="45.00144361222552" lon="11.763470052061873"><ele>4.833333333333334</ele><time>2026-04-26T17:49:29Z</time></trkpt><trkpt lat="45.00151426428047" lon="11.76348388725356"><ele>5.0</ele><time>2026-04-26T17:49:30Z</time></trkpt><trkpt lat="45.00158864322673" lon="11.763500452103901"><ele>5.0</ele><time>2026-04-26T17:49:31Z</time></trkpt><trkpt lat="45.00165827254455" lon="11.763516737137849"><ele>5.0</ele><time>2026-04-26T17:49:32Z</time></trkpt><trkpt lat="45.0017786784265" lon="11.763556846204429"><ele>5.0</ele><time>2026-04-26T17:49:34Z</time></trkpt><trkpt lat="45.00185630640179" lon="11.763574160281623"><ele>5.0</ele><time>2026-04-26T17:49:35Z</time></trkpt><trkpt lat="45.001945685717715" lon="11.763596943318054"><ele>5.0</ele><time>2026-04-26T17:49:36Z</time></trkpt><trkpt lat="45.00203255640832" lon="11.763616077607551"><ele>4.666666666666667</ele><time>2026-04-26T17:49:37Z</time></trkpt><trkpt lat="45.00211343543636" lon="11.76363377279915"><ele>4.333333333333334</ele><time>2026-04-26T17:49:38Z</time></trkpt><trkpt lat="45.00219634617177" lon="11.763651895302358"><ele>4.0</ele><time>2026-04-26T17:49:39Z</time></trkpt><trkpt lat="45.002280000158784" lon="11.76367557922621"><ele>3.666666666666667</ele><time>2026-04-26T17:49:40Z</time></trkpt><trkpt lat="45.00236931190549" lon="11.763692530903072"><ele>3.3333333333333335</ele><time>2026-04-26T17:49:41Z</time></trkpt><trkpt lat="45.00244743472459" lon="11.763712404275196"><ele>3.0</ele><time>2026-04-26T17:49:42Z</time></trkpt><trkpt lat="45.00251495377783" lon="11.763725659382391"><ele>2.8333333333333335</ele><time>2026-04-26T17:49:43Z</time></trkpt><trkpt lat="45.0025812269908" lon="11.763738571432933"><ele>2.6666666666666665</ele><time>2026-04-26T17:49:44Z</time></trkpt><trkpt lat="45.00265061390779" lon="11.763755183356016"><ele>2.5</ele><time>2026-04-26T17:49:45Z</time></trkpt><trkpt lat="45.00272168738728" lon="11.763770988197916"><ele>2.333333333333333</ele><time>2026-04-26T17:49:46Z</time></trkpt><trkpt lat="45.00280219189055" lon="11.763791531590883"><ele>2.1666666666666665</ele><time>2026-04-26T17:49:47Z</time></trkpt><trkpt lat="45.00288695830054" lon="11.76381156166879"><ele>2.0</ele><time>2026-04-26T17:49:48Z</time></trkpt><trkpt lat="45.002976884992265" lon="11.763835444528263"><ele>2.0</ele><time>2026-04-26T17:49:49Z</time></trkpt><trkpt lat="45.00307425285024" lon="11.763855408118399"><ele>2.0</ele><time>2026-04-26T17:49:50Z</time></trkpt><trkpt lat="45.0031868272818" lon="11.76386785017636"><ele>2.0</ele><time>2026-04-26T17:49:51Z</time></trkpt><trkpt lat="45.003328600105874" lon="11.763887877768012"><ele>2.0</ele><time>2026-04-26T17:49:52Z</time></trkpt><trkpt lat="45.00347642264738" lon="11.763916547303294"><ele>2.6666666666666665</ele><time>2026-04-26T17:49:53Z</time></trkpt><trkpt lat="45.00363046216252" lon="11.763945116301812"><ele>3.333333333333333</ele><time>2026-04-26T17:49:54Z</time></trkpt><trkpt lat="45.003787478069285" lon="11.763976122408176"><ele>4.0</ele><time>2026-04-26T17:49:55Z</time></trkpt><trkpt lat="45.003947820268685" lon="11.7640200683515"><ele>4.0</ele><time>2026-04-26T17:49:56Z</time></trkpt><trkpt lat="45.00410220038875" lon="11.764059574955736"><ele>4.0</ele><time>2026-04-26T17:49:57Z</time></trkpt><trkpt lat="45.00425281530523" lon="11.76409191219896"><ele>4.0</ele><time>2026-04-26T17:49:58Z</time></trkpt><trkpt lat="45.00440130961998" lon="11.764114200373983"><ele>3.5</ele><time>2026-04-26T17:49:59Z</time></trkpt><trkpt lat="45.00454670177985" lon="11.764145399889978"><ele>3.0</ele><time>2026-04-26T17:50:00Z</time></trkpt><trkpt lat="45.00469257517271" lon="11.764174002486639"><ele>2.5</ele><time>2026-04-26T17:50:01Z</time></trkpt><trkpt lat="45.0048386197422" lon="11.764205453284392"><ele>2.0</ele><time>2026-04-26T17:50:02Z</time></trkpt><trkpt lat="45.00499065241407" lon="11.764241220550215"><ele>1.75</ele><time>2026-04-26T17:50:03Z</time></trkpt><trkpt lat="45.0051364119894" lon="11.764273865730305"><ele>1.5</ele><time>2026-04-26T17:50:04Z</time></trkpt><trkpt lat="45.00528128184137" lon="11.764300885883056"><ele>1.25</ele><time>2026-04-26T17:50:05Z</time></trkpt><trkpt lat="45.005422472843414" lon="11.764330053048976"><ele>1.0</ele><time>2026-04-26T17:50:06Z</time></trkpt><trkpt lat="45.0055609482918" lon="11.764360381493004"><ele>1.0</ele><time>2026-04-26T17:50:07Z</time></trkpt><trkpt lat="45.00570081064362" lon="11.764390211124613"><ele>1.0</ele><time>2026-04-26T17:50:08Z</time></trkpt><trkpt lat="45.00583915300588" lon="11.764424652729542"><ele>1.0</ele><time>2026-04-26T17:50:09Z</time></trkpt><trkpt lat="45.00597746868301" lon="11.764461796641905"><ele>1.0</ele><time>2026-04-26T17:50:10Z</time></trkpt><trkpt lat="45.0061133368177" lon="11.764495917367654"><ele>1.0</ele><time>2026-04-26T17:50:11Z</time></trkpt><trkpt lat="45.00624481914718" lon="11.764533526875345"><ele>1.0</ele><time>2026-04-26T17:50:12Z</time></trkpt><trkpt lat="45.00637680989397" lon="11.764576202878144"><ele>1.0</ele><time>2026-04-26T17:50:13Z</time></trkpt><trkpt lat="45.00651997283773" lon="11.764625110044108"><ele>1.0</ele><time>2026-04-26T17:50:14Z</time></trkpt><trkpt lat="45.00667260163429" lon="11.764682669672636"><ele>1.6666666666666665</ele><time>2026-04-26T17:50:15Z</time></trkpt><trkpt lat="45.0068339485065" lon="11.764748694351848"><ele>2.3333333333333335</ele><time>2026-04-26T17:50:16Z</time></trkpt><trkpt lat="45.00701920400555" lon="11.7648403217594"><ele>3.0</ele><time>2026-04-26T17:50:17Z</time></trkpt><trkpt lat="45.00721416571711" lon="11.764941738112949"><ele>3.0</ele><time>2026-04-26T17:50:18Z</time></trkpt><trkpt lat="45.00738640242692" lon="11.765029986147406"><ele>3.0</ele><time>2026-04-26T17:50:19Z</time></trkpt><trkpt lat="45.00754077105897" lon="11.76510562494212"><ele>3.0</ele><time>2026-04-26T17:50:20Z</time></trkpt><trkpt lat="45.00768153414302" lon="11.765175524429269"><ele>3.333333333333333</ele><time>2026-04-26T17:50:21Z</time></trkpt><trkpt lat="45.00782726982395" lon="11.765242852768774"><ele>3.6666666666666665</ele><time>2026-04-26T17:50:22Z</time></trkpt><trkpt lat="45.00797028240115" lon="11.765310118544322"><ele>4.0</ele><time>2026-04-26T17:50:23Z</time></trkpt><trkpt lat="45.00811415702121" lon="11.76537938083586"><ele>4.0</ele><time>2026-04-26T17:50:24Z</time></trkpt><trkpt lat="45.00825601813202" lon="11.765451845981307"><ele>4.0</ele><time>2026-04-26T17:50:25Z</time></trkpt><trkpt lat="45.00839591529589" lon="11.765527023985767"><ele>4.0</ele><time>2026-04-26T17:50:26Z</time></trkpt><trkpt lat="45.00853307805191" lon="11.765598768895138"><ele>4.0</ele><time>2026-04-26T17:50:27Z</time></trkpt><trkpt lat="45.00866582990214" lon="11.765670320821297"><ele>4.0</ele><time>2026-04-26T17:50:28Z</time></trkpt><trkpt lat="45.008801515221215" lon="11.765733883759896"><ele>4.0</ele><time>2026-04-26T17:50:29Z</time></trkpt><trkpt lat="45.00893875463602" lon="11.76580502611285"><ele>4.0</ele><time>2026-04-26T17:50:30Z</time></trkpt><trkpt lat="45.009083501938846" lon="11.765877922559136"><ele>4.0</ele><time>2026-04-26T17:50:31Z</time></trkpt><trkpt lat="45.009219193154415" lon="11.765949378327107"><ele>3.75</ele><time>2026-04-26T17:50:32Z</time></trkpt><trkpt lat="45.00935573156302" lon="11.766023059637218"><ele>3.5</ele><time>2026-04-26T17:50:33Z</time></trkpt><trkpt lat="45.009492150277595" lon="11.766093943406444"><ele>3.25</ele><time>2026-04-26T17:50:34Z</time></trkpt><trkpt lat="45.00963255344591" lon="11.766167629458531"><ele>3.0</ele><time>2026-04-26T17:50:35Z</time></trkpt><trkpt lat="45.009775182928486" lon="11.766243290931255"><ele>2.6666666666666665</ele><time>2026-04-26T17:50:36Z</time></trkpt><trkpt lat="45.00991794342244" lon="11.766312880662154"><ele>2.333333333333333</ele><time>2026-04-26T17:50:37Z</time></trkpt><trkpt lat="45.010059830377195" lon="11.766390309246061"><ele>2.0</ele><time>2026-04-26T17:50:38Z</time></trkpt><trkpt lat="45.01020401448574" lon="11.766464083975332"><ele>2.6666666666666665</ele><time>2026-04-26T17:50:39Z</time></trkpt><trkpt lat="45.01035425546726" lon="11.766537677893899"><ele>3.333333333333333</ele><time>2026-04-26T17:50:40Z</time></trkpt><trkpt lat="45.01050629375729" lon="11.766615448642685"><ele>4.0</ele><time>2026-04-26T17:50:41Z</time></trkpt><trkpt lat="45.01065682636898" lon="11.766691386471265"><ele>4.0</ele><time>2026-04-26T17:50:42Z</time></trkpt><trkpt lat="45.0108039166234" lon="11.766768487511374"><ele>4.0</ele><time>2026-04-26T17:50:43Z</time></trkpt><trkpt lat="45.010951106411305" lon="11.76684457231264"><ele>4.0</ele><time>2026-04-26T17:50:44Z</time></trkpt><trkpt lat="45.0110924807816" lon="11.766912726855846"><ele>3.75</ele><time>2026-04-26T17:50:45Z</time></trkpt><trkpt lat="45.01123017211936" lon="11.766986211933654"><ele>3.5</ele><time>2026-04-26T17:50:46Z</time></trkpt><trkpt lat="45.01136648432322" lon="11.767055723619194"><ele>3.25</ele><time>2026-04-26T17:50:47Z</time></trkpt><trkpt lat="45.01149563185742" lon="11.76712440072455"><ele>3.0</ele><time>2026-04-26T17:50:48Z</time></trkpt><trkpt lat="45.0116264884178" lon="11.767190195037289"><ele>3.0</ele><time>2026-04-26T17:50:49Z</time></trkpt><trkpt lat="45.01176480348845" lon="11.767258949971842"><ele>3.0</ele><time>2026-04-26T17:50:50Z</time></trkpt><trkpt lat="45.01190407342209" lon="11.767330803906564"><ele>3.0</ele><time>2026-04-26T17:50:51Z</time></trkpt><trkpt lat="45.012046425635624" lon="11.76740645817095"><ele>3.0</ele><time>2026-04-26T17:50:52Z</time></trkpt><trkpt lat="45.012189870995684" lon="11.76748190413886"><ele>3.0</ele><time>2026-04-26T17:50:53Z</time></trkpt><trkpt lat="45.0123318044724" lon="11.767552878619764"><ele>3.0</ele><time>2026-04-26T17:50:54Z</time></trkpt><trkpt lat="45.012476691466674" lon="11.76763194570744"><ele>3.0</ele><time>2026-04-26T17:50:55Z</time></trkpt><trkpt lat="45.01262377022838" lon="11.767706158422675"><ele>2.3333333333333335</ele><time>2026-04-26T17:50:56Z</time></trkpt><trkpt lat="45.012770777797506" lon="11.767780408229234"><ele>1.6666666666666665</ele><time>2026-04-26T17:50:57Z</time></trkpt><trkpt lat="45.012923054182714" lon="11.767863822204074"><ele>1.0</ele><time>2026-04-26T17:50:58Z</time></trkpt><trkpt lat="45.01308706801117" lon="11.767953056808846"><ele>1.0</ele><time>2026-04-26T17:50:59Z</time></trkpt><trkpt lat="45.013241803237214" lon="11.768027518611495"><ele>1.0</ele><time>2026-04-26T17:51:00Z</time></trkpt><trkpt lat="45.01339925322617" lon="11.768110019062659"><ele>1.0</ele><time>2026-04-26T17:51:01Z</time></trkpt><trkpt lat="45.01356442691757" lon="11.7681952889937"><ele>2.0</ele><time>2026-04-26T17:51:02Z</time></trkpt><trkpt lat="45.01372891169317" lon="11.7682768212103"><ele>3.0</ele><time>2026-04-26T17:51:02.999Z</time></trkpt><trkpt lat="45.01389901667194" lon="11.768364832397571"><ele>4.0</ele><time>2026-04-26T17:51:03.999Z</time></trkpt><trkpt lat="45.014070904918476" lon="11.768450931578935"><ele>3.0</ele><time>2026-04-26T17:51:04.999Z</time></trkpt><trkpt lat="45.014240558035056" lon="11.768538068767068"><ele>2.0</ele><time>2026-04-26T17:51:05.999Z</time></trkpt><trkpt lat="45.01440937777449" lon="11.76863067280602"><ele>1.0</ele><time>2026-04-26T17:51:06.999Z</time></trkpt><trkpt lat="45.014575349583424" lon="11.768717649935617"><ele>1.0</ele><time>2026-04-26T17:51:07.999Z</time></trkpt><trkpt lat="45.014743990590915" lon="11.768805299309358"><ele>1.0</ele><time>2026-04-26T17:51:08.999Z</time></trkpt><trkpt lat="45.01490992433737" lon="11.768895694584982"><ele>1.0</ele><time>2026-04-26T17:51:09.999Z</time></trkpt><trkpt lat="45.01508335336113" lon="11.76898744215692"><ele>1.0</ele><time>2026-04-26T17:51:10.999Z</time></trkpt><trkpt lat="45.015263521184394" lon="11.769077752379813"><ele>1.0</ele><time>2026-04-26T17:51:11.999Z</time></trkpt><trkpt lat="45.01544507205164" lon="11.769173608194869"><ele>1.0</ele><time>2026-04-26T17:51:12.999Z</time></trkpt><trkpt lat="45.01562993211722" lon="11.769263300109143"><ele>1.0</ele><time>2026-04-26T17:51:13.999Z</time></trkpt><trkpt lat="45.015810547170666" lon="11.769357302984833"><ele>1.0</ele><time>2026-04-26T17:51:14.999Z</time></trkpt><trkpt lat="45.015981690003684" lon="11.769476669810468"><ele>1.0</ele><time>2026-04-26T17:51:16Z</time></trkpt><trkpt lat="45.01614152320507" lon="11.769619921933037"><ele>1.0</ele><time>2026-04-26T17:51:17Z</time></trkpt><trkpt lat="45.01628182317593" lon="11.769739315021578"><ele>1.0</ele><time>2026-04-26T17:51:18Z</time></trkpt><trkpt lat="45.016534439579296" lon="11.769734053044994"><ele>1.0</ele><time>2026-04-26T17:51:19Z</time></trkpt><trkpt lat="45.01670748048857" lon="11.769820443333549"><ele>1.3333333333333333</ele><time>2026-04-26T17:51:20Z</time></trkpt><trkpt lat="45.01687845424393" lon="11.769904343953364"><ele>1.6666666666666665</ele><time>2026-04-26T17:51:21Z</time></trkpt><trkpt lat="45.017046207980954" lon="11.770000169697433"><ele>2.0</ele><time>2026-04-26T17:51:22Z</time></trkpt><trkpt lat="45.01721202923735" lon="11.770085967321164"><ele>2.0</ele><time>2026-04-26T17:51:23Z</time></trkpt><trkpt lat="45.01737933551483" lon="11.770163756329854"><ele>2.0</ele><time>2026-04-26T17:51:24Z</time></trkpt><trkpt lat="45.01754294482919" lon="11.770248374746915"><ele>2.0</ele><time>2026-04-26T17:51:25Z</time></trkpt><trkpt lat="45.01770437814527" lon="11.770325420769208"><ele>2.0</ele><time>2026-04-26T17:51:26Z</time></trkpt><trkpt lat="45.01786303816843" lon="11.770401094799249"><ele>2.0</ele><time>2026-04-26T17:51:27Z</time></trkpt><trkpt lat="45.018021892603706" lon="11.77049070437997"><ele>2.0</ele><time>2026-04-26T17:51:28Z</time></trkpt><trkpt lat="45.01817989329821" lon="11.770572904090914"><ele>2.333333333333333</ele><time>2026-04-26T17:51:29Z</time></trkpt><trkpt lat="45.01832321597314" lon="11.770642519979154"><ele>2.6666666666666665</ele><time>2026-04-26T17:51:30Z</time></trkpt><trkpt lat="45.01846767608425" lon="11.770718567686282"><ele>3.0</ele><time>2026-04-26T17:51:31Z</time></trkpt><trkpt lat="45.01862968975382" lon="11.770799065054751"><ele>3.0</ele><time>2026-04-26T17:51:32Z</time></trkpt><trkpt lat="45.01878538346076" lon="11.770879767685784"><ele>3.0</ele><time>2026-04-26T17:51:33Z</time></trkpt><trkpt lat="45.01893728945046" lon="11.770962257879068"><ele>3.0</ele><time>2026-04-26T17:51:34Z</time></trkpt><trkpt lat="45.019105122469426" lon="11.771039392057808"><ele>2.6666666666666665</ele><time>2026-04-26T17:51:35Z</time></trkpt><trkpt lat="45.01925253719342" lon="11.771124764373685"><ele>2.333333333333333</ele><time>2026-04-26T17:51:36Z</time></trkpt><trkpt lat="45.01939545817758" lon="11.771191964263885"><ele>2.0</ele><time>2026-04-26T17:51:37Z</time></trkpt><trkpt lat="45.019529827738424" lon="11.77125923400278"><ele>2.0</ele><time>2026-04-26T17:51:38Z</time></trkpt><trkpt lat="45.0196748436014" lon="11.771335847263744"><ele>2.0</ele><time>2026-04-26T17:51:39Z</time></trkpt><trkpt lat="45.01981613020467" lon="11.77141600324591"><ele>2.0</ele><time>2026-04-26T17:51:40Z</time></trkpt><trkpt lat="45.01996469054609" lon="11.771496359719333"><ele>2.0</ele><time>2026-04-26T17:51:41Z</time></trkpt><trkpt lat="45.02011945392492" lon="11.771576720204548"><ele>2.0</ele><time>2026-04-26T17:51:42Z</time></trkpt><trkpt lat="45.02025294412648" lon="11.771657263494998"><ele>2.0</ele><time>2026-04-26T17:51:43Z</time></trkpt><trkpt lat="45.020380039816864" lon="11.7717282161952"><ele>2.0</ele><time>2026-04-26T17:51:44Z</time></trkpt><trkpt lat="45.020495610533075" lon="11.771786567170167"><ele>2.0</ele><time>2026-04-26T17:51:45Z</time></trkpt><trkpt lat="45.02061537982395" lon="11.771844282167878"><ele>2.0</ele><time>2026-04-26T17:51:46Z</time></trkpt><trkpt lat="45.02072712646969" lon="11.77191036445154"><ele>2.0</ele><time>2026-04-26T17:51:47Z</time></trkpt><trkpt lat="45.02084973756101" lon="11.771964591243233"><ele>2.0</ele><time>2026-04-26T17:51:48Z</time></trkpt><trkpt lat="45.02098536760753" lon="11.772029077372764"><ele>2.0</ele><time>2026-04-26T17:51:49Z</time></trkpt><trkpt lat="45.02112357779704" lon="11.772109043621212"><ele>2.0</ele><time>2026-04-26T17:51:50Z</time></trkpt><trkpt lat="45.02125264613002" lon="11.77218447546779"><ele>2.0</ele><time>2026-04-26T17:51:51Z</time></trkpt><trkpt lat="45.0214024049227" lon="11.772241543445388"><ele>2.0</ele><time>2026-04-26T17:51:52Z</time></trkpt><trkpt lat="45.02154704021916" lon="11.772326635104843"><ele>2.0</ele><time>2026-04-26T17:51:53Z</time></trkpt><trkpt lat="45.02167465494109" lon="11.772390143402804"><ele>2.0</ele><time>2026-04-26T17:51:54Z</time></trkpt><trkpt lat="45.021806596274835" lon="11.772470695267183"><ele>2.0</ele><time>2026-04-26T17:51:55Z</time></trkpt><trkpt lat="45.02195130186346" lon="11.772538850830463"><ele>2.0</ele><time>2026-04-26T17:51:56Z</time></trkpt><trkpt lat="45.022068476340465" lon="11.772593079943272"><ele>2.0</ele><time>2026-04-26T17:51:57Z</time></trkpt><trkpt lat="45.022202940521616" lon="11.772659432039484"><ele>2.0</ele><time>2026-04-26T17:51:58Z</time></trkpt><trkpt lat="45.02233233257491" lon="11.772729456191652"><ele>2.0</ele><time>2026-04-26T17:51:59Z</time></trkpt><trkpt lat="45.02245380899117" lon="11.772807594446018"><ele>2.0</ele><time>2026-04-26T17:52:00Z</time></trkpt><trkpt lat="45.02259022502469" lon="11.77286303335101"><ele>1.75</ele><time>2026-04-26T17:52:01Z</time></trkpt><trkpt lat="45.02273009471736" lon="11.772930874320643"><ele>1.5</ele><time>2026-04-26T17:52:02Z</time></trkpt><trkpt lat="45.022879396434035" lon="11.77300285887575"><ele>1.25</ele><time>2026-04-26T17:52:03Z</time></trkpt><trkpt lat="45.02300999174689" lon="11.773082248261773"><ele>1.0</ele><time>2026-04-26T17:52:04Z</time></trkpt><trkpt lat="45.023148563790855" lon="11.773176385994454"><ele>1.0</ele><time>2026-04-26T17:52:05Z</time></trkpt><trkpt lat="45.02329403028443" lon="11.773275268855748"><ele>1.0</ele><time>2026-04-26T17:52:06Z</time></trkpt><trkpt lat="45.023433969951384" lon="11.77337481888476"><ele>1.0</ele><time>2026-04-26T17:52:07Z</time></trkpt><trkpt lat="45.02354756195035" lon="11.773504050417662"><ele>0.75</ele><time>2026-04-26T17:52:08Z</time></trkpt><trkpt lat="45.02365984758131" lon="11.773629527175832"><ele>0.5</ele><time>2026-04-26T17:52:09Z</time></trkpt><trkpt lat="45.02376967113489" lon="11.773757389218318"><ele>0.25</ele><time>2026-04-26T17:52:10Z</time></trkpt><trkpt lat="45.0238728719082" lon="11.77387764414249"><ele>0.0</ele><time>2026-04-26T17:52:11Z</time></trkpt><trkpt lat="45.02397861400733" lon="11.773997117854991"><ele>0.0</ele><time>2026-04-26T17:52:12Z</time></trkpt><trkpt lat="45.02407954953561" lon="11.77410628975664"><ele>0.0</ele><time>2026-04-26T17:52:13Z</time></trkpt><trkpt lat="45.02418150967662" lon="11.774210358683249"><ele>0.0</ele><time>2026-04-26T17:52:14Z</time></trkpt><trkpt lat="45.02428170286994" lon="11.774317664537701"><ele>0.0</ele><time>2026-04-26T17:52:15Z</time></trkpt><trkpt lat="45.024386735214215" lon="11.774415990296683"><ele>0.25</ele><time>2026-04-26T17:52:16Z</time></trkpt><trkpt lat="45.02448925865871" lon="11.774505214231585"><ele>0.5</ele><time>2026-04-26T17:52:17Z</time></trkpt><trkpt lat="45.02460271996793" lon="11.77458517771001"><ele>0.75</ele><time>2026-04-26T17:52:18Z</time></trkpt><trkpt lat="45.02472890996541" lon="11.774665286951402"><ele>1.0</ele><time>2026-04-26T17:52:19Z</time></trkpt><trkpt lat="45.024843923344655" lon="11.774752117683951"><ele>1.25</ele><time>2026-04-26T17:52:20Z</time></trkpt><trkpt lat="45.02498038176846" lon="11.774841353491368"><ele>1.5</ele><time>2026-04-26T17:52:21Z</time></trkpt><trkpt lat="45.02510210274325" lon="11.774938770886333"><ele>1.75</ele><time>2026-04-26T17:52:22Z</time></trkpt><trkpt lat="45.02521530796846" lon="11.775028760020499"><ele>2.0</ele><time>2026-04-26T17:52:23Z</time></trkpt><trkpt lat="45.025322290552374" lon="11.775120924420603"><ele>2.25</ele><time>2026-04-26T17:52:24Z</time></trkpt><trkpt lat="45.02544716044406" lon="11.775210787087277"><ele>2.5</ele><time>2026-04-26T17:52:25Z</time></trkpt><trkpt lat="45.02557499986315" lon="11.775286636026156"><ele>2.75</ele><time>2026-04-26T17:52:26Z</time></trkpt><trkpt lat="45.025684944259766" lon="11.775355569416895"><ele>3.0</ele><time>2026-04-26T17:52:27Z</time></trkpt><trkpt lat="45.025799575275954" lon="11.77543913761504"><ele>3.0</ele><time>2026-04-26T17:52:28Z</time></trkpt><trkpt lat="45.025894025713846" lon="11.775492453324148"><ele>3.0</ele><time>2026-04-26T17:52:29Z</time></trkpt><trkpt lat="45.02596650355387" lon="11.775538160398193"><ele>3.0</ele><time>2026-04-26T17:52:30Z</time></trkpt><trkpt lat="45.02604240262788" lon="11.775576483237215"><ele>3.0</ele><time>2026-04-26T17:52:31Z</time></trkpt><trkpt lat="45.02610868203768" lon="11.775619098996412"><ele>3.0</ele><time>2026-04-26T17:52:32Z</time></trkpt><trkpt lat="45.026185884877314" lon="11.775639692622473"><ele>3.0</ele><time>2026-04-26T17:52:34Z</time></trkpt><trkpt lat="45.02628732729063" lon="11.775645062373158"><ele>3.0</ele><time>2026-04-26T17:52:43Z</time></trkpt><trkpt lat="45.02638367413961" lon="11.775664675985945"><ele>3.0</ele><time>2026-04-26T17:52:45Z</time></trkpt><trkpt lat="45.02647706046532" lon="11.77569174063147"><ele>3.0</ele><time>2026-04-26T17:52:46Z</time></trkpt><trkpt lat="45.02657839935174" lon="11.775699761246678"><ele>3.0</ele><time>2026-04-26T17:52:47Z</time></trkpt><trkpt lat="45.026682031" lon="11.775678383779939"><ele>3.0</ele><time>2026-04-26T17:52:48Z</time></trkpt><trkpt lat="45.02683321205356" lon="11.775683835073167"><ele>3.5</ele><time>2026-04-26T17:52:49Z</time></trkpt><trkpt lat="45.02697562067369" lon="11.775625759259741"><ele>4.0</ele><time>2026-04-26T17:52:50Z</time></trkpt><trkpt lat="45.02709180840122" lon="11.775620823948746"><ele>4.5</ele><time>2026-04-26T17:52:51Z</time></trkpt><trkpt lat="45.02722131551553" lon="11.775564701330621"><ele>5.0</ele><time>2026-04-26T17:52:52Z</time></trkpt><trkpt lat="45.02734198402814" lon="11.775527108485418"><ele>4.75</ele><time>2026-04-26T17:52:53Z</time></trkpt><trkpt lat="45.02749541741417" lon="11.775459490524318"><ele>4.5</ele><time>2026-04-26T17:52:54Z</time></trkpt><trkpt lat="45.02764681872205" lon="11.775414978541445"><ele>4.25</ele><time>2026-04-26T17:52:55Z</time></trkpt><trkpt lat="45.02776805598047" lon="11.775366037183375"><ele>4.0</ele><time>2026-04-26T17:52:56Z</time></trkpt><trkpt lat="45.02789788395394" lon="11.775328754337878"><ele>4.0</ele><time>2026-04-26T17:52:57Z</time></trkpt><trkpt lat="45.028018925396346" lon="11.775301642664232"><ele>4.0</ele><time>2026-04-26T17:52:58Z</time></trkpt><trkpt lat="45.0281396127971" lon="11.775290316257347"><ele>4.0</ele><time>2026-04-26T17:52:59Z</time></trkpt><trkpt lat="45.0282613583613" lon="11.775279040839546"><ele>4.0</ele><time>2026-04-26T17:53:00Z</time></trkpt><trkpt lat="45.02840084143778" lon="11.7752929308997"><ele>4.25</ele><time>2026-04-26T17:53:01Z</time></trkpt><trkpt lat="45.02851817024735" lon="11.775364336688323"><ele>4.5</ele><time>2026-04-26T17:53:02Z</time></trkpt><trkpt lat="45.02866522105439" lon="11.775413409798524"><ele>4.75</ele><time>2026-04-26T17:53:03Z</time></trkpt><trkpt lat="45.02879774250583" lon="11.775513007980681"><ele>5.0</ele><time>2026-04-26T17:53:04Z</time></trkpt><trkpt lat="45.02891298811845" lon="11.775630945331082"><ele>5.0</ele><time>2026-04-26T17:53:05Z</time></trkpt><trkpt lat="45.02905622761231" lon="11.775776452410296"><ele>5.0</ele><time>2026-04-26T17:53:06Z</time></trkpt><trkpt lat="45.02917475557582" lon="11.775936807229499"><ele>5.0</ele><time>2026-04-26T17:53:07Z</time></trkpt><trkpt lat="45.0293160131684" lon="11.776089603602388"><ele>4.333333333333334</ele><time>2026-04-26T17:53:08Z</time></trkpt><trkpt lat="45.02946749310771" lon="11.776249960943703"><ele>3.666666666666667</ele><time>2026-04-26T17:53:08.999Z</time></trkpt><trkpt lat="45.02960058146673" lon="11.776414726716133"><ele>3.0</ele><time>2026-04-26T17:53:09.999Z</time></trkpt><trkpt lat="45.02976579364083" lon="11.776574978411047"><ele>3.0</ele><time>2026-04-26T17:53:10.999Z</time></trkpt><trkpt lat="45.029943462696394" lon="11.776744182596294"><ele>3.0</ele><time>2026-04-26T17:53:11.999Z</time></trkpt><trkpt lat="45.03013108554659" lon="11.776897647409966"><ele>3.0</ele><time>2026-04-26T17:53:12.999Z</time></trkpt><trkpt lat="45.030332398746125" lon="11.77704453971603"><ele>2.6666666666666665</ele><time>2026-04-26T17:53:13.999Z</time></trkpt><trkpt lat="45.03052106640795" lon="11.777187827074007"><ele>2.333333333333333</ele><time>2026-04-26T17:53:14.999Z</time></trkpt><trkpt lat="45.03073441473856" lon="11.777299814083024"><ele>2.0</ele><time>2026-04-26T17:53:15.999Z</time></trkpt><trkpt lat="45.03094090255359" lon="11.777395947165516"><ele>2.0</ele><time>2026-04-26T17:53:16.999Z</time></trkpt><trkpt lat="45.031165395889204" lon="11.777513188132298"><ele>2.0</ele><time>2026-04-26T17:53:17.999Z</time></trkpt><trkpt lat="45.03141082833359" lon="11.777636225865121"><ele>2.5</ele><time>2026-04-26T17:53:18.999Z</time></trkpt><trkpt lat="45.03164466971968" lon="11.777762389297061"><ele>3.0</ele><time>2026-04-26T17:53:19.999Z</time></trkpt><trkpt lat="45.031877534741646" lon="11.777883436726997"><ele>3.0</ele><time>2026-04-26T17:53:20.999Z</time></trkpt><trkpt lat="45.03209827428182" lon="11.77798395486111"><ele>3.0</ele><time>2026-04-26T17:53:21.999Z</time></trkpt><trkpt lat="45.03232025697166" lon="11.778098324402809"><ele>2.5</ele><time>2026-04-26T17:53:23Z</time></trkpt><trkpt lat="45.03252141533662" lon="11.778220149825861"><ele>2.0</ele><time>2026-04-26T17:53:24Z</time></trkpt><trkpt lat="45.0327463676916" lon="11.778333529829524"><ele>2.0</ele><time>2026-04-26T17:53:25Z</time></trkpt><trkpt lat="45.03296963541254" lon="11.778428884678524"><ele>2.0</ele><time>2026-04-26T17:53:26Z</time></trkpt><trkpt lat="45.03318663844341" lon="11.778551973859193"><ele>2.0</ele><time>2026-04-26T17:53:27Z</time></trkpt><trkpt lat="45.03337946565873" lon="11.778654835365092"><ele>2.0</ele><time>2026-04-26T17:53:28Z</time></trkpt><trkpt lat="45.03358065714323" lon="11.778757918082155"><ele>2.0</ele><time>2026-04-26T17:53:29Z</time></trkpt><trkpt lat="45.033777088645266" lon="11.778855542076721"><ele>2.0</ele><time>2026-04-26T17:53:30Z</time></trkpt><trkpt lat="45.033960423264844" lon="11.77895207494359"><ele>2.0</ele><time>2026-04-26T17:53:31Z</time></trkpt><trkpt lat="45.03414135098882" lon="11.779048551864717"><ele>2.0</ele><time>2026-04-26T17:53:32Z</time></trkpt><trkpt lat="45.03430810085997" lon="11.77911594219802"><ele>2.0</ele><time>2026-04-26T17:53:33Z</time></trkpt><trkpt lat="45.03447498408503" lon="11.779205915781748"><ele>2.0</ele><time>2026-04-26T17:53:34Z</time></trkpt><trkpt lat="45.03465024170988" lon="11.779295966252036"><ele>2.0</ele><time>2026-04-26T17:53:35Z</time></trkpt><trkpt lat="45.03484418462088" lon="11.77939724346112"><ele>2.333333333333333</ele><time>2026-04-26T17:53:36Z</time></trkpt><trkpt lat="45.03504641443548" lon="11.77949702541999"><ele>2.6666666666666665</ele><time>2026-04-26T17:53:37Z</time></trkpt><trkpt lat="45.03526271162459" lon="11.779600455584834"><ele>3.0</ele><time>2026-04-26T17:53:38Z</time></trkpt><trkpt lat="45.035477424522256" lon="11.77969200970296"><ele>3.0</ele><time>2026-04-26T17:53:39Z</time></trkpt><trkpt lat="45.03569440056684" lon="11.779785875203762"><ele>3.0</ele><time>2026-04-26T17:53:40Z</time></trkpt><trkpt lat="45.035904809413566" lon="11.779861433906301"><ele>3.0</ele><time>2026-04-26T17:53:41Z</time></trkpt><trkpt lat="45.03610083923552" lon="11.779948902667389"><ele>3.0</ele><time>2026-04-26T17:53:42Z</time></trkpt><trkpt lat="45.036303405088965" lon="11.780044739094963"><ele>3.0</ele><time>2026-04-26T17:53:43Z</time></trkpt><trkpt lat="45.03651018901753" lon="11.780146509714923"><ele>3.0</ele><time>2026-04-26T17:53:44Z</time></trkpt><trkpt lat="45.036718808159954" lon="11.780246209489627"><ele>3.0</ele><time>2026-04-26T17:53:45Z</time></trkpt><trkpt lat="45.03692514873179" lon="11.78034765050677"><ele>3.0</ele><time>2026-04-26T17:53:46Z</time></trkpt><trkpt lat="45.03712671309279" lon="11.780464969930836"><ele>3.0</ele><time>2026-04-26T17:53:47Z</time></trkpt><trkpt lat="45.03731530628341" lon="11.780602486754235"><ele>2.6666666666666665</ele><time>2026-04-26T17:53:48Z</time></trkpt><trkpt lat="45.037511210389695" lon="11.780715929212226"><ele>2.333333333333333</ele><time>2026-04-26T17:53:49Z</time></trkpt><trkpt lat="45.037716806988946" lon="11.780850292961187"><ele>2.0</ele><time>2026-04-26T17:53:50Z</time></trkpt><trkpt lat="45.03790209444932" lon="11.780982176422015"><ele>2.0</ele><time>2026-04-26T17:53:51Z</time></trkpt><trkpt lat="45.038091059570455" lon="11.781108910952817"><ele>2.0</ele><time>2026-04-26T17:53:52Z</time></trkpt><trkpt lat="45.03829696675664" lon="11.781237509428257"><ele>2.0</ele><time>2026-04-26T17:53:53Z</time></trkpt><trkpt lat="45.03849089925741" lon="11.781385101055912"><ele>3.0</ele><time>2026-04-26T17:53:54Z</time></trkpt><trkpt lat="45.038678665727964" lon="11.781528642209869"><ele>4.0</ele><time>2026-04-26T17:53:55Z</time></trkpt><trkpt lat="45.03888600608134" lon="11.781688722695472"><ele>2.5</ele><time>2026-04-26T17:53:56Z</time></trkpt><trkpt lat="45.039103136090795" lon="11.781854956444205"><ele>1.0</ele><time>2026-04-26T17:53:57Z</time></trkpt><trkpt lat="45.03933309099479" lon="11.78203212827821"><ele>0.5</ele><time>2026-04-26T17:53:58Z</time></trkpt><trkpt lat="45.03955669907296" lon="11.78221290992428"><ele>0.0</ele><time>2026-04-26T17:53:59Z</time></trkpt><trkpt lat="45.039768460272285" lon="11.782388312293882"><ele>0.5</ele><time>2026-04-26T17:54:00Z</time></trkpt><trkpt lat="45.03998162752621" lon="11.78257873201564"><ele>1.0</ele><time>2026-04-26T17:54:01Z</time></trkpt><trkpt lat="45.04019053212204" lon="11.782770858409881"><ele>1.0</ele><time>2026-04-26T17:54:02Z</time></trkpt><trkpt lat="45.04039883651945" lon="11.782954475015181"><ele>1.0</ele><time>2026-04-26T17:54:03Z</time></trkpt><trkpt lat="45.0406054572003" lon="11.783143494797216"><ele>1.5</ele><time>2026-04-26T17:54:04Z</time></trkpt><trkpt lat="45.0408057817717" lon="11.783328205573907"><ele>2.0</ele><time>2026-04-26T17:54:05Z</time></trkpt><trkpt lat="45.041010736189655" lon="11.783499352292855"><ele>2.5</ele><time>2026-04-26T17:54:06Z</time></trkpt><trkpt lat="45.04121157777797" lon="11.783662679140994"><ele>3.0</ele><time>2026-04-26T17:54:07Z</time></trkpt><trkpt lat="45.04141150718932" lon="11.783833545411973"><ele>3.0</ele><time>2026-04-26T17:54:08Z</time></trkpt><trkpt lat="45.041612787648575" lon="11.783998073172853"><ele>3.0</ele><time>2026-04-26T17:54:09Z</time></trkpt><trkpt lat="45.04180639060982" lon="11.78417708339926"><ele>4.0</ele><time>2026-04-26T17:54:10Z</time></trkpt><trkpt lat="45.04200517977215" lon="11.784357870935217"><ele>5.0</ele><time>2026-04-26T17:54:11Z</time></trkpt><trkpt lat="45.04219589588876" lon="11.784539866670704"><ele>5.0</ele><time>2026-04-26T17:54:12Z</time></trkpt><trkpt lat="45.04237184982194" lon="11.784691640513834"><ele>5.0</ele><time>2026-04-26T17:54:13Z</time></trkpt><trkpt lat="45.04254815616" lon="11.784828947561683"><ele>5.0</ele><time>2026-04-26T17:54:14Z</time></trkpt><trkpt lat="45.04273596488746" lon="11.784970617259642"><ele>4.666666666666667</ele><time>2026-04-26T17:54:15Z</time></trkpt><trkpt lat="45.042908884941816" lon="11.78509846017786"><ele>4.333333333333333</ele><time>2026-04-26T17:54:16Z</time></trkpt><trkpt lat="45.04307372141325" lon="11.785219412238067"><ele>4.0</ele><time>2026-04-26T17:54:17Z</time></trkpt><trkpt lat="45.04315960272953" lon="11.785463930398942"><ele>4.0</ele><time>2026-04-26T17:54:18Z</time></trkpt><trkpt lat="45.04328988831258" lon="11.78558965982168"><ele>4.0</ele><time>2026-04-26T17:54:19Z</time></trkpt><trkpt lat="45.04341579171377" lon="11.78570605254756"><ele>4.0</ele><time>2026-04-26T17:54:20Z</time></trkpt><trkpt lat="45.04353348130084" lon="11.785808601552688"><ele>4.0</ele><time>2026-04-26T17:54:21Z</time></trkpt><trkpt lat="45.04364898469178" lon="11.785907927117568"><ele>3.75</ele><time>2026-04-26T17:54:22Z</time></trkpt><trkpt lat="45.043760437561595" lon="11.786004318206533"><ele>3.5</ele><time>2026-04-26T17:54:23Z</time></trkpt><trkpt lat="45.04386525614833" lon="11.786095105959468"><ele>3.25</ele><time>2026-04-26T17:54:24Z</time></trkpt><trkpt lat="45.04396424634674" lon="11.78618042638245"><ele>3.0</ele><time>2026-04-26T17:54:25Z</time></trkpt><trkpt lat="45.044061732236145" lon="11.786264461397362"><ele>3.2</ele><time>2026-04-26T17:54:26Z</time></trkpt><trkpt lat="45.04414719389449" lon="11.786338131254784"><ele>3.4</ele><time>2026-04-26T17:54:27Z</time></trkpt><trkpt lat="45.044226634906245" lon="11.786410325238764"><ele>3.6000000000000005</ele><time>2026-04-26T17:54:28Z</time></trkpt><trkpt lat="45.044306022719766" lon="11.786483056755053"><ele>3.8000000000000003</ele><time>2026-04-26T17:54:29Z</time></trkpt><trkpt lat="45.04438144473007" lon="11.78655215498289"><ele>4.0</ele><time>2026-04-26T17:54:30Z</time></trkpt><trkpt lat="45.04445182495988" lon="11.786616099071717"><ele>4.0</ele><time>2026-04-26T17:54:31Z</time></trkpt><trkpt lat="45.04450735629287" lon="11.78666524508888"><ele>4.0</ele><time>2026-04-26T17:54:32Z</time></trkpt><trkpt lat="45.04461563114057" lon="11.786733124133162"><ele>4.0</ele><time>2026-04-26T17:54:34Z</time></trkpt><trkpt lat="45.04468461723772" lon="11.786850229592286"><ele>4.0</ele><time>2026-04-26T17:54:36Z</time></trkpt><trkpt lat="45.04478911285338" lon="11.786930888183639"><ele>4.0</ele><time>2026-04-26T17:54:53Z</time></trkpt><trkpt lat="45.04493166767533" lon="11.78705560397807"><ele>4.0</ele><time>2026-04-26T17:54:54Z</time></trkpt><trkpt lat="45.04511132428574" lon="11.78723083141783"><ele>4.0</ele><time>2026-04-26T17:54:55Z</time></trkpt><trkpt lat="45.04531943842141" lon="11.787419540550692"><ele>4.0</ele><time>2026-04-26T17:54:56Z</time></trkpt><trkpt lat="45.045559681041574" lon="11.787617589798767"><ele>4.0</ele><time>2026-04-26T17:54:57Z</time></trkpt><trkpt lat="45.04579248614384" lon="11.787809377510424"><ele>4.0</ele><time>2026-04-26T17:54:58Z</time></trkpt><trkpt lat="45.04601681990688" lon="11.7880156231036"><ele>4.0</ele><time>2026-04-26T17:54:59Z</time></trkpt><trkpt lat="45.046232833026565" lon="11.788226609521447"><ele>4.0</ele><time>2026-04-26T17:55:00Z</time></trkpt><trkpt lat="45.04643223954876" lon="11.788420538893124"><ele>4.0</ele><time>2026-04-26T17:55:01Z</time></trkpt><trkpt lat="45.04662050581589" lon="11.788594526603218"><ele>3.6666666666666665</ele><time>2026-04-26T17:55:02Z</time></trkpt><trkpt lat="45.04680685673652" lon="11.788760290905214"><ele>3.333333333333333</ele><time>2026-04-26T17:55:03Z</time></trkpt><trkpt lat="45.04699426494371" lon="11.788929791452803"><ele>3.0</ele><time>2026-04-26T17:55:04Z</time></trkpt><trkpt lat="45.04718327253656" lon="11.789085484224975"><ele>3.0</ele><time>2026-04-26T17:55:05Z</time></trkpt><trkpt lat="45.04736706520761" lon="11.789245262534603"><ele>3.0</ele><time>2026-04-26T17:55:06Z</time></trkpt><trkpt lat="45.04754496850544" lon="11.789407667384383"><ele>3.0</ele><time>2026-04-26T17:55:07Z</time></trkpt><trkpt lat="45.04772106034661" lon="11.789574704784371"><ele>2.6666666666666665</ele><time>2026-04-26T17:55:08Z</time></trkpt><trkpt lat="45.04789241177678" lon="11.789750172936452"><ele>2.333333333333333</ele><time>2026-04-26T17:55:09Z</time></trkpt><trkpt lat="45.04806413640255" lon="11.789932201089021"><ele>2.0</ele><time>2026-04-26T17:55:10Z</time></trkpt><trkpt lat="45.04823452881334" lon="11.790124809060718"><ele>2.333333333333333</ele><time>2026-04-26T17:55:11Z</time></trkpt><trkpt lat="45.04840442313456" lon="11.79032026500801"><ele>2.6666666666666665</ele><time>2026-04-26T17:55:12Z</time></trkpt><trkpt lat="45.04856946572678" lon="11.790524597542165"><ele>3.0</ele><time>2026-04-26T17:55:13Z</time></trkpt><trkpt lat="45.04871418936472" lon="11.790726157953126"><ele>3.0</ele><time>2026-04-26T17:55:14Z</time></trkpt><trkpt lat="45.048872030202595" lon="11.790940760978637"><ele>3.0</ele><time>2026-04-26T17:55:15Z</time></trkpt><trkpt lat="45.049025766743945" lon="11.791158231152558"><ele>3.0</ele><time>2026-04-26T17:55:16Z</time></trkpt><trkpt lat="45.04917379591481" lon="11.79137677599484"><ele>3.333333333333333</ele><time>2026-04-26T17:55:17Z</time></trkpt><trkpt lat="45.04931621720949" lon="11.791598714093071"><ele>3.6666666666666665</ele><time>2026-04-26T17:55:18Z</time></trkpt><trkpt lat="45.04945125052624" lon="11.791830124839127"><ele>4.0</ele><time>2026-04-26T17:55:19Z</time></trkpt><trkpt lat="45.04958929563524" lon="11.792057588777206"><ele>3.6666666666666665</ele><time>2026-04-26T17:55:20Z</time></trkpt><trkpt lat="45.049724082059754" lon="11.792277712557217"><ele>3.333333333333333</ele><time>2026-04-26T17:55:21Z</time></trkpt><trkpt lat="45.04986066319846" lon="11.792505724481915"><ele>3.0</ele><time>2026-04-26T17:55:22Z</time></trkpt><trkpt lat="45.04999906743322" lon="11.79272414517668"><ele>3.0</ele><time>2026-04-26T17:55:23Z</time></trkpt><trkpt lat="45.05013677357016" lon="11.792951214366807"><ele>3.0</ele><time>2026-04-26T17:55:24Z</time></trkpt><trkpt lat="45.05027539938073" lon="11.79317635411559"><ele>3.0</ele><time>2026-04-26T17:55:25Z</time></trkpt><trkpt lat="45.05041407665876" lon="11.793400521323562"><ele>2.6666666666666665</ele><time>2026-04-26T17:55:26Z</time></trkpt><trkpt lat="45.0505502760818" lon="11.793625015567349"><ele>2.333333333333333</ele><time>2026-04-26T17:55:27Z</time></trkpt><trkpt lat="45.05068748270484" lon="11.793844615646265"><ele>2.0</ele><time>2026-04-26T17:55:28Z</time></trkpt><trkpt lat="45.050822729408786" lon="11.794060525043403"><ele>3.0</ele><time>2026-04-26T17:55:29Z</time></trkpt><trkpt lat="45.05095456093541" lon="11.794276608404155"><ele>4.0</ele><time>2026-04-26T17:55:30Z</time></trkpt><trkpt lat="45.051082006674534" lon="11.794487527028192"><ele>5.0</ele><time>2026-04-26T17:55:31Z</time></trkpt><trkpt lat="45.051205036913" lon="11.794690608032468"><ele>5.0</ele><time>2026-04-26T17:55:32Z</time></trkpt><trkpt lat="45.05133698591606" lon="11.794894595580198"><ele>5.0</ele><time>2026-04-26T17:55:33Z</time></trkpt><trkpt lat="45.05146382804307" lon="11.795087412003108"><ele>5.0</ele><time>2026-04-26T17:55:34Z</time></trkpt><trkpt lat="45.05158188003567" lon="11.795286886667332"><ele>4.666666666666667</ele><time>2026-04-26T17:55:35Z</time></trkpt><trkpt lat="45.05170735791698" lon="11.795481340117798"><ele>4.333333333333333</ele><time>2026-04-26T17:55:36Z</time></trkpt><trkpt lat="45.0518246364572" lon="11.795668597491373"><ele>4.0</ele><time>2026-04-26T17:55:37Z</time></trkpt><trkpt lat="45.0519325274704" lon="11.795846439213387"><ele>4.0</ele><time>2026-04-26T17:55:38Z</time></trkpt><trkpt lat="45.0520335621158" lon="11.796017338138386"><ele>4.0</ele><time>2026-04-26T17:55:39Z</time></trkpt><trkpt lat="45.052142337089336" lon="11.796193314674696"><ele>4.0</ele><time>2026-04-26T17:55:40Z</time></trkpt><trkpt lat="45.052255278646506" lon="11.79637285242305"><ele>4.0</ele><time>2026-04-26T17:55:41Z</time></trkpt><trkpt lat="45.0523525030495" lon="11.79655051129596"><ele>4.0</ele><time>2026-04-26T17:55:42Z</time></trkpt><trkpt lat="45.052460212594895" lon="11.796724443808856"><ele>4.0</ele><time>2026-04-26T17:55:43Z</time></trkpt><trkpt lat="45.052560238504554" lon="11.796894411229452"><ele>4.0</ele><time>2026-04-26T17:55:44Z</time></trkpt><trkpt lat="45.05277847692149" lon="11.797225180180666"><ele>4.0</ele><time>2026-04-26T17:55:46Z</time></trkpt><trkpt lat="45.052882716417884" lon="11.797400146958527"><ele>4.0</ele><time>2026-04-26T17:55:47Z</time></trkpt><trkpt lat="45.05300129754281" lon="11.797586395703524"><ele>4.0</ele><time>2026-04-26T17:55:48Z</time></trkpt><trkpt lat="45.05310644785158" lon="11.797758951793588"><ele>4.0</ele><time>2026-04-26T17:55:49Z</time></trkpt><trkpt lat="45.053236626694854" lon="11.797958096706527"><ele>3.333333333333333</ele><time>2026-04-26T17:55:50Z</time></trkpt><trkpt lat="45.05334903098509" lon="11.798158678776986"><ele>2.6666666666666665</ele><time>2026-04-26T17:55:51Z</time></trkpt><trkpt lat="45.05347173394515" lon="11.798346111151567"><ele>2.0</ele><time>2026-04-26T17:55:52Z</time></trkpt><trkpt lat="45.053586590568386" lon="11.798527235201883"><ele>2.0</ele><time>2026-04-26T17:55:53Z</time></trkpt><trkpt lat="45.05370898854344" lon="11.798703158338384"><ele>2.0</ele><time>2026-04-26T17:55:54Z</time></trkpt><trkpt lat="45.05384283476322" lon="11.7988995683643"><ele>2.0</ele><time>2026-04-26T17:55:55Z</time></trkpt><trkpt lat="45.054002105263535" lon="11.799106639496493"><ele>3.0</ele><time>2026-04-26T17:55:56Z</time></trkpt><trkpt lat="45.0541727011043" lon="11.799320425404396"><ele>4.0</ele><time>2026-04-26T17:55:57Z</time></trkpt><trkpt lat="45.05437573404351" lon="11.799539961009165"><ele>4.0</ele><time>2026-04-26T17:55:58Z</time></trkpt><trkpt lat="45.05460030188591" lon="11.79975999252159"><ele>4.0</ele><time>2026-04-26T17:55:59Z</time></trkpt><trkpt lat="45.05485695669726" lon="11.799982326575224"><ele>3.0</ele><time>2026-04-26T17:56:00Z</time></trkpt><trkpt lat="45.05512149822318" lon="11.800193060529077"><ele>2.0</ele><time>2026-04-26T17:56:01Z</time></trkpt><trkpt lat="45.05541348986245" lon="11.800370495326126"><ele>2.0</ele><time>2026-04-26T17:56:02Z</time></trkpt><trkpt lat="45.05570404902909" lon="11.800554279196815"><ele>2.0</ele><time>2026-04-26T17:56:03Z</time></trkpt><trkpt lat="45.05601194561879" lon="11.80071667300139"><ele>3.0</ele><time>2026-04-26T17:56:04Z</time></trkpt><trkpt lat="45.05632332360082" lon="11.800839248693189"><ele>4.0</ele><time>2026-04-26T17:56:05Z</time></trkpt><trkpt lat="45.056657588559915" lon="11.800930625512335"><ele>3.0</ele><time>2026-04-26T17:56:06Z</time></trkpt><trkpt lat="45.056974536954854" lon="11.801000081549995"><ele>2.0</ele><time>2026-04-26T17:56:07Z</time></trkpt><trkpt lat="45.05726948020272" lon="11.801065938073872"><ele>2.0</ele><time>2026-04-26T17:56:08Z</time></trkpt><trkpt lat="45.057527691961226" lon="11.8011336392191"><ele>2.0</ele><time>2026-04-26T17:56:09Z</time></trkpt><trkpt lat="45.057781319514596" lon="11.80120360986305"><ele>2.0</ele><time>2026-04-26T17:56:10Z</time></trkpt><trkpt lat="45.05800520161247" lon="11.801287012723924"><ele>2.0</ele><time>2026-04-26T17:56:11Z</time></trkpt><trkpt lat="45.05822219642725" lon="11.8013563638998"><ele>2.0</ele><time>2026-04-26T17:56:12Z</time></trkpt><trkpt lat="45.058424832175696" lon="11.801448402171387"><ele>2.0</ele><time>2026-04-26T17:56:13Z</time></trkpt><trkpt lat="45.05862298101946" lon="11.801520357282815"><ele>2.0</ele><time>2026-04-26T17:56:14Z</time></trkpt><trkpt lat="45.05878645218378" lon="11.801603462838685"><ele>2.0</ele><time>2026-04-26T17:56:15Z</time></trkpt><trkpt lat="45.058957446595116" lon="11.801717290949671"><ele>2.0</ele><time>2026-04-26T17:56:16Z</time></trkpt><trkpt lat="45.05908617460747" lon="11.801825538307916"><ele>2.0</ele><time>2026-04-26T17:56:17Z</time></trkpt><trkpt lat="45.05922894074002" lon="11.80189156130598"><ele>2.2</ele><time>2026-04-26T17:56:18Z</time></trkpt><trkpt lat="45.05934718325196" lon="11.801950555295814"><ele>2.4000000000000004</ele><time>2026-04-26T17:56:19Z</time></trkpt><trkpt lat="45.05944516128626" lon="11.802024666763563"><ele>2.5999999999999996</ele><time>2026-04-26T17:56:20Z</time></trkpt><trkpt lat="45.0595216966372" lon="11.802121620873306"><ele>2.8</ele><time>2026-04-26T17:56:21Z</time></trkpt><trkpt lat="45.05957429686975" lon="11.80224041167582"><ele>3.0</ele><time>2026-04-26T17:56:22Z</time></trkpt><trkpt lat="45.05960288765932" lon="11.802378890480883"><ele>3.0</ele><time>2026-04-26T17:56:23Z</time></trkpt><trkpt lat="45.05961390579164" lon="11.80254199599758"><ele>3.0</ele><time>2026-04-26T17:56:24Z</time></trkpt><trkpt lat="45.05959649721956" lon="11.802708005913772"><ele>3.0</ele><time>2026-04-26T17:56:25Z</time></trkpt><trkpt lat="45.059578184153565" lon="11.802849126999185"><ele>3.0</ele><time>2026-04-26T17:56:26Z</time></trkpt><trkpt lat="45.059566566184245" lon="11.802986130343944"><ele>3.0</ele><time>2026-04-26T17:56:27Z</time></trkpt><trkpt lat="45.05956285600122" lon="11.803108026642207"><ele>2.8333333333333335</ele><time>2026-04-26T17:56:28Z</time></trkpt><trkpt lat="45.05960548284961" lon="11.80322312908126"><ele>2.6666666666666665</ele><time>2026-04-26T17:56:29Z</time></trkpt><trkpt lat="45.05968246460492" lon="11.803272153536074"><ele>2.5</ele><time>2026-04-26T17:56:30Z</time></trkpt><trkpt lat="45.05975953907685" lon="11.803301597692734"><ele>2.333333333333333</ele><time>2026-04-26T17:56:31Z</time></trkpt><trkpt lat="45.059851556654365" lon="11.803323980094124"><ele>2.1666666666666665</ele><time>2026-04-26T17:56:32Z</time></trkpt><trkpt lat="45.05993173537644" lon="11.803279963173035"><ele>2.0</ele><time>2026-04-26T17:56:33Z</time></trkpt><trkpt lat="45.0600400572766" lon="11.80322502991168"><ele>2.0</ele><time>2026-04-26T17:56:34Z</time></trkpt><trkpt lat="45.06011834478601" lon="11.803144256855788"><ele>2.0</ele><time>2026-04-26T17:56:35Z</time></trkpt><trkpt lat="45.060216164042" lon="11.803038687424227"><ele>2.0</ele><time>2026-04-26T17:56:36Z</time></trkpt><trkpt lat="45.06031144665921" lon="11.8029449360915"><ele>2.0</ele><time>2026-04-26T17:56:37Z</time></trkpt><trkpt lat="45.06037330232457" lon="11.80282755880374"><ele>2.0</ele><time>2026-04-26T17:56:38Z</time></trkpt><trkpt lat="45.060436627565785" lon="11.802694698788429"><ele>2.25</ele><time>2026-04-26T17:56:39Z</time></trkpt><trkpt lat="45.06048969686975" lon="11.80253933071113"><ele>2.5</ele><time>2026-04-26T17:56:40Z</time></trkpt><trkpt lat="45.06053978794232" lon="11.802386073755796"><ele>2.75</ele><time>2026-04-26T17:56:41Z</time></trkpt><trkpt lat="45.06058796348018" lon="11.802238494016382"><ele>3.0</ele><time>2026-04-26T17:56:42Z</time></trkpt><trkpt lat="45.06058358212273" lon="11.802064153735698"><ele>3.0</ele><time>2026-04-26T17:56:43Z</time></trkpt><trkpt lat="45.06059646125852" lon="11.801896280997994"><ele>3.0</ele><time>2026-04-26T17:56:44Z</time></trkpt><trkpt lat="45.06062212572678" lon="11.801732463515798"><ele>3.0</ele><time>2026-04-26T17:56:45Z</time></trkpt><trkpt lat="45.06065639453041" lon="11.801557778993438"><ele>3.0</ele><time>2026-04-26T17:56:46Z</time></trkpt><trkpt lat="45.060687413949296" lon="11.8013793908048"><ele>2.8</ele><time>2026-04-26T17:56:47Z</time></trkpt><trkpt lat="45.0607074636028" lon="11.801222156862899"><ele>2.5999999999999996</ele><time>2026-04-26T17:56:48Z</time></trkpt><trkpt lat="45.06073116286616" lon="11.801087520600188"><ele>2.4000000000000004</ele><time>2026-04-26T17:56:49Z</time></trkpt><trkpt lat="45.06075134013769" lon="11.800944545764565"><ele>2.2</ele><time>2026-04-26T17:56:50Z</time></trkpt><trkpt lat="45.060764315279265" lon="11.800826528594033"><ele>2.0</ele><time>2026-04-26T17:56:51Z</time></trkpt><trkpt lat="45.06078599933272" lon="11.800694324197558"><ele>2.333333333333333</ele><time>2026-04-26T17:56:52Z</time></trkpt><trkpt lat="45.06081084339968" lon="11.800590451823973"><ele>2.6666666666666665</ele><time>2026-04-26T17:56:53Z</time></trkpt><trkpt lat="45.060825473923906" lon="11.80048589771821"><ele>3.0</ele><time>2026-04-26T17:56:54Z</time></trkpt><trkpt lat="45.06084467996698" lon="11.800378927232092"><ele>3.333333333333333</ele><time>2026-04-26T17:56:55Z</time></trkpt><trkpt lat="45.06085904673479" lon="11.800267681265119"><ele>3.6666666666666665</ele><time>2026-04-26T17:56:56Z</time></trkpt><trkpt lat="45.06087462242736" lon="11.800155986718678"><ele>4.0</ele><time>2026-04-26T17:56:57Z</time></trkpt><trkpt lat="45.060890824066746" lon="11.800041680338817"><ele>5.0</ele><time>2026-04-26T17:56:58.001Z</time></trkpt><trkpt lat="45.06090131634525" lon="11.799934653647068"><ele>5.0</ele><time>2026-04-26T17:56:59.001Z</time></trkpt><trkpt lat="45.060915527827426" lon="11.799807830807238"><ele>5.0</ele><time>2026-04-26T17:57:01.001Z</time></trkpt><trkpt lat="45.06091556559388" lon="11.799695846788413"><ele>5.0</ele><time>2026-04-26T17:57:03.001Z</time></trkpt><trkpt lat="45.06091619276261" lon="11.799604725081863"><ele>5.0</ele><time>2026-04-26T17:57:05.001Z</time></trkpt><trkpt lat="45.0608690193678" lon="11.799543944025235"><ele>5.0</ele><time>2026-04-26T17:57:09.001Z</time></trkpt></trkseg></trk></gpx>